<?xml version="1.0" encoding="UTF-8" standalone="no" ?>
<gpx xmlns="http://www.topografix.com/GPX/1/1" xmlns:xsi="http://www.w3.org/2001/XMLSchema-instance" xsi:schemaLocation="http://www.topografix.com/GPX/1/1 http://www.topografix.com/GPX/1/1/gpx.xsd" version="1.1" creator="VisuGPX - https://www.visugpx.com">
  <metadata>
    <name>Roccafortis 2025 - 96 km</name>
  </metadata>
  <trk>
    <name><![CDATA[Roccafortis 2025 - 96 km]]></name>
    <trkseg>
      <trkpt lat="45.93116" lon="-0.96518">
        <ele>4.46</ele>
        <time>2025-05-07T12:13:43.000Z</time>
      </trkpt>
      <trkpt lat="45.93118" lon="-0.96525">
        <ele>4.44</ele>
        <time>2025-05-07T12:13:43.001Z</time>
      </trkpt>
      <trkpt lat="45.93118" lon="-0.96525">
        <ele>4.42</ele>
        <time>2025-05-07T12:13:43.002Z</time>
      </trkpt>
      <trkpt lat="45.93126" lon="-0.9654">
        <ele>4.36</ele>
        <time>2025-05-07T12:13:43.005Z</time>
      </trkpt>
      <trkpt lat="45.93126" lon="-0.96566">
        <ele>4.31</ele>
        <time>2025-05-07T12:13:43.011Z</time>
      </trkpt>
      <trkpt lat="45.93122" lon="-0.96572">
        <ele>4.28</ele>
        <time>2025-05-07T12:13:43.018Z</time>
      </trkpt>
      <trkpt lat="45.93122" lon="-0.96572">
        <ele>4.25</ele>
        <time>2025-05-07T12:13:43.025Z</time>
      </trkpt>
      <trkpt lat="45.93111" lon="-0.96581">
        <ele>4.25</ele>
        <time>2025-05-07T12:13:43.034Z</time>
      </trkpt>
      <trkpt lat="45.93105" lon="-0.96581">
        <ele>4.26</ele>
        <time>2025-05-07T12:13:43.044Z</time>
      </trkpt>
      <trkpt lat="45.93096" lon="-0.96579">
        <ele>4.28</ele>
        <time>2025-05-07T12:13:43.055Z</time>
      </trkpt>
      <trkpt lat="45.93088" lon="-0.96562">
        <ele>4.28</ele>
        <time>2025-05-07T12:13:43.069Z</time>
      </trkpt>
      <trkpt lat="45.93081" lon="-0.96555">
        <ele>4.26</ele>
        <time>2025-05-07T12:13:43.084Z</time>
      </trkpt>
      <trkpt lat="45.93073" lon="-0.96536">
        <ele>4.22</ele>
        <time>2025-05-07T12:13:43.101Z</time>
      </trkpt>
      <trkpt lat="45.93068" lon="-0.96527">
        <ele>4.17</ele>
        <time>2025-05-07T12:13:43.120Z</time>
      </trkpt>
      <trkpt lat="45.93068" lon="-0.96523">
        <ele>4.11</ele>
        <time>2025-05-07T12:13:43.139Z</time>
      </trkpt>
      <trkpt lat="45.93054" lon="-0.96503">
        <ele>3.96</ele>
        <time>2025-05-07T12:13:43.161Z</time>
      </trkpt>
      <trkpt lat="45.9304" lon="-0.96482">
        <ele>3.83</ele>
        <time>2025-05-07T12:13:43.186Z</time>
      </trkpt>
      <trkpt lat="45.93017" lon="-0.96466">
        <ele>3.64</ele>
        <time>2025-05-07T12:13:43.216Z</time>
      </trkpt>
      <trkpt lat="45.92993" lon="-0.9645">
        <ele>3.47</ele>
        <time>2025-05-07T12:13:43.250Z</time>
      </trkpt>
      <trkpt lat="45.92993" lon="-0.9645">
        <ele>3.32</ele>
        <time>2025-05-07T12:13:43.284Z</time>
      </trkpt>
      <trkpt lat="45.92987" lon="-0.96446">
        <ele>3.18</ele>
        <time>2025-05-07T12:13:43.319Z</time>
      </trkpt>
      <trkpt lat="45.92972" lon="-0.96438">
        <ele>3.1</ele>
        <time>2025-05-07T12:13:43.357Z</time>
      </trkpt>
      <trkpt lat="45.92957" lon="-0.96431">
        <ele>3.12</ele>
        <time>2025-05-07T12:13:43.397Z</time>
      </trkpt>
      <trkpt lat="45.92939" lon="-0.96429">
        <ele>3.04</ele>
        <time>2025-05-07T12:13:43.440Z</time>
      </trkpt>
      <trkpt lat="45.9292" lon="-0.96426">
        <ele>2.88</ele>
        <time>2025-05-07T12:13:43.486Z</time>
      </trkpt>
      <trkpt lat="45.92901" lon="-0.96432">
        <ele>2.63</ele>
        <time>2025-05-07T12:13:43.535Z</time>
      </trkpt>
      <trkpt lat="45.92882" lon="-0.96437">
        <ele>2.48</ele>
        <time>2025-05-07T12:13:43.587Z</time>
      </trkpt>
      <trkpt lat="45.92865" lon="-0.96448">
        <ele>2.4</ele>
        <time>2025-05-07T12:13:43.642Z</time>
      </trkpt>
      <trkpt lat="45.92847" lon="-0.96459">
        <ele>2.36</ele>
        <time>2025-05-07T12:13:43.700Z</time>
      </trkpt>
      <trkpt lat="45.92822" lon="-0.96481">
        <ele>2.32</ele>
        <time>2025-05-07T12:13:43.763Z</time>
      </trkpt>
      <trkpt lat="45.92797" lon="-0.96503">
        <ele>2.28</ele>
        <time>2025-05-07T12:13:43.831Z</time>
      </trkpt>
      <trkpt lat="45.92771" lon="-0.96526">
        <ele>2.31</ele>
        <time>2025-05-07T12:13:43.904Z</time>
      </trkpt>
      <trkpt lat="45.92746" lon="-0.96548">
        <ele>2.32</ele>
        <time>2025-05-07T12:13:43.981Z</time>
      </trkpt>
      <trkpt lat="45.92721" lon="-0.9657">
        <ele>2.31</ele>
        <time>2025-05-07T12:13:44.063Z</time>
      </trkpt>
      <trkpt lat="45.92695" lon="-0.96594">
        <ele>2.36</ele>
        <time>2025-05-07T12:13:44.150Z</time>
      </trkpt>
      <trkpt lat="45.92669" lon="-0.96618">
        <ele>2.43</ele>
        <time>2025-05-07T12:13:44.242Z</time>
      </trkpt>
      <trkpt lat="45.92643" lon="-0.96642">
        <ele>2.51</ele>
        <time>2025-05-07T12:13:44.339Z</time>
      </trkpt>
      <trkpt lat="45.92618" lon="-0.96666">
        <ele>2.63</ele>
        <time>2025-05-07T12:13:44.441Z</time>
      </trkpt>
      <trkpt lat="45.92592" lon="-0.9669">
        <ele>2.74</ele>
        <time>2025-05-07T12:13:44.548Z</time>
      </trkpt>
      <trkpt lat="45.92566" lon="-0.96714">
        <ele>2.73</ele>
        <time>2025-05-07T12:13:44.660Z</time>
      </trkpt>
      <trkpt lat="45.92541" lon="-0.96738">
        <ele>2.76</ele>
        <time>2025-05-07T12:13:44.776Z</time>
      </trkpt>
      <trkpt lat="45.92541" lon="-0.96738">
        <ele>2.8</ele>
        <time>2025-05-07T12:13:44.892Z</time>
      </trkpt>
      <trkpt lat="45.92519" lon="-0.96757">
        <ele>2.83</ele>
        <time>2025-05-07T12:13:45.012Z</time>
      </trkpt>
      <trkpt lat="45.92498" lon="-0.96777">
        <ele>2.89</ele>
        <time>2025-05-07T12:13:45.137Z</time>
      </trkpt>
      <trkpt lat="45.92476" lon="-0.96797">
        <ele>2.95</ele>
        <time>2025-05-07T12:13:45.266Z</time>
      </trkpt>
      <trkpt lat="45.92455" lon="-0.96817">
        <ele>2.98</ele>
        <time>2025-05-07T12:13:45.399Z</time>
      </trkpt>
      <trkpt lat="45.92433" lon="-0.96836">
        <ele>2.92</ele>
        <time>2025-05-07T12:13:45.536Z</time>
      </trkpt>
      <trkpt lat="45.92418" lon="-0.9686">
        <ele>2.9</ele>
        <time>2025-05-07T12:13:45.676Z</time>
      </trkpt>
      <trkpt lat="45.92418" lon="-0.96892">
        <ele>2.83</ele>
        <time>2025-05-07T12:13:45.820Z</time>
      </trkpt>
      <trkpt lat="45.92407" lon="-0.9692">
        <ele>2.84</ele>
        <time>2025-05-07T12:13:45.968Z</time>
      </trkpt>
      <trkpt lat="45.92388" lon="-0.96937">
        <ele>2.9</ele>
        <time>2025-05-07T12:13:46.119Z</time>
      </trkpt>
      <trkpt lat="45.92367" lon="-0.96937">
        <ele>2.99</ele>
        <time>2025-05-07T12:13:46.274Z</time>
      </trkpt>
      <trkpt lat="45.9235" lon="-0.96944">
        <ele>3.07</ele>
        <time>2025-05-07T12:13:46.431Z</time>
      </trkpt>
      <trkpt lat="45.92347" lon="-0.96937">
        <ele>3.11</ele>
        <time>2025-05-07T12:13:46.589Z</time>
      </trkpt>
      <trkpt lat="45.92341" lon="-0.96941">
        <ele>3.14</ele>
        <time>2025-05-07T12:13:46.748Z</time>
      </trkpt>
      <trkpt lat="45.92337" lon="-0.96937">
        <ele>3.15</ele>
        <time>2025-05-07T12:13:46.908Z</time>
      </trkpt>
      <trkpt lat="45.92337" lon="-0.96937">
        <ele>3.18</ele>
        <time>2025-05-07T12:13:47.068Z</time>
      </trkpt>
      <trkpt lat="45.9233" lon="-0.96933">
        <ele>3.2</ele>
        <time>2025-05-07T12:13:47.229Z</time>
      </trkpt>
      <trkpt lat="45.92311" lon="-0.96968">
        <ele>3.13</ele>
        <time>2025-05-07T12:13:47.395Z</time>
      </trkpt>
      <trkpt lat="45.92292" lon="-0.97003">
        <ele>3.1</ele>
        <time>2025-05-07T12:13:47.566Z</time>
      </trkpt>
      <trkpt lat="45.92272" lon="-0.97038">
        <ele>3.1</ele>
        <time>2025-05-07T12:13:47.742Z</time>
      </trkpt>
      <trkpt lat="45.92253" lon="-0.97072">
        <ele>3.13</ele>
        <time>2025-05-07T12:13:47.923Z</time>
      </trkpt>
      <trkpt lat="45.92242" lon="-0.97079">
        <ele>3.18</ele>
        <time>2025-05-07T12:13:48.106Z</time>
      </trkpt>
      <trkpt lat="45.92219" lon="-0.97079">
        <ele>3.24</ele>
        <time>2025-05-07T12:13:48.293Z</time>
      </trkpt>
      <trkpt lat="45.92208" lon="-0.9707">
        <ele>3.3</ele>
        <time>2025-05-07T12:13:48.482Z</time>
      </trkpt>
      <trkpt lat="45.92185" lon="-0.97043">
        <ele>3.35</ele>
        <time>2025-05-07T12:13:48.676Z</time>
      </trkpt>
      <trkpt lat="45.92163" lon="-0.97017">
        <ele>3.47</ele>
        <time>2025-05-07T12:13:48.874Z</time>
      </trkpt>
      <trkpt lat="45.92144" lon="-0.96996">
        <ele>3.59</ele>
        <time>2025-05-07T12:13:49.076Z</time>
      </trkpt>
      <trkpt lat="45.92125" lon="-0.96975">
        <ele>3.76</ele>
        <time>2025-05-07T12:13:49.282Z</time>
      </trkpt>
      <trkpt lat="45.92106" lon="-0.96954">
        <ele>3.89</ele>
        <time>2025-05-07T12:13:49.492Z</time>
      </trkpt>
      <trkpt lat="45.92088" lon="-0.96933">
        <ele>4.02</ele>
        <time>2025-05-07T12:13:49.705Z</time>
      </trkpt>
      <trkpt lat="45.92083" lon="-0.96937">
        <ele>4.15</ele>
        <time>2025-05-07T12:13:49.919Z</time>
      </trkpt>
      <trkpt lat="45.92059" lon="-0.96914">
        <ele>4.31</ele>
        <time>2025-05-07T12:13:50.138Z</time>
      </trkpt>
      <trkpt lat="45.92034" lon="-0.9689">
        <ele>4.53</ele>
        <time>2025-05-07T12:13:50.362Z</time>
      </trkpt>
      <trkpt lat="45.92009" lon="-0.96866">
        <ele>4.76</ele>
        <time>2025-05-07T12:13:50.591Z</time>
      </trkpt>
      <trkpt lat="45.91985" lon="-0.96843">
        <ele>5.09</ele>
        <time>2025-05-07T12:13:50.824Z</time>
      </trkpt>
      <trkpt lat="45.91963" lon="-0.96824">
        <ele>5.3</ele>
        <time>2025-05-07T12:13:51.061Z</time>
      </trkpt>
      <trkpt lat="45.9194" lon="-0.96806">
        <ele>5.38</ele>
        <time>2025-05-07T12:13:51.303Z</time>
      </trkpt>
      <trkpt lat="45.91918" lon="-0.96787">
        <ele>5.49</ele>
        <time>2025-05-07T12:13:51.549Z</time>
      </trkpt>
      <trkpt lat="45.91893" lon="-0.96769">
        <ele>5.6</ele>
        <time>2025-05-07T12:13:51.799Z</time>
      </trkpt>
      <trkpt lat="45.91868" lon="-0.96752">
        <ele>5.79</ele>
        <time>2025-05-07T12:13:52.054Z</time>
      </trkpt>
      <trkpt lat="45.91844" lon="-0.96734">
        <ele>5.98</ele>
        <time>2025-05-07T12:13:52.313Z</time>
      </trkpt>
      <trkpt lat="45.91819" lon="-0.96717">
        <ele>6.18</ele>
        <time>2025-05-07T12:13:52.576Z</time>
      </trkpt>
      <trkpt lat="45.91794" lon="-0.96699">
        <ele>6.32</ele>
        <time>2025-05-07T12:13:52.844Z</time>
      </trkpt>
      <trkpt lat="45.91767" lon="-0.96685">
        <ele>6.48</ele>
        <time>2025-05-07T12:13:53.116Z</time>
      </trkpt>
      <trkpt lat="45.91741" lon="-0.96671">
        <ele>6.7</ele>
        <time>2025-05-07T12:13:53.393Z</time>
      </trkpt>
      <trkpt lat="45.91715" lon="-0.96657">
        <ele>6.94</ele>
        <time>2025-05-07T12:13:53.674Z</time>
      </trkpt>
      <trkpt lat="45.91689" lon="-0.96643">
        <ele>7.28</ele>
        <time>2025-05-07T12:13:53.960Z</time>
      </trkpt>
      <trkpt lat="45.91661" lon="-0.9663">
        <ele>7.8</ele>
        <time>2025-05-07T12:13:54.250Z</time>
      </trkpt>
      <trkpt lat="45.91633" lon="-0.96617">
        <ele>8.36</ele>
        <time>2025-05-07T12:13:54.545Z</time>
      </trkpt>
      <trkpt lat="45.91605" lon="-0.96605">
        <ele>8.68</ele>
        <time>2025-05-07T12:13:54.845Z</time>
      </trkpt>
      <trkpt lat="45.91589" lon="-0.96598">
        <ele>8.85</ele>
        <time>2025-05-07T12:13:55.148Z</time>
      </trkpt>
      <trkpt lat="45.91573" lon="-0.96592">
        <ele>9.07</ele>
        <time>2025-05-07T12:13:55.453Z</time>
      </trkpt>
      <trkpt lat="45.91573" lon="-0.96592">
        <ele>9.4</ele>
        <time>2025-05-07T12:13:55.758Z</time>
      </trkpt>
      <trkpt lat="45.91549" lon="-0.96583">
        <ele>9.84</ele>
        <time>2025-05-07T12:13:56.067Z</time>
      </trkpt>
      <trkpt lat="45.91525" lon="-0.96575">
        <ele>10.3</ele>
        <time>2025-05-07T12:13:56.380Z</time>
      </trkpt>
      <trkpt lat="45.915" lon="-0.96566">
        <ele>10.69</ele>
        <time>2025-05-07T12:13:56.697Z</time>
      </trkpt>
      <trkpt lat="45.91476" lon="-0.96557">
        <ele>10.99</ele>
        <time>2025-05-07T12:13:57.018Z</time>
      </trkpt>
      <trkpt lat="45.91448" lon="-0.9655">
        <ele>11.31</ele>
        <time>2025-05-07T12:13:57.344Z</time>
      </trkpt>
      <trkpt lat="45.91419" lon="-0.96543">
        <ele>11.81</ele>
        <time>2025-05-07T12:13:57.674Z</time>
      </trkpt>
      <trkpt lat="45.9139" lon="-0.96536">
        <ele>12.16</ele>
        <time>2025-05-07T12:13:58.009Z</time>
      </trkpt>
      <trkpt lat="45.91364" lon="-0.96532">
        <ele>12.43</ele>
        <time>2025-05-07T12:13:58.348Z</time>
      </trkpt>
      <trkpt lat="45.91338" lon="-0.96527">
        <ele>12.69</ele>
        <time>2025-05-07T12:13:58.692Z</time>
      </trkpt>
      <trkpt lat="45.91312" lon="-0.96523">
        <ele>12.9</ele>
        <time>2025-05-07T12:13:59.040Z</time>
      </trkpt>
      <trkpt lat="45.91285" lon="-0.96519">
        <ele>13.08</ele>
        <time>2025-05-07T12:13:59.392Z</time>
      </trkpt>
      <trkpt lat="45.91257" lon="-0.96517">
        <ele>13.22</ele>
        <time>2025-05-07T12:13:59.748Z</time>
      </trkpt>
      <trkpt lat="45.91229" lon="-0.96514">
        <ele>13.35</ele>
        <time>2025-05-07T12:14:00.109Z</time>
      </trkpt>
      <trkpt lat="45.91202" lon="-0.96512">
        <ele>13.44</ele>
        <time>2025-05-07T12:14:00.474Z</time>
      </trkpt>
      <trkpt lat="45.91173" lon="-0.96513">
        <ele>13.5</ele>
        <time>2025-05-07T12:14:00.844Z</time>
      </trkpt>
      <trkpt lat="45.91145" lon="-0.96514">
        <ele>13.53</ele>
        <time>2025-05-07T12:14:01.218Z</time>
      </trkpt>
      <trkpt lat="45.91117" lon="-0.96515">
        <ele>13.52</ele>
        <time>2025-05-07T12:14:01.597Z</time>
      </trkpt>
      <trkpt lat="45.91088" lon="-0.96516">
        <ele>13.44</ele>
        <time>2025-05-07T12:14:01.981Z</time>
      </trkpt>
      <trkpt lat="45.9106" lon="-0.96517">
        <ele>13.34</ele>
        <time>2025-05-07T12:14:02.369Z</time>
      </trkpt>
      <trkpt lat="45.91053" lon="-0.96512">
        <ele>13.26</ele>
        <time>2025-05-07T12:14:02.758Z</time>
      </trkpt>
      <trkpt lat="45.91049" lon="-0.96497">
        <ele>13.14</ele>
        <time>2025-05-07T12:14:03.149Z</time>
      </trkpt>
      <trkpt lat="45.91049" lon="-0.96491">
        <ele>13.01</ele>
        <time>2025-05-07T12:14:03.541Z</time>
      </trkpt>
      <trkpt lat="45.9106" lon="-0.9648">
        <ele>12.86</ele>
        <time>2025-05-07T12:14:03.935Z</time>
      </trkpt>
      <trkpt lat="45.91056" lon="-0.96465">
        <ele>12.68</ele>
        <time>2025-05-07T12:14:04.331Z</time>
      </trkpt>
      <trkpt lat="45.91045" lon="-0.96438">
        <ele>12.51</ele>
        <time>2025-05-07T12:14:04.730Z</time>
      </trkpt>
      <trkpt lat="45.91034" lon="-0.96411">
        <ele>12.39</ele>
        <time>2025-05-07T12:14:05.133Z</time>
      </trkpt>
      <trkpt lat="45.9103" lon="-0.96399">
        <ele>12.24</ele>
        <time>2025-05-07T12:14:05.537Z</time>
      </trkpt>
      <trkpt lat="45.91027" lon="-0.96376">
        <ele>12.09</ele>
        <time>2025-05-07T12:14:05.944Z</time>
      </trkpt>
      <trkpt lat="45.91023" lon="-0.96354">
        <ele>11.94</ele>
        <time>2025-05-07T12:14:06.353Z</time>
      </trkpt>
      <trkpt lat="45.91017" lon="-0.96322">
        <ele>11.76</ele>
        <time>2025-05-07T12:14:06.766Z</time>
      </trkpt>
      <trkpt lat="45.91011" lon="-0.96291">
        <ele>11.58</ele>
        <time>2025-05-07T12:14:07.183Z</time>
      </trkpt>
      <trkpt lat="45.91007" lon="-0.96268">
        <ele>11.39</ele>
        <time>2025-05-07T12:14:07.602Z</time>
      </trkpt>
      <trkpt lat="45.91004" lon="-0.96244">
        <ele>11.2</ele>
        <time>2025-05-07T12:14:08.024Z</time>
      </trkpt>
      <trkpt lat="45.91" lon="-0.96212">
        <ele>11.03</ele>
        <time>2025-05-07T12:14:08.450Z</time>
      </trkpt>
      <trkpt lat="45.90996" lon="-0.9618">
        <ele>10.85</ele>
        <time>2025-05-07T12:14:08.879Z</time>
      </trkpt>
      <trkpt lat="45.90991" lon="-0.96152">
        <ele>10.68</ele>
        <time>2025-05-07T12:14:09.311Z</time>
      </trkpt>
      <trkpt lat="45.90989" lon="-0.96127">
        <ele>10.5</ele>
        <time>2025-05-07T12:14:09.746Z</time>
      </trkpt>
      <trkpt lat="45.90987" lon="-0.96102">
        <ele>10.3</ele>
        <time>2025-05-07T12:14:10.184Z</time>
      </trkpt>
      <trkpt lat="45.90991" lon="-0.96075">
        <ele>10.09</ele>
        <time>2025-05-07T12:14:10.625Z</time>
      </trkpt>
      <trkpt lat="45.90976" lon="-0.96068">
        <ele>9.92</ele>
        <time>2025-05-07T12:14:11.069Z</time>
      </trkpt>
      <trkpt lat="45.90967" lon="-0.96046">
        <ele>9.77</ele>
        <time>2025-05-07T12:14:11.516Z</time>
      </trkpt>
      <trkpt lat="45.90957" lon="-0.96023">
        <ele>9.64</ele>
        <time>2025-05-07T12:14:11.966Z</time>
      </trkpt>
      <trkpt lat="45.90939" lon="-0.95998">
        <ele>9.5</ele>
        <time>2025-05-07T12:14:12.420Z</time>
      </trkpt>
      <trkpt lat="45.9092" lon="-0.95974">
        <ele>9.4</ele>
        <time>2025-05-07T12:14:12.878Z</time>
      </trkpt>
      <trkpt lat="45.90914" lon="-0.95959">
        <ele>9.28</ele>
        <time>2025-05-07T12:14:13.338Z</time>
      </trkpt>
      <trkpt lat="45.90897" lon="-0.95952">
        <ele>9.15</ele>
        <time>2025-05-07T12:14:13.800Z</time>
      </trkpt>
      <trkpt lat="45.90893" lon="-0.95937">
        <ele>9.08</ele>
        <time>2025-05-07T12:14:14.264Z</time>
      </trkpt>
      <trkpt lat="45.90876" lon="-0.95917">
        <ele>9.03</ele>
        <time>2025-05-07T12:14:14.732Z</time>
      </trkpt>
      <trkpt lat="45.9086" lon="-0.95896">
        <ele>9.03</ele>
        <time>2025-05-07T12:14:15.203Z</time>
      </trkpt>
      <trkpt lat="45.9085" lon="-0.95869">
        <ele>9.05</ele>
        <time>2025-05-07T12:14:15.678Z</time>
      </trkpt>
      <trkpt lat="45.90847" lon="-0.95843">
        <ele>9.11</ele>
        <time>2025-05-07T12:14:16.156Z</time>
      </trkpt>
      <trkpt lat="45.90847" lon="-0.95804">
        <ele>9.16</ele>
        <time>2025-05-07T12:14:16.638Z</time>
      </trkpt>
      <trkpt lat="45.90847" lon="-0.95766">
        <ele>9.3</ele>
        <time>2025-05-07T12:14:17.124Z</time>
      </trkpt>
      <trkpt lat="45.90845" lon="-0.95742">
        <ele>9.4</ele>
        <time>2025-05-07T12:14:17.613Z</time>
      </trkpt>
      <trkpt lat="45.90843" lon="-0.95705">
        <ele>9.49</ele>
        <time>2025-05-07T12:14:18.106Z</time>
      </trkpt>
      <trkpt lat="45.90841" lon="-0.95669">
        <ele>9.59</ele>
        <time>2025-05-07T12:14:18.603Z</time>
      </trkpt>
      <trkpt lat="45.90839" lon="-0.95632">
        <ele>9.67</ele>
        <time>2025-05-07T12:14:19.104Z</time>
      </trkpt>
      <trkpt lat="45.90837" lon="-0.95596">
        <ele>9.83</ele>
        <time>2025-05-07T12:14:19.609Z</time>
      </trkpt>
      <trkpt lat="45.90837" lon="-0.95577">
        <ele>9.98</ele>
        <time>2025-05-07T12:14:20.116Z</time>
      </trkpt>
      <trkpt lat="45.90837" lon="-0.95577">
        <ele>10.13</ele>
        <time>2025-05-07T12:14:20.623Z</time>
      </trkpt>
      <trkpt lat="45.90838" lon="-0.95547">
        <ele>10.3</ele>
        <time>2025-05-07T12:14:21.134Z</time>
      </trkpt>
      <trkpt lat="45.90839" lon="-0.95517">
        <ele>10.42</ele>
        <time>2025-05-07T12:14:21.648Z</time>
      </trkpt>
      <trkpt lat="45.90842" lon="-0.95489">
        <ele>10.63</ele>
        <time>2025-05-07T12:14:22.165Z</time>
      </trkpt>
      <trkpt lat="45.90845" lon="-0.95461">
        <ele>10.81</ele>
        <time>2025-05-07T12:14:22.685Z</time>
      </trkpt>
      <trkpt lat="45.90854" lon="-0.95418">
        <ele>11.01</ele>
        <time>2025-05-07T12:14:23.210Z</time>
      </trkpt>
      <trkpt lat="45.90863" lon="-0.95375">
        <ele>11.23</ele>
        <time>2025-05-07T12:14:23.741Z</time>
      </trkpt>
      <trkpt lat="45.90872" lon="-0.95332">
        <ele>11.39</ele>
        <time>2025-05-07T12:14:24.277Z</time>
      </trkpt>
      <trkpt lat="45.90881" lon="-0.95289">
        <ele>11.57</ele>
        <time>2025-05-07T12:14:24.818Z</time>
      </trkpt>
      <trkpt lat="45.9089" lon="-0.95246">
        <ele>11.8</ele>
        <time>2025-05-07T12:14:25.364Z</time>
      </trkpt>
      <trkpt lat="45.90899" lon="-0.95203">
        <ele>12.03</ele>
        <time>2025-05-07T12:14:25.914Z</time>
      </trkpt>
      <trkpt lat="45.90907" lon="-0.9518">
        <ele>12.23</ele>
        <time>2025-05-07T12:14:26.467Z</time>
      </trkpt>
      <trkpt lat="45.90914" lon="-0.95156">
        <ele>12.41</ele>
        <time>2025-05-07T12:14:27.023Z</time>
      </trkpt>
      <trkpt lat="45.90923" lon="-0.95115">
        <ele>12.55</ele>
        <time>2025-05-07T12:14:27.584Z</time>
      </trkpt>
      <trkpt lat="45.90923" lon="-0.95073">
        <ele>12.71</ele>
        <time>2025-05-07T12:14:28.150Z</time>
      </trkpt>
      <trkpt lat="45.90916" lon="-0.95042">
        <ele>12.88</ele>
        <time>2025-05-07T12:14:28.719Z</time>
      </trkpt>
      <trkpt lat="45.9091" lon="-0.95012">
        <ele>13.04</ele>
        <time>2025-05-07T12:14:29.292Z</time>
      </trkpt>
      <trkpt lat="45.9091" lon="-0.95012">
        <ele>13.2</ele>
        <time>2025-05-07T12:14:29.865Z</time>
      </trkpt>
      <trkpt lat="45.90905" lon="-0.9499">
        <ele>13.39</ele>
        <time>2025-05-07T12:14:30.440Z</time>
      </trkpt>
      <trkpt lat="45.90901" lon="-0.94967">
        <ele>13.57</ele>
        <time>2025-05-07T12:14:31.018Z</time>
      </trkpt>
      <trkpt lat="45.90899" lon="-0.94935">
        <ele>13.73</ele>
        <time>2025-05-07T12:14:31.600Z</time>
      </trkpt>
      <trkpt lat="45.90903" lon="-0.94892">
        <ele>13.86</ele>
        <time>2025-05-07T12:14:32.187Z</time>
      </trkpt>
      <trkpt lat="45.90913" lon="-0.94863">
        <ele>13.98</ele>
        <time>2025-05-07T12:14:32.777Z</time>
      </trkpt>
      <trkpt lat="45.90922" lon="-0.94833">
        <ele>14.06</ele>
        <time>2025-05-07T12:14:33.371Z</time>
      </trkpt>
      <trkpt lat="45.90931" lon="-0.94804">
        <ele>14.13</ele>
        <time>2025-05-07T12:14:33.968Z</time>
      </trkpt>
      <trkpt lat="45.90935" lon="-0.94774">
        <ele>14.22</ele>
        <time>2025-05-07T12:14:34.569Z</time>
      </trkpt>
      <trkpt lat="45.90938" lon="-0.94733">
        <ele>14.33</ele>
        <time>2025-05-07T12:14:35.174Z</time>
      </trkpt>
      <trkpt lat="45.90935" lon="-0.94706">
        <ele>14.39</ele>
        <time>2025-05-07T12:14:35.782Z</time>
      </trkpt>
      <trkpt lat="45.90929" lon="-0.94668">
        <ele>14.43</ele>
        <time>2025-05-07T12:14:36.395Z</time>
      </trkpt>
      <trkpt lat="45.90923" lon="-0.94631">
        <ele>14.44</ele>
        <time>2025-05-07T12:14:37.012Z</time>
      </trkpt>
      <trkpt lat="45.90916" lon="-0.94594">
        <ele>14.45</ele>
        <time>2025-05-07T12:14:37.633Z</time>
      </trkpt>
      <trkpt lat="45.90914" lon="-0.94558">
        <ele>14.46</ele>
        <time>2025-05-07T12:14:38.258Z</time>
      </trkpt>
      <trkpt lat="45.90912" lon="-0.94538">
        <ele>14.46</ele>
        <time>2025-05-07T12:14:38.886Z</time>
      </trkpt>
      <trkpt lat="45.90899" lon="-0.94525">
        <ele>14.44</ele>
        <time>2025-05-07T12:14:39.516Z</time>
      </trkpt>
      <trkpt lat="45.90897" lon="-0.94525">
        <ele>14.42</ele>
        <time>2025-05-07T12:14:40.146Z</time>
      </trkpt>
      <trkpt lat="45.90886" lon="-0.94515">
        <ele>14.4</ele>
        <time>2025-05-07T12:14:40.779Z</time>
      </trkpt>
      <trkpt lat="45.90886" lon="-0.94502">
        <ele>14.35</ele>
        <time>2025-05-07T12:14:41.413Z</time>
      </trkpt>
      <trkpt lat="45.90893" lon="-0.94493">
        <ele>14.27</ele>
        <time>2025-05-07T12:14:42.048Z</time>
      </trkpt>
      <trkpt lat="45.90899" lon="-0.94459">
        <ele>14.18</ele>
        <time>2025-05-07T12:14:42.687Z</time>
      </trkpt>
      <trkpt lat="45.90897" lon="-0.94427">
        <ele>14.13</ele>
        <time>2025-05-07T12:14:43.330Z</time>
      </trkpt>
      <trkpt lat="45.90895" lon="-0.94394">
        <ele>14.02</ele>
        <time>2025-05-07T12:14:43.977Z</time>
      </trkpt>
      <trkpt lat="45.90893" lon="-0.94362">
        <ele>13.88</ele>
        <time>2025-05-07T12:14:44.627Z</time>
      </trkpt>
      <trkpt lat="45.90886" lon="-0.94319">
        <ele>13.71</ele>
        <time>2025-05-07T12:14:45.282Z</time>
      </trkpt>
      <trkpt lat="45.90879" lon="-0.94276">
        <ele>13.51</ele>
        <time>2025-05-07T12:14:45.942Z</time>
      </trkpt>
      <trkpt lat="45.90872" lon="-0.94233">
        <ele>13.34</ele>
        <time>2025-05-07T12:14:46.607Z</time>
      </trkpt>
      <trkpt lat="45.90865" lon="-0.94191">
        <ele>13.16</ele>
        <time>2025-05-07T12:14:47.277Z</time>
      </trkpt>
      <trkpt lat="45.90861" lon="-0.94147">
        <ele>12.96</ele>
        <time>2025-05-07T12:14:47.952Z</time>
      </trkpt>
      <trkpt lat="45.90857" lon="-0.94103">
        <ele>12.74</ele>
        <time>2025-05-07T12:14:48.632Z</time>
      </trkpt>
      <trkpt lat="45.90854" lon="-0.9406">
        <ele>12.5</ele>
        <time>2025-05-07T12:14:49.317Z</time>
      </trkpt>
      <trkpt lat="45.90847" lon="-0.94018">
        <ele>12.25</ele>
        <time>2025-05-07T12:14:50.006Z</time>
      </trkpt>
      <trkpt lat="45.90841" lon="-0.93976">
        <ele>12</ele>
        <time>2025-05-07T12:14:50.700Z</time>
      </trkpt>
      <trkpt lat="45.90837" lon="-0.9395">
        <ele>11.74</ele>
        <time>2025-05-07T12:14:51.397Z</time>
      </trkpt>
      <trkpt lat="45.90832" lon="-0.93929">
        <ele>11.46</ele>
        <time>2025-05-07T12:14:52.097Z</time>
      </trkpt>
      <trkpt lat="45.90823" lon="-0.93891">
        <ele>11.18</ele>
        <time>2025-05-07T12:14:52.801Z</time>
      </trkpt>
      <trkpt lat="45.90813" lon="-0.93852">
        <ele>10.87</ele>
        <time>2025-05-07T12:14:53.510Z</time>
      </trkpt>
      <trkpt lat="45.90803" lon="-0.93814">
        <ele>10.55</ele>
        <time>2025-05-07T12:14:54.223Z</time>
      </trkpt>
      <trkpt lat="45.90794" lon="-0.93776">
        <ele>10.24</ele>
        <time>2025-05-07T12:14:54.941Z</time>
      </trkpt>
      <trkpt lat="45.90785" lon="-0.93757">
        <ele>9.93</ele>
        <time>2025-05-07T12:14:55.661Z</time>
      </trkpt>
      <trkpt lat="45.9077" lon="-0.93727">
        <ele>9.59</ele>
        <time>2025-05-07T12:14:56.385Z</time>
      </trkpt>
      <trkpt lat="45.90755" lon="-0.93696">
        <ele>9.21</ele>
        <time>2025-05-07T12:14:57.114Z</time>
      </trkpt>
      <trkpt lat="45.9074" lon="-0.93665">
        <ele>8.8</ele>
        <time>2025-05-07T12:14:57.847Z</time>
      </trkpt>
      <trkpt lat="45.90725" lon="-0.93635">
        <ele>8.37</ele>
        <time>2025-05-07T12:14:58.584Z</time>
      </trkpt>
      <trkpt lat="45.90714" lon="-0.93598">
        <ele>7.96</ele>
        <time>2025-05-07T12:14:59.326Z</time>
      </trkpt>
      <trkpt lat="45.90702" lon="-0.9356">
        <ele>7.62</ele>
        <time>2025-05-07T12:15:00.072Z</time>
      </trkpt>
      <trkpt lat="45.90691" lon="-0.93523">
        <ele>7.21</ele>
        <time>2025-05-07T12:15:00.823Z</time>
      </trkpt>
      <trkpt lat="45.90683" lon="-0.93482">
        <ele>6.81</ele>
        <time>2025-05-07T12:15:01.578Z</time>
      </trkpt>
      <trkpt lat="45.90676" lon="-0.93442">
        <ele>6.48</ele>
        <time>2025-05-07T12:15:02.338Z</time>
      </trkpt>
      <trkpt lat="45.90667" lon="-0.9341">
        <ele>6.11</ele>
        <time>2025-05-07T12:15:03.102Z</time>
      </trkpt>
      <trkpt lat="45.9065" lon="-0.93374">
        <ele>5.79</ele>
        <time>2025-05-07T12:15:03.871Z</time>
      </trkpt>
      <trkpt lat="45.90632" lon="-0.93339">
        <ele>5.44</ele>
        <time>2025-05-07T12:15:04.645Z</time>
      </trkpt>
      <trkpt lat="45.90614" lon="-0.93303">
        <ele>4.99</ele>
        <time>2025-05-07T12:15:05.424Z</time>
      </trkpt>
      <trkpt lat="45.90596" lon="-0.93268">
        <ele>4.64</ele>
        <time>2025-05-07T12:15:06.207Z</time>
      </trkpt>
      <trkpt lat="45.90586" lon="-0.93236">
        <ele>4.3</ele>
        <time>2025-05-07T12:15:06.994Z</time>
      </trkpt>
      <trkpt lat="45.90579" lon="-0.93199">
        <ele>3.86</ele>
        <time>2025-05-07T12:15:07.786Z</time>
      </trkpt>
      <trkpt lat="45.90576" lon="-0.93166">
        <ele>3.45</ele>
        <time>2025-05-07T12:15:08.581Z</time>
      </trkpt>
      <trkpt lat="45.90573" lon="-0.93133">
        <ele>3.19</ele>
        <time>2025-05-07T12:15:09.380Z</time>
      </trkpt>
      <trkpt lat="45.90569" lon="-0.93098">
        <ele>3</ele>
        <time>2025-05-07T12:15:10.183Z</time>
      </trkpt>
      <trkpt lat="45.90562" lon="-0.93073">
        <ele>2.78</ele>
        <time>2025-05-07T12:15:10.989Z</time>
      </trkpt>
      <trkpt lat="45.90556" lon="-0.93047">
        <ele>2.57</ele>
        <time>2025-05-07T12:15:11.798Z</time>
      </trkpt>
      <trkpt lat="45.90546" lon="-0.93023">
        <ele>2.42</ele>
        <time>2025-05-07T12:15:12.610Z</time>
      </trkpt>
      <trkpt lat="45.90536" lon="-0.93">
        <ele>2.28</ele>
        <time>2025-05-07T12:15:13.425Z</time>
      </trkpt>
      <trkpt lat="45.90526" lon="-0.92975">
        <ele>2.18</ele>
        <time>2025-05-07T12:15:14.243Z</time>
      </trkpt>
      <trkpt lat="45.90515" lon="-0.9295">
        <ele>2.13</ele>
        <time>2025-05-07T12:15:15.065Z</time>
      </trkpt>
      <trkpt lat="45.90504" lon="-0.92931">
        <ele>2.07</ele>
        <time>2025-05-07T12:15:15.889Z</time>
      </trkpt>
      <trkpt lat="45.90502" lon="-0.92927">
        <ele>2.07</ele>
        <time>2025-05-07T12:15:16.714Z</time>
      </trkpt>
      <trkpt lat="45.90487" lon="-0.92892">
        <ele>2.07</ele>
        <time>2025-05-07T12:15:17.544Z</time>
      </trkpt>
      <trkpt lat="45.90485" lon="-0.9289">
        <ele>2.16</ele>
        <time>2025-05-07T12:15:18.374Z</time>
      </trkpt>
      <trkpt lat="45.90481" lon="-0.92882">
        <ele>2.29</ele>
        <time>2025-05-07T12:15:19.205Z</time>
      </trkpt>
      <trkpt lat="45.90465" lon="-0.92851">
        <ele>2.49</ele>
        <time>2025-05-07T12:15:20.040Z</time>
      </trkpt>
      <trkpt lat="45.90449" lon="-0.9282">
        <ele>2.7</ele>
        <time>2025-05-07T12:15:20.880Z</time>
      </trkpt>
      <trkpt lat="45.90434" lon="-0.9279">
        <ele>2.91</ele>
        <time>2025-05-07T12:15:21.724Z</time>
      </trkpt>
      <trkpt lat="45.90418" lon="-0.92759">
        <ele>3.17</ele>
        <time>2025-05-07T12:15:22.572Z</time>
      </trkpt>
      <trkpt lat="45.90412" lon="-0.92749">
        <ele>3.5</ele>
        <time>2025-05-07T12:15:23.422Z</time>
      </trkpt>
      <trkpt lat="45.90412" lon="-0.92749">
        <ele>3.84</ele>
        <time>2025-05-07T12:15:24.272Z</time>
      </trkpt>
      <trkpt lat="45.90397" lon="-0.92722">
        <ele>4.26</ele>
        <time>2025-05-07T12:15:25.125Z</time>
      </trkpt>
      <trkpt lat="45.90382" lon="-0.92695">
        <ele>4.72</ele>
        <time>2025-05-07T12:15:25.982Z</time>
      </trkpt>
      <trkpt lat="45.90371" lon="-0.92674">
        <ele>5.19</ele>
        <time>2025-05-07T12:15:26.842Z</time>
      </trkpt>
      <trkpt lat="45.90367" lon="-0.92665">
        <ele>5.65</ele>
        <time>2025-05-07T12:15:27.703Z</time>
      </trkpt>
      <trkpt lat="45.9035" lon="-0.92633">
        <ele>6.09</ele>
        <time>2025-05-07T12:15:28.569Z</time>
      </trkpt>
      <trkpt lat="45.90333" lon="-0.92601">
        <ele>6.57</ele>
        <time>2025-05-07T12:15:29.440Z</time>
      </trkpt>
      <trkpt lat="45.90322" lon="-0.92582">
        <ele>7.08</ele>
        <time>2025-05-07T12:15:30.313Z</time>
      </trkpt>
      <trkpt lat="45.90311" lon="-0.92564">
        <ele>7.61</ele>
        <time>2025-05-07T12:15:31.189Z</time>
      </trkpt>
      <trkpt lat="45.90299" lon="-0.92548">
        <ele>8.12</ele>
        <time>2025-05-07T12:15:32.067Z</time>
      </trkpt>
      <trkpt lat="45.90287" lon="-0.92532">
        <ele>8.63</ele>
        <time>2025-05-07T12:15:32.948Z</time>
      </trkpt>
      <trkpt lat="45.9027" lon="-0.92506">
        <ele>9.17</ele>
        <time>2025-05-07T12:15:33.833Z</time>
      </trkpt>
      <trkpt lat="45.90253" lon="-0.9248">
        <ele>9.66</ele>
        <time>2025-05-07T12:15:34.722Z</time>
      </trkpt>
      <trkpt lat="45.90236" lon="-0.92455">
        <ele>10.11</ele>
        <time>2025-05-07T12:15:35.615Z</time>
      </trkpt>
      <trkpt lat="45.90221" lon="-0.92417">
        <ele>10.56</ele>
        <time>2025-05-07T12:15:36.513Z</time>
      </trkpt>
      <trkpt lat="45.90206" lon="-0.9238">
        <ele>11.01</ele>
        <time>2025-05-07T12:15:37.416Z</time>
      </trkpt>
      <trkpt lat="45.90206" lon="-0.9238">
        <ele>11.41</ele>
        <time>2025-05-07T12:15:38.319Z</time>
      </trkpt>
      <trkpt lat="45.90194" lon="-0.92351">
        <ele>11.77</ele>
        <time>2025-05-07T12:15:39.225Z</time>
      </trkpt>
      <trkpt lat="45.90182" lon="-0.92322">
        <ele>12.14</ele>
        <time>2025-05-07T12:15:40.135Z</time>
      </trkpt>
      <trkpt lat="45.90169" lon="-0.92287">
        <ele>12.5</ele>
        <time>2025-05-07T12:15:41.050Z</time>
      </trkpt>
      <trkpt lat="45.90165" lon="-0.92277">
        <ele>12.81</ele>
        <time>2025-05-07T12:15:41.966Z</time>
      </trkpt>
      <trkpt lat="45.90157" lon="-0.92249">
        <ele>13.1</ele>
        <time>2025-05-07T12:15:42.885Z</time>
      </trkpt>
      <trkpt lat="45.90154" lon="-0.92227">
        <ele>13.36</ele>
        <time>2025-05-07T12:15:43.807Z</time>
      </trkpt>
      <trkpt lat="45.90159" lon="-0.92199">
        <ele>13.56</ele>
        <time>2025-05-07T12:15:44.732Z</time>
      </trkpt>
      <trkpt lat="45.90164" lon="-0.92178">
        <ele>13.73</ele>
        <time>2025-05-07T12:15:45.659Z</time>
      </trkpt>
      <trkpt lat="45.90164" lon="-0.92178">
        <ele>13.88</ele>
        <time>2025-05-07T12:15:46.586Z</time>
      </trkpt>
      <trkpt lat="45.90171" lon="-0.92147">
        <ele>14</ele>
        <time>2025-05-07T12:15:47.517Z</time>
      </trkpt>
      <trkpt lat="45.90179" lon="-0.92116">
        <ele>14.07</ele>
        <time>2025-05-07T12:15:48.452Z</time>
      </trkpt>
      <trkpt lat="45.90187" lon="-0.92086">
        <ele>14.16</ele>
        <time>2025-05-07T12:15:49.390Z</time>
      </trkpt>
      <trkpt lat="45.90187" lon="-0.92086">
        <ele>14.18</ele>
        <time>2025-05-07T12:15:50.328Z</time>
      </trkpt>
      <trkpt lat="45.90189" lon="-0.92053">
        <ele>14.19</ele>
        <time>2025-05-07T12:15:51.270Z</time>
      </trkpt>
      <trkpt lat="45.90189" lon="-0.92032">
        <ele>14.19</ele>
        <time>2025-05-07T12:15:52.214Z</time>
      </trkpt>
      <trkpt lat="45.9018" lon="-0.91994">
        <ele>14.1</ele>
        <time>2025-05-07T12:15:53.163Z</time>
      </trkpt>
      <trkpt lat="45.90172" lon="-0.91957">
        <ele>13.99</ele>
        <time>2025-05-07T12:15:54.116Z</time>
      </trkpt>
      <trkpt lat="45.90163" lon="-0.91925">
        <ele>13.86</ele>
        <time>2025-05-07T12:15:55.073Z</time>
      </trkpt>
      <trkpt lat="45.90154" lon="-0.91892">
        <ele>13.75</ele>
        <time>2025-05-07T12:15:56.034Z</time>
      </trkpt>
      <trkpt lat="45.90149" lon="-0.91863">
        <ele>13.64</ele>
        <time>2025-05-07T12:15:56.998Z</time>
      </trkpt>
      <trkpt lat="45.90144" lon="-0.91835">
        <ele>13.52</ele>
        <time>2025-05-07T12:15:57.966Z</time>
      </trkpt>
      <trkpt lat="45.90136" lon="-0.91799">
        <ele>13.36</ele>
        <time>2025-05-07T12:15:58.938Z</time>
      </trkpt>
      <trkpt lat="45.90129" lon="-0.91764">
        <ele>13.23</ele>
        <time>2025-05-07T12:15:59.914Z</time>
      </trkpt>
      <trkpt lat="45.90121" lon="-0.91727">
        <ele>13.09</ele>
        <time>2025-05-07T12:16:00.894Z</time>
      </trkpt>
      <trkpt lat="45.90114" lon="-0.91691">
        <ele>12.95</ele>
        <time>2025-05-07T12:16:01.878Z</time>
      </trkpt>
      <trkpt lat="45.90102" lon="-0.91661">
        <ele>12.82</ele>
        <time>2025-05-07T12:16:02.866Z</time>
      </trkpt>
      <trkpt lat="45.90091" lon="-0.91632">
        <ele>12.69</ele>
        <time>2025-05-07T12:16:03.858Z</time>
      </trkpt>
      <trkpt lat="45.90079" lon="-0.91603">
        <ele>12.57</ele>
        <time>2025-05-07T12:16:04.854Z</time>
      </trkpt>
      <trkpt lat="45.90073" lon="-0.91572">
        <ele>12.47</ele>
        <time>2025-05-07T12:16:05.853Z</time>
      </trkpt>
      <trkpt lat="45.90066" lon="-0.91541">
        <ele>12.38</ele>
        <time>2025-05-07T12:16:06.856Z</time>
      </trkpt>
      <trkpt lat="45.90066" lon="-0.91541">
        <ele>12.37</ele>
        <time>2025-05-07T12:16:07.859Z</time>
      </trkpt>
      <trkpt lat="45.90064" lon="-0.91498">
        <ele>12.43</ele>
        <time>2025-05-07T12:16:08.867Z</time>
      </trkpt>
      <trkpt lat="45.90066" lon="-0.91465">
        <ele>12.49</ele>
        <time>2025-05-07T12:16:09.878Z</time>
      </trkpt>
      <trkpt lat="45.90074" lon="-0.91428">
        <ele>12.59</ele>
        <time>2025-05-07T12:16:10.894Z</time>
      </trkpt>
      <trkpt lat="45.90081" lon="-0.9139">
        <ele>12.76</ele>
        <time>2025-05-07T12:16:11.914Z</time>
      </trkpt>
      <trkpt lat="45.90086" lon="-0.91367">
        <ele>12.92</ele>
        <time>2025-05-07T12:16:12.937Z</time>
      </trkpt>
      <trkpt lat="45.90079" lon="-0.91354">
        <ele>13.13</ele>
        <time>2025-05-07T12:16:13.962Z</time>
      </trkpt>
      <trkpt lat="45.90056" lon="-0.91337">
        <ele>13.41</ele>
        <time>2025-05-07T12:16:14.991Z</time>
      </trkpt>
      <trkpt lat="45.90049" lon="-0.91334">
        <ele>13.69</ele>
        <time>2025-05-07T12:16:16.021Z</time>
      </trkpt>
      <trkpt lat="45.90049" lon="-0.91334">
        <ele>13.99</ele>
        <time>2025-05-07T12:16:17.051Z</time>
      </trkpt>
      <trkpt lat="45.90032" lon="-0.91327">
        <ele>14.31</ele>
        <time>2025-05-07T12:16:18.084Z</time>
      </trkpt>
      <trkpt lat="45.90014" lon="-0.91316">
        <ele>14.68</ele>
        <time>2025-05-07T12:16:19.120Z</time>
      </trkpt>
      <trkpt lat="45.90004" lon="-0.91307">
        <ele>15.09</ele>
        <time>2025-05-07T12:16:20.158Z</time>
      </trkpt>
      <trkpt lat="45.89984" lon="-0.91285">
        <ele>15.55</ele>
        <time>2025-05-07T12:16:21.200Z</time>
      </trkpt>
      <trkpt lat="45.8997" lon="-0.91261">
        <ele>16.06</ele>
        <time>2025-05-07T12:16:22.245Z</time>
      </trkpt>
      <trkpt lat="45.89962" lon="-0.91245">
        <ele>16.54</ele>
        <time>2025-05-07T12:16:23.293Z</time>
      </trkpt>
      <trkpt lat="45.89957" lon="-0.91233">
        <ele>17.04</ele>
        <time>2025-05-07T12:16:24.342Z</time>
      </trkpt>
      <trkpt lat="45.89949" lon="-0.91206">
        <ele>17.55</ele>
        <time>2025-05-07T12:16:25.394Z</time>
      </trkpt>
      <trkpt lat="45.89942" lon="-0.9118">
        <ele>18.1</ele>
        <time>2025-05-07T12:16:26.449Z</time>
      </trkpt>
      <trkpt lat="45.8993" lon="-0.91143">
        <ele>18.68</ele>
        <time>2025-05-07T12:16:27.509Z</time>
      </trkpt>
      <trkpt lat="45.89916" lon="-0.91106">
        <ele>19.25</ele>
        <time>2025-05-07T12:16:28.574Z</time>
      </trkpt>
      <trkpt lat="45.89902" lon="-0.9107">
        <ele>19.87</ele>
        <time>2025-05-07T12:16:29.643Z</time>
      </trkpt>
      <trkpt lat="45.89888" lon="-0.91033">
        <ele>20.45</ele>
        <time>2025-05-07T12:16:30.717Z</time>
      </trkpt>
      <trkpt lat="45.89874" lon="-0.90997">
        <ele>20.97</ele>
        <time>2025-05-07T12:16:31.796Z</time>
      </trkpt>
      <trkpt lat="45.8986" lon="-0.9096">
        <ele>21.42</ele>
        <time>2025-05-07T12:16:32.879Z</time>
      </trkpt>
      <trkpt lat="45.89847" lon="-0.90923">
        <ele>21.9</ele>
        <time>2025-05-07T12:16:33.967Z</time>
      </trkpt>
      <trkpt lat="45.89833" lon="-0.90887">
        <ele>22.36</ele>
        <time>2025-05-07T12:16:35.060Z</time>
      </trkpt>
      <trkpt lat="45.89819" lon="-0.9085">
        <ele>22.8</ele>
        <time>2025-05-07T12:16:36.157Z</time>
      </trkpt>
      <trkpt lat="45.89805" lon="-0.90814">
        <ele>23.17</ele>
        <time>2025-05-07T12:16:37.259Z</time>
      </trkpt>
      <trkpt lat="45.89788" lon="-0.90787">
        <ele>23.54</ele>
        <time>2025-05-07T12:16:38.365Z</time>
      </trkpt>
      <trkpt lat="45.89787" lon="-0.90778">
        <ele>23.86</ele>
        <time>2025-05-07T12:16:39.472Z</time>
      </trkpt>
      <trkpt lat="45.89787" lon="-0.90768">
        <ele>24.16</ele>
        <time>2025-05-07T12:16:40.580Z</time>
      </trkpt>
      <trkpt lat="45.89788" lon="-0.90762">
        <ele>24.43</ele>
        <time>2025-05-07T12:16:41.689Z</time>
      </trkpt>
      <trkpt lat="45.89791" lon="-0.90758">
        <ele>24.66</ele>
        <time>2025-05-07T12:16:42.798Z</time>
      </trkpt>
      <trkpt lat="45.89802" lon="-0.90746">
        <ele>24.85</ele>
        <time>2025-05-07T12:16:43.910Z</time>
      </trkpt>
      <trkpt lat="45.89812" lon="-0.90736">
        <ele>25.02</ele>
        <time>2025-05-07T12:16:45.024Z</time>
      </trkpt>
      <trkpt lat="45.89816" lon="-0.90726">
        <ele>25.15</ele>
        <time>2025-05-07T12:16:46.139Z</time>
      </trkpt>
      <trkpt lat="45.89818" lon="-0.90715">
        <ele>25.26</ele>
        <time>2025-05-07T12:16:47.255Z</time>
      </trkpt>
      <trkpt lat="45.89816" lon="-0.90704">
        <ele>25.35</ele>
        <time>2025-05-07T12:16:48.372Z</time>
      </trkpt>
      <trkpt lat="45.89811" lon="-0.90691">
        <ele>25.43</ele>
        <time>2025-05-07T12:16:49.491Z</time>
      </trkpt>
      <trkpt lat="45.89793" lon="-0.9066">
        <ele>25.52</ele>
        <time>2025-05-07T12:16:50.615Z</time>
      </trkpt>
      <trkpt lat="45.89775" lon="-0.9063">
        <ele>25.57</ele>
        <time>2025-05-07T12:16:51.743Z</time>
      </trkpt>
      <trkpt lat="45.89757" lon="-0.90599">
        <ele>25.61</ele>
        <time>2025-05-07T12:16:52.875Z</time>
      </trkpt>
      <trkpt lat="45.89739" lon="-0.90569">
        <ele>25.65</ele>
        <time>2025-05-07T12:16:54.012Z</time>
      </trkpt>
      <trkpt lat="45.89727" lon="-0.90551">
        <ele>25.61</ele>
        <time>2025-05-07T12:16:55.152Z</time>
      </trkpt>
      <trkpt lat="45.89716" lon="-0.90538">
        <ele>25.54</ele>
        <time>2025-05-07T12:16:56.294Z</time>
      </trkpt>
      <trkpt lat="45.89702" lon="-0.90527">
        <ele>25.46</ele>
        <time>2025-05-07T12:16:57.439Z</time>
      </trkpt>
      <trkpt lat="45.89687" lon="-0.90518">
        <ele>25.35</ele>
        <time>2025-05-07T12:16:58.586Z</time>
      </trkpt>
      <trkpt lat="45.89668" lon="-0.9051">
        <ele>25.23</ele>
        <time>2025-05-07T12:16:59.736Z</time>
      </trkpt>
      <trkpt lat="45.89649" lon="-0.90502">
        <ele>25.1</ele>
        <time>2025-05-07T12:17:00.889Z</time>
      </trkpt>
      <trkpt lat="45.89637" lon="-0.90495">
        <ele>25.01</ele>
        <time>2025-05-07T12:17:02.045Z</time>
      </trkpt>
      <trkpt lat="45.89625" lon="-0.90482">
        <ele>24.92</ele>
        <time>2025-05-07T12:17:03.203Z</time>
      </trkpt>
      <trkpt lat="45.89613" lon="-0.90465">
        <ele>24.82</ele>
        <time>2025-05-07T12:17:04.364Z</time>
      </trkpt>
      <trkpt lat="45.89601" lon="-0.90448">
        <ele>24.7</ele>
        <time>2025-05-07T12:17:05.527Z</time>
      </trkpt>
      <trkpt lat="45.89589" lon="-0.9043">
        <ele>24.56</ele>
        <time>2025-05-07T12:17:06.693Z</time>
      </trkpt>
      <trkpt lat="45.89577" lon="-0.90412">
        <ele>24.42</ele>
        <time>2025-05-07T12:17:07.862Z</time>
      </trkpt>
      <trkpt lat="45.89559" lon="-0.9039">
        <ele>24.28</ele>
        <time>2025-05-07T12:17:09.035Z</time>
      </trkpt>
      <trkpt lat="45.89538" lon="-0.90372">
        <ele>24.15</ele>
        <time>2025-05-07T12:17:10.212Z</time>
      </trkpt>
      <trkpt lat="45.89518" lon="-0.90353">
        <ele>23.99</ele>
        <time>2025-05-07T12:17:11.392Z</time>
      </trkpt>
      <trkpt lat="45.89497" lon="-0.90335">
        <ele>23.84</ele>
        <time>2025-05-07T12:17:12.576Z</time>
      </trkpt>
      <trkpt lat="45.89477" lon="-0.90317">
        <ele>23.69</ele>
        <time>2025-05-07T12:17:13.764Z</time>
      </trkpt>
      <trkpt lat="45.89451" lon="-0.90295">
        <ele>23.58</ele>
        <time>2025-05-07T12:17:14.957Z</time>
      </trkpt>
      <trkpt lat="45.89424" lon="-0.90273">
        <ele>23.45</ele>
        <time>2025-05-07T12:17:16.155Z</time>
      </trkpt>
      <trkpt lat="45.89398" lon="-0.9025">
        <ele>23.33</ele>
        <time>2025-05-07T12:17:17.358Z</time>
      </trkpt>
      <trkpt lat="45.89371" lon="-0.90228">
        <ele>23.29</ele>
        <time>2025-05-07T12:17:18.566Z</time>
      </trkpt>
      <trkpt lat="45.89345" lon="-0.90206">
        <ele>23.21</ele>
        <time>2025-05-07T12:17:19.779Z</time>
      </trkpt>
      <trkpt lat="45.89318" lon="-0.90184">
        <ele>23.18</ele>
        <time>2025-05-07T12:17:20.997Z</time>
      </trkpt>
      <trkpt lat="45.89292" lon="-0.90162">
        <ele>23.13</ele>
        <time>2025-05-07T12:17:22.220Z</time>
      </trkpt>
      <trkpt lat="45.89265" lon="-0.90139">
        <ele>23.04</ele>
        <time>2025-05-07T12:17:23.447Z</time>
      </trkpt>
      <trkpt lat="45.89239" lon="-0.90117">
        <ele>22.94</ele>
        <time>2025-05-07T12:17:24.679Z</time>
      </trkpt>
      <trkpt lat="45.89213" lon="-0.90095">
        <ele>22.9</ele>
        <time>2025-05-07T12:17:25.916Z</time>
      </trkpt>
      <trkpt lat="45.89186" lon="-0.90073">
        <ele>22.8</ele>
        <time>2025-05-07T12:17:27.158Z</time>
      </trkpt>
      <trkpt lat="45.8916" lon="-0.90051">
        <ele>22.78</ele>
        <time>2025-05-07T12:17:28.405Z</time>
      </trkpt>
      <trkpt lat="45.89133" lon="-0.90029">
        <ele>22.78</ele>
        <time>2025-05-07T12:17:29.657Z</time>
      </trkpt>
      <trkpt lat="45.89107" lon="-0.90006">
        <ele>22.8</ele>
        <time>2025-05-07T12:17:30.914Z</time>
      </trkpt>
      <trkpt lat="45.8908" lon="-0.89984">
        <ele>22.84</ele>
        <time>2025-05-07T12:17:32.176Z</time>
      </trkpt>
      <trkpt lat="45.89054" lon="-0.89962">
        <ele>22.8</ele>
        <time>2025-05-07T12:17:33.443Z</time>
      </trkpt>
      <trkpt lat="45.89028" lon="-0.89941">
        <ele>22.77</ele>
        <time>2025-05-07T12:17:34.714Z</time>
      </trkpt>
      <trkpt lat="45.89003" lon="-0.8992">
        <ele>22.74</ele>
        <time>2025-05-07T12:17:35.990Z</time>
      </trkpt>
      <trkpt lat="45.88977" lon="-0.89899">
        <ele>22.71</ele>
        <time>2025-05-07T12:17:37.271Z</time>
      </trkpt>
      <trkpt lat="45.88952" lon="-0.89878">
        <ele>22.6</ele>
        <time>2025-05-07T12:17:38.557Z</time>
      </trkpt>
      <trkpt lat="45.88926" lon="-0.89857">
        <ele>22.49</ele>
        <time>2025-05-07T12:17:39.847Z</time>
      </trkpt>
      <trkpt lat="45.88901" lon="-0.89836">
        <ele>22.41</ele>
        <time>2025-05-07T12:17:41.142Z</time>
      </trkpt>
      <trkpt lat="45.88875" lon="-0.89815">
        <ele>22.33</ele>
        <time>2025-05-07T12:17:42.442Z</time>
      </trkpt>
      <trkpt lat="45.88855" lon="-0.89795">
        <ele>22.18</ele>
        <time>2025-05-07T12:17:43.746Z</time>
      </trkpt>
      <trkpt lat="45.88834" lon="-0.89776">
        <ele>22</ele>
        <time>2025-05-07T12:17:45.053Z</time>
      </trkpt>
      <trkpt lat="45.88814" lon="-0.89756">
        <ele>21.81</ele>
        <time>2025-05-07T12:17:46.364Z</time>
      </trkpt>
      <trkpt lat="45.88794" lon="-0.89737">
        <ele>21.63</ele>
        <time>2025-05-07T12:17:47.679Z</time>
      </trkpt>
      <trkpt lat="45.8878" lon="-0.89721">
        <ele>21.43</ele>
        <time>2025-05-07T12:17:48.997Z</time>
      </trkpt>
      <trkpt lat="45.88775" lon="-0.89711">
        <ele>21.22</ele>
        <time>2025-05-07T12:17:50.317Z</time>
      </trkpt>
      <trkpt lat="45.88772" lon="-0.89702">
        <ele>20.99</ele>
        <time>2025-05-07T12:17:51.638Z</time>
      </trkpt>
      <trkpt lat="45.8877" lon="-0.89684">
        <ele>20.78</ele>
        <time>2025-05-07T12:17:52.961Z</time>
      </trkpt>
      <trkpt lat="45.88764" lon="-0.89684">
        <ele>20.49</ele>
        <time>2025-05-07T12:17:54.285Z</time>
      </trkpt>
      <trkpt lat="45.88758" lon="-0.8968">
        <ele>20.19</ele>
        <time>2025-05-07T12:17:55.610Z</time>
      </trkpt>
      <trkpt lat="45.88754" lon="-0.89674">
        <ele>19.85</ele>
        <time>2025-05-07T12:17:56.936Z</time>
      </trkpt>
      <trkpt lat="45.88752" lon="-0.89665">
        <ele>19.49</ele>
        <time>2025-05-07T12:17:58.263Z</time>
      </trkpt>
      <trkpt lat="45.88722" lon="-0.89663">
        <ele>19.04</ele>
        <time>2025-05-07T12:17:59.595Z</time>
      </trkpt>
      <trkpt lat="45.88691" lon="-0.89661">
        <ele>18.6</ele>
        <time>2025-05-07T12:18:00.931Z</time>
      </trkpt>
      <trkpt lat="45.88666" lon="-0.89662">
        <ele>18.18</ele>
        <time>2025-05-07T12:18:02.272Z</time>
      </trkpt>
      <trkpt lat="45.8864" lon="-0.89664">
        <ele>17.73</ele>
        <time>2025-05-07T12:18:03.617Z</time>
      </trkpt>
      <trkpt lat="45.88609" lon="-0.89667">
        <ele>17.25</ele>
        <time>2025-05-07T12:18:04.967Z</time>
      </trkpt>
      <trkpt lat="45.88577" lon="-0.89669">
        <ele>16.78</ele>
        <time>2025-05-07T12:18:06.322Z</time>
      </trkpt>
      <trkpt lat="45.88546" lon="-0.89672">
        <ele>16.3</ele>
        <time>2025-05-07T12:18:07.682Z</time>
      </trkpt>
      <trkpt lat="45.88517" lon="-0.89675">
        <ele>15.89</ele>
        <time>2025-05-07T12:18:09.046Z</time>
      </trkpt>
      <trkpt lat="45.88487" lon="-0.89678">
        <ele>15.52</ele>
        <time>2025-05-07T12:18:10.415Z</time>
      </trkpt>
      <trkpt lat="45.88458" lon="-0.89681">
        <ele>15.17</ele>
        <time>2025-05-07T12:18:11.789Z</time>
      </trkpt>
      <trkpt lat="45.88428" lon="-0.89684">
        <ele>14.78</ele>
        <time>2025-05-07T12:18:13.168Z</time>
      </trkpt>
      <trkpt lat="45.88407" lon="-0.89686">
        <ele>14.39</ele>
        <time>2025-05-07T12:18:14.550Z</time>
      </trkpt>
      <trkpt lat="45.88383" lon="-0.89688">
        <ele>14.03</ele>
        <time>2025-05-07T12:18:15.936Z</time>
      </trkpt>
      <trkpt lat="45.88359" lon="-0.89689">
        <ele>13.69</ele>
        <time>2025-05-07T12:18:17.326Z</time>
      </trkpt>
      <trkpt lat="45.88335" lon="-0.89691">
        <ele>13.39</ele>
        <time>2025-05-07T12:18:18.720Z</time>
      </trkpt>
      <trkpt lat="45.88311" lon="-0.89693">
        <ele>13.06</ele>
        <time>2025-05-07T12:18:20.117Z</time>
      </trkpt>
      <trkpt lat="45.88288" lon="-0.89695">
        <ele>12.7</ele>
        <time>2025-05-07T12:18:21.518Z</time>
      </trkpt>
      <trkpt lat="45.88279" lon="-0.89696">
        <ele>12.39</ele>
        <time>2025-05-07T12:18:22.921Z</time>
      </trkpt>
      <trkpt lat="45.88276" lon="-0.89696">
        <ele>12.1</ele>
        <time>2025-05-07T12:18:24.324Z</time>
      </trkpt>
      <trkpt lat="45.88251" lon="-0.89698">
        <ele>11.8</ele>
        <time>2025-05-07T12:18:25.731Z</time>
      </trkpt>
      <trkpt lat="45.88225" lon="-0.89701">
        <ele>11.52</ele>
        <time>2025-05-07T12:18:27.142Z</time>
      </trkpt>
      <trkpt lat="45.882" lon="-0.89703">
        <ele>11.27</ele>
        <time>2025-05-07T12:18:28.557Z</time>
      </trkpt>
      <trkpt lat="45.88182" lon="-0.89703">
        <ele>11.05</ele>
        <time>2025-05-07T12:18:29.975Z</time>
      </trkpt>
      <trkpt lat="45.88159" lon="-0.89702">
        <ele>10.85</ele>
        <time>2025-05-07T12:18:31.397Z</time>
      </trkpt>
      <trkpt lat="45.88142" lon="-0.897">
        <ele>10.68</ele>
        <time>2025-05-07T12:18:32.822Z</time>
      </trkpt>
      <trkpt lat="45.88123" lon="-0.89695">
        <ele>10.51</ele>
        <time>2025-05-07T12:18:34.250Z</time>
      </trkpt>
      <trkpt lat="45.88108" lon="-0.8969">
        <ele>10.42</ele>
        <time>2025-05-07T12:18:35.680Z</time>
      </trkpt>
      <trkpt lat="45.88083" lon="-0.89682">
        <ele>10.35</ele>
        <time>2025-05-07T12:18:37.114Z</time>
      </trkpt>
      <trkpt lat="45.88057" lon="-0.89674">
        <ele>10.37</ele>
        <time>2025-05-07T12:18:38.552Z</time>
      </trkpt>
      <trkpt lat="45.88049" lon="-0.89672">
        <ele>10.41</ele>
        <time>2025-05-07T12:18:39.992Z</time>
      </trkpt>
      <trkpt lat="45.8802" lon="-0.89664">
        <ele>10.48</ele>
        <time>2025-05-07T12:18:41.436Z</time>
      </trkpt>
      <trkpt lat="45.88002" lon="-0.89661">
        <ele>10.61</ele>
        <time>2025-05-07T12:18:42.883Z</time>
      </trkpt>
      <trkpt lat="45.87975" lon="-0.89657">
        <ele>10.77</ele>
        <time>2025-05-07T12:18:44.335Z</time>
      </trkpt>
      <trkpt lat="45.87947" lon="-0.89654">
        <ele>10.96</ele>
        <time>2025-05-07T12:18:45.791Z</time>
      </trkpt>
      <trkpt lat="45.8792" lon="-0.8965">
        <ele>11.13</ele>
        <time>2025-05-07T12:18:47.252Z</time>
      </trkpt>
      <trkpt lat="45.87892" lon="-0.89647">
        <ele>11.38</ele>
        <time>2025-05-07T12:18:48.717Z</time>
      </trkpt>
      <trkpt lat="45.87865" lon="-0.89643">
        <ele>11.62</ele>
        <time>2025-05-07T12:18:50.186Z</time>
      </trkpt>
      <trkpt lat="45.87842" lon="-0.89641">
        <ele>11.8</ele>
        <time>2025-05-07T12:18:51.659Z</time>
      </trkpt>
      <trkpt lat="45.87824" lon="-0.89641">
        <ele>11.97</ele>
        <time>2025-05-07T12:18:53.135Z</time>
      </trkpt>
      <trkpt lat="45.87805" lon="-0.89643">
        <ele>12.15</ele>
        <time>2025-05-07T12:18:54.614Z</time>
      </trkpt>
      <trkpt lat="45.87786" lon="-0.89645">
        <ele>12.32</ele>
        <time>2025-05-07T12:18:56.096Z</time>
      </trkpt>
      <trkpt lat="45.87768" lon="-0.8965">
        <ele>12.45</ele>
        <time>2025-05-07T12:18:57.581Z</time>
      </trkpt>
      <trkpt lat="45.8775" lon="-0.89655">
        <ele>12.61</ele>
        <time>2025-05-07T12:18:59.069Z</time>
      </trkpt>
      <trkpt lat="45.87729" lon="-0.89662">
        <ele>12.79</ele>
        <time>2025-05-07T12:19:00.560Z</time>
      </trkpt>
      <trkpt lat="45.87708" lon="-0.89671">
        <ele>12.92</ele>
        <time>2025-05-07T12:19:02.055Z</time>
      </trkpt>
      <trkpt lat="45.87682" lon="-0.89686">
        <ele>13.07</ele>
        <time>2025-05-07T12:19:03.554Z</time>
      </trkpt>
      <trkpt lat="45.87656" lon="-0.89701">
        <ele>13.22</ele>
        <time>2025-05-07T12:19:05.058Z</time>
      </trkpt>
      <trkpt lat="45.8763" lon="-0.89716">
        <ele>13.34</ele>
        <time>2025-05-07T12:19:06.566Z</time>
      </trkpt>
      <trkpt lat="45.87608" lon="-0.89726">
        <ele>13.48</ele>
        <time>2025-05-07T12:19:08.078Z</time>
      </trkpt>
      <trkpt lat="45.87588" lon="-0.89731">
        <ele>13.62</ele>
        <time>2025-05-07T12:19:09.593Z</time>
      </trkpt>
      <trkpt lat="45.87567" lon="-0.89735">
        <ele>13.75</ele>
        <time>2025-05-07T12:19:11.112Z</time>
      </trkpt>
      <trkpt lat="45.87542" lon="-0.89736">
        <ele>13.88</ele>
        <time>2025-05-07T12:19:12.635Z</time>
      </trkpt>
      <trkpt lat="45.87518" lon="-0.89737">
        <ele>14.04</ele>
        <time>2025-05-07T12:19:14.162Z</time>
      </trkpt>
      <trkpt lat="45.87493" lon="-0.89738">
        <ele>14.23</ele>
        <time>2025-05-07T12:19:15.693Z</time>
      </trkpt>
      <trkpt lat="45.87488" lon="-0.89738">
        <ele>14.43</ele>
        <time>2025-05-07T12:19:17.224Z</time>
      </trkpt>
      <trkpt lat="45.87461" lon="-0.89739">
        <ele>14.63</ele>
        <time>2025-05-07T12:19:18.760Z</time>
      </trkpt>
      <trkpt lat="45.87433" lon="-0.8974">
        <ele>14.86</ele>
        <time>2025-05-07T12:19:20.300Z</time>
      </trkpt>
      <trkpt lat="45.87406" lon="-0.89742">
        <ele>15.12</ele>
        <time>2025-05-07T12:19:21.844Z</time>
      </trkpt>
      <trkpt lat="45.87378" lon="-0.89743">
        <ele>15.38</ele>
        <time>2025-05-07T12:19:23.393Z</time>
      </trkpt>
      <trkpt lat="45.87351" lon="-0.89744">
        <ele>15.65</ele>
        <time>2025-05-07T12:19:24.946Z</time>
      </trkpt>
      <trkpt lat="45.87323" lon="-0.89745">
        <ele>15.94</ele>
        <time>2025-05-07T12:19:26.504Z</time>
      </trkpt>
      <trkpt lat="45.87295" lon="-0.89747">
        <ele>16.26</ele>
        <time>2025-05-07T12:19:28.066Z</time>
      </trkpt>
      <trkpt lat="45.87268" lon="-0.89748">
        <ele>16.63</ele>
        <time>2025-05-07T12:19:29.633Z</time>
      </trkpt>
      <trkpt lat="45.8724" lon="-0.8975">
        <ele>16.97</ele>
        <time>2025-05-07T12:19:31.204Z</time>
      </trkpt>
      <trkpt lat="45.87212" lon="-0.89751">
        <ele>17.35</ele>
        <time>2025-05-07T12:19:32.780Z</time>
      </trkpt>
      <trkpt lat="45.87192" lon="-0.89751">
        <ele>17.69</ele>
        <time>2025-05-07T12:19:34.359Z</time>
      </trkpt>
      <trkpt lat="45.87172" lon="-0.89751">
        <ele>18.08</ele>
        <time>2025-05-07T12:19:35.941Z</time>
      </trkpt>
      <trkpt lat="45.87154" lon="-0.89749">
        <ele>18.48</ele>
        <time>2025-05-07T12:19:37.526Z</time>
      </trkpt>
      <trkpt lat="45.87136" lon="-0.89748">
        <ele>18.87</ele>
        <time>2025-05-07T12:19:39.114Z</time>
      </trkpt>
      <trkpt lat="45.87114" lon="-0.89745">
        <ele>19.22</ele>
        <time>2025-05-07T12:19:40.705Z</time>
      </trkpt>
      <trkpt lat="45.8709" lon="-0.8974">
        <ele>19.56</ele>
        <time>2025-05-07T12:19:42.300Z</time>
      </trkpt>
      <trkpt lat="45.87066" lon="-0.89736">
        <ele>19.89</ele>
        <time>2025-05-07T12:19:43.899Z</time>
      </trkpt>
      <trkpt lat="45.87042" lon="-0.89731">
        <ele>20.24</ele>
        <time>2025-05-07T12:19:45.502Z</time>
      </trkpt>
      <trkpt lat="45.87012" lon="-0.89727">
        <ele>20.55</ele>
        <time>2025-05-07T12:19:47.110Z</time>
      </trkpt>
      <trkpt lat="45.86983" lon="-0.89725">
        <ele>20.81</ele>
        <time>2025-05-07T12:19:48.722Z</time>
      </trkpt>
      <trkpt lat="45.86955" lon="-0.89728">
        <ele>21.02</ele>
        <time>2025-05-07T12:19:50.339Z</time>
      </trkpt>
      <trkpt lat="45.86931" lon="-0.8973">
        <ele>21.28</ele>
        <time>2025-05-07T12:19:51.960Z</time>
      </trkpt>
      <trkpt lat="45.86907" lon="-0.89732">
        <ele>21.47</ele>
        <time>2025-05-07T12:19:53.584Z</time>
      </trkpt>
      <trkpt lat="45.86883" lon="-0.89735">
        <ele>21.64</ele>
        <time>2025-05-07T12:19:55.212Z</time>
      </trkpt>
      <trkpt lat="45.86859" lon="-0.89737">
        <ele>21.85</ele>
        <time>2025-05-07T12:19:56.844Z</time>
      </trkpt>
      <trkpt lat="45.8684" lon="-0.89737">
        <ele>22.06</ele>
        <time>2025-05-07T12:19:58.479Z</time>
      </trkpt>
      <trkpt lat="45.86821" lon="-0.89738">
        <ele>22.18</ele>
        <time>2025-05-07T12:20:00.117Z</time>
      </trkpt>
      <trkpt lat="45.86805" lon="-0.89737">
        <ele>22.2</ele>
        <time>2025-05-07T12:20:01.758Z</time>
      </trkpt>
      <trkpt lat="45.86787" lon="-0.89734">
        <ele>22.17</ele>
        <time>2025-05-07T12:20:03.402Z</time>
      </trkpt>
      <trkpt lat="45.86768" lon="-0.89731">
        <ele>22.08</ele>
        <time>2025-05-07T12:20:05.049Z</time>
      </trkpt>
      <trkpt lat="45.86743" lon="-0.89726">
        <ele>21.96</ele>
        <time>2025-05-07T12:20:06.700Z</time>
      </trkpt>
      <trkpt lat="45.86718" lon="-0.89721">
        <ele>21.81</ele>
        <time>2025-05-07T12:20:08.355Z</time>
      </trkpt>
      <trkpt lat="45.86693" lon="-0.89715">
        <ele>21.63</ele>
        <time>2025-05-07T12:20:10.014Z</time>
      </trkpt>
      <trkpt lat="45.86668" lon="-0.8971">
        <ele>21.42</ele>
        <time>2025-05-07T12:20:11.677Z</time>
      </trkpt>
      <trkpt lat="45.86648" lon="-0.89703">
        <ele>21.22</ele>
        <time>2025-05-07T12:20:13.343Z</time>
      </trkpt>
      <trkpt lat="45.86639" lon="-0.89699">
        <ele>20.92</ele>
        <time>2025-05-07T12:20:15.011Z</time>
      </trkpt>
      <trkpt lat="45.86623" lon="-0.89688">
        <ele>20.59</ele>
        <time>2025-05-07T12:20:16.682Z</time>
      </trkpt>
      <trkpt lat="45.86608" lon="-0.89674">
        <ele>20.2</ele>
        <time>2025-05-07T12:20:18.355Z</time>
      </trkpt>
      <trkpt lat="45.86594" lon="-0.8966">
        <ele>19.78</ele>
        <time>2025-05-07T12:20:20.031Z</time>
      </trkpt>
      <trkpt lat="45.8657" lon="-0.89635">
        <ele>19.37</ele>
        <time>2025-05-07T12:20:21.712Z</time>
      </trkpt>
      <trkpt lat="45.86545" lon="-0.89611">
        <ele>18.99</ele>
        <time>2025-05-07T12:20:23.398Z</time>
      </trkpt>
      <trkpt lat="45.86521" lon="-0.89586">
        <ele>18.59</ele>
        <time>2025-05-07T12:20:25.088Z</time>
      </trkpt>
      <trkpt lat="45.86497" lon="-0.89562">
        <ele>18.24</ele>
        <time>2025-05-07T12:20:26.783Z</time>
      </trkpt>
      <trkpt lat="45.86476" lon="-0.89541">
        <ele>17.95</ele>
        <time>2025-05-07T12:20:28.482Z</time>
      </trkpt>
      <trkpt lat="45.86455" lon="-0.8952">
        <ele>17.66</ele>
        <time>2025-05-07T12:20:30.185Z</time>
      </trkpt>
      <trkpt lat="45.86433" lon="-0.89499">
        <ele>17.41</ele>
        <time>2025-05-07T12:20:31.893Z</time>
      </trkpt>
      <trkpt lat="45.86412" lon="-0.89478">
        <ele>17.09</ele>
        <time>2025-05-07T12:20:33.605Z</time>
      </trkpt>
      <trkpt lat="45.86391" lon="-0.89457">
        <ele>16.8</ele>
        <time>2025-05-07T12:20:35.321Z</time>
      </trkpt>
      <trkpt lat="45.86377" lon="-0.89441">
        <ele>16.49</ele>
        <time>2025-05-07T12:20:37.040Z</time>
      </trkpt>
      <trkpt lat="45.8637" lon="-0.89429">
        <ele>16.23</ele>
        <time>2025-05-07T12:20:38.760Z</time>
      </trkpt>
      <trkpt lat="45.86365" lon="-0.8942">
        <ele>15.98</ele>
        <time>2025-05-07T12:20:40.482Z</time>
      </trkpt>
      <trkpt lat="45.86354" lon="-0.89396">
        <ele>15.7</ele>
        <time>2025-05-07T12:20:42.207Z</time>
      </trkpt>
      <trkpt lat="45.86345" lon="-0.89367">
        <ele>15.48</ele>
        <time>2025-05-07T12:20:43.936Z</time>
      </trkpt>
      <trkpt lat="45.86336" lon="-0.89338">
        <ele>15.29</ele>
        <time>2025-05-07T12:20:45.668Z</time>
      </trkpt>
      <trkpt lat="45.86327" lon="-0.89309">
        <ele>15.16</ele>
        <time>2025-05-07T12:20:47.404Z</time>
      </trkpt>
      <trkpt lat="45.86321" lon="-0.89288">
        <ele>15.05</ele>
        <time>2025-05-07T12:20:49.142Z</time>
      </trkpt>
      <trkpt lat="45.86315" lon="-0.89267">
        <ele>15.01</ele>
        <time>2025-05-07T12:20:50.883Z</time>
      </trkpt>
      <trkpt lat="45.86305" lon="-0.89237">
        <ele>15.06</ele>
        <time>2025-05-07T12:20:52.627Z</time>
      </trkpt>
      <trkpt lat="45.86296" lon="-0.89208">
        <ele>15.07</ele>
        <time>2025-05-07T12:20:54.375Z</time>
      </trkpt>
      <trkpt lat="45.86285" lon="-0.89173">
        <ele>15.13</ele>
        <time>2025-05-07T12:20:56.127Z</time>
      </trkpt>
      <trkpt lat="45.86274" lon="-0.89137">
        <ele>15.21</ele>
        <time>2025-05-07T12:20:57.884Z</time>
      </trkpt>
      <trkpt lat="45.86264" lon="-0.89102">
        <ele>15.24</ele>
        <time>2025-05-07T12:20:59.645Z</time>
      </trkpt>
      <trkpt lat="45.86253" lon="-0.89067">
        <ele>15.29</ele>
        <time>2025-05-07T12:21:01.410Z</time>
      </trkpt>
      <trkpt lat="45.86241" lon="-0.89028">
        <ele>15.43</ele>
        <time>2025-05-07T12:21:03.180Z</time>
      </trkpt>
      <trkpt lat="45.86228" lon="-0.88988">
        <ele>15.49</ele>
        <time>2025-05-07T12:21:04.955Z</time>
      </trkpt>
      <trkpt lat="45.86216" lon="-0.88949">
        <ele>15.52</ele>
        <time>2025-05-07T12:21:06.735Z</time>
      </trkpt>
      <trkpt lat="45.86209" lon="-0.88932">
        <ele>15.61</ele>
        <time>2025-05-07T12:21:08.517Z</time>
      </trkpt>
      <trkpt lat="45.862" lon="-0.88915">
        <ele>15.72</ele>
        <time>2025-05-07T12:21:10.301Z</time>
      </trkpt>
      <trkpt lat="45.86192" lon="-0.88903">
        <ele>15.84</ele>
        <time>2025-05-07T12:21:12.087Z</time>
      </trkpt>
      <trkpt lat="45.86183" lon="-0.88893">
        <ele>15.96</ele>
        <time>2025-05-07T12:21:13.875Z</time>
      </trkpt>
      <trkpt lat="45.8617" lon="-0.88882">
        <ele>16.1</ele>
        <time>2025-05-07T12:21:15.665Z</time>
      </trkpt>
      <trkpt lat="45.86146" lon="-0.88868">
        <ele>16.18</ele>
        <time>2025-05-07T12:21:17.459Z</time>
      </trkpt>
      <trkpt lat="45.86119" lon="-0.88858">
        <ele>16.25</ele>
        <time>2025-05-07T12:21:19.258Z</time>
      </trkpt>
      <trkpt lat="45.86092" lon="-0.88848">
        <ele>16.28</ele>
        <time>2025-05-07T12:21:21.061Z</time>
      </trkpt>
      <trkpt lat="45.86064" lon="-0.88837">
        <ele>16.32</ele>
        <time>2025-05-07T12:21:22.869Z</time>
      </trkpt>
      <trkpt lat="45.86037" lon="-0.88827">
        <ele>16.39</ele>
        <time>2025-05-07T12:21:24.681Z</time>
      </trkpt>
      <trkpt lat="45.8601" lon="-0.88817">
        <ele>16.4</ele>
        <time>2025-05-07T12:21:26.498Z</time>
      </trkpt>
      <trkpt lat="45.85982" lon="-0.88807">
        <ele>16.37</ele>
        <time>2025-05-07T12:21:28.320Z</time>
      </trkpt>
      <trkpt lat="45.85961" lon="-0.88803">
        <ele>16.33</ele>
        <time>2025-05-07T12:21:30.145Z</time>
      </trkpt>
      <trkpt lat="45.85932" lon="-0.88799">
        <ele>16.23</ele>
        <time>2025-05-07T12:21:31.975Z</time>
      </trkpt>
      <trkpt lat="45.85902" lon="-0.88796">
        <ele>16.11</ele>
        <time>2025-05-07T12:21:33.809Z</time>
      </trkpt>
      <trkpt lat="45.85873" lon="-0.88793">
        <ele>15.98</ele>
        <time>2025-05-07T12:21:35.648Z</time>
      </trkpt>
      <trkpt lat="45.85843" lon="-0.88789">
        <ele>15.95</ele>
        <time>2025-05-07T12:21:37.492Z</time>
      </trkpt>
      <trkpt lat="45.85812" lon="-0.88789">
        <ele>15.97</ele>
        <time>2025-05-07T12:21:39.341Z</time>
      </trkpt>
      <trkpt lat="45.85781" lon="-0.88788">
        <ele>15.97</ele>
        <time>2025-05-07T12:21:41.195Z</time>
      </trkpt>
      <trkpt lat="45.8575" lon="-0.88788">
        <ele>15.93</ele>
        <time>2025-05-07T12:21:43.054Z</time>
      </trkpt>
      <trkpt lat="45.85719" lon="-0.88787">
        <ele>15.89</ele>
        <time>2025-05-07T12:21:44.918Z</time>
      </trkpt>
      <trkpt lat="45.85689" lon="-0.88787">
        <ele>15.86</ele>
        <time>2025-05-07T12:21:46.787Z</time>
      </trkpt>
      <trkpt lat="45.85658" lon="-0.88786">
        <ele>15.86</ele>
        <time>2025-05-07T12:21:48.661Z</time>
      </trkpt>
      <trkpt lat="45.85627" lon="-0.88786">
        <ele>15.92</ele>
        <time>2025-05-07T12:21:50.540Z</time>
      </trkpt>
      <trkpt lat="45.85596" lon="-0.88785">
        <ele>15.95</ele>
        <time>2025-05-07T12:21:52.423Z</time>
      </trkpt>
      <trkpt lat="45.85565" lon="-0.88785">
        <ele>15.97</ele>
        <time>2025-05-07T12:21:54.311Z</time>
      </trkpt>
      <trkpt lat="45.85534" lon="-0.88784">
        <ele>15.95</ele>
        <time>2025-05-07T12:21:56.204Z</time>
      </trkpt>
      <trkpt lat="45.85503" lon="-0.88784">
        <ele>15.91</ele>
        <time>2025-05-07T12:21:58.102Z</time>
      </trkpt>
      <trkpt lat="45.85478" lon="-0.88783">
        <ele>15.85</ele>
        <time>2025-05-07T12:22:00.004Z</time>
      </trkpt>
      <trkpt lat="45.85453" lon="-0.88783">
        <ele>15.8</ele>
        <time>2025-05-07T12:22:01.910Z</time>
      </trkpt>
      <trkpt lat="45.85435" lon="-0.88784">
        <ele>15.74</ele>
        <time>2025-05-07T12:22:03.819Z</time>
      </trkpt>
      <trkpt lat="45.85421" lon="-0.88787">
        <ele>15.72</ele>
        <time>2025-05-07T12:22:05.730Z</time>
      </trkpt>
      <trkpt lat="45.85409" lon="-0.88791">
        <ele>15.73</ele>
        <time>2025-05-07T12:22:07.643Z</time>
      </trkpt>
      <trkpt lat="45.85399" lon="-0.88798">
        <ele>15.75</ele>
        <time>2025-05-07T12:22:09.558Z</time>
      </trkpt>
      <trkpt lat="45.85388" lon="-0.88808">
        <ele>15.8</ele>
        <time>2025-05-07T12:22:11.475Z</time>
      </trkpt>
      <trkpt lat="45.85374" lon="-0.88825">
        <ele>15.86</ele>
        <time>2025-05-07T12:22:13.395Z</time>
      </trkpt>
      <trkpt lat="45.85357" lon="-0.88844">
        <ele>15.99</ele>
        <time>2025-05-07T12:22:15.319Z</time>
      </trkpt>
      <trkpt lat="45.8534" lon="-0.88864">
        <ele>16.15</ele>
        <time>2025-05-07T12:22:17.246Z</time>
      </trkpt>
      <trkpt lat="45.85323" lon="-0.88883">
        <ele>16.32</ele>
        <time>2025-05-07T12:22:19.177Z</time>
      </trkpt>
      <trkpt lat="45.85311" lon="-0.88895">
        <ele>16.51</ele>
        <time>2025-05-07T12:22:21.110Z</time>
      </trkpt>
      <trkpt lat="45.853" lon="-0.88904">
        <ele>16.73</ele>
        <time>2025-05-07T12:22:23.045Z</time>
      </trkpt>
      <trkpt lat="45.85285" lon="-0.88911">
        <ele>17</ele>
        <time>2025-05-07T12:22:24.983Z</time>
      </trkpt>
      <trkpt lat="45.85273" lon="-0.88914">
        <ele>17.28</ele>
        <time>2025-05-07T12:22:26.923Z</time>
      </trkpt>
      <trkpt lat="45.85258" lon="-0.88916">
        <ele>17.58</ele>
        <time>2025-05-07T12:22:28.865Z</time>
      </trkpt>
      <trkpt lat="45.85231" lon="-0.88915">
        <ele>17.92</ele>
        <time>2025-05-07T12:22:30.811Z</time>
      </trkpt>
      <trkpt lat="45.85203" lon="-0.88913">
        <ele>18.31</ele>
        <time>2025-05-07T12:22:32.762Z</time>
      </trkpt>
      <trkpt lat="45.85176" lon="-0.88912">
        <ele>18.7</ele>
        <time>2025-05-07T12:22:34.717Z</time>
      </trkpt>
      <trkpt lat="45.85148" lon="-0.88911">
        <ele>19.09</ele>
        <time>2025-05-07T12:22:36.677Z</time>
      </trkpt>
      <trkpt lat="45.85117" lon="-0.88911">
        <ele>19.47</ele>
        <time>2025-05-07T12:22:38.642Z</time>
      </trkpt>
      <trkpt lat="45.85097" lon="-0.88915">
        <ele>19.82</ele>
        <time>2025-05-07T12:22:40.610Z</time>
      </trkpt>
      <trkpt lat="45.85082" lon="-0.88919">
        <ele>20.18</ele>
        <time>2025-05-07T12:22:42.580Z</time>
      </trkpt>
      <trkpt lat="45.85053" lon="-0.88929">
        <ele>20.55</ele>
        <time>2025-05-07T12:22:44.555Z</time>
      </trkpt>
      <trkpt lat="45.85024" lon="-0.88939">
        <ele>20.98</ele>
        <time>2025-05-07T12:22:46.535Z</time>
      </trkpt>
      <trkpt lat="45.84995" lon="-0.88949">
        <ele>21.4</ele>
        <time>2025-05-07T12:22:48.520Z</time>
      </trkpt>
      <trkpt lat="45.84966" lon="-0.88959">
        <ele>21.79</ele>
        <time>2025-05-07T12:22:50.509Z</time>
      </trkpt>
      <trkpt lat="45.84945" lon="-0.88965">
        <ele>22.15</ele>
        <time>2025-05-07T12:22:52.502Z</time>
      </trkpt>
      <trkpt lat="45.84924" lon="-0.88967">
        <ele>22.5</ele>
        <time>2025-05-07T12:22:54.498Z</time>
      </trkpt>
      <trkpt lat="45.84913" lon="-0.88967">
        <ele>22.83</ele>
        <time>2025-05-07T12:22:56.496Z</time>
      </trkpt>
      <trkpt lat="45.84893" lon="-0.88964">
        <ele>23.1</ele>
        <time>2025-05-07T12:22:58.497Z</time>
      </trkpt>
      <trkpt lat="45.84872" lon="-0.88958">
        <ele>23.34</ele>
        <time>2025-05-07T12:23:00.502Z</time>
      </trkpt>
      <trkpt lat="45.84854" lon="-0.8895">
        <ele>23.58</ele>
        <time>2025-05-07T12:23:02.510Z</time>
      </trkpt>
      <trkpt lat="45.84844" lon="-0.88944">
        <ele>23.82</ele>
        <time>2025-05-07T12:23:04.519Z</time>
      </trkpt>
      <trkpt lat="45.84833" lon="-0.88937">
        <ele>24.06</ele>
        <time>2025-05-07T12:23:06.530Z</time>
      </trkpt>
      <trkpt lat="45.84819" lon="-0.88926">
        <ele>24.29</ele>
        <time>2025-05-07T12:23:08.544Z</time>
      </trkpt>
      <trkpt lat="45.84793" lon="-0.88903">
        <ele>24.45</ele>
        <time>2025-05-07T12:23:10.563Z</time>
      </trkpt>
      <trkpt lat="45.84767" lon="-0.8888">
        <ele>24.66</ele>
        <time>2025-05-07T12:23:12.587Z</time>
      </trkpt>
      <trkpt lat="45.84741" lon="-0.88858">
        <ele>24.88</ele>
        <time>2025-05-07T12:23:14.615Z</time>
      </trkpt>
      <trkpt lat="45.84715" lon="-0.88835">
        <ele>25.08</ele>
        <time>2025-05-07T12:23:16.648Z</time>
      </trkpt>
      <trkpt lat="45.84689" lon="-0.88812">
        <ele>25.22</ele>
        <time>2025-05-07T12:23:18.686Z</time>
      </trkpt>
      <trkpt lat="45.84662" lon="-0.88789">
        <ele>25.37</ele>
        <time>2025-05-07T12:23:20.729Z</time>
      </trkpt>
      <trkpt lat="45.84636" lon="-0.88767">
        <ele>25.47</ele>
        <time>2025-05-07T12:23:22.777Z</time>
      </trkpt>
      <trkpt lat="45.8461" lon="-0.88744">
        <ele>25.59</ele>
        <time>2025-05-07T12:23:24.830Z</time>
      </trkpt>
      <trkpt lat="45.84584" lon="-0.88721">
        <ele>25.66</ele>
        <time>2025-05-07T12:23:26.888Z</time>
      </trkpt>
      <trkpt lat="45.84558" lon="-0.88698">
        <ele>25.78</ele>
        <time>2025-05-07T12:23:28.951Z</time>
      </trkpt>
      <trkpt lat="45.84532" lon="-0.88676">
        <ele>25.91</ele>
        <time>2025-05-07T12:23:31.019Z</time>
      </trkpt>
      <trkpt lat="45.84506" lon="-0.88653">
        <ele>26.04</ele>
        <time>2025-05-07T12:23:33.091Z</time>
      </trkpt>
      <trkpt lat="45.84482" lon="-0.88633">
        <ele>26.15</ele>
        <time>2025-05-07T12:23:35.168Z</time>
      </trkpt>
      <trkpt lat="45.84459" lon="-0.88614">
        <ele>26.26</ele>
        <time>2025-05-07T12:23:37.249Z</time>
      </trkpt>
      <trkpt lat="45.84435" lon="-0.88594">
        <ele>26.45</ele>
        <time>2025-05-07T12:23:39.335Z</time>
      </trkpt>
      <trkpt lat="45.84411" lon="-0.88572">
        <ele>26.6</ele>
        <time>2025-05-07T12:23:41.425Z</time>
      </trkpt>
      <trkpt lat="45.84386" lon="-0.8855">
        <ele>26.75</ele>
        <time>2025-05-07T12:23:43.520Z</time>
      </trkpt>
      <trkpt lat="45.84362" lon="-0.88528">
        <ele>26.93</ele>
        <time>2025-05-07T12:23:45.619Z</time>
      </trkpt>
      <trkpt lat="45.84338" lon="-0.88507">
        <ele>27.1</ele>
        <time>2025-05-07T12:23:47.723Z</time>
      </trkpt>
      <trkpt lat="45.84313" lon="-0.88485">
        <ele>27.31</ele>
        <time>2025-05-07T12:23:49.832Z</time>
      </trkpt>
      <trkpt lat="45.84289" lon="-0.88464">
        <ele>27.54</ele>
        <time>2025-05-07T12:23:51.945Z</time>
      </trkpt>
      <trkpt lat="45.84265" lon="-0.88443">
        <ele>27.74</ele>
        <time>2025-05-07T12:23:54.063Z</time>
      </trkpt>
      <trkpt lat="45.8424" lon="-0.88421">
        <ele>27.88</ele>
        <time>2025-05-07T12:23:56.185Z</time>
      </trkpt>
      <trkpt lat="45.84216" lon="-0.884">
        <ele>28.01</ele>
        <time>2025-05-07T12:23:58.312Z</time>
      </trkpt>
      <trkpt lat="45.84191" lon="-0.88378">
        <ele>28.2</ele>
        <time>2025-05-07T12:24:00.444Z</time>
      </trkpt>
      <trkpt lat="45.84165" lon="-0.88356">
        <ele>28.33</ele>
        <time>2025-05-07T12:24:02.580Z</time>
      </trkpt>
      <trkpt lat="45.8414" lon="-0.88334">
        <ele>28.38</ele>
        <time>2025-05-07T12:24:04.721Z</time>
      </trkpt>
      <trkpt lat="45.84115" lon="-0.88313">
        <ele>28.42</ele>
        <time>2025-05-07T12:24:06.867Z</time>
      </trkpt>
      <trkpt lat="45.84089" lon="-0.88291">
        <ele>28.45</ele>
        <time>2025-05-07T12:24:09.017Z</time>
      </trkpt>
      <trkpt lat="45.84064" lon="-0.88269">
        <ele>28.48</ele>
        <time>2025-05-07T12:24:11.172Z</time>
      </trkpt>
      <trkpt lat="45.84041" lon="-0.88249">
        <ele>28.49</ele>
        <time>2025-05-07T12:24:13.331Z</time>
      </trkpt>
      <trkpt lat="45.84019" lon="-0.88229">
        <ele>28.46</ele>
        <time>2025-05-07T12:24:15.495Z</time>
      </trkpt>
      <trkpt lat="45.84003" lon="-0.88217">
        <ele>28.4</ele>
        <time>2025-05-07T12:24:17.661Z</time>
      </trkpt>
      <trkpt lat="45.83988" lon="-0.88205">
        <ele>28.32</ele>
        <time>2025-05-07T12:24:19.830Z</time>
      </trkpt>
      <trkpt lat="45.83967" lon="-0.88194">
        <ele>28.12</ele>
        <time>2025-05-07T12:24:22.003Z</time>
      </trkpt>
      <trkpt lat="45.83959" lon="-0.88191">
        <ele>27.91</ele>
        <time>2025-05-07T12:24:24.177Z</time>
      </trkpt>
      <trkpt lat="45.83946" lon="-0.88187">
        <ele>27.65</ele>
        <time>2025-05-07T12:24:26.353Z</time>
      </trkpt>
      <trkpt lat="45.83916" lon="-0.88184">
        <ele>27.28</ele>
        <time>2025-05-07T12:24:28.534Z</time>
      </trkpt>
      <trkpt lat="45.83888" lon="-0.88183">
        <ele>26.93</ele>
        <time>2025-05-07T12:24:30.720Z</time>
      </trkpt>
      <trkpt lat="45.83861" lon="-0.88182">
        <ele>26.6</ele>
        <time>2025-05-07T12:24:32.910Z</time>
      </trkpt>
      <trkpt lat="45.83833" lon="-0.88181">
        <ele>26.25</ele>
        <time>2025-05-07T12:24:35.104Z</time>
      </trkpt>
      <trkpt lat="45.83805" lon="-0.88181">
        <ele>25.86</ele>
        <time>2025-05-07T12:24:37.303Z</time>
      </trkpt>
      <trkpt lat="45.83778" lon="-0.8818">
        <ele>25.39</ele>
        <time>2025-05-07T12:24:39.506Z</time>
      </trkpt>
      <trkpt lat="45.8375" lon="-0.88179">
        <ele>24.9</ele>
        <time>2025-05-07T12:24:41.714Z</time>
      </trkpt>
      <trkpt lat="45.83723" lon="-0.88179">
        <ele>24.41</ele>
        <time>2025-05-07T12:24:43.926Z</time>
      </trkpt>
      <trkpt lat="45.83697" lon="-0.88178">
        <ele>23.99</ele>
        <time>2025-05-07T12:24:46.142Z</time>
      </trkpt>
      <trkpt lat="45.8367" lon="-0.88178">
        <ele>23.61</ele>
        <time>2025-05-07T12:24:48.363Z</time>
      </trkpt>
      <trkpt lat="45.83643" lon="-0.88178">
        <ele>23.25</ele>
        <time>2025-05-07T12:24:50.588Z</time>
      </trkpt>
      <trkpt lat="45.83633" lon="-0.88177">
        <ele>22.89</ele>
        <time>2025-05-07T12:24:52.814Z</time>
      </trkpt>
      <trkpt lat="45.83616" lon="-0.88176">
        <ele>22.55</ele>
        <time>2025-05-07T12:24:55.043Z</time>
      </trkpt>
      <trkpt lat="45.83598" lon="-0.88176">
        <ele>22.2</ele>
        <time>2025-05-07T12:24:57.275Z</time>
      </trkpt>
      <trkpt lat="45.83585" lon="-0.88174">
        <ele>21.89</ele>
        <time>2025-05-07T12:24:59.509Z</time>
      </trkpt>
      <trkpt lat="45.83573" lon="-0.88171">
        <ele>21.61</ele>
        <time>2025-05-07T12:25:01.745Z</time>
      </trkpt>
      <trkpt lat="45.83558" lon="-0.88166">
        <ele>21.37</ele>
        <time>2025-05-07T12:25:03.984Z</time>
      </trkpt>
      <trkpt lat="45.83536" lon="-0.88157">
        <ele>21.19</ele>
        <time>2025-05-07T12:25:06.226Z</time>
      </trkpt>
      <trkpt lat="45.83515" lon="-0.88145">
        <ele>21.01</ele>
        <time>2025-05-07T12:25:08.472Z</time>
      </trkpt>
      <trkpt lat="45.83515" lon="-0.88145">
        <ele>20.82</ele>
        <time>2025-05-07T12:25:10.718Z</time>
      </trkpt>
      <trkpt lat="45.83496" lon="-0.88131">
        <ele>20.48</ele>
        <time>2025-05-07T12:25:12.967Z</time>
      </trkpt>
      <trkpt lat="45.83478" lon="-0.88115">
        <ele>20.3</ele>
        <time>2025-05-07T12:25:15.220Z</time>
      </trkpt>
      <trkpt lat="45.83457" lon="-0.88095">
        <ele>20.14</ele>
        <time>2025-05-07T12:25:17.477Z</time>
      </trkpt>
      <trkpt lat="45.83436" lon="-0.88074">
        <ele>20.05</ele>
        <time>2025-05-07T12:25:19.738Z</time>
      </trkpt>
      <trkpt lat="45.83415" lon="-0.88054">
        <ele>19.95</ele>
        <time>2025-05-07T12:25:22.003Z</time>
      </trkpt>
      <trkpt lat="45.83394" lon="-0.88034">
        <ele>19.85</ele>
        <time>2025-05-07T12:25:24.272Z</time>
      </trkpt>
      <trkpt lat="45.83375" lon="-0.88017">
        <ele>19.83</ele>
        <time>2025-05-07T12:25:26.544Z</time>
      </trkpt>
      <trkpt lat="45.83357" lon="-0.88">
        <ele>19.81</ele>
        <time>2025-05-07T12:25:28.820Z</time>
      </trkpt>
      <trkpt lat="45.83338" lon="-0.87983">
        <ele>19.77</ele>
        <time>2025-05-07T12:25:31.100Z</time>
      </trkpt>
      <trkpt lat="45.83312" lon="-0.87959">
        <ele>19.8</ele>
        <time>2025-05-07T12:25:33.384Z</time>
      </trkpt>
      <trkpt lat="45.83287" lon="-0.87936">
        <ele>19.84</ele>
        <time>2025-05-07T12:25:35.673Z</time>
      </trkpt>
      <trkpt lat="45.83263" lon="-0.87914">
        <ele>19.88</ele>
        <time>2025-05-07T12:25:37.967Z</time>
      </trkpt>
      <trkpt lat="45.83239" lon="-0.8789">
        <ele>19.98</ele>
        <time>2025-05-07T12:25:40.265Z</time>
      </trkpt>
      <trkpt lat="45.83215" lon="-0.87867">
        <ele>19.99</ele>
        <time>2025-05-07T12:25:42.568Z</time>
      </trkpt>
      <trkpt lat="45.83202" lon="-0.87851">
        <ele>19.98</ele>
        <time>2025-05-07T12:25:44.874Z</time>
      </trkpt>
      <trkpt lat="45.83189" lon="-0.87835">
        <ele>19.95</ele>
        <time>2025-05-07T12:25:47.183Z</time>
      </trkpt>
      <trkpt lat="45.83167" lon="-0.87804">
        <ele>19.96</ele>
        <time>2025-05-07T12:25:49.496Z</time>
      </trkpt>
      <trkpt lat="45.83146" lon="-0.87774">
        <ele>20</ele>
        <time>2025-05-07T12:25:51.814Z</time>
      </trkpt>
      <trkpt lat="45.83124" lon="-0.87743">
        <ele>20.05</ele>
        <time>2025-05-07T12:25:54.137Z</time>
      </trkpt>
      <trkpt lat="45.83103" lon="-0.87712">
        <ele>20.1</ele>
        <time>2025-05-07T12:25:56.465Z</time>
      </trkpt>
      <trkpt lat="45.83081" lon="-0.87682">
        <ele>20.14</ele>
        <time>2025-05-07T12:25:58.798Z</time>
      </trkpt>
      <trkpt lat="45.83069" lon="-0.87666">
        <ele>20.18</ele>
        <time>2025-05-07T12:26:01.134Z</time>
      </trkpt>
      <trkpt lat="45.83058" lon="-0.87653">
        <ele>20.23</ele>
        <time>2025-05-07T12:26:03.472Z</time>
      </trkpt>
      <trkpt lat="45.83055" lon="-0.87657">
        <ele>20.3</ele>
        <time>2025-05-07T12:26:05.810Z</time>
      </trkpt>
      <trkpt lat="45.83052" lon="-0.87658">
        <ele>20.37</ele>
        <time>2025-05-07T12:26:08.149Z</time>
      </trkpt>
      <trkpt lat="45.83049" lon="-0.87657">
        <ele>20.45</ele>
        <time>2025-05-07T12:26:10.488Z</time>
      </trkpt>
      <trkpt lat="45.83047" lon="-0.87655">
        <ele>20.54</ele>
        <time>2025-05-07T12:26:12.828Z</time>
      </trkpt>
      <trkpt lat="45.83046" lon="-0.8765">
        <ele>20.63</ele>
        <time>2025-05-07T12:26:15.168Z</time>
      </trkpt>
      <trkpt lat="45.83047" lon="-0.87644">
        <ele>20.73</ele>
        <time>2025-05-07T12:26:17.509Z</time>
      </trkpt>
      <trkpt lat="45.83038" lon="-0.87642">
        <ele>20.82</ele>
        <time>2025-05-07T12:26:19.852Z</time>
      </trkpt>
      <trkpt lat="45.83016" lon="-0.87636">
        <ele>20.93</ele>
        <time>2025-05-07T12:26:22.198Z</time>
      </trkpt>
      <trkpt lat="45.83001" lon="-0.87631">
        <ele>21.04</ele>
        <time>2025-05-07T12:26:24.547Z</time>
      </trkpt>
      <trkpt lat="45.82994" lon="-0.87628">
        <ele>21.16</ele>
        <time>2025-05-07T12:26:26.897Z</time>
      </trkpt>
      <trkpt lat="45.82981" lon="-0.8762">
        <ele>21.3</ele>
        <time>2025-05-07T12:26:29.249Z</time>
      </trkpt>
      <trkpt lat="45.82956" lon="-0.87599">
        <ele>21.48</ele>
        <time>2025-05-07T12:26:31.606Z</time>
      </trkpt>
      <trkpt lat="45.82932" lon="-0.87578">
        <ele>21.63</ele>
        <time>2025-05-07T12:26:33.967Z</time>
      </trkpt>
      <trkpt lat="45.82924" lon="-0.87574">
        <ele>21.74</ele>
        <time>2025-05-07T12:26:36.330Z</time>
      </trkpt>
      <trkpt lat="45.82903" lon="-0.87571">
        <ele>21.89</ele>
        <time>2025-05-07T12:26:38.696Z</time>
      </trkpt>
      <trkpt lat="45.82891" lon="-0.87568">
        <ele>21.98</ele>
        <time>2025-05-07T12:26:41.064Z</time>
      </trkpt>
      <trkpt lat="45.82877" lon="-0.87561">
        <ele>22.03</ele>
        <time>2025-05-07T12:26:43.434Z</time>
      </trkpt>
      <trkpt lat="45.82858" lon="-0.87546">
        <ele>22.05</ele>
        <time>2025-05-07T12:26:45.808Z</time>
      </trkpt>
      <trkpt lat="45.82854" lon="-0.87542">
        <ele>22.07</ele>
        <time>2025-05-07T12:26:48.183Z</time>
      </trkpt>
      <trkpt lat="45.82854" lon="-0.87534">
        <ele>22.08</ele>
        <time>2025-05-07T12:26:50.558Z</time>
      </trkpt>
      <trkpt lat="45.82862" lon="-0.87492">
        <ele>22</ele>
        <time>2025-05-07T12:26:52.938Z</time>
      </trkpt>
      <trkpt lat="45.8287" lon="-0.87451">
        <ele>21.99</ele>
        <time>2025-05-07T12:26:55.323Z</time>
      </trkpt>
      <trkpt lat="45.82873" lon="-0.8744">
        <ele>21.96</ele>
        <time>2025-05-07T12:26:57.709Z</time>
      </trkpt>
      <trkpt lat="45.8288" lon="-0.87401">
        <ele>21.92</ele>
        <time>2025-05-07T12:27:00.100Z</time>
      </trkpt>
      <trkpt lat="45.8288" lon="-0.87399">
        <ele>21.89</ele>
        <time>2025-05-07T12:27:02.491Z</time>
      </trkpt>
      <trkpt lat="45.82885" lon="-0.87373">
        <ele>21.88</ele>
        <time>2025-05-07T12:27:04.885Z</time>
      </trkpt>
      <trkpt lat="45.8287" lon="-0.87346">
        <ele>21.83</ele>
        <time>2025-05-07T12:27:07.283Z</time>
      </trkpt>
      <trkpt lat="45.82855" lon="-0.8732">
        <ele>21.77</ele>
        <time>2025-05-07T12:27:09.685Z</time>
      </trkpt>
      <trkpt lat="45.82852" lon="-0.87315">
        <ele>21.72</ele>
        <time>2025-05-07T12:27:12.087Z</time>
      </trkpt>
      <trkpt lat="45.82838" lon="-0.87292">
        <ele>21.66</ele>
        <time>2025-05-07T12:27:14.493Z</time>
      </trkpt>
      <trkpt lat="45.82825" lon="-0.87269">
        <ele>21.6</ele>
        <time>2025-05-07T12:27:16.902Z</time>
      </trkpt>
      <trkpt lat="45.82813" lon="-0.8725">
        <ele>21.53</ele>
        <time>2025-05-07T12:27:19.314Z</time>
      </trkpt>
      <trkpt lat="45.82798" lon="-0.87224">
        <ele>21.43</ele>
        <time>2025-05-07T12:27:21.730Z</time>
      </trkpt>
      <trkpt lat="45.82783" lon="-0.87199">
        <ele>21.36</ele>
        <time>2025-05-07T12:27:24.150Z</time>
      </trkpt>
      <trkpt lat="45.82768" lon="-0.87167">
        <ele>21.3</ele>
        <time>2025-05-07T12:27:26.574Z</time>
      </trkpt>
      <trkpt lat="45.82761" lon="-0.87154">
        <ele>21.28</ele>
        <time>2025-05-07T12:27:29.000Z</time>
      </trkpt>
      <trkpt lat="45.82746" lon="-0.8712">
        <ele>21.26</ele>
        <time>2025-05-07T12:27:31.430Z</time>
      </trkpt>
      <trkpt lat="45.82732" lon="-0.87087">
        <ele>21.2</ele>
        <time>2025-05-07T12:27:33.864Z</time>
      </trkpt>
      <trkpt lat="45.82717" lon="-0.87055">
        <ele>21.16</ele>
        <time>2025-05-07T12:27:36.303Z</time>
      </trkpt>
      <trkpt lat="45.82702" lon="-0.87023">
        <ele>21.14</ele>
        <time>2025-05-07T12:27:38.746Z</time>
      </trkpt>
      <trkpt lat="45.82688" lon="-0.86992">
        <ele>21.16</ele>
        <time>2025-05-07T12:27:41.193Z</time>
      </trkpt>
      <trkpt lat="45.82672" lon="-0.86957">
        <ele>21.19</ele>
        <time>2025-05-07T12:27:43.645Z</time>
      </trkpt>
      <trkpt lat="45.82657" lon="-0.86923">
        <ele>21.08</ele>
        <time>2025-05-07T12:27:46.101Z</time>
      </trkpt>
      <trkpt lat="45.82644" lon="-0.86885">
        <ele>20.95</ele>
        <time>2025-05-07T12:27:48.562Z</time>
      </trkpt>
      <trkpt lat="45.82632" lon="-0.86847">
        <ele>20.94</ele>
        <time>2025-05-07T12:27:51.028Z</time>
      </trkpt>
      <trkpt lat="45.82626" lon="-0.86825">
        <ele>21</ele>
        <time>2025-05-07T12:27:53.496Z</time>
      </trkpt>
      <trkpt lat="45.82621" lon="-0.86804">
        <ele>21.09</ele>
        <time>2025-05-07T12:27:55.967Z</time>
      </trkpt>
      <trkpt lat="45.8262" lon="-0.86799">
        <ele>21.18</ele>
        <time>2025-05-07T12:27:58.439Z</time>
      </trkpt>
      <trkpt lat="45.82617" lon="-0.86774">
        <ele>21.32</ele>
        <time>2025-05-07T12:28:00.913Z</time>
      </trkpt>
      <trkpt lat="45.82614" lon="-0.8675">
        <ele>21.46</ele>
        <time>2025-05-07T12:28:03.390Z</time>
      </trkpt>
      <trkpt lat="45.82609" lon="-0.8672">
        <ele>21.6</ele>
        <time>2025-05-07T12:28:05.871Z</time>
      </trkpt>
      <trkpt lat="45.82598" lon="-0.8668">
        <ele>21.85</ele>
        <time>2025-05-07T12:28:08.356Z</time>
      </trkpt>
      <trkpt lat="45.82588" lon="-0.8664">
        <ele>22.18</ele>
        <time>2025-05-07T12:28:10.846Z</time>
      </trkpt>
      <trkpt lat="45.82577" lon="-0.86601">
        <ele>22.37</ele>
        <time>2025-05-07T12:28:13.341Z</time>
      </trkpt>
      <trkpt lat="45.82574" lon="-0.86586">
        <ele>22.54</ele>
        <time>2025-05-07T12:28:15.838Z</time>
      </trkpt>
      <trkpt lat="45.82571" lon="-0.86573">
        <ele>22.71</ele>
        <time>2025-05-07T12:28:18.336Z</time>
      </trkpt>
      <trkpt lat="45.82567" lon="-0.86538">
        <ele>22.87</ele>
        <time>2025-05-07T12:28:20.838Z</time>
      </trkpt>
      <trkpt lat="45.82564" lon="-0.86503">
        <ele>23.03</ele>
        <time>2025-05-07T12:28:23.344Z</time>
      </trkpt>
      <trkpt lat="45.8256" lon="-0.86468">
        <ele>23.17</ele>
        <time>2025-05-07T12:28:25.854Z</time>
      </trkpt>
      <trkpt lat="45.82557" lon="-0.86433">
        <ele>23.35</ele>
        <time>2025-05-07T12:28:28.368Z</time>
      </trkpt>
      <trkpt lat="45.8255" lon="-0.8641">
        <ele>23.52</ele>
        <time>2025-05-07T12:28:30.885Z</time>
      </trkpt>
      <trkpt lat="45.82535" lon="-0.8638">
        <ele>23.7</ele>
        <time>2025-05-07T12:28:33.406Z</time>
      </trkpt>
      <trkpt lat="45.8252" lon="-0.86351">
        <ele>23.94</ele>
        <time>2025-05-07T12:28:35.931Z</time>
      </trkpt>
      <trkpt lat="45.82504" lon="-0.86321">
        <ele>24.18</ele>
        <time>2025-05-07T12:28:38.460Z</time>
      </trkpt>
      <trkpt lat="45.82489" lon="-0.86291">
        <ele>24.37</ele>
        <time>2025-05-07T12:28:40.993Z</time>
      </trkpt>
      <trkpt lat="45.82474" lon="-0.86262">
        <ele>24.5</ele>
        <time>2025-05-07T12:28:43.530Z</time>
      </trkpt>
      <trkpt lat="45.82464" lon="-0.86235">
        <ele>24.68</ele>
        <time>2025-05-07T12:28:46.071Z</time>
      </trkpt>
      <trkpt lat="45.82448" lon="-0.86196">
        <ele>24.84</ele>
        <time>2025-05-07T12:28:48.617Z</time>
      </trkpt>
      <trkpt lat="45.82433" lon="-0.86158">
        <ele>25.02</ele>
        <time>2025-05-07T12:28:51.168Z</time>
      </trkpt>
      <trkpt lat="45.82426" lon="-0.86143">
        <ele>25.17</ele>
        <time>2025-05-07T12:28:53.721Z</time>
      </trkpt>
      <trkpt lat="45.82408" lon="-0.86107">
        <ele>25.29</ele>
        <time>2025-05-07T12:28:56.279Z</time>
      </trkpt>
      <trkpt lat="45.8239" lon="-0.86072">
        <ele>25.39</ele>
        <time>2025-05-07T12:28:58.842Z</time>
      </trkpt>
      <trkpt lat="45.82371" lon="-0.86036">
        <ele>25.59</ele>
        <time>2025-05-07T12:29:01.409Z</time>
      </trkpt>
      <trkpt lat="45.82353" lon="-0.86">
        <ele>25.7</ele>
        <time>2025-05-07T12:29:03.981Z</time>
      </trkpt>
      <trkpt lat="45.82335" lon="-0.85965">
        <ele>25.85</ele>
        <time>2025-05-07T12:29:06.558Z</time>
      </trkpt>
      <trkpt lat="45.8232" lon="-0.85936">
        <ele>26.02</ele>
        <time>2025-05-07T12:29:09.139Z</time>
      </trkpt>
      <trkpt lat="45.82305" lon="-0.85906">
        <ele>26.22</ele>
        <time>2025-05-07T12:29:11.724Z</time>
      </trkpt>
      <trkpt lat="45.8229" lon="-0.85877">
        <ele>26.44</ele>
        <time>2025-05-07T12:29:14.314Z</time>
      </trkpt>
      <trkpt lat="45.82275" lon="-0.85847">
        <ele>26.67</ele>
        <time>2025-05-07T12:29:16.908Z</time>
      </trkpt>
      <trkpt lat="45.8226" lon="-0.85818">
        <ele>26.86</ele>
        <time>2025-05-07T12:29:19.506Z</time>
      </trkpt>
      <trkpt lat="45.82246" lon="-0.8579">
        <ele>27.04</ele>
        <time>2025-05-07T12:29:22.107Z</time>
      </trkpt>
      <trkpt lat="45.82233" lon="-0.85763">
        <ele>27.18</ele>
        <time>2025-05-07T12:29:24.712Z</time>
      </trkpt>
      <trkpt lat="45.82224" lon="-0.85731">
        <ele>27.32</ele>
        <time>2025-05-07T12:29:27.321Z</time>
      </trkpt>
      <trkpt lat="45.82216" lon="-0.85699">
        <ele>27.46</ele>
        <time>2025-05-07T12:29:29.934Z</time>
      </trkpt>
      <trkpt lat="45.82207" lon="-0.85667">
        <ele>27.56</ele>
        <time>2025-05-07T12:29:32.551Z</time>
      </trkpt>
      <trkpt lat="45.82194" lon="-0.85633">
        <ele>27.69</ele>
        <time>2025-05-07T12:29:35.172Z</time>
      </trkpt>
      <trkpt lat="45.82184" lon="-0.85612">
        <ele>27.86</ele>
        <time>2025-05-07T12:29:37.796Z</time>
      </trkpt>
      <trkpt lat="45.82172" lon="-0.85582">
        <ele>28.04</ele>
        <time>2025-05-07T12:29:40.424Z</time>
      </trkpt>
      <trkpt lat="45.8216" lon="-0.85553">
        <ele>28.26</ele>
        <time>2025-05-07T12:29:43.056Z</time>
      </trkpt>
      <trkpt lat="45.82149" lon="-0.85523">
        <ele>28.43</ele>
        <time>2025-05-07T12:29:45.691Z</time>
      </trkpt>
      <trkpt lat="45.82137" lon="-0.85494">
        <ele>28.63</ele>
        <time>2025-05-07T12:29:48.330Z</time>
      </trkpt>
      <trkpt lat="45.82131" lon="-0.85478">
        <ele>28.79</ele>
        <time>2025-05-07T12:29:50.971Z</time>
      </trkpt>
      <trkpt lat="45.82124" lon="-0.85459">
        <ele>28.93</ele>
        <time>2025-05-07T12:29:53.615Z</time>
      </trkpt>
      <trkpt lat="45.82122" lon="-0.85453">
        <ele>29.06</ele>
        <time>2025-05-07T12:29:56.259Z</time>
      </trkpt>
      <trkpt lat="45.82116" lon="-0.85424">
        <ele>29.19</ele>
        <time>2025-05-07T12:29:58.907Z</time>
      </trkpt>
      <trkpt lat="45.8211" lon="-0.85385">
        <ele>29.28</ele>
        <time>2025-05-07T12:30:01.559Z</time>
      </trkpt>
      <trkpt lat="45.82106" lon="-0.85344">
        <ele>29.38</ele>
        <time>2025-05-07T12:30:04.216Z</time>
      </trkpt>
      <trkpt lat="45.82102" lon="-0.85303">
        <ele>29.42</ele>
        <time>2025-05-07T12:30:06.877Z</time>
      </trkpt>
      <trkpt lat="45.82099" lon="-0.85262">
        <ele>29.47</ele>
        <time>2025-05-07T12:30:09.543Z</time>
      </trkpt>
      <trkpt lat="45.82095" lon="-0.85222">
        <ele>29.57</ele>
        <time>2025-05-07T12:30:12.214Z</time>
      </trkpt>
      <trkpt lat="45.82089" lon="-0.85195">
        <ele>29.67</ele>
        <time>2025-05-07T12:30:14.888Z</time>
      </trkpt>
      <trkpt lat="45.82082" lon="-0.85174">
        <ele>29.75</ele>
        <time>2025-05-07T12:30:17.564Z</time>
      </trkpt>
      <trkpt lat="45.82075" lon="-0.85154">
        <ele>29.86</ele>
        <time>2025-05-07T12:30:20.243Z</time>
      </trkpt>
      <trkpt lat="45.82062" lon="-0.85118">
        <ele>30.01</ele>
        <time>2025-05-07T12:30:22.926Z</time>
      </trkpt>
      <trkpt lat="45.82048" lon="-0.85081">
        <ele>30.15</ele>
        <time>2025-05-07T12:30:25.614Z</time>
      </trkpt>
      <trkpt lat="45.82035" lon="-0.85045">
        <ele>30.25</ele>
        <time>2025-05-07T12:30:28.307Z</time>
      </trkpt>
      <trkpt lat="45.82022" lon="-0.85009">
        <ele>30.36</ele>
        <time>2025-05-07T12:30:31.004Z</time>
      </trkpt>
      <trkpt lat="45.82009" lon="-0.84972">
        <ele>30.38</ele>
        <time>2025-05-07T12:30:33.706Z</time>
      </trkpt>
      <trkpt lat="45.81995" lon="-0.84936">
        <ele>30.45</ele>
        <time>2025-05-07T12:30:36.412Z</time>
      </trkpt>
      <trkpt lat="45.81982" lon="-0.849">
        <ele>30.5</ele>
        <time>2025-05-07T12:30:39.123Z</time>
      </trkpt>
      <trkpt lat="45.81969" lon="-0.84864">
        <ele>30.52</ele>
        <time>2025-05-07T12:30:41.838Z</time>
      </trkpt>
      <trkpt lat="45.81958" lon="-0.84834">
        <ele>30.47</ele>
        <time>2025-05-07T12:30:44.557Z</time>
      </trkpt>
      <trkpt lat="45.81947" lon="-0.84803">
        <ele>30.43</ele>
        <time>2025-05-07T12:30:47.280Z</time>
      </trkpt>
      <trkpt lat="45.81936" lon="-0.84773">
        <ele>30.38</ele>
        <time>2025-05-07T12:30:50.007Z</time>
      </trkpt>
      <trkpt lat="45.81925" lon="-0.84743">
        <ele>30.28</ele>
        <time>2025-05-07T12:30:52.738Z</time>
      </trkpt>
      <trkpt lat="45.81914" lon="-0.8472">
        <ele>30.21</ele>
        <time>2025-05-07T12:30:55.472Z</time>
      </trkpt>
      <trkpt lat="45.81903" lon="-0.84698">
        <ele>30.09</ele>
        <time>2025-05-07T12:30:58.209Z</time>
      </trkpt>
      <trkpt lat="45.8189" lon="-0.8467">
        <ele>29.91</ele>
        <time>2025-05-07T12:31:00.950Z</time>
      </trkpt>
      <trkpt lat="45.81876" lon="-0.84646">
        <ele>29.67</ele>
        <time>2025-05-07T12:31:03.694Z</time>
      </trkpt>
      <trkpt lat="45.81862" lon="-0.84622">
        <ele>29.47</ele>
        <time>2025-05-07T12:31:06.442Z</time>
      </trkpt>
      <trkpt lat="45.81845" lon="-0.84598">
        <ele>29.22</ele>
        <time>2025-05-07T12:31:09.193Z</time>
      </trkpt>
      <trkpt lat="45.81828" lon="-0.84575">
        <ele>28.91</ele>
        <time>2025-05-07T12:31:11.948Z</time>
      </trkpt>
      <trkpt lat="45.81805" lon="-0.84551">
        <ele>28.58</ele>
        <time>2025-05-07T12:31:14.708Z</time>
      </trkpt>
      <trkpt lat="45.81782" lon="-0.84528">
        <ele>28.26</ele>
        <time>2025-05-07T12:31:17.472Z</time>
      </trkpt>
      <trkpt lat="45.81763" lon="-0.8451">
        <ele>27.98</ele>
        <time>2025-05-07T12:31:20.240Z</time>
      </trkpt>
      <trkpt lat="45.81744" lon="-0.84493">
        <ele>27.68</ele>
        <time>2025-05-07T12:31:23.011Z</time>
      </trkpt>
      <trkpt lat="45.81721" lon="-0.84476">
        <ele>27.4</ele>
        <time>2025-05-07T12:31:25.787Z</time>
      </trkpt>
      <trkpt lat="45.81697" lon="-0.84458">
        <ele>27.09</ele>
        <time>2025-05-07T12:31:28.567Z</time>
      </trkpt>
      <trkpt lat="45.81674" lon="-0.84441">
        <ele>26.75</ele>
        <time>2025-05-07T12:31:31.351Z</time>
      </trkpt>
      <trkpt lat="45.81651" lon="-0.84422">
        <ele>26.4</ele>
        <time>2025-05-07T12:31:34.139Z</time>
      </trkpt>
      <trkpt lat="45.81629" lon="-0.84404">
        <ele>26.11</ele>
        <time>2025-05-07T12:31:36.931Z</time>
      </trkpt>
      <trkpt lat="45.81606" lon="-0.84385">
        <ele>25.84</ele>
        <time>2025-05-07T12:31:39.728Z</time>
      </trkpt>
      <trkpt lat="45.81587" lon="-0.84359">
        <ele>25.64</ele>
        <time>2025-05-07T12:31:42.529Z</time>
      </trkpt>
      <trkpt lat="45.81569" lon="-0.84333">
        <ele>25.54</ele>
        <time>2025-05-07T12:31:45.334Z</time>
      </trkpt>
      <trkpt lat="45.81547" lon="-0.84305">
        <ele>25.55</ele>
        <time>2025-05-07T12:31:48.144Z</time>
      </trkpt>
      <trkpt lat="45.81525" lon="-0.84277">
        <ele>25.58</ele>
        <time>2025-05-07T12:31:50.958Z</time>
      </trkpt>
      <trkpt lat="45.81504" lon="-0.84249">
        <ele>25.65</ele>
        <time>2025-05-07T12:31:53.777Z</time>
      </trkpt>
      <trkpt lat="45.81482" lon="-0.84221">
        <ele>25.75</ele>
        <time>2025-05-07T12:31:56.601Z</time>
      </trkpt>
      <trkpt lat="45.81472" lon="-0.84206">
        <ele>25.85</ele>
        <time>2025-05-07T12:31:59.427Z</time>
      </trkpt>
      <trkpt lat="45.81459" lon="-0.84189">
        <ele>25.99</ele>
        <time>2025-05-07T12:32:02.256Z</time>
      </trkpt>
      <trkpt lat="45.81446" lon="-0.84172">
        <ele>26.19</ele>
        <time>2025-05-07T12:32:05.088Z</time>
      </trkpt>
      <trkpt lat="45.81426" lon="-0.8414">
        <ele>26.45</ele>
        <time>2025-05-07T12:32:07.924Z</time>
      </trkpt>
      <trkpt lat="45.81406" lon="-0.84108">
        <ele>26.71</ele>
        <time>2025-05-07T12:32:10.765Z</time>
      </trkpt>
      <trkpt lat="45.81386" lon="-0.84075">
        <ele>26.97</ele>
        <time>2025-05-07T12:32:13.611Z</time>
      </trkpt>
      <trkpt lat="45.81366" lon="-0.84043">
        <ele>27.29</ele>
        <time>2025-05-07T12:32:16.462Z</time>
      </trkpt>
      <trkpt lat="45.81347" lon="-0.84011">
        <ele>27.63</ele>
        <time>2025-05-07T12:32:19.318Z</time>
      </trkpt>
      <trkpt lat="45.81327" lon="-0.83979">
        <ele>27.93</ele>
        <time>2025-05-07T12:32:22.178Z</time>
      </trkpt>
      <trkpt lat="45.81307" lon="-0.83947">
        <ele>28.27</ele>
        <time>2025-05-07T12:32:25.043Z</time>
      </trkpt>
      <trkpt lat="45.81287" lon="-0.83915">
        <ele>28.61</ele>
        <time>2025-05-07T12:32:27.913Z</time>
      </trkpt>
      <trkpt lat="45.81268" lon="-0.83884">
        <ele>28.9</ele>
        <time>2025-05-07T12:32:30.788Z</time>
      </trkpt>
      <trkpt lat="45.81248" lon="-0.83852">
        <ele>29.26</ele>
        <time>2025-05-07T12:32:33.667Z</time>
      </trkpt>
      <trkpt lat="45.81228" lon="-0.83821">
        <ele>29.65</ele>
        <time>2025-05-07T12:32:36.551Z</time>
      </trkpt>
      <trkpt lat="45.81209" lon="-0.83789">
        <ele>29.96</ele>
        <time>2025-05-07T12:32:39.440Z</time>
      </trkpt>
      <trkpt lat="45.81189" lon="-0.83758">
        <ele>30.3</ele>
        <time>2025-05-07T12:32:42.334Z</time>
      </trkpt>
      <trkpt lat="45.81169" lon="-0.83726">
        <ele>30.62</ele>
        <time>2025-05-07T12:32:45.232Z</time>
      </trkpt>
      <trkpt lat="45.8115" lon="-0.83695">
        <ele>30.94</ele>
        <time>2025-05-07T12:32:48.135Z</time>
      </trkpt>
      <trkpt lat="45.81133" lon="-0.8366">
        <ele>31.26</ele>
        <time>2025-05-07T12:32:51.043Z</time>
      </trkpt>
      <trkpt lat="45.81121" lon="-0.83625">
        <ele>31.55</ele>
        <time>2025-05-07T12:32:53.955Z</time>
      </trkpt>
      <trkpt lat="45.8111" lon="-0.83591">
        <ele>31.91</ele>
        <time>2025-05-07T12:32:56.871Z</time>
      </trkpt>
      <trkpt lat="45.81098" lon="-0.83556">
        <ele>32.32</ele>
        <time>2025-05-07T12:32:59.792Z</time>
      </trkpt>
      <trkpt lat="45.81086" lon="-0.83521">
        <ele>32.68</ele>
        <time>2025-05-07T12:33:02.717Z</time>
      </trkpt>
      <trkpt lat="45.81075" lon="-0.83486">
        <ele>33.02</ele>
        <time>2025-05-07T12:33:05.646Z</time>
      </trkpt>
      <trkpt lat="45.81063" lon="-0.83452">
        <ele>33.36</ele>
        <time>2025-05-07T12:33:08.580Z</time>
      </trkpt>
      <trkpt lat="45.81055" lon="-0.83419">
        <ele>33.72</ele>
        <time>2025-05-07T12:33:11.518Z</time>
      </trkpt>
      <trkpt lat="45.81048" lon="-0.83386">
        <ele>34.05</ele>
        <time>2025-05-07T12:33:14.459Z</time>
      </trkpt>
      <trkpt lat="45.8104" lon="-0.83353">
        <ele>34.37</ele>
        <time>2025-05-07T12:33:17.404Z</time>
      </trkpt>
      <trkpt lat="45.81032" lon="-0.83311">
        <ele>34.7</ele>
        <time>2025-05-07T12:33:20.354Z</time>
      </trkpt>
      <trkpt lat="45.81024" lon="-0.83269">
        <ele>34.98</ele>
        <time>2025-05-07T12:33:23.309Z</time>
      </trkpt>
      <trkpt lat="45.81018" lon="-0.83227">
        <ele>35.22</ele>
        <time>2025-05-07T12:33:26.269Z</time>
      </trkpt>
      <trkpt lat="45.81011" lon="-0.83186">
        <ele>35.48</ele>
        <time>2025-05-07T12:33:29.234Z</time>
      </trkpt>
      <trkpt lat="45.81005" lon="-0.83144">
        <ele>35.73</ele>
        <time>2025-05-07T12:33:32.203Z</time>
      </trkpt>
      <trkpt lat="45.80998" lon="-0.83103">
        <ele>35.98</ele>
        <time>2025-05-07T12:33:35.177Z</time>
      </trkpt>
      <trkpt lat="45.80992" lon="-0.83061">
        <ele>36.18</ele>
        <time>2025-05-07T12:33:38.156Z</time>
      </trkpt>
      <trkpt lat="45.80985" lon="-0.8302">
        <ele>36.27</ele>
        <time>2025-05-07T12:33:41.140Z</time>
      </trkpt>
      <trkpt lat="45.80979" lon="-0.82978">
        <ele>36.35</ele>
        <time>2025-05-07T12:33:44.128Z</time>
      </trkpt>
      <trkpt lat="45.80972" lon="-0.82937">
        <ele>36.5</ele>
        <time>2025-05-07T12:33:47.121Z</time>
      </trkpt>
      <trkpt lat="45.80966" lon="-0.82896">
        <ele>36.63</ele>
        <time>2025-05-07T12:33:50.119Z</time>
      </trkpt>
      <trkpt lat="45.8096" lon="-0.82858">
        <ele>36.73</ele>
        <time>2025-05-07T12:33:53.121Z</time>
      </trkpt>
      <trkpt lat="45.80953" lon="-0.82819">
        <ele>36.76</ele>
        <time>2025-05-07T12:33:56.128Z</time>
      </trkpt>
      <trkpt lat="45.80947" lon="-0.82781">
        <ele>36.8</ele>
        <time>2025-05-07T12:33:59.139Z</time>
      </trkpt>
      <trkpt lat="45.80941" lon="-0.82743">
        <ele>36.82</ele>
        <time>2025-05-07T12:34:02.154Z</time>
      </trkpt>
      <trkpt lat="45.80934" lon="-0.82705">
        <ele>36.82</ele>
        <time>2025-05-07T12:34:05.174Z</time>
      </trkpt>
      <trkpt lat="45.80928" lon="-0.82667">
        <ele>36.81</ele>
        <time>2025-05-07T12:34:08.198Z</time>
      </trkpt>
      <trkpt lat="45.80922" lon="-0.82628">
        <ele>36.79</ele>
        <time>2025-05-07T12:34:11.227Z</time>
      </trkpt>
      <trkpt lat="45.80915" lon="-0.8259">
        <ele>36.76</ele>
        <time>2025-05-07T12:34:14.260Z</time>
      </trkpt>
      <trkpt lat="45.80909" lon="-0.82551">
        <ele>36.77</ele>
        <time>2025-05-07T12:34:17.297Z</time>
      </trkpt>
      <trkpt lat="45.80902" lon="-0.82512">
        <ele>36.71</ele>
        <time>2025-05-07T12:34:20.339Z</time>
      </trkpt>
      <trkpt lat="45.80896" lon="-0.82474">
        <ele>36.64</ele>
        <time>2025-05-07T12:34:23.385Z</time>
      </trkpt>
      <trkpt lat="45.80889" lon="-0.8243">
        <ele>36.62</ele>
        <time>2025-05-07T12:34:26.436Z</time>
      </trkpt>
      <trkpt lat="45.80882" lon="-0.82386">
        <ele>36.55</ele>
        <time>2025-05-07T12:34:29.492Z</time>
      </trkpt>
      <trkpt lat="45.80875" lon="-0.82343">
        <ele>36.46</ele>
        <time>2025-05-07T12:34:32.553Z</time>
      </trkpt>
      <trkpt lat="45.80869" lon="-0.82299">
        <ele>36.37</ele>
        <time>2025-05-07T12:34:35.619Z</time>
      </trkpt>
      <trkpt lat="45.80862" lon="-0.82255">
        <ele>36.31</ele>
        <time>2025-05-07T12:34:38.690Z</time>
      </trkpt>
      <trkpt lat="45.80855" lon="-0.82212">
        <ele>36.18</ele>
        <time>2025-05-07T12:34:41.766Z</time>
      </trkpt>
      <trkpt lat="45.80849" lon="-0.82174">
        <ele>36.08</ele>
        <time>2025-05-07T12:34:44.847Z</time>
      </trkpt>
      <trkpt lat="45.80842" lon="-0.82136">
        <ele>35.96</ele>
        <time>2025-05-07T12:34:47.932Z</time>
      </trkpt>
      <trkpt lat="45.80836" lon="-0.82097">
        <ele>35.83</ele>
        <time>2025-05-07T12:34:51.022Z</time>
      </trkpt>
      <trkpt lat="45.8083" lon="-0.82059">
        <ele>35.66</ele>
        <time>2025-05-07T12:34:54.116Z</time>
      </trkpt>
      <trkpt lat="45.80823" lon="-0.82021">
        <ele>35.54</ele>
        <time>2025-05-07T12:34:57.214Z</time>
      </trkpt>
      <trkpt lat="45.80817" lon="-0.81983">
        <ele>35.42</ele>
        <time>2025-05-07T12:35:00.317Z</time>
      </trkpt>
      <trkpt lat="45.80811" lon="-0.81945">
        <ele>35.23</ele>
        <time>2025-05-07T12:35:03.424Z</time>
      </trkpt>
      <trkpt lat="45.80807" lon="-0.81913">
        <ele>35.09</ele>
        <time>2025-05-07T12:35:06.535Z</time>
      </trkpt>
      <trkpt lat="45.80803" lon="-0.81881">
        <ele>34.93</ele>
        <time>2025-05-07T12:35:09.649Z</time>
      </trkpt>
      <trkpt lat="45.80795" lon="-0.81848">
        <ele>34.75</ele>
        <time>2025-05-07T12:35:12.767Z</time>
      </trkpt>
      <trkpt lat="45.80783" lon="-0.81812">
        <ele>34.59</ele>
        <time>2025-05-07T12:35:15.890Z</time>
      </trkpt>
      <trkpt lat="45.80772" lon="-0.81777">
        <ele>34.45</ele>
        <time>2025-05-07T12:35:19.017Z</time>
      </trkpt>
      <trkpt lat="45.80762" lon="-0.81749">
        <ele>34.32</ele>
        <time>2025-05-07T12:35:22.148Z</time>
      </trkpt>
      <trkpt lat="45.80751" lon="-0.8172">
        <ele>34.19</ele>
        <time>2025-05-07T12:35:25.282Z</time>
      </trkpt>
      <trkpt lat="45.80741" lon="-0.81692">
        <ele>34.06</ele>
        <time>2025-05-07T12:35:28.420Z</time>
      </trkpt>
      <trkpt lat="45.8073" lon="-0.81665">
        <ele>33.97</ele>
        <time>2025-05-07T12:35:31.561Z</time>
      </trkpt>
      <trkpt lat="45.80719" lon="-0.81638">
        <ele>33.89</ele>
        <time>2025-05-07T12:35:34.706Z</time>
      </trkpt>
      <trkpt lat="45.80708" lon="-0.81607">
        <ele>33.84</ele>
        <time>2025-05-07T12:35:37.855Z</time>
      </trkpt>
      <trkpt lat="45.80707" lon="-0.81584">
        <ele>33.85</ele>
        <time>2025-05-07T12:35:41.006Z</time>
      </trkpt>
      <trkpt lat="45.80706" lon="-0.81561">
        <ele>33.88</ele>
        <time>2025-05-07T12:35:44.160Z</time>
      </trkpt>
      <trkpt lat="45.80711" lon="-0.81526">
        <ele>33.93</ele>
        <time>2025-05-07T12:35:47.318Z</time>
      </trkpt>
      <trkpt lat="45.80715" lon="-0.81491">
        <ele>33.97</ele>
        <time>2025-05-07T12:35:50.480Z</time>
      </trkpt>
      <trkpt lat="45.8072" lon="-0.81456">
        <ele>34.03</ele>
        <time>2025-05-07T12:35:53.646Z</time>
      </trkpt>
      <trkpt lat="45.8072" lon="-0.81438">
        <ele>34.08</ele>
        <time>2025-05-07T12:35:56.814Z</time>
      </trkpt>
      <trkpt lat="45.80718" lon="-0.81421">
        <ele>34.08</ele>
        <time>2025-05-07T12:35:59.984Z</time>
      </trkpt>
      <trkpt lat="45.80715" lon="-0.81397">
        <ele>34.1</ele>
        <time>2025-05-07T12:36:03.156Z</time>
      </trkpt>
      <trkpt lat="45.80703" lon="-0.81359">
        <ele>34.07</ele>
        <time>2025-05-07T12:36:06.333Z</time>
      </trkpt>
      <trkpt lat="45.80692" lon="-0.8132">
        <ele>34.07</ele>
        <time>2025-05-07T12:36:09.515Z</time>
      </trkpt>
      <trkpt lat="45.8068" lon="-0.81282">
        <ele>34.09</ele>
        <time>2025-05-07T12:36:12.701Z</time>
      </trkpt>
      <trkpt lat="45.80661" lon="-0.81251">
        <ele>34.16</ele>
        <time>2025-05-07T12:36:15.892Z</time>
      </trkpt>
      <trkpt lat="45.80642" lon="-0.81221">
        <ele>34.17</ele>
        <time>2025-05-07T12:36:19.088Z</time>
      </trkpt>
      <trkpt lat="45.80623" lon="-0.8119">
        <ele>34.17</ele>
        <time>2025-05-07T12:36:22.288Z</time>
      </trkpt>
      <trkpt lat="45.80603" lon="-0.81164">
        <ele>34.21</ele>
        <time>2025-05-07T12:36:25.493Z</time>
      </trkpt>
      <trkpt lat="45.80582" lon="-0.81137">
        <ele>34.27</ele>
        <time>2025-05-07T12:36:28.702Z</time>
      </trkpt>
      <trkpt lat="45.80562" lon="-0.81111">
        <ele>34.28</ele>
        <time>2025-05-07T12:36:31.915Z</time>
      </trkpt>
      <trkpt lat="45.80571" lon="-0.81077">
        <ele>34.19</ele>
        <time>2025-05-07T12:36:35.132Z</time>
      </trkpt>
      <trkpt lat="45.8058" lon="-0.81043">
        <ele>34.11</ele>
        <time>2025-05-07T12:36:38.353Z</time>
      </trkpt>
      <trkpt lat="45.80588" lon="-0.8101">
        <ele>34.04</ele>
        <time>2025-05-07T12:36:41.579Z</time>
      </trkpt>
      <trkpt lat="45.80597" lon="-0.80976">
        <ele>33.91</ele>
        <time>2025-05-07T12:36:44.809Z</time>
      </trkpt>
      <trkpt lat="45.80614" lon="-0.80949">
        <ele>33.78</ele>
        <time>2025-05-07T12:36:48.043Z</time>
      </trkpt>
      <trkpt lat="45.80633" lon="-0.80924">
        <ele>33.69</ele>
        <time>2025-05-07T12:36:51.281Z</time>
      </trkpt>
      <trkpt lat="45.80645" lon="-0.80903">
        <ele>33.62</ele>
        <time>2025-05-07T12:36:54.522Z</time>
      </trkpt>
      <trkpt lat="45.80657" lon="-0.80867">
        <ele>33.47</ele>
        <time>2025-05-07T12:36:57.767Z</time>
      </trkpt>
      <trkpt lat="45.80666" lon="-0.80841">
        <ele>33.24</ele>
        <time>2025-05-07T12:37:01.015Z</time>
      </trkpt>
      <trkpt lat="45.80674" lon="-0.80815">
        <ele>33.02</ele>
        <time>2025-05-07T12:37:04.267Z</time>
      </trkpt>
      <trkpt lat="45.80683" lon="-0.80794">
        <ele>32.84</ele>
        <time>2025-05-07T12:37:07.521Z</time>
      </trkpt>
      <trkpt lat="45.80691" lon="-0.80774">
        <ele>32.64</ele>
        <time>2025-05-07T12:37:10.778Z</time>
      </trkpt>
      <trkpt lat="45.80701" lon="-0.80749">
        <ele>32.43</ele>
        <time>2025-05-07T12:37:14.038Z</time>
      </trkpt>
      <trkpt lat="45.8071" lon="-0.80724">
        <ele>32.21</ele>
        <time>2025-05-07T12:37:17.301Z</time>
      </trkpt>
      <trkpt lat="45.8072" lon="-0.80686">
        <ele>31.98</ele>
        <time>2025-05-07T12:37:20.569Z</time>
      </trkpt>
      <trkpt lat="45.8073" lon="-0.80648">
        <ele>31.73</ele>
        <time>2025-05-07T12:37:23.841Z</time>
      </trkpt>
      <trkpt lat="45.80741" lon="-0.8061">
        <ele>31.45</ele>
        <time>2025-05-07T12:37:27.118Z</time>
      </trkpt>
      <trkpt lat="45.80751" lon="-0.80572">
        <ele>31.21</ele>
        <time>2025-05-07T12:37:30.400Z</time>
      </trkpt>
      <trkpt lat="45.80761" lon="-0.80535">
        <ele>30.96</ele>
        <time>2025-05-07T12:37:33.686Z</time>
      </trkpt>
      <trkpt lat="45.80769" lon="-0.80501">
        <ele>30.65</ele>
        <time>2025-05-07T12:37:36.976Z</time>
      </trkpt>
      <trkpt lat="45.80777" lon="-0.80468">
        <ele>30.33</ele>
        <time>2025-05-07T12:37:40.270Z</time>
      </trkpt>
      <trkpt lat="45.80783" lon="-0.80424">
        <ele>29.95</ele>
        <time>2025-05-07T12:37:43.569Z</time>
      </trkpt>
      <trkpt lat="45.80784" lon="-0.80417">
        <ele>29.66</ele>
        <time>2025-05-07T12:37:46.869Z</time>
      </trkpt>
      <trkpt lat="45.80784" lon="-0.80384">
        <ele>29.35</ele>
        <time>2025-05-07T12:37:50.172Z</time>
      </trkpt>
      <trkpt lat="45.80784" lon="-0.80351">
        <ele>29.08</ele>
        <time>2025-05-07T12:37:53.479Z</time>
      </trkpt>
      <trkpt lat="45.80788" lon="-0.80316">
        <ele>28.86</ele>
        <time>2025-05-07T12:37:56.790Z</time>
      </trkpt>
      <trkpt lat="45.80792" lon="-0.80281">
        <ele>28.6</ele>
        <time>2025-05-07T12:38:00.105Z</time>
      </trkpt>
      <trkpt lat="45.80795" lon="-0.80256">
        <ele>28.34</ele>
        <time>2025-05-07T12:38:03.423Z</time>
      </trkpt>
      <trkpt lat="45.80797" lon="-0.80232">
        <ele>28.09</ele>
        <time>2025-05-07T12:38:06.744Z</time>
      </trkpt>
      <trkpt lat="45.808" lon="-0.80194">
        <ele>27.78</ele>
        <time>2025-05-07T12:38:10.069Z</time>
      </trkpt>
      <trkpt lat="45.80801" lon="-0.80171">
        <ele>27.53</ele>
        <time>2025-05-07T12:38:13.396Z</time>
      </trkpt>
      <trkpt lat="45.80802" lon="-0.80149">
        <ele>27.3</ele>
        <time>2025-05-07T12:38:16.726Z</time>
      </trkpt>
      <trkpt lat="45.80806" lon="-0.80123">
        <ele>27.07</ele>
        <time>2025-05-07T12:38:20.059Z</time>
      </trkpt>
      <trkpt lat="45.80809" lon="-0.80098">
        <ele>26.88</ele>
        <time>2025-05-07T12:38:23.395Z</time>
      </trkpt>
      <trkpt lat="45.80825" lon="-0.80093">
        <ele>26.66</ele>
        <time>2025-05-07T12:38:26.733Z</time>
      </trkpt>
      <trkpt lat="45.80842" lon="-0.80088">
        <ele>26.44</ele>
        <time>2025-05-07T12:38:30.074Z</time>
      </trkpt>
      <trkpt lat="45.80862" lon="-0.80077">
        <ele>26.21</ele>
        <time>2025-05-07T12:38:33.419Z</time>
      </trkpt>
      <trkpt lat="45.80882" lon="-0.80066">
        <ele>25.99</ele>
        <time>2025-05-07T12:38:36.767Z</time>
      </trkpt>
      <trkpt lat="45.80908" lon="-0.80043">
        <ele>25.74</ele>
        <time>2025-05-07T12:38:40.120Z</time>
      </trkpt>
      <trkpt lat="45.80923" lon="-0.80026">
        <ele>25.5</ele>
        <time>2025-05-07T12:38:43.476Z</time>
      </trkpt>
      <trkpt lat="45.80937" lon="-0.80009">
        <ele>25.26</ele>
        <time>2025-05-07T12:38:46.835Z</time>
      </trkpt>
      <trkpt lat="45.80956" lon="-0.79977">
        <ele>25.05</ele>
        <time>2025-05-07T12:38:50.199Z</time>
      </trkpt>
      <trkpt lat="45.80974" lon="-0.79945">
        <ele>24.83</ele>
        <time>2025-05-07T12:38:53.567Z</time>
      </trkpt>
      <trkpt lat="45.80987" lon="-0.79916">
        <ele>24.63</ele>
        <time>2025-05-07T12:38:56.939Z</time>
      </trkpt>
      <trkpt lat="45.80999" lon="-0.79888">
        <ele>24.43</ele>
        <time>2025-05-07T12:39:00.315Z</time>
      </trkpt>
      <trkpt lat="45.81003" lon="-0.79873">
        <ele>24.3</ele>
        <time>2025-05-07T12:39:03.693Z</time>
      </trkpt>
      <trkpt lat="45.81013" lon="-0.79844">
        <ele>24.2</ele>
        <time>2025-05-07T12:39:07.074Z</time>
      </trkpt>
      <trkpt lat="45.81019" lon="-0.79826">
        <ele>24.12</ele>
        <time>2025-05-07T12:39:10.457Z</time>
      </trkpt>
      <trkpt lat="45.81038" lon="-0.79798">
        <ele>24.07</ele>
        <time>2025-05-07T12:39:13.845Z</time>
      </trkpt>
      <trkpt lat="45.81044" lon="-0.79791">
        <ele>24.03</ele>
        <time>2025-05-07T12:39:17.234Z</time>
      </trkpt>
      <trkpt lat="45.8106" lon="-0.79775">
        <ele>24.03</ele>
        <time>2025-05-07T12:39:20.626Z</time>
      </trkpt>
      <trkpt lat="45.81077" lon="-0.7976">
        <ele>24.03</ele>
        <time>2025-05-07T12:39:24.021Z</time>
      </trkpt>
      <trkpt lat="45.81096" lon="-0.79745">
        <ele>24</ele>
        <time>2025-05-07T12:39:27.420Z</time>
      </trkpt>
      <trkpt lat="45.81121" lon="-0.79732">
        <ele>23.97</ele>
        <time>2025-05-07T12:39:30.823Z</time>
      </trkpt>
      <trkpt lat="45.81136" lon="-0.79725">
        <ele>23.97</ele>
        <time>2025-05-07T12:39:34.229Z</time>
      </trkpt>
      <trkpt lat="45.81152" lon="-0.79718">
        <ele>23.97</ele>
        <time>2025-05-07T12:39:37.637Z</time>
      </trkpt>
      <trkpt lat="45.8117" lon="-0.79691">
        <ele>23.99</ele>
        <time>2025-05-07T12:39:41.049Z</time>
      </trkpt>
      <trkpt lat="45.81188" lon="-0.79663">
        <ele>24.01</ele>
        <time>2025-05-07T12:39:44.466Z</time>
      </trkpt>
      <trkpt lat="45.81205" lon="-0.79636">
        <ele>23.98</ele>
        <time>2025-05-07T12:39:47.887Z</time>
      </trkpt>
      <trkpt lat="45.81223" lon="-0.79609">
        <ele>23.88</ele>
        <time>2025-05-07T12:39:51.312Z</time>
      </trkpt>
      <trkpt lat="45.81246" lon="-0.79581">
        <ele>23.75</ele>
        <time>2025-05-07T12:39:54.742Z</time>
      </trkpt>
      <trkpt lat="45.81257" lon="-0.79571">
        <ele>23.64</ele>
        <time>2025-05-07T12:39:58.174Z</time>
      </trkpt>
      <trkpt lat="45.81275" lon="-0.79569">
        <ele>23.55</ele>
        <time>2025-05-07T12:40:01.609Z</time>
      </trkpt>
      <trkpt lat="45.81296" lon="-0.79569">
        <ele>23.45</ele>
        <time>2025-05-07T12:40:05.047Z</time>
      </trkpt>
      <trkpt lat="45.81317" lon="-0.7957">
        <ele>23.34</ele>
        <time>2025-05-07T12:40:08.488Z</time>
      </trkpt>
      <trkpt lat="45.81327" lon="-0.79564">
        <ele>23.24</ele>
        <time>2025-05-07T12:40:11.931Z</time>
      </trkpt>
      <trkpt lat="45.81344" lon="-0.79544">
        <ele>23.15</ele>
        <time>2025-05-07T12:40:15.378Z</time>
      </trkpt>
      <trkpt lat="45.81361" lon="-0.79519">
        <ele>23.03</ele>
        <time>2025-05-07T12:40:18.829Z</time>
      </trkpt>
      <trkpt lat="45.81377" lon="-0.79494">
        <ele>22.91</ele>
        <time>2025-05-07T12:40:22.283Z</time>
      </trkpt>
      <trkpt lat="45.81389" lon="-0.79474">
        <ele>22.78</ele>
        <time>2025-05-07T12:40:25.740Z</time>
      </trkpt>
      <trkpt lat="45.81404" lon="-0.79458">
        <ele>22.64</ele>
        <time>2025-05-07T12:40:29.200Z</time>
      </trkpt>
      <trkpt lat="45.81421" lon="-0.7945">
        <ele>22.47</ele>
        <time>2025-05-07T12:40:32.663Z</time>
      </trkpt>
      <trkpt lat="45.81436" lon="-0.79446">
        <ele>22.27</ele>
        <time>2025-05-07T12:40:36.129Z</time>
      </trkpt>
      <trkpt lat="45.81465" lon="-0.79442">
        <ele>22.02</ele>
        <time>2025-05-07T12:40:39.599Z</time>
      </trkpt>
      <trkpt lat="45.81495" lon="-0.79438">
        <ele>21.81</ele>
        <time>2025-05-07T12:40:43.074Z</time>
      </trkpt>
      <trkpt lat="45.81524" lon="-0.79435">
        <ele>21.59</ele>
        <time>2025-05-07T12:40:46.554Z</time>
      </trkpt>
      <trkpt lat="45.81554" lon="-0.79431">
        <ele>21.39</ele>
        <time>2025-05-07T12:40:50.039Z</time>
      </trkpt>
      <trkpt lat="45.81578" lon="-0.79425">
        <ele>21.2</ele>
        <time>2025-05-07T12:40:53.528Z</time>
      </trkpt>
      <trkpt lat="45.81593" lon="-0.79415">
        <ele>21.05</ele>
        <time>2025-05-07T12:40:57.019Z</time>
      </trkpt>
      <trkpt lat="45.81608" lon="-0.794">
        <ele>20.93</ele>
        <time>2025-05-07T12:41:00.513Z</time>
      </trkpt>
      <trkpt lat="45.8162" lon="-0.79381">
        <ele>20.86</ele>
        <time>2025-05-07T12:41:04.010Z</time>
      </trkpt>
      <trkpt lat="45.81637" lon="-0.79348">
        <ele>20.83</ele>
        <time>2025-05-07T12:41:07.512Z</time>
      </trkpt>
      <trkpt lat="45.81654" lon="-0.79316">
        <ele>20.77</ele>
        <time>2025-05-07T12:41:11.018Z</time>
      </trkpt>
      <trkpt lat="45.81671" lon="-0.79283">
        <ele>20.64</ele>
        <time>2025-05-07T12:41:14.529Z</time>
      </trkpt>
      <trkpt lat="45.81684" lon="-0.79254">
        <ele>20.53</ele>
        <time>2025-05-07T12:41:18.043Z</time>
      </trkpt>
      <trkpt lat="45.81697" lon="-0.79226">
        <ele>20.51</ele>
        <time>2025-05-07T12:41:21.561Z</time>
      </trkpt>
      <trkpt lat="45.81708" lon="-0.79199">
        <ele>20.55</ele>
        <time>2025-05-07T12:41:25.083Z</time>
      </trkpt>
      <trkpt lat="45.81719" lon="-0.79172">
        <ele>20.6</ele>
        <time>2025-05-07T12:41:28.608Z</time>
      </trkpt>
      <trkpt lat="45.81728" lon="-0.79146">
        <ele>20.74</ele>
        <time>2025-05-07T12:41:32.136Z</time>
      </trkpt>
      <trkpt lat="45.81736" lon="-0.79121">
        <ele>20.91</ele>
        <time>2025-05-07T12:41:35.668Z</time>
      </trkpt>
      <trkpt lat="45.81745" lon="-0.79091">
        <ele>21.07</ele>
        <time>2025-05-07T12:41:39.203Z</time>
      </trkpt>
      <trkpt lat="45.81753" lon="-0.79062">
        <ele>21.2</ele>
        <time>2025-05-07T12:41:42.742Z</time>
      </trkpt>
      <trkpt lat="45.8176" lon="-0.79022">
        <ele>21.3</ele>
        <time>2025-05-07T12:41:46.285Z</time>
      </trkpt>
      <trkpt lat="45.81766" lon="-0.78982">
        <ele>21.42</ele>
        <time>2025-05-07T12:41:49.833Z</time>
      </trkpt>
      <trkpt lat="45.81773" lon="-0.78942">
        <ele>21.63</ele>
        <time>2025-05-07T12:41:53.386Z</time>
      </trkpt>
      <trkpt lat="45.81779" lon="-0.78902">
        <ele>21.8</ele>
        <time>2025-05-07T12:41:56.943Z</time>
      </trkpt>
      <trkpt lat="45.81783" lon="-0.78868">
        <ele>21.96</ele>
        <time>2025-05-07T12:42:00.504Z</time>
      </trkpt>
      <trkpt lat="45.81787" lon="-0.78834">
        <ele>22.15</ele>
        <time>2025-05-07T12:42:04.069Z</time>
      </trkpt>
      <trkpt lat="45.81793" lon="-0.78792">
        <ele>22.36</ele>
        <time>2025-05-07T12:42:07.639Z</time>
      </trkpt>
      <trkpt lat="45.81799" lon="-0.7875">
        <ele>22.48</ele>
        <time>2025-05-07T12:42:11.213Z</time>
      </trkpt>
      <trkpt lat="45.81808" lon="-0.7872">
        <ele>22.6</ele>
        <time>2025-05-07T12:42:14.791Z</time>
      </trkpt>
      <trkpt lat="45.81818" lon="-0.78697">
        <ele>22.68</ele>
        <time>2025-05-07T12:42:18.372Z</time>
      </trkpt>
      <trkpt lat="45.81833" lon="-0.78671">
        <ele>22.74</ele>
        <time>2025-05-07T12:42:21.957Z</time>
      </trkpt>
      <trkpt lat="45.81845" lon="-0.78656">
        <ele>22.8</ele>
        <time>2025-05-07T12:42:25.544Z</time>
      </trkpt>
      <trkpt lat="45.81859" lon="-0.78641">
        <ele>22.82</ele>
        <time>2025-05-07T12:42:29.134Z</time>
      </trkpt>
      <trkpt lat="45.81872" lon="-0.78626">
        <ele>22.82</ele>
        <time>2025-05-07T12:42:32.727Z</time>
      </trkpt>
      <trkpt lat="45.81882" lon="-0.78618">
        <ele>22.79</ele>
        <time>2025-05-07T12:42:36.322Z</time>
      </trkpt>
      <trkpt lat="45.81894" lon="-0.78612">
        <ele>22.74</ele>
        <time>2025-05-07T12:42:39.919Z</time>
      </trkpt>
      <trkpt lat="45.81907" lon="-0.78609">
        <ele>22.7</ele>
        <time>2025-05-07T12:42:43.518Z</time>
      </trkpt>
      <trkpt lat="45.81923" lon="-0.78617">
        <ele>22.62</ele>
        <time>2025-05-07T12:42:47.120Z</time>
      </trkpt>
      <trkpt lat="45.8194" lon="-0.78625">
        <ele>22.52</ele>
        <time>2025-05-07T12:42:50.724Z</time>
      </trkpt>
      <trkpt lat="45.81952" lon="-0.78628">
        <ele>22.41</ele>
        <time>2025-05-07T12:42:54.330Z</time>
      </trkpt>
      <trkpt lat="45.8196" lon="-0.78624">
        <ele>22.3</ele>
        <time>2025-05-07T12:42:57.938Z</time>
      </trkpt>
      <trkpt lat="45.81979" lon="-0.78599">
        <ele>22.18</ele>
        <time>2025-05-07T12:43:01.550Z</time>
      </trkpt>
      <trkpt lat="45.81997" lon="-0.78574">
        <ele>22.07</ele>
        <time>2025-05-07T12:43:05.166Z</time>
      </trkpt>
      <trkpt lat="45.8202" lon="-0.78551">
        <ele>21.94</ele>
        <time>2025-05-07T12:43:08.786Z</time>
      </trkpt>
      <trkpt lat="45.82035" lon="-0.78539">
        <ele>21.78</ele>
        <time>2025-05-07T12:43:12.409Z</time>
      </trkpt>
      <trkpt lat="45.8205" lon="-0.78528">
        <ele>21.59</ele>
        <time>2025-05-07T12:43:16.035Z</time>
      </trkpt>
      <trkpt lat="45.82066" lon="-0.78516">
        <ele>21.38</ele>
        <time>2025-05-07T12:43:19.664Z</time>
      </trkpt>
      <trkpt lat="45.82082" lon="-0.78504">
        <ele>21.16</ele>
        <time>2025-05-07T12:43:23.296Z</time>
      </trkpt>
      <trkpt lat="45.82092" lon="-0.78497">
        <ele>20.93</ele>
        <time>2025-05-07T12:43:26.929Z</time>
      </trkpt>
      <trkpt lat="45.82116" lon="-0.78476">
        <ele>20.65</ele>
        <time>2025-05-07T12:43:30.567Z</time>
      </trkpt>
      <trkpt lat="45.82113" lon="-0.78469">
        <ele>20.43</ele>
        <time>2025-05-07T12:43:34.206Z</time>
      </trkpt>
      <trkpt lat="45.82102" lon="-0.78444">
        <ele>20.2</ele>
        <time>2025-05-07T12:43:37.848Z</time>
      </trkpt>
      <trkpt lat="45.82092" lon="-0.78419">
        <ele>19.96</ele>
        <time>2025-05-07T12:43:41.493Z</time>
      </trkpt>
      <trkpt lat="45.82099" lon="-0.7841">
        <ele>19.71</ele>
        <time>2025-05-07T12:43:45.140Z</time>
      </trkpt>
      <trkpt lat="45.82105" lon="-0.784">
        <ele>19.48</ele>
        <time>2025-05-07T12:43:48.788Z</time>
      </trkpt>
      <trkpt lat="45.82123" lon="-0.78364">
        <ele>19.18</ele>
        <time>2025-05-07T12:43:52.441Z</time>
      </trkpt>
      <trkpt lat="45.82138" lon="-0.78336">
        <ele>18.86</ele>
        <time>2025-05-07T12:43:56.098Z</time>
      </trkpt>
      <trkpt lat="45.82152" lon="-0.78308">
        <ele>18.6</ele>
        <time>2025-05-07T12:43:59.759Z</time>
      </trkpt>
      <trkpt lat="45.82167" lon="-0.7828">
        <ele>18.38</ele>
        <time>2025-05-07T12:44:03.424Z</time>
      </trkpt>
      <trkpt lat="45.8217" lon="-0.78275">
        <ele>18.27</ele>
        <time>2025-05-07T12:44:07.090Z</time>
      </trkpt>
      <trkpt lat="45.82187" lon="-0.7824">
        <ele>18.2</ele>
        <time>2025-05-07T12:44:10.761Z</time>
      </trkpt>
      <trkpt lat="45.82194" lon="-0.78228">
        <ele>18.21</ele>
        <time>2025-05-07T12:44:14.433Z</time>
      </trkpt>
      <trkpt lat="45.82189" lon="-0.78217">
        <ele>18.28</ele>
        <time>2025-05-07T12:44:18.107Z</time>
      </trkpt>
      <trkpt lat="45.82186" lon="-0.78205">
        <ele>18.38</ele>
        <time>2025-05-07T12:44:21.782Z</time>
      </trkpt>
      <trkpt lat="45.82182" lon="-0.78183">
        <ele>18.57</ele>
        <time>2025-05-07T12:44:25.460Z</time>
      </trkpt>
      <trkpt lat="45.82179" lon="-0.78161">
        <ele>18.81</ele>
        <time>2025-05-07T12:44:29.140Z</time>
      </trkpt>
      <trkpt lat="45.82178" lon="-0.78141">
        <ele>19.08</ele>
        <time>2025-05-07T12:44:32.823Z</time>
      </trkpt>
      <trkpt lat="45.82175" lon="-0.78117">
        <ele>19.38</ele>
        <time>2025-05-07T12:44:36.508Z</time>
      </trkpt>
      <trkpt lat="45.82172" lon="-0.78093">
        <ele>19.68</ele>
        <time>2025-05-07T12:44:40.196Z</time>
      </trkpt>
      <trkpt lat="45.82164" lon="-0.78057">
        <ele>20.07</ele>
        <time>2025-05-07T12:44:43.888Z</time>
      </trkpt>
      <trkpt lat="45.82158" lon="-0.78036">
        <ele>20.46</ele>
        <time>2025-05-07T12:44:47.583Z</time>
      </trkpt>
      <trkpt lat="45.82154" lon="-0.78013">
        <ele>20.9</ele>
        <time>2025-05-07T12:44:51.280Z</time>
      </trkpt>
      <trkpt lat="45.8215" lon="-0.7799">
        <ele>21.36</ele>
        <time>2025-05-07T12:44:54.980Z</time>
      </trkpt>
      <trkpt lat="45.82148" lon="-0.77965">
        <ele>21.82</ele>
        <time>2025-05-07T12:44:58.683Z</time>
      </trkpt>
      <trkpt lat="45.82146" lon="-0.77941">
        <ele>22.31</ele>
        <time>2025-05-07T12:45:02.389Z</time>
      </trkpt>
      <trkpt lat="45.82146" lon="-0.77897">
        <ele>22.82</ele>
        <time>2025-05-07T12:45:06.099Z</time>
      </trkpt>
      <trkpt lat="45.82146" lon="-0.77864">
        <ele>23.36</ele>
        <time>2025-05-07T12:45:09.813Z</time>
      </trkpt>
      <trkpt lat="45.82147" lon="-0.77835">
        <ele>23.91</ele>
        <time>2025-05-07T12:45:13.530Z</time>
      </trkpt>
      <trkpt lat="45.82148" lon="-0.77806">
        <ele>24.45</ele>
        <time>2025-05-07T12:45:17.251Z</time>
      </trkpt>
      <trkpt lat="45.8215" lon="-0.77783">
        <ele>24.98</ele>
        <time>2025-05-07T12:45:20.974Z</time>
      </trkpt>
      <trkpt lat="45.82155" lon="-0.77761">
        <ele>25.49</ele>
        <time>2025-05-07T12:45:24.700Z</time>
      </trkpt>
      <trkpt lat="45.82165" lon="-0.77723">
        <ele>25.94</ele>
        <time>2025-05-07T12:45:28.430Z</time>
      </trkpt>
      <trkpt lat="45.82175" lon="-0.77686">
        <ele>26.37</ele>
        <time>2025-05-07T12:45:32.165Z</time>
      </trkpt>
      <trkpt lat="45.82181" lon="-0.77663">
        <ele>26.84</ele>
        <time>2025-05-07T12:45:35.903Z</time>
      </trkpt>
      <trkpt lat="45.82186" lon="-0.7764">
        <ele>27.29</ele>
        <time>2025-05-07T12:45:39.643Z</time>
      </trkpt>
      <trkpt lat="45.82195" lon="-0.77597">
        <ele>27.74</ele>
        <time>2025-05-07T12:45:43.388Z</time>
      </trkpt>
      <trkpt lat="45.82203" lon="-0.77555">
        <ele>28.12</ele>
        <time>2025-05-07T12:45:47.138Z</time>
      </trkpt>
      <trkpt lat="45.82206" lon="-0.77529">
        <ele>28.48</ele>
        <time>2025-05-07T12:45:50.891Z</time>
      </trkpt>
      <trkpt lat="45.82208" lon="-0.77509">
        <ele>28.79</ele>
        <time>2025-05-07T12:45:54.646Z</time>
      </trkpt>
      <trkpt lat="45.82208" lon="-0.77494">
        <ele>29.09</ele>
        <time>2025-05-07T12:45:58.403Z</time>
      </trkpt>
      <trkpt lat="45.82205" lon="-0.77477">
        <ele>29.36</ele>
        <time>2025-05-07T12:46:02.162Z</time>
      </trkpt>
      <trkpt lat="45.82196" lon="-0.77448">
        <ele>29.57</ele>
        <time>2025-05-07T12:46:05.925Z</time>
      </trkpt>
      <trkpt lat="45.82191" lon="-0.77428">
        <ele>29.75</ele>
        <time>2025-05-07T12:46:09.690Z</time>
      </trkpt>
      <trkpt lat="45.82189" lon="-0.77411">
        <ele>29.89</ele>
        <time>2025-05-07T12:46:13.457Z</time>
      </trkpt>
      <trkpt lat="45.82189" lon="-0.77403">
        <ele>30</ele>
        <time>2025-05-07T12:46:17.225Z</time>
      </trkpt>
      <trkpt lat="45.8219" lon="-0.77394">
        <ele>30.08</ele>
        <time>2025-05-07T12:46:20.994Z</time>
      </trkpt>
      <trkpt lat="45.82194" lon="-0.7738">
        <ele>30.13</ele>
        <time>2025-05-07T12:46:24.764Z</time>
      </trkpt>
      <trkpt lat="45.82207" lon="-0.77349">
        <ele>30.16</ele>
        <time>2025-05-07T12:46:28.538Z</time>
      </trkpt>
      <trkpt lat="45.82219" lon="-0.77319">
        <ele>30.16</ele>
        <time>2025-05-07T12:46:32.316Z</time>
      </trkpt>
      <trkpt lat="45.82232" lon="-0.77288">
        <ele>30.13</ele>
        <time>2025-05-07T12:46:36.098Z</time>
      </trkpt>
      <trkpt lat="45.82244" lon="-0.77259">
        <ele>30.06</ele>
        <time>2025-05-07T12:46:39.884Z</time>
      </trkpt>
      <trkpt lat="45.82255" lon="-0.77231">
        <ele>29.98</ele>
        <time>2025-05-07T12:46:43.674Z</time>
      </trkpt>
      <trkpt lat="45.82264" lon="-0.77208">
        <ele>29.89</ele>
        <time>2025-05-07T12:46:47.467Z</time>
      </trkpt>
      <trkpt lat="45.82272" lon="-0.77186">
        <ele>29.79</ele>
        <time>2025-05-07T12:46:51.263Z</time>
      </trkpt>
      <trkpt lat="45.82284" lon="-0.77155">
        <ele>29.67</ele>
        <time>2025-05-07T12:46:55.062Z</time>
      </trkpt>
      <trkpt lat="45.82294" lon="-0.77117">
        <ele>29.57</ele>
        <time>2025-05-07T12:46:58.866Z</time>
      </trkpt>
      <trkpt lat="45.82304" lon="-0.77079">
        <ele>29.46</ele>
        <time>2025-05-07T12:47:02.675Z</time>
      </trkpt>
      <trkpt lat="45.82313" lon="-0.77038">
        <ele>29.35</ele>
        <time>2025-05-07T12:47:06.488Z</time>
      </trkpt>
      <trkpt lat="45.82323" lon="-0.76997">
        <ele>29.25</ele>
        <time>2025-05-07T12:47:10.306Z</time>
      </trkpt>
      <trkpt lat="45.82332" lon="-0.76956">
        <ele>29.12</ele>
        <time>2025-05-07T12:47:14.129Z</time>
      </trkpt>
      <trkpt lat="45.82341" lon="-0.76915">
        <ele>29.06</ele>
        <time>2025-05-07T12:47:17.957Z</time>
      </trkpt>
      <trkpt lat="45.82345" lon="-0.76892">
        <ele>29.04</ele>
        <time>2025-05-07T12:47:21.788Z</time>
      </trkpt>
      <trkpt lat="45.82347" lon="-0.76866">
        <ele>29.06</ele>
        <time>2025-05-07T12:47:25.621Z</time>
      </trkpt>
      <trkpt lat="45.82347" lon="-0.76823">
        <ele>29.01</ele>
        <time>2025-05-07T12:47:29.459Z</time>
      </trkpt>
      <trkpt lat="45.82347" lon="-0.7678">
        <ele>28.99</ele>
        <time>2025-05-07T12:47:33.302Z</time>
      </trkpt>
      <trkpt lat="45.82347" lon="-0.76738">
        <ele>29.03</ele>
        <time>2025-05-07T12:47:37.150Z</time>
      </trkpt>
      <trkpt lat="45.82347" lon="-0.76695">
        <ele>29.11</ele>
        <time>2025-05-07T12:47:41.003Z</time>
      </trkpt>
      <trkpt lat="45.82347" lon="-0.76652">
        <ele>29.24</ele>
        <time>2025-05-07T12:47:44.860Z</time>
      </trkpt>
      <trkpt lat="45.82347" lon="-0.76609">
        <ele>29.39</ele>
        <time>2025-05-07T12:47:48.722Z</time>
      </trkpt>
      <trkpt lat="45.82347" lon="-0.76567">
        <ele>29.53</ele>
        <time>2025-05-07T12:47:52.589Z</time>
      </trkpt>
      <trkpt lat="45.82347" lon="-0.76524">
        <ele>29.68</ele>
        <time>2025-05-07T12:47:56.461Z</time>
      </trkpt>
      <trkpt lat="45.82347" lon="-0.76482">
        <ele>29.85</ele>
        <time>2025-05-07T12:48:00.337Z</time>
      </trkpt>
      <trkpt lat="45.82346" lon="-0.76456">
        <ele>30.08</ele>
        <time>2025-05-07T12:48:04.216Z</time>
      </trkpt>
      <trkpt lat="45.8234" lon="-0.7642">
        <ele>30.3</ele>
        <time>2025-05-07T12:48:08.099Z</time>
      </trkpt>
      <trkpt lat="45.82335" lon="-0.76384">
        <ele>30.52</ele>
        <time>2025-05-07T12:48:11.987Z</time>
      </trkpt>
      <trkpt lat="45.82329" lon="-0.76348">
        <ele>30.78</ele>
        <time>2025-05-07T12:48:15.879Z</time>
      </trkpt>
      <trkpt lat="45.82324" lon="-0.76313">
        <ele>31.04</ele>
        <time>2025-05-07T12:48:19.775Z</time>
      </trkpt>
      <trkpt lat="45.82318" lon="-0.76285">
        <ele>31.33</ele>
        <time>2025-05-07T12:48:23.674Z</time>
      </trkpt>
      <trkpt lat="45.82308" lon="-0.76253">
        <ele>31.58</ele>
        <time>2025-05-07T12:48:27.577Z</time>
      </trkpt>
      <trkpt lat="45.82301" lon="-0.76231">
        <ele>31.84</ele>
        <time>2025-05-07T12:48:31.483Z</time>
      </trkpt>
      <trkpt lat="45.82294" lon="-0.76209">
        <ele>32.05</ele>
        <time>2025-05-07T12:48:35.391Z</time>
      </trkpt>
      <trkpt lat="45.82288" lon="-0.76182">
        <ele>32.28</ele>
        <time>2025-05-07T12:48:39.302Z</time>
      </trkpt>
      <trkpt lat="45.82285" lon="-0.76159">
        <ele>32.51</ele>
        <time>2025-05-07T12:48:43.216Z</time>
      </trkpt>
      <trkpt lat="45.82285" lon="-0.76128">
        <ele>32.72</ele>
        <time>2025-05-07T12:48:47.134Z</time>
      </trkpt>
      <trkpt lat="45.82287" lon="-0.76101">
        <ele>32.88</ele>
        <time>2025-05-07T12:48:51.055Z</time>
      </trkpt>
      <trkpt lat="45.8229" lon="-0.76074">
        <ele>33.03</ele>
        <time>2025-05-07T12:48:54.979Z</time>
      </trkpt>
      <trkpt lat="45.8229" lon="-0.76046">
        <ele>33.18</ele>
        <time>2025-05-07T12:48:58.906Z</time>
      </trkpt>
      <trkpt lat="45.82287" lon="-0.7602">
        <ele>33.31</ele>
        <time>2025-05-07T12:49:02.836Z</time>
      </trkpt>
      <trkpt lat="45.82282" lon="-0.76">
        <ele>33.4</ele>
        <time>2025-05-07T12:49:06.768Z</time>
      </trkpt>
      <trkpt lat="45.8227" lon="-0.75968">
        <ele>33.46</ele>
        <time>2025-05-07T12:49:10.704Z</time>
      </trkpt>
      <trkpt lat="45.82259" lon="-0.75936">
        <ele>33.49</ele>
        <time>2025-05-07T12:49:14.644Z</time>
      </trkpt>
      <trkpt lat="45.82254" lon="-0.75916">
        <ele>33.52</ele>
        <time>2025-05-07T12:49:18.587Z</time>
      </trkpt>
      <trkpt lat="45.82251" lon="-0.75894">
        <ele>33.55</ele>
        <time>2025-05-07T12:49:22.532Z</time>
      </trkpt>
      <trkpt lat="45.8225" lon="-0.75873">
        <ele>33.51</ele>
        <time>2025-05-07T12:49:26.479Z</time>
      </trkpt>
      <trkpt lat="45.82252" lon="-0.75846">
        <ele>33.42</ele>
        <time>2025-05-07T12:49:30.429Z</time>
      </trkpt>
      <trkpt lat="45.82256" lon="-0.7582">
        <ele>33.29</ele>
        <time>2025-05-07T12:49:34.382Z</time>
      </trkpt>
      <trkpt lat="45.82263" lon="-0.75798">
        <ele>33.14</ele>
        <time>2025-05-07T12:49:38.338Z</time>
      </trkpt>
      <trkpt lat="45.82272" lon="-0.75775">
        <ele>33.01</ele>
        <time>2025-05-07T12:49:42.297Z</time>
      </trkpt>
      <trkpt lat="45.82282" lon="-0.75757">
        <ele>32.88</ele>
        <time>2025-05-07T12:49:46.259Z</time>
      </trkpt>
      <trkpt lat="45.82292" lon="-0.7574">
        <ele>32.75</ele>
        <time>2025-05-07T12:49:50.223Z</time>
      </trkpt>
      <trkpt lat="45.82304" lon="-0.75718">
        <ele>32.61</ele>
        <time>2025-05-07T12:49:54.190Z</time>
      </trkpt>
      <trkpt lat="45.82308" lon="-0.75708">
        <ele>32.46</ele>
        <time>2025-05-07T12:49:58.159Z</time>
      </trkpt>
      <trkpt lat="45.82317" lon="-0.75687">
        <ele>32.29</ele>
        <time>2025-05-07T12:50:02.130Z</time>
      </trkpt>
      <trkpt lat="45.82326" lon="-0.75655">
        <ele>32.09</ele>
        <time>2025-05-07T12:50:06.105Z</time>
      </trkpt>
      <trkpt lat="45.82332" lon="-0.7563">
        <ele>31.9</ele>
        <time>2025-05-07T12:50:10.083Z</time>
      </trkpt>
      <trkpt lat="45.82338" lon="-0.75605">
        <ele>31.76</ele>
        <time>2025-05-07T12:50:14.064Z</time>
      </trkpt>
      <trkpt lat="45.82344" lon="-0.75571">
        <ele>31.62</ele>
        <time>2025-05-07T12:50:18.049Z</time>
      </trkpt>
      <trkpt lat="45.8235" lon="-0.75538">
        <ele>31.48</ele>
        <time>2025-05-07T12:50:22.038Z</time>
      </trkpt>
      <trkpt lat="45.82353" lon="-0.75529">
        <ele>31.37</ele>
        <time>2025-05-07T12:50:26.028Z</time>
      </trkpt>
      <trkpt lat="45.82349" lon="-0.75521">
        <ele>31.29</ele>
        <time>2025-05-07T12:50:30.019Z</time>
      </trkpt>
      <trkpt lat="45.82348" lon="-0.75511">
        <ele>31.24</ele>
        <time>2025-05-07T12:50:34.011Z</time>
      </trkpt>
      <trkpt lat="45.82345" lon="-0.75473">
        <ele>31.21</ele>
        <time>2025-05-07T12:50:38.007Z</time>
      </trkpt>
      <trkpt lat="45.82343" lon="-0.75435">
        <ele>31.19</ele>
        <time>2025-05-07T12:50:42.008Z</time>
      </trkpt>
      <trkpt lat="45.8234" lon="-0.75397">
        <ele>31.2</ele>
        <time>2025-05-07T12:50:46.013Z</time>
      </trkpt>
      <trkpt lat="45.82338" lon="-0.7536">
        <ele>31.23</ele>
        <time>2025-05-07T12:50:50.022Z</time>
      </trkpt>
      <trkpt lat="45.82335" lon="-0.75334">
        <ele>31.29</ele>
        <time>2025-05-07T12:50:54.034Z</time>
      </trkpt>
      <trkpt lat="45.8233" lon="-0.75311">
        <ele>31.38</ele>
        <time>2025-05-07T12:50:58.049Z</time>
      </trkpt>
      <trkpt lat="45.82325" lon="-0.75291">
        <ele>31.47</ele>
        <time>2025-05-07T12:51:02.066Z</time>
      </trkpt>
      <trkpt lat="45.82314" lon="-0.75264">
        <ele>31.58</ele>
        <time>2025-05-07T12:51:06.087Z</time>
      </trkpt>
      <trkpt lat="45.82299" lon="-0.75234">
        <ele>31.74</ele>
        <time>2025-05-07T12:51:10.112Z</time>
      </trkpt>
      <trkpt lat="45.82285" lon="-0.75205">
        <ele>31.95</ele>
        <time>2025-05-07T12:51:14.141Z</time>
      </trkpt>
      <trkpt lat="45.82275" lon="-0.75186">
        <ele>32.11</ele>
        <time>2025-05-07T12:51:18.172Z</time>
      </trkpt>
      <trkpt lat="45.82266" lon="-0.75168">
        <ele>32.26</ele>
        <time>2025-05-07T12:51:22.206Z</time>
      </trkpt>
      <trkpt lat="45.82254" lon="-0.75137">
        <ele>32.39</ele>
        <time>2025-05-07T12:51:26.244Z</time>
      </trkpt>
      <trkpt lat="45.82241" lon="-0.75106">
        <ele>32.52</ele>
        <time>2025-05-07T12:51:30.286Z</time>
      </trkpt>
      <trkpt lat="45.82229" lon="-0.75075">
        <ele>32.61</ele>
        <time>2025-05-07T12:51:34.332Z</time>
      </trkpt>
      <trkpt lat="45.82214" lon="-0.75042">
        <ele>32.77</ele>
        <time>2025-05-07T12:51:38.382Z</time>
      </trkpt>
      <trkpt lat="45.82199" lon="-0.75009">
        <ele>32.84</ele>
        <time>2025-05-07T12:51:42.437Z</time>
      </trkpt>
      <trkpt lat="45.82184" lon="-0.74976">
        <ele>32.91</ele>
        <time>2025-05-07T12:51:46.496Z</time>
      </trkpt>
      <trkpt lat="45.82169" lon="-0.74943">
        <ele>33.01</ele>
        <time>2025-05-07T12:51:50.559Z</time>
      </trkpt>
      <trkpt lat="45.82155" lon="-0.74914">
        <ele>33.19</ele>
        <time>2025-05-07T12:51:54.626Z</time>
      </trkpt>
      <trkpt lat="45.82142" lon="-0.74885">
        <ele>33.32</ele>
        <time>2025-05-07T12:51:58.697Z</time>
      </trkpt>
      <trkpt lat="45.82128" lon="-0.74856">
        <ele>33.45</ele>
        <time>2025-05-07T12:52:02.772Z</time>
      </trkpt>
      <trkpt lat="45.82113" lon="-0.74829">
        <ele>33.61</ele>
        <time>2025-05-07T12:52:06.851Z</time>
      </trkpt>
      <trkpt lat="45.821" lon="-0.74807">
        <ele>33.73</ele>
        <time>2025-05-07T12:52:10.933Z</time>
      </trkpt>
      <trkpt lat="45.82087" lon="-0.74786">
        <ele>33.84</ele>
        <time>2025-05-07T12:52:15.018Z</time>
      </trkpt>
      <trkpt lat="45.82077" lon="-0.74766">
        <ele>33.89</ele>
        <time>2025-05-07T12:52:19.106Z</time>
      </trkpt>
      <trkpt lat="45.82071" lon="-0.74744">
        <ele>33.94</ele>
        <time>2025-05-07T12:52:23.197Z</time>
      </trkpt>
      <trkpt lat="45.82067" lon="-0.74722">
        <ele>34</ele>
        <time>2025-05-07T12:52:27.290Z</time>
      </trkpt>
      <trkpt lat="45.82066" lon="-0.74701">
        <ele>34.02</ele>
        <time>2025-05-07T12:52:31.386Z</time>
      </trkpt>
      <trkpt lat="45.82068" lon="-0.74678">
        <ele>34.07</ele>
        <time>2025-05-07T12:52:35.484Z</time>
      </trkpt>
      <trkpt lat="45.82075" lon="-0.74644">
        <ele>34.13</ele>
        <time>2025-05-07T12:52:39.586Z</time>
      </trkpt>
      <trkpt lat="45.82082" lon="-0.7461">
        <ele>34.19</ele>
        <time>2025-05-07T12:52:43.692Z</time>
      </trkpt>
      <trkpt lat="45.82088" lon="-0.74573">
        <ele>34.2</ele>
        <time>2025-05-07T12:52:47.803Z</time>
      </trkpt>
      <trkpt lat="45.82089" lon="-0.74562">
        <ele>34.2</ele>
        <time>2025-05-07T12:52:51.915Z</time>
      </trkpt>
      <trkpt lat="45.82089" lon="-0.74543">
        <ele>34.19</ele>
        <time>2025-05-07T12:52:56.029Z</time>
      </trkpt>
      <trkpt lat="45.82087" lon="-0.74516">
        <ele>34.14</ele>
        <time>2025-05-07T12:53:00.146Z</time>
      </trkpt>
      <trkpt lat="45.82083" lon="-0.74496">
        <ele>34.1</ele>
        <time>2025-05-07T12:53:04.265Z</time>
      </trkpt>
      <trkpt lat="45.82075" lon="-0.74472">
        <ele>34.07</ele>
        <time>2025-05-07T12:53:08.387Z</time>
      </trkpt>
      <trkpt lat="45.82061" lon="-0.74443">
        <ele>34</ele>
        <time>2025-05-07T12:53:12.513Z</time>
      </trkpt>
      <trkpt lat="45.82047" lon="-0.74414">
        <ele>33.96</ele>
        <time>2025-05-07T12:53:16.643Z</time>
      </trkpt>
      <trkpt lat="45.82036" lon="-0.7439">
        <ele>33.91</ele>
        <time>2025-05-07T12:53:20.776Z</time>
      </trkpt>
      <trkpt lat="45.82025" lon="-0.74366">
        <ele>33.86</ele>
        <time>2025-05-07T12:53:24.913Z</time>
      </trkpt>
      <trkpt lat="45.8201" lon="-0.74328">
        <ele>33.86</ele>
        <time>2025-05-07T12:53:29.054Z</time>
      </trkpt>
      <trkpt lat="45.81998" lon="-0.74293">
        <ele>33.84</ele>
        <time>2025-05-07T12:53:33.200Z</time>
      </trkpt>
      <trkpt lat="45.81991" lon="-0.74268">
        <ele>33.75</ele>
        <time>2025-05-07T12:53:37.349Z</time>
      </trkpt>
      <trkpt lat="45.81985" lon="-0.74242">
        <ele>33.59</ele>
        <time>2025-05-07T12:53:41.501Z</time>
      </trkpt>
      <trkpt lat="45.8198" lon="-0.74217">
        <ele>33.43</ele>
        <time>2025-05-07T12:53:45.656Z</time>
      </trkpt>
      <trkpt lat="45.81973" lon="-0.74177">
        <ele>33.21</ele>
        <time>2025-05-07T12:53:49.815Z</time>
      </trkpt>
      <trkpt lat="45.8197" lon="-0.74155">
        <ele>33.02</ele>
        <time>2025-05-07T12:53:53.977Z</time>
      </trkpt>
      <trkpt lat="45.81971" lon="-0.74123">
        <ele>32.81</ele>
        <time>2025-05-07T12:53:58.142Z</time>
      </trkpt>
      <trkpt lat="45.81972" lon="-0.74091">
        <ele>32.6</ele>
        <time>2025-05-07T12:54:02.311Z</time>
      </trkpt>
      <trkpt lat="45.8197" lon="-0.74061">
        <ele>32.47</ele>
        <time>2025-05-07T12:54:06.483Z</time>
      </trkpt>
      <trkpt lat="45.81964" lon="-0.74017">
        <ele>32.36</ele>
        <time>2025-05-07T12:54:10.660Z</time>
      </trkpt>
      <trkpt lat="45.81959" lon="-0.73988">
        <ele>32.32</ele>
        <time>2025-05-07T12:54:14.841Z</time>
      </trkpt>
      <trkpt lat="45.81948" lon="-0.73956">
        <ele>32.3</ele>
        <time>2025-05-07T12:54:19.026Z</time>
      </trkpt>
      <trkpt lat="45.81938" lon="-0.7393">
        <ele>32.32</ele>
        <time>2025-05-07T12:54:23.214Z</time>
      </trkpt>
      <trkpt lat="45.81928" lon="-0.73905">
        <ele>32.33</ele>
        <time>2025-05-07T12:54:27.405Z</time>
      </trkpt>
      <trkpt lat="45.81917" lon="-0.73875">
        <ele>32.38</ele>
        <time>2025-05-07T12:54:31.600Z</time>
      </trkpt>
      <trkpt lat="45.81906" lon="-0.73846">
        <ele>32.38</ele>
        <time>2025-05-07T12:54:35.799Z</time>
      </trkpt>
      <trkpt lat="45.81901" lon="-0.73828">
        <ele>32.4</ele>
        <time>2025-05-07T12:54:40.000Z</time>
      </trkpt>
      <trkpt lat="45.81898" lon="-0.7381">
        <ele>32.42</ele>
        <time>2025-05-07T12:54:44.203Z</time>
      </trkpt>
      <trkpt lat="45.81898" lon="-0.73786">
        <ele>32.49</ele>
        <time>2025-05-07T12:54:48.409Z</time>
      </trkpt>
      <trkpt lat="45.81901" lon="-0.73742">
        <ele>32.6</ele>
        <time>2025-05-07T12:54:52.620Z</time>
      </trkpt>
      <trkpt lat="45.81904" lon="-0.73699">
        <ele>32.66</ele>
        <time>2025-05-07T12:54:56.836Z</time>
      </trkpt>
      <trkpt lat="45.81906" lon="-0.73668">
        <ele>32.71</ele>
        <time>2025-05-07T12:55:01.055Z</time>
      </trkpt>
      <trkpt lat="45.81908" lon="-0.73638">
        <ele>32.77</ele>
        <time>2025-05-07T12:55:05.277Z</time>
      </trkpt>
      <trkpt lat="45.81912" lon="-0.73595">
        <ele>32.87</ele>
        <time>2025-05-07T12:55:09.504Z</time>
      </trkpt>
      <trkpt lat="45.81916" lon="-0.73552">
        <ele>32.94</ele>
        <time>2025-05-07T12:55:13.736Z</time>
      </trkpt>
      <trkpt lat="45.8192" lon="-0.73509">
        <ele>32.95</ele>
        <time>2025-05-07T12:55:17.973Z</time>
      </trkpt>
      <trkpt lat="45.81924" lon="-0.73467">
        <ele>32.99</ele>
        <time>2025-05-07T12:55:22.215Z</time>
      </trkpt>
      <trkpt lat="45.81927" lon="-0.73448">
        <ele>33.03</ele>
        <time>2025-05-07T12:55:26.459Z</time>
      </trkpt>
      <trkpt lat="45.81932" lon="-0.73428">
        <ele>33.08</ele>
        <time>2025-05-07T12:55:30.705Z</time>
      </trkpt>
      <trkpt lat="45.81942" lon="-0.73404">
        <ele>33.14</ele>
        <time>2025-05-07T12:55:34.954Z</time>
      </trkpt>
      <trkpt lat="45.81958" lon="-0.73377">
        <ele>33.19</ele>
        <time>2025-05-07T12:55:39.207Z</time>
      </trkpt>
      <trkpt lat="45.81975" lon="-0.7335">
        <ele>33.25</ele>
        <time>2025-05-07T12:55:43.464Z</time>
      </trkpt>
      <trkpt lat="45.81991" lon="-0.73323">
        <ele>33.27</ele>
        <time>2025-05-07T12:55:47.725Z</time>
      </trkpt>
      <trkpt lat="45.82003" lon="-0.733">
        <ele>33.31</ele>
        <time>2025-05-07T12:55:51.990Z</time>
      </trkpt>
      <trkpt lat="45.82012" lon="-0.73276">
        <ele>33.38</ele>
        <time>2025-05-07T12:55:56.258Z</time>
      </trkpt>
      <trkpt lat="45.82016" lon="-0.73257">
        <ele>33.48</ele>
        <time>2025-05-07T12:56:00.528Z</time>
      </trkpt>
      <trkpt lat="45.8202" lon="-0.73231">
        <ele>33.58</ele>
        <time>2025-05-07T12:56:04.801Z</time>
      </trkpt>
      <trkpt lat="45.82024" lon="-0.73206">
        <ele>33.72</ele>
        <time>2025-05-07T12:56:09.077Z</time>
      </trkpt>
      <trkpt lat="45.82027" lon="-0.73165">
        <ele>33.9</ele>
        <time>2025-05-07T12:56:13.357Z</time>
      </trkpt>
      <trkpt lat="45.82027" lon="-0.7315">
        <ele>34.09</ele>
        <time>2025-05-07T12:56:17.639Z</time>
      </trkpt>
      <trkpt lat="45.82025" lon="-0.73134">
        <ele>34.29</ele>
        <time>2025-05-07T12:56:21.923Z</time>
      </trkpt>
      <trkpt lat="45.82017" lon="-0.73101">
        <ele>34.52</ele>
        <time>2025-05-07T12:56:26.211Z</time>
      </trkpt>
      <trkpt lat="45.82009" lon="-0.73067">
        <ele>34.77</ele>
        <time>2025-05-07T12:56:30.503Z</time>
      </trkpt>
      <trkpt lat="45.82001" lon="-0.73034">
        <ele>35.02</ele>
        <time>2025-05-07T12:56:34.799Z</time>
      </trkpt>
      <trkpt lat="45.8199" lon="-0.73">
        <ele>35.3</ele>
        <time>2025-05-07T12:56:39.099Z</time>
      </trkpt>
      <trkpt lat="45.81976" lon="-0.72967">
        <ele>35.7</ele>
        <time>2025-05-07T12:56:43.403Z</time>
      </trkpt>
      <trkpt lat="45.81963" lon="-0.72935">
        <ele>36.07</ele>
        <time>2025-05-07T12:56:47.711Z</time>
      </trkpt>
      <trkpt lat="45.81949" lon="-0.72902">
        <ele>36.45</ele>
        <time>2025-05-07T12:56:52.024Z</time>
      </trkpt>
      <trkpt lat="45.81945" lon="-0.72892">
        <ele>36.82</ele>
        <time>2025-05-07T12:56:56.338Z</time>
      </trkpt>
      <trkpt lat="45.81935" lon="-0.7287">
        <ele>37.22</ele>
        <time>2025-05-07T12:57:00.655Z</time>
      </trkpt>
      <trkpt lat="45.81926" lon="-0.72848">
        <ele>37.66</ele>
        <time>2025-05-07T12:57:04.975Z</time>
      </trkpt>
      <trkpt lat="45.81924" lon="-0.72844">
        <ele>38.13</ele>
        <time>2025-05-07T12:57:09.295Z</time>
      </trkpt>
      <trkpt lat="45.81912" lon="-0.72817">
        <ele>38.62</ele>
        <time>2025-05-07T12:57:13.619Z</time>
      </trkpt>
      <trkpt lat="45.81901" lon="-0.7279">
        <ele>39.18</ele>
        <time>2025-05-07T12:57:17.946Z</time>
      </trkpt>
      <trkpt lat="45.81888" lon="-0.72762">
        <ele>39.79</ele>
        <time>2025-05-07T12:57:22.277Z</time>
      </trkpt>
      <trkpt lat="45.81876" lon="-0.72735">
        <ele>40.42</ele>
        <time>2025-05-07T12:57:26.612Z</time>
      </trkpt>
      <trkpt lat="45.81865" lon="-0.72712">
        <ele>41.04</ele>
        <time>2025-05-07T12:57:30.950Z</time>
      </trkpt>
      <trkpt lat="45.8186" lon="-0.72699">
        <ele>41.65</ele>
        <time>2025-05-07T12:57:35.289Z</time>
      </trkpt>
      <trkpt lat="45.81847" lon="-0.72673">
        <ele>42.3</ele>
        <time>2025-05-07T12:57:39.632Z</time>
      </trkpt>
      <trkpt lat="45.81837" lon="-0.72655">
        <ele>42.88</ele>
        <time>2025-05-07T12:57:43.978Z</time>
      </trkpt>
      <trkpt lat="45.81827" lon="-0.72637">
        <ele>43.46</ele>
        <time>2025-05-07T12:57:48.326Z</time>
      </trkpt>
      <trkpt lat="45.81812" lon="-0.72614">
        <ele>44.05</ele>
        <time>2025-05-07T12:57:52.678Z</time>
      </trkpt>
      <trkpt lat="45.818" lon="-0.72597">
        <ele>44.69</ele>
        <time>2025-05-07T12:57:57.032Z</time>
      </trkpt>
      <trkpt lat="45.81795" lon="-0.72594">
        <ele>45.25</ele>
        <time>2025-05-07T12:58:01.387Z</time>
      </trkpt>
      <trkpt lat="45.81777" lon="-0.72576">
        <ele>45.86</ele>
        <time>2025-05-07T12:58:05.746Z</time>
      </trkpt>
      <trkpt lat="45.81758" lon="-0.72563">
        <ele>46.4</ele>
        <time>2025-05-07T12:58:10.108Z</time>
      </trkpt>
      <trkpt lat="45.81755" lon="-0.72558">
        <ele>46.94</ele>
        <time>2025-05-07T12:58:14.471Z</time>
      </trkpt>
      <trkpt lat="45.81748" lon="-0.72536">
        <ele>47.52</ele>
        <time>2025-05-07T12:58:18.837Z</time>
      </trkpt>
      <trkpt lat="45.81741" lon="-0.72514">
        <ele>48.04</ele>
        <time>2025-05-07T12:58:23.205Z</time>
      </trkpt>
      <trkpt lat="45.81739" lon="-0.72507">
        <ele>48.52</ele>
        <time>2025-05-07T12:58:27.574Z</time>
      </trkpt>
      <trkpt lat="45.81737" lon="-0.72503">
        <ele>48.97</ele>
        <time>2025-05-07T12:58:31.944Z</time>
      </trkpt>
      <trkpt lat="45.81755" lon="-0.72481">
        <ele>49.39</ele>
        <time>2025-05-07T12:58:36.317Z</time>
      </trkpt>
      <trkpt lat="45.81756" lon="-0.7248">
        <ele>49.8</ele>
        <time>2025-05-07T12:58:40.691Z</time>
      </trkpt>
      <trkpt lat="45.81765" lon="-0.72468">
        <ele>50.17</ele>
        <time>2025-05-07T12:58:45.067Z</time>
      </trkpt>
      <trkpt lat="45.81773" lon="-0.72459">
        <ele>50.53</ele>
        <time>2025-05-07T12:58:49.444Z</time>
      </trkpt>
      <trkpt lat="45.81785" lon="-0.72444">
        <ele>50.88</ele>
        <time>2025-05-07T12:58:53.824Z</time>
      </trkpt>
      <trkpt lat="45.81783" lon="-0.72441">
        <ele>51.2</ele>
        <time>2025-05-07T12:58:58.204Z</time>
      </trkpt>
      <trkpt lat="45.81778" lon="-0.72433">
        <ele>51.5</ele>
        <time>2025-05-07T12:59:02.585Z</time>
      </trkpt>
      <trkpt lat="45.81765" lon="-0.72401">
        <ele>51.79</ele>
        <time>2025-05-07T12:59:06.971Z</time>
      </trkpt>
      <trkpt lat="45.81757" lon="-0.72383">
        <ele>52.04</ele>
        <time>2025-05-07T12:59:11.359Z</time>
      </trkpt>
      <trkpt lat="45.81755" lon="-0.72378">
        <ele>52.28</ele>
        <time>2025-05-07T12:59:15.748Z</time>
      </trkpt>
      <trkpt lat="45.81742" lon="-0.72348">
        <ele>52.54</ele>
        <time>2025-05-07T12:59:20.141Z</time>
      </trkpt>
      <trkpt lat="45.81729" lon="-0.72319">
        <ele>52.73</ele>
        <time>2025-05-07T12:59:24.537Z</time>
      </trkpt>
      <trkpt lat="45.81717" lon="-0.72289">
        <ele>52.96</ele>
        <time>2025-05-07T12:59:28.937Z</time>
      </trkpt>
      <trkpt lat="45.81704" lon="-0.7226">
        <ele>53.13</ele>
        <time>2025-05-07T12:59:33.341Z</time>
      </trkpt>
      <trkpt lat="45.81694" lon="-0.72238">
        <ele>53.28</ele>
        <time>2025-05-07T12:59:37.748Z</time>
      </trkpt>
      <trkpt lat="45.81679" lon="-0.72214">
        <ele>53.42</ele>
        <time>2025-05-07T12:59:42.159Z</time>
      </trkpt>
      <trkpt lat="45.81659" lon="-0.72192">
        <ele>53.55</ele>
        <time>2025-05-07T12:59:46.574Z</time>
      </trkpt>
      <trkpt lat="45.81634" lon="-0.72169">
        <ele>53.71</ele>
        <time>2025-05-07T12:59:50.993Z</time>
      </trkpt>
      <trkpt lat="45.81609" lon="-0.72147">
        <ele>53.82</ele>
        <time>2025-05-07T12:59:55.417Z</time>
      </trkpt>
      <trkpt lat="45.81585" lon="-0.72124">
        <ele>53.88</ele>
        <time>2025-05-07T12:59:59.846Z</time>
      </trkpt>
      <trkpt lat="45.8156" lon="-0.72102">
        <ele>53.94</ele>
        <time>2025-05-07T13:00:04.280Z</time>
      </trkpt>
      <trkpt lat="45.81535" lon="-0.72079">
        <ele>54.01</ele>
        <time>2025-05-07T13:00:08.718Z</time>
      </trkpt>
      <trkpt lat="45.81527" lon="-0.72075">
        <ele>54.12</ele>
        <time>2025-05-07T13:00:13.158Z</time>
      </trkpt>
      <trkpt lat="45.81517" lon="-0.72071">
        <ele>54.2</ele>
        <time>2025-05-07T13:00:17.599Z</time>
      </trkpt>
      <trkpt lat="45.81499" lon="-0.72068">
        <ele>54.29</ele>
        <time>2025-05-07T13:00:22.043Z</time>
      </trkpt>
      <trkpt lat="45.81479" lon="-0.72067">
        <ele>54.41</ele>
        <time>2025-05-07T13:00:26.490Z</time>
      </trkpt>
      <trkpt lat="45.81458" lon="-0.72067">
        <ele>54.51</ele>
        <time>2025-05-07T13:00:30.941Z</time>
      </trkpt>
      <trkpt lat="45.81442" lon="-0.72066">
        <ele>54.6</ele>
        <time>2025-05-07T13:00:35.394Z</time>
      </trkpt>
      <trkpt lat="45.8143" lon="-0.72062">
        <ele>54.7</ele>
        <time>2025-05-07T13:00:39.849Z</time>
      </trkpt>
      <trkpt lat="45.81423" lon="-0.72058">
        <ele>54.81</ele>
        <time>2025-05-07T13:00:44.305Z</time>
      </trkpt>
      <trkpt lat="45.81415" lon="-0.72051">
        <ele>54.93</ele>
        <time>2025-05-07T13:00:48.763Z</time>
      </trkpt>
      <trkpt lat="45.81408" lon="-0.72043">
        <ele>55.04</ele>
        <time>2025-05-07T13:00:53.222Z</time>
      </trkpt>
      <trkpt lat="45.81402" lon="-0.72032">
        <ele>55.14</ele>
        <time>2025-05-07T13:00:57.683Z</time>
      </trkpt>
      <trkpt lat="45.81388" lon="-0.71996">
        <ele>55.27</ele>
        <time>2025-05-07T13:01:02.149Z</time>
      </trkpt>
      <trkpt lat="45.81373" lon="-0.71959">
        <ele>55.41</ele>
        <time>2025-05-07T13:01:06.619Z</time>
      </trkpt>
      <trkpt lat="45.81359" lon="-0.71923">
        <ele>55.6</ele>
        <time>2025-05-07T13:01:11.094Z</time>
      </trkpt>
      <trkpt lat="45.81346" lon="-0.71889">
        <ele>55.74</ele>
        <time>2025-05-07T13:01:15.573Z</time>
      </trkpt>
      <trkpt lat="45.81333" lon="-0.71856">
        <ele>55.85</ele>
        <time>2025-05-07T13:01:20.057Z</time>
      </trkpt>
      <trkpt lat="45.81319" lon="-0.71822">
        <ele>55.94</ele>
        <time>2025-05-07T13:01:24.545Z</time>
      </trkpt>
      <trkpt lat="45.81306" lon="-0.71788">
        <ele>56.04</ele>
        <time>2025-05-07T13:01:29.037Z</time>
      </trkpt>
      <trkpt lat="45.81293" lon="-0.71755">
        <ele>56.19</ele>
        <time>2025-05-07T13:01:33.534Z</time>
      </trkpt>
      <trkpt lat="45.81282" lon="-0.7173">
        <ele>56.33</ele>
        <time>2025-05-07T13:01:38.034Z</time>
      </trkpt>
      <trkpt lat="45.81274" lon="-0.71716">
        <ele>56.41</ele>
        <time>2025-05-07T13:01:42.536Z</time>
      </trkpt>
      <trkpt lat="45.81265" lon="-0.71703">
        <ele>56.51</ele>
        <time>2025-05-07T13:01:47.040Z</time>
      </trkpt>
      <trkpt lat="45.81245" lon="-0.71682">
        <ele>56.56</ele>
        <time>2025-05-07T13:01:51.548Z</time>
      </trkpt>
      <trkpt lat="45.81226" lon="-0.71661">
        <ele>56.6</ele>
        <time>2025-05-07T13:01:56.060Z</time>
      </trkpt>
      <trkpt lat="45.81211" lon="-0.71642">
        <ele>56.69</ele>
        <time>2025-05-07T13:02:00.575Z</time>
      </trkpt>
      <trkpt lat="45.81201" lon="-0.71623">
        <ele>56.75</ele>
        <time>2025-05-07T13:02:05.093Z</time>
      </trkpt>
      <trkpt lat="45.81191" lon="-0.71601">
        <ele>56.8</ele>
        <time>2025-05-07T13:02:09.614Z</time>
      </trkpt>
      <trkpt lat="45.81178" lon="-0.71562">
        <ele>56.75</ele>
        <time>2025-05-07T13:02:14.139Z</time>
      </trkpt>
      <trkpt lat="45.81165" lon="-0.71523">
        <ele>56.75</ele>
        <time>2025-05-07T13:02:18.669Z</time>
      </trkpt>
      <trkpt lat="45.81152" lon="-0.71484">
        <ele>56.75</ele>
        <time>2025-05-07T13:02:23.204Z</time>
      </trkpt>
      <trkpt lat="45.81144" lon="-0.71463">
        <ele>56.75</ele>
        <time>2025-05-07T13:02:27.742Z</time>
      </trkpt>
      <trkpt lat="45.81134" lon="-0.71441">
        <ele>56.75</ele>
        <time>2025-05-07T13:02:32.283Z</time>
      </trkpt>
      <trkpt lat="45.81121" lon="-0.71421">
        <ele>56.75</ele>
        <time>2025-05-07T13:02:36.827Z</time>
      </trkpt>
      <trkpt lat="45.81121" lon="-0.71421">
        <ele>56.69</ele>
        <time>2025-05-07T13:02:41.371Z</time>
      </trkpt>
      <trkpt lat="45.81121" lon="-0.71421">
        <ele>56.62</ele>
        <time>2025-05-07T13:02:45.915Z</time>
      </trkpt>
      <trkpt lat="45.81109" lon="-0.71408">
        <ele>56.55</ele>
        <time>2025-05-07T13:02:50.461Z</time>
      </trkpt>
      <trkpt lat="45.81093" lon="-0.71394">
        <ele>56.44</ele>
        <time>2025-05-07T13:02:55.010Z</time>
      </trkpt>
      <trkpt lat="45.81075" lon="-0.71382">
        <ele>56.31</ele>
        <time>2025-05-07T13:02:59.562Z</time>
      </trkpt>
      <trkpt lat="45.8105" lon="-0.71373">
        <ele>56.19</ele>
        <time>2025-05-07T13:03:04.118Z</time>
      </trkpt>
      <trkpt lat="45.8102" lon="-0.71363">
        <ele>56.01</ele>
        <time>2025-05-07T13:03:08.679Z</time>
      </trkpt>
      <trkpt lat="45.80989" lon="-0.71354">
        <ele>55.88</ele>
        <time>2025-05-07T13:03:13.245Z</time>
      </trkpt>
      <trkpt lat="45.80972" lon="-0.7135">
        <ele>55.73</ele>
        <time>2025-05-07T13:03:17.814Z</time>
      </trkpt>
      <trkpt lat="45.80954" lon="-0.71346">
        <ele>55.59</ele>
        <time>2025-05-07T13:03:22.386Z</time>
      </trkpt>
      <trkpt lat="45.80927" lon="-0.71344">
        <ele>55.45</ele>
        <time>2025-05-07T13:03:26.962Z</time>
      </trkpt>
      <trkpt lat="45.80902" lon="-0.71344">
        <ele>55.27</ele>
        <time>2025-05-07T13:03:31.542Z</time>
      </trkpt>
      <trkpt lat="45.80879" lon="-0.71345">
        <ele>55.11</ele>
        <time>2025-05-07T13:03:36.126Z</time>
      </trkpt>
      <trkpt lat="45.80856" lon="-0.71347">
        <ele>55.01</ele>
        <time>2025-05-07T13:03:40.714Z</time>
      </trkpt>
      <trkpt lat="45.80833" lon="-0.71348">
        <ele>54.93</ele>
        <time>2025-05-07T13:03:45.305Z</time>
      </trkpt>
      <trkpt lat="45.80812" lon="-0.71346">
        <ele>54.85</ele>
        <time>2025-05-07T13:03:49.900Z</time>
      </trkpt>
      <trkpt lat="45.80788" lon="-0.7134">
        <ele>54.75</ele>
        <time>2025-05-07T13:03:54.499Z</time>
      </trkpt>
      <trkpt lat="45.80763" lon="-0.71335">
        <ele>54.58</ele>
        <time>2025-05-07T13:03:59.102Z</time>
      </trkpt>
      <trkpt lat="45.80734" lon="-0.71333">
        <ele>54.44</ele>
        <time>2025-05-07T13:04:03.709Z</time>
      </trkpt>
      <trkpt lat="45.8071" lon="-0.71333">
        <ele>54.34</ele>
        <time>2025-05-07T13:04:08.320Z</time>
      </trkpt>
      <trkpt lat="45.80687" lon="-0.71334">
        <ele>54.27</ele>
        <time>2025-05-07T13:04:12.935Z</time>
      </trkpt>
      <trkpt lat="45.80663" lon="-0.71334">
        <ele>54.19</ele>
        <time>2025-05-07T13:04:17.554Z</time>
      </trkpt>
      <trkpt lat="45.80646" lon="-0.71331">
        <ele>54.15</ele>
        <time>2025-05-07T13:04:22.176Z</time>
      </trkpt>
      <trkpt lat="45.80628" lon="-0.71329">
        <ele>54.19</ele>
        <time>2025-05-07T13:04:26.800Z</time>
      </trkpt>
      <trkpt lat="45.80619" lon="-0.71323">
        <ele>54.25</ele>
        <time>2025-05-07T13:04:31.426Z</time>
      </trkpt>
      <trkpt lat="45.80592" lon="-0.71302">
        <ele>54.41</ele>
        <time>2025-05-07T13:04:36.057Z</time>
      </trkpt>
      <trkpt lat="45.80565" lon="-0.71281">
        <ele>54.54</ele>
        <time>2025-05-07T13:04:40.693Z</time>
      </trkpt>
      <trkpt lat="45.80543" lon="-0.71267">
        <ele>54.7</ele>
        <time>2025-05-07T13:04:45.333Z</time>
      </trkpt>
      <trkpt lat="45.8052" lon="-0.71253">
        <ele>54.88</ele>
        <time>2025-05-07T13:04:49.977Z</time>
      </trkpt>
      <trkpt lat="45.80493" lon="-0.71238">
        <ele>55.08</ele>
        <time>2025-05-07T13:04:54.625Z</time>
      </trkpt>
      <trkpt lat="45.80466" lon="-0.71223">
        <ele>55.24</ele>
        <time>2025-05-07T13:04:59.278Z</time>
      </trkpt>
      <trkpt lat="45.8044" lon="-0.71208">
        <ele>55.47</ele>
        <time>2025-05-07T13:05:03.936Z</time>
      </trkpt>
      <trkpt lat="45.80413" lon="-0.71193">
        <ele>55.69</ele>
        <time>2025-05-07T13:05:08.598Z</time>
      </trkpt>
      <trkpt lat="45.80386" lon="-0.71178">
        <ele>55.94</ele>
        <time>2025-05-07T13:05:13.265Z</time>
      </trkpt>
      <trkpt lat="45.80359" lon="-0.71163">
        <ele>56.14</ele>
        <time>2025-05-07T13:05:17.936Z</time>
      </trkpt>
      <trkpt lat="45.80336" lon="-0.71139">
        <ele>56.37</ele>
        <time>2025-05-07T13:05:22.612Z</time>
      </trkpt>
      <trkpt lat="45.80314" lon="-0.71117">
        <ele>56.58</ele>
        <time>2025-05-07T13:05:27.292Z</time>
      </trkpt>
      <trkpt lat="45.80293" lon="-0.71095">
        <ele>56.78</ele>
        <time>2025-05-07T13:05:31.976Z</time>
      </trkpt>
      <trkpt lat="45.80271" lon="-0.71073">
        <ele>57</ele>
        <time>2025-05-07T13:05:36.665Z</time>
      </trkpt>
      <trkpt lat="45.8025" lon="-0.71051">
        <ele>57.2</ele>
        <time>2025-05-07T13:05:41.358Z</time>
      </trkpt>
      <trkpt lat="45.80228" lon="-0.71029">
        <ele>57.36</ele>
        <time>2025-05-07T13:05:46.055Z</time>
      </trkpt>
      <trkpt lat="45.80214" lon="-0.71009">
        <ele>57.52</ele>
        <time>2025-05-07T13:05:50.755Z</time>
      </trkpt>
      <trkpt lat="45.80209" lon="-0.71">
        <ele>57.68</ele>
        <time>2025-05-07T13:05:55.457Z</time>
      </trkpt>
      <trkpt lat="45.80198" lon="-0.70981">
        <ele>57.84</ele>
        <time>2025-05-07T13:06:00.161Z</time>
      </trkpt>
      <trkpt lat="45.80187" lon="-0.7096">
        <ele>58</ele>
        <time>2025-05-07T13:06:04.868Z</time>
      </trkpt>
      <trkpt lat="45.80177" lon="-0.7094">
        <ele>58.13</ele>
        <time>2025-05-07T13:06:09.578Z</time>
      </trkpt>
      <trkpt lat="45.8016" lon="-0.70907">
        <ele>58.31</ele>
        <time>2025-05-07T13:06:14.293Z</time>
      </trkpt>
      <trkpt lat="45.80143" lon="-0.70874">
        <ele>58.45</ele>
        <time>2025-05-07T13:06:19.012Z</time>
      </trkpt>
      <trkpt lat="45.80125" lon="-0.70841">
        <ele>58.62</ele>
        <time>2025-05-07T13:06:23.736Z</time>
      </trkpt>
      <trkpt lat="45.80108" lon="-0.70808">
        <ele>58.78</ele>
        <time>2025-05-07T13:06:28.465Z</time>
      </trkpt>
      <trkpt lat="45.80091" lon="-0.70775">
        <ele>58.93</ele>
        <time>2025-05-07T13:06:33.198Z</time>
      </trkpt>
      <trkpt lat="45.80074" lon="-0.70742">
        <ele>59.11</ele>
        <time>2025-05-07T13:06:37.936Z</time>
      </trkpt>
      <trkpt lat="45.80058" lon="-0.70711">
        <ele>59.25</ele>
        <time>2025-05-07T13:06:42.678Z</time>
      </trkpt>
      <trkpt lat="45.80048" lon="-0.70691">
        <ele>59.36</ele>
        <time>2025-05-07T13:06:47.423Z</time>
      </trkpt>
      <trkpt lat="45.80039" lon="-0.70672">
        <ele>59.5</ele>
        <time>2025-05-07T13:06:52.170Z</time>
      </trkpt>
      <trkpt lat="45.80021" lon="-0.70641">
        <ele>59.6</ele>
        <time>2025-05-07T13:06:56.922Z</time>
      </trkpt>
      <trkpt lat="45.80001" lon="-0.70612">
        <ele>59.7</ele>
        <time>2025-05-07T13:07:01.678Z</time>
      </trkpt>
      <trkpt lat="45.79987" lon="-0.70596">
        <ele>59.8</ele>
        <time>2025-05-07T13:07:06.437Z</time>
      </trkpt>
      <trkpt lat="45.79973" lon="-0.7058">
        <ele>59.87</ele>
        <time>2025-05-07T13:07:11.199Z</time>
      </trkpt>
      <trkpt lat="45.7995" lon="-0.70557">
        <ele>59.97</ele>
        <time>2025-05-07T13:07:15.966Z</time>
      </trkpt>
      <trkpt lat="45.79923" lon="-0.70536">
        <ele>60.04</ele>
        <time>2025-05-07T13:07:20.738Z</time>
      </trkpt>
      <trkpt lat="45.79897" lon="-0.70515">
        <ele>60.11</ele>
        <time>2025-05-07T13:07:25.514Z</time>
      </trkpt>
      <trkpt lat="45.7987" lon="-0.70494">
        <ele>60.18</ele>
        <time>2025-05-07T13:07:30.295Z</time>
      </trkpt>
      <trkpt lat="45.79843" lon="-0.70473">
        <ele>60.28</ele>
        <time>2025-05-07T13:07:35.081Z</time>
      </trkpt>
      <trkpt lat="45.79817" lon="-0.70452">
        <ele>60.35</ele>
        <time>2025-05-07T13:07:39.872Z</time>
      </trkpt>
      <trkpt lat="45.7979" lon="-0.70431">
        <ele>60.41</ele>
        <time>2025-05-07T13:07:44.668Z</time>
      </trkpt>
      <trkpt lat="45.79779" lon="-0.70427">
        <ele>60.47</ele>
        <time>2025-05-07T13:07:49.466Z</time>
      </trkpt>
      <trkpt lat="45.79768" lon="-0.70426">
        <ele>60.52</ele>
        <time>2025-05-07T13:07:54.265Z</time>
      </trkpt>
      <trkpt lat="45.79756" lon="-0.70428">
        <ele>60.58</ele>
        <time>2025-05-07T13:07:59.066Z</time>
      </trkpt>
      <trkpt lat="45.79735" lon="-0.70435">
        <ele>60.65</ele>
        <time>2025-05-07T13:08:03.871Z</time>
      </trkpt>
      <trkpt lat="45.79714" lon="-0.70443">
        <ele>60.7</ele>
        <time>2025-05-07T13:08:08.679Z</time>
      </trkpt>
      <trkpt lat="45.79699" lon="-0.70445">
        <ele>60.74</ele>
        <time>2025-05-07T13:08:13.490Z</time>
      </trkpt>
      <trkpt lat="45.79684" lon="-0.70446">
        <ele>60.8</ele>
        <time>2025-05-07T13:08:18.303Z</time>
      </trkpt>
      <trkpt lat="45.79664" lon="-0.70443">
        <ele>60.85</ele>
        <time>2025-05-07T13:08:23.119Z</time>
      </trkpt>
      <trkpt lat="45.79642" lon="-0.70436">
        <ele>60.91</ele>
        <time>2025-05-07T13:08:27.939Z</time>
      </trkpt>
      <trkpt lat="45.79626" lon="-0.7043">
        <ele>60.97</ele>
        <time>2025-05-07T13:08:32.762Z</time>
      </trkpt>
      <trkpt lat="45.79609" lon="-0.70423">
        <ele>61.06</ele>
        <time>2025-05-07T13:08:37.587Z</time>
      </trkpt>
      <trkpt lat="45.79583" lon="-0.70409">
        <ele>61.21</ele>
        <time>2025-05-07T13:08:42.417Z</time>
      </trkpt>
      <trkpt lat="45.79556" lon="-0.70395">
        <ele>61.3</ele>
        <time>2025-05-07T13:08:47.251Z</time>
      </trkpt>
      <trkpt lat="45.79535" lon="-0.70385">
        <ele>61.36</ele>
        <time>2025-05-07T13:08:52.089Z</time>
      </trkpt>
      <trkpt lat="45.79513" lon="-0.70374">
        <ele>61.47</ele>
        <time>2025-05-07T13:08:56.931Z</time>
      </trkpt>
      <trkpt lat="45.79492" lon="-0.70363">
        <ele>61.59</ele>
        <time>2025-05-07T13:09:01.776Z</time>
      </trkpt>
      <trkpt lat="45.7947" lon="-0.70352">
        <ele>61.73</ele>
        <time>2025-05-07T13:09:06.625Z</time>
      </trkpt>
      <trkpt lat="45.79458" lon="-0.70341">
        <ele>61.91</ele>
        <time>2025-05-07T13:09:11.476Z</time>
      </trkpt>
      <trkpt lat="45.79448" lon="-0.70331">
        <ele>62.08</ele>
        <time>2025-05-07T13:09:16.329Z</time>
      </trkpt>
      <trkpt lat="45.79441" lon="-0.70317">
        <ele>62.26</ele>
        <time>2025-05-07T13:09:21.184Z</time>
      </trkpt>
      <trkpt lat="45.79436" lon="-0.70302">
        <ele>62.44</ele>
        <time>2025-05-07T13:09:26.041Z</time>
      </trkpt>
      <trkpt lat="45.79429" lon="-0.70267">
        <ele>62.61</ele>
        <time>2025-05-07T13:09:30.902Z</time>
      </trkpt>
      <trkpt lat="45.79423" lon="-0.70232">
        <ele>62.78</ele>
        <time>2025-05-07T13:09:35.767Z</time>
      </trkpt>
      <trkpt lat="45.79416" lon="-0.70197">
        <ele>63.03</ele>
        <time>2025-05-07T13:09:40.636Z</time>
      </trkpt>
      <trkpt lat="45.79411" lon="-0.70173">
        <ele>63.27</ele>
        <time>2025-05-07T13:09:45.508Z</time>
      </trkpt>
      <trkpt lat="45.79405" lon="-0.70156">
        <ele>63.48</ele>
        <time>2025-05-07T13:09:50.382Z</time>
      </trkpt>
      <trkpt lat="45.79398" lon="-0.7014">
        <ele>63.68</ele>
        <time>2025-05-07T13:09:55.258Z</time>
      </trkpt>
      <trkpt lat="45.79389" lon="-0.70127">
        <ele>63.89</ele>
        <time>2025-05-07T13:10:00.136Z</time>
      </trkpt>
      <trkpt lat="45.79378" lon="-0.70114">
        <ele>64.05</ele>
        <time>2025-05-07T13:10:05.017Z</time>
      </trkpt>
      <trkpt lat="45.79354" lon="-0.70091">
        <ele>64.24</ele>
        <time>2025-05-07T13:10:09.902Z</time>
      </trkpt>
      <trkpt lat="45.79329" lon="-0.70068">
        <ele>64.44</ele>
        <time>2025-05-07T13:10:14.792Z</time>
      </trkpt>
      <trkpt lat="45.79305" lon="-0.70046">
        <ele>64.61</ele>
        <time>2025-05-07T13:10:19.687Z</time>
      </trkpt>
      <trkpt lat="45.79281" lon="-0.70023">
        <ele>64.72</ele>
        <time>2025-05-07T13:10:24.586Z</time>
      </trkpt>
      <trkpt lat="45.7927" lon="-0.7001">
        <ele>64.83</ele>
        <time>2025-05-07T13:10:29.487Z</time>
      </trkpt>
      <trkpt lat="45.79262" lon="-0.69996">
        <ele>64.96</ele>
        <time>2025-05-07T13:10:34.391Z</time>
      </trkpt>
      <trkpt lat="45.79261" lon="-0.69992">
        <ele>65.09</ele>
        <time>2025-05-07T13:10:39.295Z</time>
      </trkpt>
      <trkpt lat="45.79257" lon="-0.6998">
        <ele>65.22</ele>
        <time>2025-05-07T13:10:44.200Z</time>
      </trkpt>
      <trkpt lat="45.79252" lon="-0.69959">
        <ele>65.35</ele>
        <time>2025-05-07T13:10:49.108Z</time>
      </trkpt>
      <trkpt lat="45.79247" lon="-0.69928">
        <ele>65.5</ele>
        <time>2025-05-07T13:10:54.020Z</time>
      </trkpt>
      <trkpt lat="45.79243" lon="-0.69897">
        <ele>65.62</ele>
        <time>2025-05-07T13:10:58.935Z</time>
      </trkpt>
      <trkpt lat="45.79239" lon="-0.69871">
        <ele>65.67</ele>
        <time>2025-05-07T13:11:03.853Z</time>
      </trkpt>
      <trkpt lat="45.79231" lon="-0.6984">
        <ele>65.67</ele>
        <time>2025-05-07T13:11:08.775Z</time>
      </trkpt>
      <trkpt lat="45.79222" lon="-0.6981">
        <ele>65.7</ele>
        <time>2025-05-07T13:11:13.700Z</time>
      </trkpt>
      <trkpt lat="45.79213" lon="-0.69785">
        <ele>65.7</ele>
        <time>2025-05-07T13:11:18.629Z</time>
      </trkpt>
      <trkpt lat="45.79203" lon="-0.69759">
        <ele>65.71</ele>
        <time>2025-05-07T13:11:23.561Z</time>
      </trkpt>
      <trkpt lat="45.79187" lon="-0.69721">
        <ele>65.62</ele>
        <time>2025-05-07T13:11:28.498Z</time>
      </trkpt>
      <trkpt lat="45.79171" lon="-0.69684">
        <ele>65.51</ele>
        <time>2025-05-07T13:11:33.440Z</time>
      </trkpt>
      <trkpt lat="45.79154" lon="-0.69646">
        <ele>65.46</ele>
        <time>2025-05-07T13:11:38.387Z</time>
      </trkpt>
      <trkpt lat="45.79138" lon="-0.69608">
        <ele>65.37</ele>
        <time>2025-05-07T13:11:43.339Z</time>
      </trkpt>
      <trkpt lat="45.79122" lon="-0.69571">
        <ele>65.37</ele>
        <time>2025-05-07T13:11:48.296Z</time>
      </trkpt>
      <trkpt lat="45.79106" lon="-0.69533">
        <ele>65.29</ele>
        <time>2025-05-07T13:11:53.258Z</time>
      </trkpt>
      <trkpt lat="45.7909" lon="-0.69496">
        <ele>65.18</ele>
        <time>2025-05-07T13:11:58.224Z</time>
      </trkpt>
      <trkpt lat="45.79076" lon="-0.69462">
        <ele>65.05</ele>
        <time>2025-05-07T13:12:03.195Z</time>
      </trkpt>
      <trkpt lat="45.79063" lon="-0.69428">
        <ele>64.83</ele>
        <time>2025-05-07T13:12:08.170Z</time>
      </trkpt>
      <trkpt lat="45.79049" lon="-0.69394">
        <ele>64.63</ele>
        <time>2025-05-07T13:12:13.150Z</time>
      </trkpt>
      <trkpt lat="45.79036" lon="-0.6936">
        <ele>64.48</ele>
        <time>2025-05-07T13:12:18.134Z</time>
      </trkpt>
      <trkpt lat="45.79022" lon="-0.69327">
        <ele>64.31</ele>
        <time>2025-05-07T13:12:23.122Z</time>
      </trkpt>
      <trkpt lat="45.79009" lon="-0.69293">
        <ele>64.1</ele>
        <time>2025-05-07T13:12:28.115Z</time>
      </trkpt>
      <trkpt lat="45.79013" lon="-0.69273">
        <ele>63.93</ele>
        <time>2025-05-07T13:12:33.110Z</time>
      </trkpt>
      <trkpt lat="45.79021" lon="-0.69247">
        <ele>63.76</ele>
        <time>2025-05-07T13:12:38.108Z</time>
      </trkpt>
      <trkpt lat="45.79039" lon="-0.69224">
        <ele>63.65</ele>
        <time>2025-05-07T13:12:43.110Z</time>
      </trkpt>
      <trkpt lat="45.79056" lon="-0.69207">
        <ele>63.51</ele>
        <time>2025-05-07T13:12:48.115Z</time>
      </trkpt>
      <trkpt lat="45.79073" lon="-0.6919">
        <ele>63.38</ele>
        <time>2025-05-07T13:12:53.124Z</time>
      </trkpt>
      <trkpt lat="45.79088" lon="-0.69174">
        <ele>63.26</ele>
        <time>2025-05-07T13:12:58.135Z</time>
      </trkpt>
      <trkpt lat="45.79102" lon="-0.69159">
        <ele>63.15</ele>
        <time>2025-05-07T13:13:03.149Z</time>
      </trkpt>
      <trkpt lat="45.79127" lon="-0.69145">
        <ele>63.05</ele>
        <time>2025-05-07T13:13:08.168Z</time>
      </trkpt>
      <trkpt lat="45.79153" lon="-0.69131">
        <ele>62.93</ele>
        <time>2025-05-07T13:13:13.191Z</time>
      </trkpt>
      <trkpt lat="45.79175" lon="-0.6912">
        <ele>62.81</ele>
        <time>2025-05-07T13:13:18.218Z</time>
      </trkpt>
      <trkpt lat="45.79198" lon="-0.69108">
        <ele>62.72</ele>
        <time>2025-05-07T13:13:23.249Z</time>
      </trkpt>
      <trkpt lat="45.7922" lon="-0.69097">
        <ele>62.63</ele>
        <time>2025-05-07T13:13:28.284Z</time>
      </trkpt>
      <trkpt lat="45.79249" lon="-0.69083">
        <ele>62.51</ele>
        <time>2025-05-07T13:13:33.323Z</time>
      </trkpt>
      <trkpt lat="45.79269" lon="-0.69072">
        <ele>62.45</ele>
        <time>2025-05-07T13:13:38.366Z</time>
      </trkpt>
      <trkpt lat="45.79289" lon="-0.6906">
        <ele>62.43</ele>
        <time>2025-05-07T13:13:43.412Z</time>
      </trkpt>
      <trkpt lat="45.79303" lon="-0.69049">
        <ele>62.42</ele>
        <time>2025-05-07T13:13:48.461Z</time>
      </trkpt>
      <trkpt lat="45.79317" lon="-0.69039">
        <ele>62.42</ele>
        <time>2025-05-07T13:13:53.512Z</time>
      </trkpt>
      <trkpt lat="45.79343" lon="-0.69018">
        <ele>62.45</ele>
        <time>2025-05-07T13:13:58.568Z</time>
      </trkpt>
      <trkpt lat="45.7937" lon="-0.68996">
        <ele>62.45</ele>
        <time>2025-05-07T13:14:03.629Z</time>
      </trkpt>
      <trkpt lat="45.79396" lon="-0.68975">
        <ele>62.41</ele>
        <time>2025-05-07T13:14:08.695Z</time>
      </trkpt>
      <trkpt lat="45.79422" lon="-0.68954">
        <ele>62.34</ele>
        <time>2025-05-07T13:14:13.766Z</time>
      </trkpt>
      <trkpt lat="45.79449" lon="-0.68932">
        <ele>62.22</ele>
        <time>2025-05-07T13:14:18.842Z</time>
      </trkpt>
      <trkpt lat="45.79475" lon="-0.68911">
        <ele>62.11</ele>
        <time>2025-05-07T13:14:23.922Z</time>
      </trkpt>
      <trkpt lat="45.79496" lon="-0.68892">
        <ele>62.02</ele>
        <time>2025-05-07T13:14:29.006Z</time>
      </trkpt>
      <trkpt lat="45.79517" lon="-0.68866">
        <ele>61.91</ele>
        <time>2025-05-07T13:14:34.095Z</time>
      </trkpt>
      <trkpt lat="45.79534" lon="-0.68837">
        <ele>61.75</ele>
        <time>2025-05-07T13:14:39.188Z</time>
      </trkpt>
      <trkpt lat="45.79545" lon="-0.68816">
        <ele>61.58</ele>
        <time>2025-05-07T13:14:44.284Z</time>
      </trkpt>
      <trkpt lat="45.79555" lon="-0.68795">
        <ele>61.41</ele>
        <time>2025-05-07T13:14:49.383Z</time>
      </trkpt>
      <trkpt lat="45.79569" lon="-0.68774">
        <ele>61.21</ele>
        <time>2025-05-07T13:14:54.485Z</time>
      </trkpt>
      <trkpt lat="45.7959" lon="-0.68751">
        <ele>60.94</ele>
        <time>2025-05-07T13:14:59.591Z</time>
      </trkpt>
      <trkpt lat="45.79612" lon="-0.68728">
        <ele>60.65</ele>
        <time>2025-05-07T13:15:04.702Z</time>
      </trkpt>
      <trkpt lat="45.79633" lon="-0.68705">
        <ele>60.34</ele>
        <time>2025-05-07T13:15:09.817Z</time>
      </trkpt>
      <trkpt lat="45.79652" lon="-0.68677">
        <ele>59.99</ele>
        <time>2025-05-07T13:15:14.936Z</time>
      </trkpt>
      <trkpt lat="45.79671" lon="-0.6865">
        <ele>59.65</ele>
        <time>2025-05-07T13:15:20.060Z</time>
      </trkpt>
      <trkpt lat="45.79682" lon="-0.68631">
        <ele>59.34</ele>
        <time>2025-05-07T13:15:25.186Z</time>
      </trkpt>
      <trkpt lat="45.79692" lon="-0.68613">
        <ele>59.02</ele>
        <time>2025-05-07T13:15:30.315Z</time>
      </trkpt>
      <trkpt lat="45.79712" lon="-0.68581">
        <ele>58.54</ele>
        <time>2025-05-07T13:15:35.449Z</time>
      </trkpt>
      <trkpt lat="45.79733" lon="-0.68549">
        <ele>58.08</ele>
        <time>2025-05-07T13:15:40.588Z</time>
      </trkpt>
      <trkpt lat="45.79753" lon="-0.68517">
        <ele>57.77</ele>
        <time>2025-05-07T13:15:45.731Z</time>
      </trkpt>
      <trkpt lat="45.79773" lon="-0.68485">
        <ele>57.48</ele>
        <time>2025-05-07T13:15:50.879Z</time>
      </trkpt>
      <trkpt lat="45.79793" lon="-0.68453">
        <ele>57.2</ele>
        <time>2025-05-07T13:15:56.032Z</time>
      </trkpt>
      <trkpt lat="45.79814" lon="-0.68421">
        <ele>56.88</ele>
        <time>2025-05-07T13:16:01.190Z</time>
      </trkpt>
      <trkpt lat="45.79834" lon="-0.68389">
        <ele>56.58</ele>
        <time>2025-05-07T13:16:06.353Z</time>
      </trkpt>
      <trkpt lat="45.79854" lon="-0.68357">
        <ele>56.32</ele>
        <time>2025-05-07T13:16:11.521Z</time>
      </trkpt>
      <trkpt lat="45.79863" lon="-0.68339">
        <ele>56.09</ele>
        <time>2025-05-07T13:16:16.691Z</time>
      </trkpt>
      <trkpt lat="45.79864" lon="-0.68326">
        <ele>55.84</ele>
        <time>2025-05-07T13:16:21.863Z</time>
      </trkpt>
      <trkpt lat="45.79864" lon="-0.68324">
        <ele>55.61</ele>
        <time>2025-05-07T13:16:27.035Z</time>
      </trkpt>
      <trkpt lat="45.79861" lon="-0.68306">
        <ele>55.38</ele>
        <time>2025-05-07T13:16:32.209Z</time>
      </trkpt>
      <trkpt lat="45.79848" lon="-0.68274">
        <ele>55.14</ele>
        <time>2025-05-07T13:16:37.387Z</time>
      </trkpt>
      <trkpt lat="45.79833" lon="-0.68238">
        <ele>54.9</ele>
        <time>2025-05-07T13:16:42.570Z</time>
      </trkpt>
      <trkpt lat="45.79818" lon="-0.68202">
        <ele>54.68</ele>
        <time>2025-05-07T13:16:47.757Z</time>
      </trkpt>
      <trkpt lat="45.79803" lon="-0.68165">
        <ele>54.46</ele>
        <time>2025-05-07T13:16:52.949Z</time>
      </trkpt>
      <trkpt lat="45.79788" lon="-0.68129">
        <ele>54.24</ele>
        <time>2025-05-07T13:16:58.146Z</time>
      </trkpt>
      <trkpt lat="45.79773" lon="-0.68093">
        <ele>54.08</ele>
        <time>2025-05-07T13:17:03.348Z</time>
      </trkpt>
      <trkpt lat="45.79758" lon="-0.68057">
        <ele>53.87</ele>
        <time>2025-05-07T13:17:08.554Z</time>
      </trkpt>
      <trkpt lat="45.79743" lon="-0.68021">
        <ele>53.77</ele>
        <time>2025-05-07T13:17:13.765Z</time>
      </trkpt>
      <trkpt lat="45.79729" lon="-0.67988">
        <ele>53.67</ele>
        <time>2025-05-07T13:17:18.980Z</time>
      </trkpt>
      <trkpt lat="45.79716" lon="-0.67954">
        <ele>53.52</ele>
        <time>2025-05-07T13:17:24.200Z</time>
      </trkpt>
      <trkpt lat="45.79702" lon="-0.67921">
        <ele>53.3</ele>
        <time>2025-05-07T13:17:29.424Z</time>
      </trkpt>
      <trkpt lat="45.79689" lon="-0.67887">
        <ele>53.07</ele>
        <time>2025-05-07T13:17:34.652Z</time>
      </trkpt>
      <trkpt lat="45.79675" lon="-0.67854">
        <ele>52.83</ele>
        <time>2025-05-07T13:17:39.885Z</time>
      </trkpt>
      <trkpt lat="45.79663" lon="-0.67815">
        <ele>52.58</ele>
        <time>2025-05-07T13:17:45.122Z</time>
      </trkpt>
      <trkpt lat="45.79658" lon="-0.67793">
        <ele>52.34</ele>
        <time>2025-05-07T13:17:50.362Z</time>
      </trkpt>
      <trkpt lat="45.79656" lon="-0.67782">
        <ele>52.11</ele>
        <time>2025-05-07T13:17:55.603Z</time>
      </trkpt>
      <trkpt lat="45.79661" lon="-0.6777">
        <ele>51.85</ele>
        <time>2025-05-07T13:18:00.846Z</time>
      </trkpt>
      <trkpt lat="45.79678" lon="-0.6774">
        <ele>51.55</ele>
        <time>2025-05-07T13:18:06.093Z</time>
      </trkpt>
      <trkpt lat="45.79694" lon="-0.67711">
        <ele>51.18</ele>
        <time>2025-05-07T13:18:11.344Z</time>
      </trkpt>
      <trkpt lat="45.79707" lon="-0.67675">
        <ele>50.78</ele>
        <time>2025-05-07T13:18:16.600Z</time>
      </trkpt>
      <trkpt lat="45.79719" lon="-0.67638">
        <ele>50.4</ele>
        <time>2025-05-07T13:18:21.860Z</time>
      </trkpt>
      <trkpt lat="45.79732" lon="-0.67602">
        <ele>50.04</ele>
        <time>2025-05-07T13:18:27.125Z</time>
      </trkpt>
      <trkpt lat="45.79744" lon="-0.67565">
        <ele>49.69</ele>
        <time>2025-05-07T13:18:32.394Z</time>
      </trkpt>
      <trkpt lat="45.79757" lon="-0.67529">
        <ele>49.39</ele>
        <time>2025-05-07T13:18:37.668Z</time>
      </trkpt>
      <trkpt lat="45.7977" lon="-0.67501">
        <ele>49.06</ele>
        <time>2025-05-07T13:18:42.946Z</time>
      </trkpt>
      <trkpt lat="45.79784" lon="-0.67477">
        <ele>48.78</ele>
        <time>2025-05-07T13:18:48.227Z</time>
      </trkpt>
      <trkpt lat="45.79798" lon="-0.67453">
        <ele>48.49</ele>
        <time>2025-05-07T13:18:53.512Z</time>
      </trkpt>
      <trkpt lat="45.79812" lon="-0.67433">
        <ele>48.21</ele>
        <time>2025-05-07T13:18:58.800Z</time>
      </trkpt>
      <trkpt lat="45.79826" lon="-0.67413">
        <ele>47.88</ele>
        <time>2025-05-07T13:19:04.091Z</time>
      </trkpt>
      <trkpt lat="45.79843" lon="-0.67389">
        <ele>47.55</ele>
        <time>2025-05-07T13:19:09.386Z</time>
      </trkpt>
      <trkpt lat="45.79859" lon="-0.67366">
        <ele>47.26</ele>
        <time>2025-05-07T13:19:14.684Z</time>
      </trkpt>
      <trkpt lat="45.79874" lon="-0.67346">
        <ele>46.94</ele>
        <time>2025-05-07T13:19:19.986Z</time>
      </trkpt>
      <trkpt lat="45.79888" lon="-0.67326">
        <ele>46.65</ele>
        <time>2025-05-07T13:19:25.291Z</time>
      </trkpt>
      <trkpt lat="45.79897" lon="-0.67316">
        <ele>46.36</ele>
        <time>2025-05-07T13:19:30.598Z</time>
      </trkpt>
      <trkpt lat="45.79913" lon="-0.67302">
        <ele>46.01</ele>
        <time>2025-05-07T13:19:35.908Z</time>
      </trkpt>
      <trkpt lat="45.79928" lon="-0.67288">
        <ele>45.65</ele>
        <time>2025-05-07T13:19:41.221Z</time>
      </trkpt>
      <trkpt lat="45.79946" lon="-0.67278">
        <ele>45.3</ele>
        <time>2025-05-07T13:19:46.537Z</time>
      </trkpt>
      <trkpt lat="45.79964" lon="-0.6727">
        <ele>44.97</ele>
        <time>2025-05-07T13:19:51.856Z</time>
      </trkpt>
      <trkpt lat="45.79985" lon="-0.67264">
        <ele>44.68</ele>
        <time>2025-05-07T13:19:57.178Z</time>
      </trkpt>
      <trkpt lat="45.80006" lon="-0.67257">
        <ele>44.36</ele>
        <time>2025-05-07T13:20:02.504Z</time>
      </trkpt>
      <trkpt lat="45.80027" lon="-0.67251">
        <ele>43.99</ele>
        <time>2025-05-07T13:20:07.833Z</time>
      </trkpt>
      <trkpt lat="45.80038" lon="-0.67247">
        <ele>43.65</ele>
        <time>2025-05-07T13:20:13.164Z</time>
      </trkpt>
      <trkpt lat="45.80047" lon="-0.67236">
        <ele>43.32</ele>
        <time>2025-05-07T13:20:18.497Z</time>
      </trkpt>
      <trkpt lat="45.8005" lon="-0.67228">
        <ele>43.02</ele>
        <time>2025-05-07T13:20:23.831Z</time>
      </trkpt>
      <trkpt lat="45.80053" lon="-0.67215">
        <ele>42.7</ele>
        <time>2025-05-07T13:20:29.166Z</time>
      </trkpt>
      <trkpt lat="45.80054" lon="-0.67185">
        <ele>42.38</ele>
        <time>2025-05-07T13:20:34.505Z</time>
      </trkpt>
      <trkpt lat="45.80055" lon="-0.67156">
        <ele>42.08</ele>
        <time>2025-05-07T13:20:39.847Z</time>
      </trkpt>
      <trkpt lat="45.80057" lon="-0.67144">
        <ele>41.8</ele>
        <time>2025-05-07T13:20:45.190Z</time>
      </trkpt>
      <trkpt lat="45.80059" lon="-0.67134">
        <ele>41.52</ele>
        <time>2025-05-07T13:20:50.534Z</time>
      </trkpt>
      <trkpt lat="45.80062" lon="-0.67121">
        <ele>41.25</ele>
        <time>2025-05-07T13:20:55.880Z</time>
      </trkpt>
      <trkpt lat="45.80067" lon="-0.67108">
        <ele>40.99</ele>
        <time>2025-05-07T13:21:01.228Z</time>
      </trkpt>
      <trkpt lat="45.80083" lon="-0.67075">
        <ele>40.8</ele>
        <time>2025-05-07T13:21:06.580Z</time>
      </trkpt>
      <trkpt lat="45.80099" lon="-0.67043">
        <ele>40.58</ele>
        <time>2025-05-07T13:21:11.937Z</time>
      </trkpt>
      <trkpt lat="45.80115" lon="-0.6701">
        <ele>40.27</ele>
        <time>2025-05-07T13:21:17.298Z</time>
      </trkpt>
      <trkpt lat="45.80131" lon="-0.66978">
        <ele>39.96</ele>
        <time>2025-05-07T13:21:22.663Z</time>
      </trkpt>
      <trkpt lat="45.80147" lon="-0.66945">
        <ele>39.61</ele>
        <time>2025-05-07T13:21:28.033Z</time>
      </trkpt>
      <trkpt lat="45.80163" lon="-0.66913">
        <ele>39.23</ele>
        <time>2025-05-07T13:21:33.407Z</time>
      </trkpt>
      <trkpt lat="45.80179" lon="-0.6688">
        <ele>38.84</ele>
        <time>2025-05-07T13:21:38.786Z</time>
      </trkpt>
      <trkpt lat="45.80195" lon="-0.66848">
        <ele>38.5</ele>
        <time>2025-05-07T13:21:44.169Z</time>
      </trkpt>
      <trkpt lat="45.80208" lon="-0.66827">
        <ele>38.17</ele>
        <time>2025-05-07T13:21:49.555Z</time>
      </trkpt>
      <trkpt lat="45.80221" lon="-0.66806">
        <ele>37.85</ele>
        <time>2025-05-07T13:21:54.945Z</time>
      </trkpt>
      <trkpt lat="45.80239" lon="-0.66788">
        <ele>37.54</ele>
        <time>2025-05-07T13:22:00.338Z</time>
      </trkpt>
      <trkpt lat="45.80258" lon="-0.66769">
        <ele>37.26</ele>
        <time>2025-05-07T13:22:05.735Z</time>
      </trkpt>
      <trkpt lat="45.80276" lon="-0.66751">
        <ele>36.97</ele>
        <time>2025-05-07T13:22:11.135Z</time>
      </trkpt>
      <trkpt lat="45.80296" lon="-0.66728">
        <ele>36.68</ele>
        <time>2025-05-07T13:22:16.539Z</time>
      </trkpt>
      <trkpt lat="45.80316" lon="-0.66705">
        <ele>36.41</ele>
        <time>2025-05-07T13:22:21.947Z</time>
      </trkpt>
      <trkpt lat="45.80335" lon="-0.66683">
        <ele>36.12</ele>
        <time>2025-05-07T13:22:27.359Z</time>
      </trkpt>
      <trkpt lat="45.80355" lon="-0.6666">
        <ele>35.77</ele>
        <time>2025-05-07T13:22:32.776Z</time>
      </trkpt>
      <trkpt lat="45.80375" lon="-0.6664">
        <ele>35.36</ele>
        <time>2025-05-07T13:22:38.196Z</time>
      </trkpt>
      <trkpt lat="45.80402" lon="-0.66628">
        <ele>34.86</ele>
        <time>2025-05-07T13:22:43.621Z</time>
      </trkpt>
      <trkpt lat="45.80432" lon="-0.6662">
        <ele>34.32</ele>
        <time>2025-05-07T13:22:49.051Z</time>
      </trkpt>
      <trkpt lat="45.80447" lon="-0.66612">
        <ele>33.82</ele>
        <time>2025-05-07T13:22:54.483Z</time>
      </trkpt>
      <trkpt lat="45.80459" lon="-0.66599">
        <ele>33.32</ele>
        <time>2025-05-07T13:22:59.918Z</time>
      </trkpt>
      <trkpt lat="45.80462" lon="-0.66594">
        <ele>32.78</ele>
        <time>2025-05-07T13:23:05.354Z</time>
      </trkpt>
      <trkpt lat="45.80466" lon="-0.66586">
        <ele>32.2</ele>
        <time>2025-05-07T13:23:10.791Z</time>
      </trkpt>
      <trkpt lat="45.80471" lon="-0.66566">
        <ele>31.58</ele>
        <time>2025-05-07T13:23:16.230Z</time>
      </trkpt>
      <trkpt lat="45.80468" lon="-0.6653">
        <ele>30.94</ele>
        <time>2025-05-07T13:23:21.673Z</time>
      </trkpt>
      <trkpt lat="45.80466" lon="-0.66494">
        <ele>30.16</ele>
        <time>2025-05-07T13:23:27.120Z</time>
      </trkpt>
      <trkpt lat="45.80467" lon="-0.66469">
        <ele>29.37</ele>
        <time>2025-05-07T13:23:32.570Z</time>
      </trkpt>
      <trkpt lat="45.80473" lon="-0.66445">
        <ele>28.54</ele>
        <time>2025-05-07T13:23:38.023Z</time>
      </trkpt>
      <trkpt lat="45.80478" lon="-0.66421">
        <ele>27.7</ele>
        <time>2025-05-07T13:23:43.479Z</time>
      </trkpt>
      <trkpt lat="45.8048" lon="-0.66411">
        <ele>26.89</ele>
        <time>2025-05-07T13:23:48.936Z</time>
      </trkpt>
      <trkpt lat="45.80488" lon="-0.66389">
        <ele>26.01</ele>
        <time>2025-05-07T13:23:54.396Z</time>
      </trkpt>
      <trkpt lat="45.80495" lon="-0.66366">
        <ele>25.09</ele>
        <time>2025-05-07T13:23:59.858Z</time>
      </trkpt>
      <trkpt lat="45.80507" lon="-0.66365">
        <ele>24.27</ele>
        <time>2025-05-07T13:24:05.322Z</time>
      </trkpt>
      <trkpt lat="45.80533" lon="-0.66356">
        <ele>23.46</ele>
        <time>2025-05-07T13:24:10.790Z</time>
      </trkpt>
      <trkpt lat="45.80558" lon="-0.66346">
        <ele>22.69</ele>
        <time>2025-05-07T13:24:16.263Z</time>
      </trkpt>
      <trkpt lat="45.80584" lon="-0.66337">
        <ele>21.9</ele>
        <time>2025-05-07T13:24:21.740Z</time>
      </trkpt>
      <trkpt lat="45.80612" lon="-0.66329">
        <ele>21.08</ele>
        <time>2025-05-07T13:24:27.222Z</time>
      </trkpt>
      <trkpt lat="45.8064" lon="-0.66321">
        <ele>20.27</ele>
        <time>2025-05-07T13:24:32.708Z</time>
      </trkpt>
      <trkpt lat="45.80671" lon="-0.66316">
        <ele>19.46</ele>
        <time>2025-05-07T13:24:38.199Z</time>
      </trkpt>
      <trkpt lat="45.80691" lon="-0.66316">
        <ele>18.67</ele>
        <time>2025-05-07T13:24:43.693Z</time>
      </trkpt>
      <trkpt lat="45.80711" lon="-0.66316">
        <ele>17.94</ele>
        <time>2025-05-07T13:24:49.190Z</time>
      </trkpt>
      <trkpt lat="45.80735" lon="-0.66317">
        <ele>17.26</ele>
        <time>2025-05-07T13:24:54.691Z</time>
      </trkpt>
      <trkpt lat="45.80758" lon="-0.66317">
        <ele>16.62</ele>
        <time>2025-05-07T13:25:00.196Z</time>
      </trkpt>
      <trkpt lat="45.80782" lon="-0.66318">
        <ele>15.96</ele>
        <time>2025-05-07T13:25:05.705Z</time>
      </trkpt>
      <trkpt lat="45.80807" lon="-0.66312">
        <ele>15.35</ele>
        <time>2025-05-07T13:25:11.218Z</time>
      </trkpt>
      <trkpt lat="45.80834" lon="-0.66297">
        <ele>14.76</ele>
        <time>2025-05-07T13:25:16.736Z</time>
      </trkpt>
      <trkpt lat="45.80859" lon="-0.66282">
        <ele>14.2</ele>
        <time>2025-05-07T13:25:22.258Z</time>
      </trkpt>
      <trkpt lat="45.80885" lon="-0.66268">
        <ele>13.7</ele>
        <time>2025-05-07T13:25:27.784Z</time>
      </trkpt>
      <trkpt lat="45.8091" lon="-0.66253">
        <ele>13.23</ele>
        <time>2025-05-07T13:25:33.315Z</time>
      </trkpt>
      <trkpt lat="45.80936" lon="-0.66238">
        <ele>12.78</ele>
        <time>2025-05-07T13:25:38.850Z</time>
      </trkpt>
      <trkpt lat="45.80961" lon="-0.66224">
        <ele>12.38</ele>
        <time>2025-05-07T13:25:44.390Z</time>
      </trkpt>
      <trkpt lat="45.80987" lon="-0.66209">
        <ele>12</ele>
        <time>2025-05-07T13:25:49.934Z</time>
      </trkpt>
      <trkpt lat="45.81009" lon="-0.66201">
        <ele>11.63</ele>
        <time>2025-05-07T13:25:55.482Z</time>
      </trkpt>
      <trkpt lat="45.81031" lon="-0.66198">
        <ele>11.26</ele>
        <time>2025-05-07T13:26:01.033Z</time>
      </trkpt>
      <trkpt lat="45.81054" lon="-0.662">
        <ele>10.92</ele>
        <time>2025-05-07T13:26:06.588Z</time>
      </trkpt>
      <trkpt lat="45.81082" lon="-0.66206">
        <ele>10.59</ele>
        <time>2025-05-07T13:26:12.147Z</time>
      </trkpt>
      <trkpt lat="45.81111" lon="-0.66211">
        <ele>10.36</ele>
        <time>2025-05-07T13:26:17.711Z</time>
      </trkpt>
      <trkpt lat="45.81139" lon="-0.66217">
        <ele>10.13</ele>
        <time>2025-05-07T13:26:23.280Z</time>
      </trkpt>
      <trkpt lat="45.81168" lon="-0.66222">
        <ele>9.91</ele>
        <time>2025-05-07T13:26:28.853Z</time>
      </trkpt>
      <trkpt lat="45.81196" lon="-0.66228">
        <ele>9.7</ele>
        <time>2025-05-07T13:26:34.431Z</time>
      </trkpt>
      <trkpt lat="45.81225" lon="-0.66234">
        <ele>9.56</ele>
        <time>2025-05-07T13:26:40.013Z</time>
      </trkpt>
      <trkpt lat="45.81253" lon="-0.66239">
        <ele>9.43</ele>
        <time>2025-05-07T13:26:45.600Z</time>
      </trkpt>
      <trkpt lat="45.81282" lon="-0.66245">
        <ele>9.32</ele>
        <time>2025-05-07T13:26:51.192Z</time>
      </trkpt>
      <trkpt lat="45.81306" lon="-0.66248">
        <ele>9.19</ele>
        <time>2025-05-07T13:26:56.787Z</time>
      </trkpt>
      <trkpt lat="45.81329" lon="-0.66251">
        <ele>9.05</ele>
        <time>2025-05-07T13:27:02.386Z</time>
      </trkpt>
      <trkpt lat="45.81353" lon="-0.66254">
        <ele>8.93</ele>
        <time>2025-05-07T13:27:07.989Z</time>
      </trkpt>
      <trkpt lat="45.81374" lon="-0.66253">
        <ele>8.83</ele>
        <time>2025-05-07T13:27:13.595Z</time>
      </trkpt>
      <trkpt lat="45.81396" lon="-0.66253">
        <ele>8.71</ele>
        <time>2025-05-07T13:27:19.205Z</time>
      </trkpt>
      <trkpt lat="45.81415" lon="-0.66249">
        <ele>8.65</ele>
        <time>2025-05-07T13:27:24.818Z</time>
      </trkpt>
      <trkpt lat="45.81435" lon="-0.66245">
        <ele>8.6</ele>
        <time>2025-05-07T13:27:30.434Z</time>
      </trkpt>
      <trkpt lat="45.81449" lon="-0.66239">
        <ele>8.6</ele>
        <time>2025-05-07T13:27:36.053Z</time>
      </trkpt>
      <trkpt lat="45.81465" lon="-0.66233">
        <ele>8.64</ele>
        <time>2025-05-07T13:27:41.674Z</time>
      </trkpt>
      <trkpt lat="45.81481" lon="-0.66227">
        <ele>8.69</ele>
        <time>2025-05-07T13:27:47.298Z</time>
      </trkpt>
      <trkpt lat="45.81498" lon="-0.66219">
        <ele>8.72</ele>
        <time>2025-05-07T13:27:52.925Z</time>
      </trkpt>
      <trkpt lat="45.81516" lon="-0.66212">
        <ele>8.75</ele>
        <time>2025-05-07T13:27:58.555Z</time>
      </trkpt>
      <trkpt lat="45.81544" lon="-0.66193">
        <ele>8.78</ele>
        <time>2025-05-07T13:28:04.190Z</time>
      </trkpt>
      <trkpt lat="45.81572" lon="-0.66174">
        <ele>8.9</ele>
        <time>2025-05-07T13:28:09.830Z</time>
      </trkpt>
      <trkpt lat="45.81593" lon="-0.66157">
        <ele>9.02</ele>
        <time>2025-05-07T13:28:15.474Z</time>
      </trkpt>
      <trkpt lat="45.81614" lon="-0.6614">
        <ele>9.1</ele>
        <time>2025-05-07T13:28:21.121Z</time>
      </trkpt>
      <trkpt lat="45.81635" lon="-0.66123">
        <ele>9.16</ele>
        <time>2025-05-07T13:28:26.772Z</time>
      </trkpt>
      <trkpt lat="45.81658" lon="-0.66108">
        <ele>9.21</ele>
        <time>2025-05-07T13:28:32.427Z</time>
      </trkpt>
      <trkpt lat="45.81682" lon="-0.66093">
        <ele>9.25</ele>
        <time>2025-05-07T13:28:38.086Z</time>
      </trkpt>
      <trkpt lat="45.81711" lon="-0.66076">
        <ele>9.31</ele>
        <time>2025-05-07T13:28:43.750Z</time>
      </trkpt>
      <trkpt lat="45.8174" lon="-0.66059">
        <ele>9.34</ele>
        <time>2025-05-07T13:28:49.419Z</time>
      </trkpt>
      <trkpt lat="45.81768" lon="-0.66043">
        <ele>9.35</ele>
        <time>2025-05-07T13:28:55.093Z</time>
      </trkpt>
      <trkpt lat="45.81797" lon="-0.66026">
        <ele>9.3</ele>
        <time>2025-05-07T13:29:00.772Z</time>
      </trkpt>
      <trkpt lat="45.81826" lon="-0.66009">
        <ele>9.25</ele>
        <time>2025-05-07T13:29:06.456Z</time>
      </trkpt>
      <trkpt lat="45.81851" lon="-0.65991">
        <ele>9.21</ele>
        <time>2025-05-07T13:29:12.145Z</time>
      </trkpt>
      <trkpt lat="45.81876" lon="-0.65972">
        <ele>9.14</ele>
        <time>2025-05-07T13:29:17.838Z</time>
      </trkpt>
      <trkpt lat="45.81902" lon="-0.65954">
        <ele>9</ele>
        <time>2025-05-07T13:29:23.536Z</time>
      </trkpt>
      <trkpt lat="45.81927" lon="-0.65935">
        <ele>8.85</ele>
        <time>2025-05-07T13:29:29.238Z</time>
      </trkpt>
      <trkpt lat="45.81952" lon="-0.65917">
        <ele>8.81</ele>
        <time>2025-05-07T13:29:34.945Z</time>
      </trkpt>
      <trkpt lat="45.81971" lon="-0.65902">
        <ele>8.73</ele>
        <time>2025-05-07T13:29:40.655Z</time>
      </trkpt>
      <trkpt lat="45.8199" lon="-0.65888">
        <ele>8.63</ele>
        <time>2025-05-07T13:29:46.369Z</time>
      </trkpt>
      <trkpt lat="45.82018" lon="-0.6587">
        <ele>8.51</ele>
        <time>2025-05-07T13:29:52.088Z</time>
      </trkpt>
      <trkpt lat="45.82022" lon="-0.65866">
        <ele>8.41</ele>
        <time>2025-05-07T13:29:57.808Z</time>
      </trkpt>
      <trkpt lat="45.82027" lon="-0.65859">
        <ele>8.3</ele>
        <time>2025-05-07T13:30:03.529Z</time>
      </trkpt>
      <trkpt lat="45.82041" lon="-0.65866">
        <ele>8.2</ele>
        <time>2025-05-07T13:30:09.252Z</time>
      </trkpt>
      <trkpt lat="45.82064" lon="-0.65874">
        <ele>8.07</ele>
        <time>2025-05-07T13:30:14.979Z</time>
      </trkpt>
      <trkpt lat="45.82087" lon="-0.65883">
        <ele>7.96</ele>
        <time>2025-05-07T13:30:20.710Z</time>
      </trkpt>
      <trkpt lat="45.82092" lon="-0.65886">
        <ele>7.85</ele>
        <time>2025-05-07T13:30:26.442Z</time>
      </trkpt>
      <trkpt lat="45.82097" lon="-0.65879">
        <ele>7.71</ele>
        <time>2025-05-07T13:30:32.175Z</time>
      </trkpt>
      <trkpt lat="45.82101" lon="-0.65878">
        <ele>7.58</ele>
        <time>2025-05-07T13:30:37.908Z</time>
      </trkpt>
      <trkpt lat="45.8213" lon="-0.65878">
        <ele>7.41</ele>
        <time>2025-05-07T13:30:43.646Z</time>
      </trkpt>
      <trkpt lat="45.82158" lon="-0.65879">
        <ele>7.29</ele>
        <time>2025-05-07T13:30:49.388Z</time>
      </trkpt>
      <trkpt lat="45.82187" lon="-0.65879">
        <ele>7.15</ele>
        <time>2025-05-07T13:30:55.135Z</time>
      </trkpt>
      <trkpt lat="45.82202" lon="-0.65876">
        <ele>7.02</ele>
        <time>2025-05-07T13:31:00.885Z</time>
      </trkpt>
      <trkpt lat="45.82209" lon="-0.65873">
        <ele>6.9</ele>
        <time>2025-05-07T13:31:06.636Z</time>
      </trkpt>
      <trkpt lat="45.82238" lon="-0.65858">
        <ele>6.78</ele>
        <time>2025-05-07T13:31:12.392Z</time>
      </trkpt>
      <trkpt lat="45.82262" lon="-0.65844">
        <ele>6.67</ele>
        <time>2025-05-07T13:31:18.152Z</time>
      </trkpt>
      <trkpt lat="45.82285" lon="-0.65829">
        <ele>6.56</ele>
        <time>2025-05-07T13:31:23.916Z</time>
      </trkpt>
      <trkpt lat="45.82309" lon="-0.65815">
        <ele>6.48</ele>
        <time>2025-05-07T13:31:29.684Z</time>
      </trkpt>
      <trkpt lat="45.82321" lon="-0.65808">
        <ele>6.39</ele>
        <time>2025-05-07T13:31:35.454Z</time>
      </trkpt>
      <trkpt lat="45.82333" lon="-0.65804">
        <ele>6.31</ele>
        <time>2025-05-07T13:31:41.226Z</time>
      </trkpt>
      <trkpt lat="45.82343" lon="-0.65801">
        <ele>6.21</ele>
        <time>2025-05-07T13:31:47.000Z</time>
      </trkpt>
      <trkpt lat="45.82372" lon="-0.65798">
        <ele>6.14</ele>
        <time>2025-05-07T13:31:52.778Z</time>
      </trkpt>
      <trkpt lat="45.82387" lon="-0.65795">
        <ele>5.99</ele>
        <time>2025-05-07T13:31:58.559Z</time>
      </trkpt>
      <trkpt lat="45.82402" lon="-0.65787">
        <ele>5.85</ele>
        <time>2025-05-07T13:32:04.342Z</time>
      </trkpt>
      <trkpt lat="45.82417" lon="-0.65773">
        <ele>5.68</ele>
        <time>2025-05-07T13:32:10.128Z</time>
      </trkpt>
      <trkpt lat="45.82432" lon="-0.6576">
        <ele>5.5</ele>
        <time>2025-05-07T13:32:15.917Z</time>
      </trkpt>
      <trkpt lat="45.82447" lon="-0.65744">
        <ele>5.32</ele>
        <time>2025-05-07T13:32:21.709Z</time>
      </trkpt>
      <trkpt lat="45.82463" lon="-0.65726">
        <ele>5.14</ele>
        <time>2025-05-07T13:32:27.504Z</time>
      </trkpt>
      <trkpt lat="45.82472" lon="-0.65732">
        <ele>4.99</ele>
        <time>2025-05-07T13:32:33.301Z</time>
      </trkpt>
      <trkpt lat="45.8248" lon="-0.65736">
        <ele>4.83</ele>
        <time>2025-05-07T13:32:39.099Z</time>
      </trkpt>
      <trkpt lat="45.82504" lon="-0.65711">
        <ele>4.59</ele>
        <time>2025-05-07T13:32:44.902Z</time>
      </trkpt>
      <trkpt lat="45.8248" lon="-0.65736">
        <ele>4.83</ele>
        <time>2025-05-07T13:32:50.710Z</time>
      </trkpt>
      <trkpt lat="45.82472" lon="-0.65732">
        <ele>4.99</ele>
        <time>2025-05-07T13:32:56.519Z</time>
      </trkpt>
      <trkpt lat="45.82463" lon="-0.65726">
        <ele>5.14</ele>
        <time>2025-05-07T13:33:02.330Z</time>
      </trkpt>
      <trkpt lat="45.82481" lon="-0.65708">
        <ele>3.94</ele>
        <time>2025-05-07T13:33:08.144Z</time>
      </trkpt>
      <trkpt lat="45.82498" lon="-0.65691">
        <ele>3.74</ele>
        <time>2025-05-07T13:33:13.961Z</time>
      </trkpt>
      <trkpt lat="45.82516" lon="-0.65675">
        <ele>3.57</ele>
        <time>2025-05-07T13:33:19.782Z</time>
      </trkpt>
      <trkpt lat="45.82542" lon="-0.65653">
        <ele>3.42</ele>
        <time>2025-05-07T13:33:25.608Z</time>
      </trkpt>
      <trkpt lat="45.82567" lon="-0.65632">
        <ele>3.29</ele>
        <time>2025-05-07T13:33:31.438Z</time>
      </trkpt>
      <trkpt lat="45.82593" lon="-0.6561">
        <ele>3.13</ele>
        <time>2025-05-07T13:33:37.273Z</time>
      </trkpt>
      <trkpt lat="45.82618" lon="-0.65589">
        <ele>2.98</ele>
        <time>2025-05-07T13:33:43.113Z</time>
      </trkpt>
      <trkpt lat="45.82644" lon="-0.65567">
        <ele>2.83</ele>
        <time>2025-05-07T13:33:48.958Z</time>
      </trkpt>
      <trkpt lat="45.82669" lon="-0.65546">
        <ele>2.64</ele>
        <time>2025-05-07T13:33:54.807Z</time>
      </trkpt>
      <trkpt lat="45.82695" lon="-0.65524">
        <ele>2.49</ele>
        <time>2025-05-07T13:34:00.661Z</time>
      </trkpt>
      <trkpt lat="45.82713" lon="-0.65508">
        <ele>2.33</ele>
        <time>2025-05-07T13:34:06.519Z</time>
      </trkpt>
      <trkpt lat="45.82732" lon="-0.65491">
        <ele>2.17</ele>
        <time>2025-05-07T13:34:12.380Z</time>
      </trkpt>
      <trkpt lat="45.8275" lon="-0.65475">
        <ele>2.04</ele>
        <time>2025-05-07T13:34:18.244Z</time>
      </trkpt>
      <trkpt lat="45.82771" lon="-0.65454">
        <ele>1.93</ele>
        <time>2025-05-07T13:34:24.113Z</time>
      </trkpt>
      <trkpt lat="45.82796" lon="-0.65428">
        <ele>1.82</ele>
        <time>2025-05-07T13:34:29.987Z</time>
      </trkpt>
      <trkpt lat="45.82819" lon="-0.65403">
        <ele>1.72</ele>
        <time>2025-05-07T13:34:35.865Z</time>
      </trkpt>
      <trkpt lat="45.82843" lon="-0.65377">
        <ele>1.65</ele>
        <time>2025-05-07T13:34:41.748Z</time>
      </trkpt>
      <trkpt lat="45.82866" lon="-0.65352">
        <ele>1.54</ele>
        <time>2025-05-07T13:34:47.636Z</time>
      </trkpt>
      <trkpt lat="45.82889" lon="-0.65327">
        <ele>1.47</ele>
        <time>2025-05-07T13:34:53.528Z</time>
      </trkpt>
      <trkpt lat="45.82913" lon="-0.65301">
        <ele>1.43</ele>
        <time>2025-05-07T13:34:59.425Z</time>
      </trkpt>
      <trkpt lat="45.82936" lon="-0.65276">
        <ele>1.42</ele>
        <time>2025-05-07T13:35:05.327Z</time>
      </trkpt>
      <trkpt lat="45.8296" lon="-0.65249">
        <ele>1.41</ele>
        <time>2025-05-07T13:35:11.234Z</time>
      </trkpt>
      <trkpt lat="45.82976" lon="-0.65234">
        <ele>1.38</ele>
        <time>2025-05-07T13:35:17.144Z</time>
      </trkpt>
      <trkpt lat="45.82998" lon="-0.65215">
        <ele>1.34</ele>
        <time>2025-05-07T13:35:23.058Z</time>
      </trkpt>
      <trkpt lat="45.8302" lon="-0.65196">
        <ele>1.31</ele>
        <time>2025-05-07T13:35:28.976Z</time>
      </trkpt>
      <trkpt lat="45.83041" lon="-0.65177">
        <ele>1.31</ele>
        <time>2025-05-07T13:35:34.898Z</time>
      </trkpt>
      <trkpt lat="45.83063" lon="-0.65158">
        <ele>1.33</ele>
        <time>2025-05-07T13:35:40.824Z</time>
      </trkpt>
      <trkpt lat="45.83077" lon="-0.65144">
        <ele>1.38</ele>
        <time>2025-05-07T13:35:46.753Z</time>
      </trkpt>
      <trkpt lat="45.83089" lon="-0.65131">
        <ele>1.45</ele>
        <time>2025-05-07T13:35:52.684Z</time>
      </trkpt>
      <trkpt lat="45.83101" lon="-0.65115">
        <ele>1.52</ele>
        <time>2025-05-07T13:35:58.618Z</time>
      </trkpt>
      <trkpt lat="45.8312" lon="-0.65086">
        <ele>1.6</ele>
        <time>2025-05-07T13:36:04.556Z</time>
      </trkpt>
      <trkpt lat="45.83134" lon="-0.65061">
        <ele>1.68</ele>
        <time>2025-05-07T13:36:10.498Z</time>
      </trkpt>
      <trkpt lat="45.83143" lon="-0.65042">
        <ele>1.81</ele>
        <time>2025-05-07T13:36:16.442Z</time>
      </trkpt>
      <trkpt lat="45.83156" lon="-0.6501">
        <ele>2.01</ele>
        <time>2025-05-07T13:36:22.390Z</time>
      </trkpt>
      <trkpt lat="45.83162" lon="-0.64989">
        <ele>2.19</ele>
        <time>2025-05-07T13:36:28.341Z</time>
      </trkpt>
      <trkpt lat="45.83171" lon="-0.64955">
        <ele>2.39</ele>
        <time>2025-05-07T13:36:34.296Z</time>
      </trkpt>
      <trkpt lat="45.83179" lon="-0.64922">
        <ele>2.56</ele>
        <time>2025-05-07T13:36:40.255Z</time>
      </trkpt>
      <trkpt lat="45.83189" lon="-0.6488">
        <ele>2.75</ele>
        <time>2025-05-07T13:36:46.219Z</time>
      </trkpt>
      <trkpt lat="45.83198" lon="-0.64838">
        <ele>3.01</ele>
        <time>2025-05-07T13:36:52.188Z</time>
      </trkpt>
      <trkpt lat="45.83207" lon="-0.64802">
        <ele>3.26</ele>
        <time>2025-05-07T13:36:58.161Z</time>
      </trkpt>
      <trkpt lat="45.83215" lon="-0.64766">
        <ele>3.6</ele>
        <time>2025-05-07T13:37:04.138Z</time>
      </trkpt>
      <trkpt lat="45.83218" lon="-0.64753">
        <ele>3.97</ele>
        <time>2025-05-07T13:37:10.117Z</time>
      </trkpt>
      <trkpt lat="45.83223" lon="-0.64733">
        <ele>4.37</ele>
        <time>2025-05-07T13:37:16.098Z</time>
      </trkpt>
      <trkpt lat="45.83236" lon="-0.64697">
        <ele>4.85</ele>
        <time>2025-05-07T13:37:22.084Z</time>
      </trkpt>
      <trkpt lat="45.83238" lon="-0.6469">
        <ele>5.31</ele>
        <time>2025-05-07T13:37:28.071Z</time>
      </trkpt>
      <trkpt lat="45.83241" lon="-0.64684">
        <ele>5.81</ele>
        <time>2025-05-07T13:37:34.058Z</time>
      </trkpt>
      <trkpt lat="45.83254" lon="-0.64656">
        <ele>6.36</ele>
        <time>2025-05-07T13:37:40.049Z</time>
      </trkpt>
      <trkpt lat="45.83272" lon="-0.64623">
        <ele>7</ele>
        <time>2025-05-07T13:37:46.045Z</time>
      </trkpt>
      <trkpt lat="45.83288" lon="-0.64599">
        <ele>7.65</ele>
        <time>2025-05-07T13:37:52.045Z</time>
      </trkpt>
      <trkpt lat="45.83296" lon="-0.64589">
        <ele>8.26</ele>
        <time>2025-05-07T13:37:58.046Z</time>
      </trkpt>
      <trkpt lat="45.83314" lon="-0.64569">
        <ele>8.81</ele>
        <time>2025-05-07T13:38:04.051Z</time>
      </trkpt>
      <trkpt lat="45.83335" lon="-0.6455">
        <ele>9.43</ele>
        <time>2025-05-07T13:38:10.060Z</time>
      </trkpt>
      <trkpt lat="45.83356" lon="-0.64532">
        <ele>10.16</ele>
        <time>2025-05-07T13:38:16.073Z</time>
      </trkpt>
      <trkpt lat="45.83365" lon="-0.64522">
        <ele>10.93</ele>
        <time>2025-05-07T13:38:22.088Z</time>
      </trkpt>
      <trkpt lat="45.83381" lon="-0.64504">
        <ele>11.75</ele>
        <time>2025-05-07T13:38:28.106Z</time>
      </trkpt>
      <trkpt lat="45.83402" lon="-0.64474">
        <ele>12.69</ele>
        <time>2025-05-07T13:38:34.129Z</time>
      </trkpt>
      <trkpt lat="45.83421" lon="-0.64442">
        <ele>13.46</ele>
        <time>2025-05-07T13:38:40.156Z</time>
      </trkpt>
      <trkpt lat="45.83439" lon="-0.64411">
        <ele>14.25</ele>
        <time>2025-05-07T13:38:46.188Z</time>
      </trkpt>
      <trkpt lat="45.83457" lon="-0.64378">
        <ele>15.09</ele>
        <time>2025-05-07T13:38:52.225Z</time>
      </trkpt>
      <trkpt lat="45.83475" lon="-0.64345">
        <ele>15.85</ele>
        <time>2025-05-07T13:38:58.266Z</time>
      </trkpt>
      <trkpt lat="45.83493" lon="-0.64311">
        <ele>16.6</ele>
        <time>2025-05-07T13:39:04.312Z</time>
      </trkpt>
      <trkpt lat="45.83512" lon="-0.64278">
        <ele>17.41</ele>
        <time>2025-05-07T13:39:10.363Z</time>
      </trkpt>
      <trkpt lat="45.8353" lon="-0.64245">
        <ele>18.25</ele>
        <time>2025-05-07T13:39:16.418Z</time>
      </trkpt>
      <trkpt lat="45.83548" lon="-0.64212">
        <ele>18.97</ele>
        <time>2025-05-07T13:39:22.478Z</time>
      </trkpt>
      <trkpt lat="45.83566" lon="-0.64179">
        <ele>19.58</ele>
        <time>2025-05-07T13:39:28.543Z</time>
      </trkpt>
      <trkpt lat="45.83584" lon="-0.64146">
        <ele>20.19</ele>
        <time>2025-05-07T13:39:34.613Z</time>
      </trkpt>
      <trkpt lat="45.83599" lon="-0.64118">
        <ele>20.78</ele>
        <time>2025-05-07T13:39:40.686Z</time>
      </trkpt>
      <trkpt lat="45.83606" lon="-0.64108">
        <ele>21.32</ele>
        <time>2025-05-07T13:39:46.761Z</time>
      </trkpt>
      <trkpt lat="45.8362" lon="-0.64092">
        <ele>21.82</ele>
        <time>2025-05-07T13:39:52.839Z</time>
      </trkpt>
      <trkpt lat="45.83632" lon="-0.64084">
        <ele>22.29</ele>
        <time>2025-05-07T13:39:58.919Z</time>
      </trkpt>
      <trkpt lat="45.83643" lon="-0.6408">
        <ele>22.74</ele>
        <time>2025-05-07T13:40:05.001Z</time>
      </trkpt>
      <trkpt lat="45.83651" lon="-0.64077">
        <ele>23.14</ele>
        <time>2025-05-07T13:40:11.084Z</time>
      </trkpt>
      <trkpt lat="45.83666" lon="-0.64071">
        <ele>23.51</ele>
        <time>2025-05-07T13:40:17.170Z</time>
      </trkpt>
      <trkpt lat="45.83677" lon="-0.64063">
        <ele>23.84</ele>
        <time>2025-05-07T13:40:23.258Z</time>
      </trkpt>
      <trkpt lat="45.83686" lon="-0.64054">
        <ele>24.12</ele>
        <time>2025-05-07T13:40:29.347Z</time>
      </trkpt>
      <trkpt lat="45.8369" lon="-0.64046">
        <ele>24.35</ele>
        <time>2025-05-07T13:40:35.437Z</time>
      </trkpt>
      <trkpt lat="45.83694" lon="-0.64038">
        <ele>24.56</ele>
        <time>2025-05-07T13:40:41.529Z</time>
      </trkpt>
      <trkpt lat="45.83697" lon="-0.64028">
        <ele>24.73</ele>
        <time>2025-05-07T13:40:47.622Z</time>
      </trkpt>
      <trkpt lat="45.83702" lon="-0.64007">
        <ele>24.87</ele>
        <time>2025-05-07T13:40:53.717Z</time>
      </trkpt>
      <trkpt lat="45.83706" lon="-0.63985">
        <ele>24.98</ele>
        <time>2025-05-07T13:40:59.815Z</time>
      </trkpt>
      <trkpt lat="45.83711" lon="-0.63951">
        <ele>25.11</ele>
        <time>2025-05-07T13:41:05.917Z</time>
      </trkpt>
      <trkpt lat="45.83717" lon="-0.63918">
        <ele>25.17</ele>
        <time>2025-05-07T13:41:12.023Z</time>
      </trkpt>
      <trkpt lat="45.83722" lon="-0.63884">
        <ele>25.17</ele>
        <time>2025-05-07T13:41:18.132Z</time>
      </trkpt>
      <trkpt lat="45.83729" lon="-0.63844">
        <ele>25.19</ele>
        <time>2025-05-07T13:41:24.246Z</time>
      </trkpt>
      <trkpt lat="45.83735" lon="-0.63805">
        <ele>25.15</ele>
        <time>2025-05-07T13:41:30.365Z</time>
      </trkpt>
      <trkpt lat="45.83742" lon="-0.63765">
        <ele>25.18</ele>
        <time>2025-05-07T13:41:36.488Z</time>
      </trkpt>
      <trkpt lat="45.83748" lon="-0.63726">
        <ele>25.17</ele>
        <time>2025-05-07T13:41:42.616Z</time>
      </trkpt>
      <trkpt lat="45.83752" lon="-0.637">
        <ele>25.14</ele>
        <time>2025-05-07T13:41:48.747Z</time>
      </trkpt>
      <trkpt lat="45.83755" lon="-0.63674">
        <ele>25.06</ele>
        <time>2025-05-07T13:41:54.880Z</time>
      </trkpt>
      <trkpt lat="45.83757" lon="-0.63648">
        <ele>25.06</ele>
        <time>2025-05-07T13:42:01.016Z</time>
      </trkpt>
      <trkpt lat="45.83758" lon="-0.63623">
        <ele>25.04</ele>
        <time>2025-05-07T13:42:07.155Z</time>
      </trkpt>
      <trkpt lat="45.8376" lon="-0.63581">
        <ele>25.01</ele>
        <time>2025-05-07T13:42:13.299Z</time>
      </trkpt>
      <trkpt lat="45.83762" lon="-0.63539">
        <ele>24.99</ele>
        <time>2025-05-07T13:42:19.448Z</time>
      </trkpt>
      <trkpt lat="45.83765" lon="-0.63497">
        <ele>24.98</ele>
        <time>2025-05-07T13:42:25.601Z</time>
      </trkpt>
      <trkpt lat="45.83767" lon="-0.63455">
        <ele>25.02</ele>
        <time>2025-05-07T13:42:31.759Z</time>
      </trkpt>
      <trkpt lat="45.83769" lon="-0.63412">
        <ele>25.06</ele>
        <time>2025-05-07T13:42:37.922Z</time>
      </trkpt>
      <trkpt lat="45.83771" lon="-0.63371">
        <ele>25.08</ele>
        <time>2025-05-07T13:42:44.089Z</time>
      </trkpt>
      <trkpt lat="45.83773" lon="-0.63335">
        <ele>25.1</ele>
        <time>2025-05-07T13:42:50.260Z</time>
      </trkpt>
      <trkpt lat="45.83775" lon="-0.633">
        <ele>25.13</ele>
        <time>2025-05-07T13:42:56.435Z</time>
      </trkpt>
      <trkpt lat="45.83777" lon="-0.63264">
        <ele>25.2</ele>
        <time>2025-05-07T13:43:02.614Z</time>
      </trkpt>
      <trkpt lat="45.83779" lon="-0.63229">
        <ele>25.25</ele>
        <time>2025-05-07T13:43:08.797Z</time>
      </trkpt>
      <trkpt lat="45.8378" lon="-0.63204">
        <ele>25.35</ele>
        <time>2025-05-07T13:43:14.983Z</time>
      </trkpt>
      <trkpt lat="45.83778" lon="-0.63172">
        <ele>25.39</ele>
        <time>2025-05-07T13:43:21.173Z</time>
      </trkpt>
      <trkpt lat="45.83774" lon="-0.63147">
        <ele>25.5</ele>
        <time>2025-05-07T13:43:27.366Z</time>
      </trkpt>
      <trkpt lat="45.83767" lon="-0.63127">
        <ele>25.6</ele>
        <time>2025-05-07T13:43:33.561Z</time>
      </trkpt>
      <trkpt lat="45.83762" lon="-0.63113">
        <ele>25.73</ele>
        <time>2025-05-07T13:43:39.758Z</time>
      </trkpt>
      <trkpt lat="45.83755" lon="-0.63099">
        <ele>25.88</ele>
        <time>2025-05-07T13:43:45.957Z</time>
      </trkpt>
      <trkpt lat="45.83748" lon="-0.63085">
        <ele>26.03</ele>
        <time>2025-05-07T13:43:52.158Z</time>
      </trkpt>
      <trkpt lat="45.83728" lon="-0.63052">
        <ele>26.19</ele>
        <time>2025-05-07T13:43:58.364Z</time>
      </trkpt>
      <trkpt lat="45.83708" lon="-0.6302">
        <ele>26.35</ele>
        <time>2025-05-07T13:44:04.575Z</time>
      </trkpt>
      <trkpt lat="45.83688" lon="-0.62987">
        <ele>26.48</ele>
        <time>2025-05-07T13:44:10.790Z</time>
      </trkpt>
      <trkpt lat="45.83668" lon="-0.62955">
        <ele>26.62</ele>
        <time>2025-05-07T13:44:17.010Z</time>
      </trkpt>
      <trkpt lat="45.83654" lon="-0.6293">
        <ele>26.81</ele>
        <time>2025-05-07T13:44:23.234Z</time>
      </trkpt>
      <trkpt lat="45.83642" lon="-0.62904">
        <ele>26.99</ele>
        <time>2025-05-07T13:44:29.461Z</time>
      </trkpt>
      <trkpt lat="45.83636" lon="-0.62888">
        <ele>27.18</ele>
        <time>2025-05-07T13:44:35.690Z</time>
      </trkpt>
      <trkpt lat="45.83626" lon="-0.62855">
        <ele>27.3</ele>
        <time>2025-05-07T13:44:41.923Z</time>
      </trkpt>
      <trkpt lat="45.8362" lon="-0.62829">
        <ele>27.46</ele>
        <time>2025-05-07T13:44:48.159Z</time>
      </trkpt>
      <trkpt lat="45.83615" lon="-0.62806">
        <ele>27.63</ele>
        <time>2025-05-07T13:44:54.398Z</time>
      </trkpt>
      <trkpt lat="45.83611" lon="-0.62784">
        <ele>27.85</ele>
        <time>2025-05-07T13:45:00.640Z</time>
      </trkpt>
      <trkpt lat="45.83605" lon="-0.62753">
        <ele>28.09</ele>
        <time>2025-05-07T13:45:06.885Z</time>
      </trkpt>
      <trkpt lat="45.836" lon="-0.62723">
        <ele>28.4</ele>
        <time>2025-05-07T13:45:13.134Z</time>
      </trkpt>
      <trkpt lat="45.83593" lon="-0.62684">
        <ele>28.71</ele>
        <time>2025-05-07T13:45:19.387Z</time>
      </trkpt>
      <trkpt lat="45.8359" lon="-0.62654">
        <ele>28.89</ele>
        <time>2025-05-07T13:45:25.644Z</time>
      </trkpt>
      <trkpt lat="45.8359" lon="-0.62642">
        <ele>29.09</ele>
        <time>2025-05-07T13:45:31.902Z</time>
      </trkpt>
      <trkpt lat="45.83593" lon="-0.62605">
        <ele>29.25</ele>
        <time>2025-05-07T13:45:38.164Z</time>
      </trkpt>
      <trkpt lat="45.83597" lon="-0.62575">
        <ele>29.45</ele>
        <time>2025-05-07T13:45:44.429Z</time>
      </trkpt>
      <trkpt lat="45.83601" lon="-0.6256">
        <ele>29.69</ele>
        <time>2025-05-07T13:45:50.696Z</time>
      </trkpt>
      <trkpt lat="45.83605" lon="-0.62549">
        <ele>29.9</ele>
        <time>2025-05-07T13:45:56.965Z</time>
      </trkpt>
      <trkpt lat="45.83613" lon="-0.62535">
        <ele>30.12</ele>
        <time>2025-05-07T13:46:03.236Z</time>
      </trkpt>
      <trkpt lat="45.83619" lon="-0.62527">
        <ele>30.31</ele>
        <time>2025-05-07T13:46:09.508Z</time>
      </trkpt>
      <trkpt lat="45.83642" lon="-0.62506">
        <ele>30.47</ele>
        <time>2025-05-07T13:46:15.784Z</time>
      </trkpt>
      <trkpt lat="45.83664" lon="-0.62486">
        <ele>30.62</ele>
        <time>2025-05-07T13:46:22.065Z</time>
      </trkpt>
      <trkpt lat="45.83687" lon="-0.62465">
        <ele>30.74</ele>
        <time>2025-05-07T13:46:28.350Z</time>
      </trkpt>
      <trkpt lat="45.83701" lon="-0.6245">
        <ele>30.84</ele>
        <time>2025-05-07T13:46:34.638Z</time>
      </trkpt>
      <trkpt lat="45.83714" lon="-0.62436">
        <ele>30.95</ele>
        <time>2025-05-07T13:46:40.928Z</time>
      </trkpt>
      <trkpt lat="45.83726" lon="-0.6242">
        <ele>31.05</ele>
        <time>2025-05-07T13:46:47.221Z</time>
      </trkpt>
      <trkpt lat="45.83734" lon="-0.62409">
        <ele>31.14</ele>
        <time>2025-05-07T13:46:53.516Z</time>
      </trkpt>
      <trkpt lat="45.8375" lon="-0.62382">
        <ele>31.24</ele>
        <time>2025-05-07T13:46:59.815Z</time>
      </trkpt>
      <trkpt lat="45.83761" lon="-0.6235">
        <ele>31.27</ele>
        <time>2025-05-07T13:47:06.118Z</time>
      </trkpt>
      <trkpt lat="45.83772" lon="-0.62319">
        <ele>31.22</ele>
        <time>2025-05-07T13:47:12.425Z</time>
      </trkpt>
      <trkpt lat="45.83783" lon="-0.62287">
        <ele>31.1</ele>
        <time>2025-05-07T13:47:18.736Z</time>
      </trkpt>
      <trkpt lat="45.83794" lon="-0.62256">
        <ele>30.89</ele>
        <time>2025-05-07T13:47:25.050Z</time>
      </trkpt>
      <trkpt lat="45.83803" lon="-0.6223">
        <ele>30.66</ele>
        <time>2025-05-07T13:47:31.368Z</time>
      </trkpt>
      <trkpt lat="45.8382" lon="-0.62193">
        <ele>30.51</ele>
        <time>2025-05-07T13:47:37.691Z</time>
      </trkpt>
      <trkpt lat="45.83836" lon="-0.62157">
        <ele>30.38</ele>
        <time>2025-05-07T13:47:44.018Z</time>
      </trkpt>
      <trkpt lat="45.8384" lon="-0.62149">
        <ele>30.16</ele>
        <time>2025-05-07T13:47:50.346Z</time>
      </trkpt>
      <trkpt lat="45.83856" lon="-0.62115">
        <ele>29.95</ele>
        <time>2025-05-07T13:47:56.679Z</time>
      </trkpt>
      <trkpt lat="45.83872" lon="-0.6208">
        <ele>29.7</ele>
        <time>2025-05-07T13:48:03.017Z</time>
      </trkpt>
      <trkpt lat="45.83887" lon="-0.62046">
        <ele>29.39</ele>
        <time>2025-05-07T13:48:09.359Z</time>
      </trkpt>
      <trkpt lat="45.83903" lon="-0.62012">
        <ele>28.97</ele>
        <time>2025-05-07T13:48:15.706Z</time>
      </trkpt>
      <trkpt lat="45.83912" lon="-0.61993">
        <ele>28.54</ele>
        <time>2025-05-07T13:48:22.055Z</time>
      </trkpt>
      <trkpt lat="45.8392" lon="-0.61974">
        <ele>28.1</ele>
        <time>2025-05-07T13:48:28.407Z</time>
      </trkpt>
      <trkpt lat="45.83931" lon="-0.61949">
        <ele>27.58</ele>
        <time>2025-05-07T13:48:34.762Z</time>
      </trkpt>
      <trkpt lat="45.83941" lon="-0.61928">
        <ele>27.05</ele>
        <time>2025-05-07T13:48:41.120Z</time>
      </trkpt>
      <trkpt lat="45.8395" lon="-0.61907">
        <ele>26.46</ele>
        <time>2025-05-07T13:48:47.481Z</time>
      </trkpt>
      <trkpt lat="45.83968" lon="-0.61874">
        <ele>25.79</ele>
        <time>2025-05-07T13:48:53.846Z</time>
      </trkpt>
      <trkpt lat="45.83979" lon="-0.61858">
        <ele>25.11</ele>
        <time>2025-05-07T13:49:00.214Z</time>
      </trkpt>
      <trkpt lat="45.83992" lon="-0.61842">
        <ele>24.41</ele>
        <time>2025-05-07T13:49:06.585Z</time>
      </trkpt>
      <trkpt lat="45.84013" lon="-0.61827">
        <ele>23.69</ele>
        <time>2025-05-07T13:49:12.959Z</time>
      </trkpt>
      <trkpt lat="45.84036" lon="-0.61813">
        <ele>22.94</ele>
        <time>2025-05-07T13:49:19.338Z</time>
      </trkpt>
      <trkpt lat="45.8406" lon="-0.61798">
        <ele>22.18</ele>
        <time>2025-05-07T13:49:25.721Z</time>
      </trkpt>
      <trkpt lat="45.84083" lon="-0.61784">
        <ele>21.36</ele>
        <time>2025-05-07T13:49:32.108Z</time>
      </trkpt>
      <trkpt lat="45.84107" lon="-0.61769">
        <ele>20.55</ele>
        <time>2025-05-07T13:49:38.499Z</time>
      </trkpt>
      <trkpt lat="45.8413" lon="-0.61755">
        <ele>19.78</ele>
        <time>2025-05-07T13:49:44.894Z</time>
      </trkpt>
      <trkpt lat="45.84136" lon="-0.61751">
        <ele>19.11</ele>
        <time>2025-05-07T13:49:51.290Z</time>
      </trkpt>
      <trkpt lat="45.8416" lon="-0.61736">
        <ele>18.46</ele>
        <time>2025-05-07T13:49:57.690Z</time>
      </trkpt>
      <trkpt lat="45.84184" lon="-0.61722">
        <ele>17.87</ele>
        <time>2025-05-07T13:50:04.094Z</time>
      </trkpt>
      <trkpt lat="45.84206" lon="-0.61708">
        <ele>17.28</ele>
        <time>2025-05-07T13:50:10.502Z</time>
      </trkpt>
      <trkpt lat="45.84232" lon="-0.61691">
        <ele>16.74</ele>
        <time>2025-05-07T13:50:16.915Z</time>
      </trkpt>
      <trkpt lat="45.84257" lon="-0.61675">
        <ele>16.25</ele>
        <time>2025-05-07T13:50:23.332Z</time>
      </trkpt>
      <trkpt lat="45.84283" lon="-0.61659">
        <ele>15.83</ele>
        <time>2025-05-07T13:50:29.754Z</time>
      </trkpt>
      <trkpt lat="45.84309" lon="-0.61642">
        <ele>15.48</ele>
        <time>2025-05-07T13:50:36.180Z</time>
      </trkpt>
      <trkpt lat="45.84313" lon="-0.6164">
        <ele>15.23</ele>
        <time>2025-05-07T13:50:42.607Z</time>
      </trkpt>
      <trkpt lat="45.84321" lon="-0.61636">
        <ele>15.05</ele>
        <time>2025-05-07T13:50:49.035Z</time>
      </trkpt>
      <trkpt lat="45.84322" lon="-0.61634">
        <ele>14.94</ele>
        <time>2025-05-07T13:50:55.463Z</time>
      </trkpt>
      <trkpt lat="45.84334" lon="-0.61627">
        <ele>14.93</ele>
        <time>2025-05-07T13:51:01.894Z</time>
      </trkpt>
      <trkpt lat="45.84348" lon="-0.61618">
        <ele>15</ele>
        <time>2025-05-07T13:51:08.327Z</time>
      </trkpt>
      <trkpt lat="45.84363" lon="-0.61609">
        <ele>15.14</ele>
        <time>2025-05-07T13:51:14.763Z</time>
      </trkpt>
      <trkpt lat="45.84386" lon="-0.61594">
        <ele>15.33</ele>
        <time>2025-05-07T13:51:21.203Z</time>
      </trkpt>
      <trkpt lat="45.84409" lon="-0.61579">
        <ele>15.62</ele>
        <time>2025-05-07T13:51:27.647Z</time>
      </trkpt>
      <trkpt lat="45.84425" lon="-0.61564">
        <ele>16.02</ele>
        <time>2025-05-07T13:51:34.094Z</time>
      </trkpt>
      <trkpt lat="45.84441" lon="-0.61547">
        <ele>16.46</ele>
        <time>2025-05-07T13:51:40.544Z</time>
      </trkpt>
      <trkpt lat="45.84455" lon="-0.61529">
        <ele>16.97</ele>
        <time>2025-05-07T13:51:46.997Z</time>
      </trkpt>
      <trkpt lat="45.84469" lon="-0.61512">
        <ele>17.52</ele>
        <time>2025-05-07T13:51:53.453Z</time>
      </trkpt>
      <trkpt lat="45.84471" lon="-0.61508">
        <ele>18.16</ele>
        <time>2025-05-07T13:51:59.909Z</time>
      </trkpt>
      <trkpt lat="45.84482" lon="-0.61491">
        <ele>18.87</ele>
        <time>2025-05-07T13:52:06.368Z</time>
      </trkpt>
      <trkpt lat="45.8449" lon="-0.61476">
        <ele>19.67</ele>
        <time>2025-05-07T13:52:12.829Z</time>
      </trkpt>
      <trkpt lat="45.84505" lon="-0.61449">
        <ele>20.54</ele>
        <time>2025-05-07T13:52:19.294Z</time>
      </trkpt>
      <trkpt lat="45.84516" lon="-0.6143">
        <ele>21.45</ele>
        <time>2025-05-07T13:52:25.762Z</time>
      </trkpt>
      <trkpt lat="45.8452" lon="-0.61425">
        <ele>22.38</ele>
        <time>2025-05-07T13:52:32.231Z</time>
      </trkpt>
      <trkpt lat="45.84543" lon="-0.61397">
        <ele>23.42</ele>
        <time>2025-05-07T13:52:38.705Z</time>
      </trkpt>
      <trkpt lat="45.84567" lon="-0.61369">
        <ele>24.53</ele>
        <time>2025-05-07T13:52:45.183Z</time>
      </trkpt>
      <trkpt lat="45.8459" lon="-0.61341">
        <ele>25.67</ele>
        <time>2025-05-07T13:52:51.666Z</time>
      </trkpt>
      <trkpt lat="45.84601" lon="-0.61328">
        <ele>26.77</ele>
        <time>2025-05-07T13:52:58.152Z</time>
      </trkpt>
      <trkpt lat="45.84612" lon="-0.61318">
        <ele>27.87</ele>
        <time>2025-05-07T13:53:04.640Z</time>
      </trkpt>
      <trkpt lat="45.84629" lon="-0.61304">
        <ele>29</ele>
        <time>2025-05-07T13:53:11.131Z</time>
      </trkpt>
      <trkpt lat="45.84645" lon="-0.61296">
        <ele>30.1</ele>
        <time>2025-05-07T13:53:17.624Z</time>
      </trkpt>
      <trkpt lat="45.84664" lon="-0.61287">
        <ele>31.14</ele>
        <time>2025-05-07T13:53:24.121Z</time>
      </trkpt>
      <trkpt lat="45.84684" lon="-0.61279">
        <ele>32.13</ele>
        <time>2025-05-07T13:53:30.621Z</time>
      </trkpt>
      <trkpt lat="45.84693" lon="-0.61276">
        <ele>33.07</ele>
        <time>2025-05-07T13:53:37.122Z</time>
      </trkpt>
      <trkpt lat="45.84716" lon="-0.61273">
        <ele>33.98</ele>
        <time>2025-05-07T13:53:43.627Z</time>
      </trkpt>
      <trkpt lat="45.84726" lon="-0.61274">
        <ele>34.86</ele>
        <time>2025-05-07T13:53:50.134Z</time>
      </trkpt>
      <trkpt lat="45.84741" lon="-0.61277">
        <ele>35.69</ele>
        <time>2025-05-07T13:53:56.643Z</time>
      </trkpt>
      <trkpt lat="45.84755" lon="-0.61282">
        <ele>36.47</ele>
        <time>2025-05-07T13:54:03.155Z</time>
      </trkpt>
      <trkpt lat="45.84778" lon="-0.61295">
        <ele>37.24</ele>
        <time>2025-05-07T13:54:09.671Z</time>
      </trkpt>
      <trkpt lat="45.84801" lon="-0.61307">
        <ele>37.94</ele>
        <time>2025-05-07T13:54:16.190Z</time>
      </trkpt>
      <trkpt lat="45.84825" lon="-0.6132">
        <ele>38.56</ele>
        <time>2025-05-07T13:54:22.713Z</time>
      </trkpt>
      <trkpt lat="45.84848" lon="-0.61333">
        <ele>39.11</ele>
        <time>2025-05-07T13:54:29.240Z</time>
      </trkpt>
      <trkpt lat="45.84863" lon="-0.61341">
        <ele>39.59</ele>
        <time>2025-05-07T13:54:35.770Z</time>
      </trkpt>
      <trkpt lat="45.84878" lon="-0.61349">
        <ele>40</ele>
        <time>2025-05-07T13:54:42.303Z</time>
      </trkpt>
      <trkpt lat="45.8489" lon="-0.61355">
        <ele>40.32</ele>
        <time>2025-05-07T13:54:48.838Z</time>
      </trkpt>
      <trkpt lat="45.84911" lon="-0.61361">
        <ele>40.56</ele>
        <time>2025-05-07T13:54:55.376Z</time>
      </trkpt>
      <trkpt lat="45.84933" lon="-0.61368">
        <ele>40.74</ele>
        <time>2025-05-07T13:55:01.918Z</time>
      </trkpt>
      <trkpt lat="45.84959" lon="-0.61375">
        <ele>40.85</ele>
        <time>2025-05-07T13:55:08.464Z</time>
      </trkpt>
      <trkpt lat="45.84984" lon="-0.61383">
        <ele>40.9</ele>
        <time>2025-05-07T13:55:15.014Z</time>
      </trkpt>
      <trkpt lat="45.8501" lon="-0.6139">
        <ele>40.92</ele>
        <time>2025-05-07T13:55:21.568Z</time>
      </trkpt>
      <trkpt lat="45.85029" lon="-0.61392">
        <ele>40.93</ele>
        <time>2025-05-07T13:55:28.125Z</time>
      </trkpt>
      <trkpt lat="45.85046" lon="-0.61388">
        <ele>40.88</ele>
        <time>2025-05-07T13:55:34.685Z</time>
      </trkpt>
      <trkpt lat="45.8506" lon="-0.61383">
        <ele>40.77</ele>
        <time>2025-05-07T13:55:41.247Z</time>
      </trkpt>
      <trkpt lat="45.85074" lon="-0.61377">
        <ele>40.63</ele>
        <time>2025-05-07T13:55:47.812Z</time>
      </trkpt>
      <trkpt lat="45.85102" lon="-0.61363">
        <ele>40.46</ele>
        <time>2025-05-07T13:55:54.381Z</time>
      </trkpt>
      <trkpt lat="45.85131" lon="-0.61349">
        <ele>40.27</ele>
        <time>2025-05-07T13:56:00.955Z</time>
      </trkpt>
      <trkpt lat="45.85159" lon="-0.61334">
        <ele>40.03</ele>
        <time>2025-05-07T13:56:07.534Z</time>
      </trkpt>
      <trkpt lat="45.85187" lon="-0.6132">
        <ele>39.76</ele>
        <time>2025-05-07T13:56:14.118Z</time>
      </trkpt>
      <trkpt lat="45.85216" lon="-0.61306">
        <ele>39.5</ele>
        <time>2025-05-07T13:56:20.707Z</time>
      </trkpt>
      <trkpt lat="45.85244" lon="-0.61292">
        <ele>39.28</ele>
        <time>2025-05-07T13:56:27.301Z</time>
      </trkpt>
      <trkpt lat="45.85272" lon="-0.61278">
        <ele>39.05</ele>
        <time>2025-05-07T13:56:33.899Z</time>
      </trkpt>
      <trkpt lat="45.85301" lon="-0.61263">
        <ele>38.82</ele>
        <time>2025-05-07T13:56:40.502Z</time>
      </trkpt>
      <trkpt lat="45.85329" lon="-0.61249">
        <ele>38.67</ele>
        <time>2025-05-07T13:56:47.110Z</time>
      </trkpt>
      <trkpt lat="45.85357" lon="-0.61235">
        <ele>38.6</ele>
        <time>2025-05-07T13:56:53.723Z</time>
      </trkpt>
      <trkpt lat="45.85386" lon="-0.61221">
        <ele>38.56</ele>
        <time>2025-05-07T13:57:00.341Z</time>
      </trkpt>
      <trkpt lat="45.85414" lon="-0.61207">
        <ele>38.54</ele>
        <time>2025-05-07T13:57:06.963Z</time>
      </trkpt>
      <trkpt lat="45.85442" lon="-0.61192">
        <ele>38.48</ele>
        <time>2025-05-07T13:57:13.590Z</time>
      </trkpt>
      <trkpt lat="45.85471" lon="-0.61178">
        <ele>38.45</ele>
        <time>2025-05-07T13:57:20.222Z</time>
      </trkpt>
      <trkpt lat="45.85499" lon="-0.61164">
        <ele>38.46</ele>
        <time>2025-05-07T13:57:26.859Z</time>
      </trkpt>
      <trkpt lat="45.85527" lon="-0.6115">
        <ele>38.51</ele>
        <time>2025-05-07T13:57:33.501Z</time>
      </trkpt>
      <trkpt lat="45.85556" lon="-0.61136">
        <ele>38.58</ele>
        <time>2025-05-07T13:57:40.147Z</time>
      </trkpt>
      <trkpt lat="45.85584" lon="-0.61122">
        <ele>38.66</ele>
        <time>2025-05-07T13:57:46.798Z</time>
      </trkpt>
      <trkpt lat="45.85612" lon="-0.61107">
        <ele>38.76</ele>
        <time>2025-05-07T13:57:53.454Z</time>
      </trkpt>
      <trkpt lat="45.85641" lon="-0.61093">
        <ele>38.88</ele>
        <time>2025-05-07T13:58:00.115Z</time>
      </trkpt>
      <trkpt lat="45.85658" lon="-0.61086">
        <ele>39.07</ele>
        <time>2025-05-07T13:58:06.779Z</time>
      </trkpt>
      <trkpt lat="45.85673" lon="-0.61081">
        <ele>39.31</ele>
        <time>2025-05-07T13:58:13.445Z</time>
      </trkpt>
      <trkpt lat="45.85693" lon="-0.61078">
        <ele>39.58</ele>
        <time>2025-05-07T13:58:20.114Z</time>
      </trkpt>
      <trkpt lat="45.85714" lon="-0.61075">
        <ele>39.91</ele>
        <time>2025-05-07T13:58:26.787Z</time>
      </trkpt>
      <trkpt lat="45.85726" lon="-0.61074">
        <ele>40.24</ele>
        <time>2025-05-07T13:58:33.462Z</time>
      </trkpt>
      <trkpt lat="45.85738" lon="-0.61073">
        <ele>40.6</ele>
        <time>2025-05-07T13:58:40.139Z</time>
      </trkpt>
      <trkpt lat="45.85756" lon="-0.61076">
        <ele>41.04</ele>
        <time>2025-05-07T13:58:46.818Z</time>
      </trkpt>
      <trkpt lat="45.85767" lon="-0.61081">
        <ele>41.46</ele>
        <time>2025-05-07T13:58:53.499Z</time>
      </trkpt>
      <trkpt lat="45.85784" lon="-0.6109">
        <ele>41.9</ele>
        <time>2025-05-07T13:59:00.183Z</time>
      </trkpt>
      <trkpt lat="45.85802" lon="-0.611">
        <ele>42.36</ele>
        <time>2025-05-07T13:59:06.870Z</time>
      </trkpt>
      <trkpt lat="45.85815" lon="-0.61106">
        <ele>42.82</ele>
        <time>2025-05-07T13:59:13.559Z</time>
      </trkpt>
      <trkpt lat="45.85826" lon="-0.61108">
        <ele>43.31</ele>
        <time>2025-05-07T13:59:20.250Z</time>
      </trkpt>
      <trkpt lat="45.85836" lon="-0.61107">
        <ele>43.83</ele>
        <time>2025-05-07T13:59:26.943Z</time>
      </trkpt>
      <trkpt lat="45.85846" lon="-0.61103">
        <ele>44.37</ele>
        <time>2025-05-07T13:59:33.638Z</time>
      </trkpt>
      <trkpt lat="45.85859" lon="-0.61094">
        <ele>44.93</ele>
        <time>2025-05-07T13:59:40.335Z</time>
      </trkpt>
      <trkpt lat="45.85883" lon="-0.61075">
        <ele>45.5</ele>
        <time>2025-05-07T13:59:47.036Z</time>
      </trkpt>
      <trkpt lat="45.85906" lon="-0.61056">
        <ele>46.07</ele>
        <time>2025-05-07T13:59:53.742Z</time>
      </trkpt>
      <trkpt lat="45.8593" lon="-0.61037">
        <ele>46.66</ele>
        <time>2025-05-07T14:00:00.452Z</time>
      </trkpt>
      <trkpt lat="45.8595" lon="-0.61022">
        <ele>47.32</ele>
        <time>2025-05-07T14:00:07.165Z</time>
      </trkpt>
      <trkpt lat="45.8597" lon="-0.61007">
        <ele>48</ele>
        <time>2025-05-07T14:00:13.882Z</time>
      </trkpt>
      <trkpt lat="45.8599" lon="-0.60992">
        <ele>48.71</ele>
        <time>2025-05-07T14:00:20.603Z</time>
      </trkpt>
      <trkpt lat="45.86006" lon="-0.60981">
        <ele>49.46</ele>
        <time>2025-05-07T14:00:27.327Z</time>
      </trkpt>
      <trkpt lat="45.86023" lon="-0.60971">
        <ele>50.19</ele>
        <time>2025-05-07T14:00:34.054Z</time>
      </trkpt>
      <trkpt lat="45.86048" lon="-0.60957">
        <ele>50.94</ele>
        <time>2025-05-07T14:00:40.785Z</time>
      </trkpt>
      <trkpt lat="45.86073" lon="-0.60942">
        <ele>51.74</ele>
        <time>2025-05-07T14:00:47.520Z</time>
      </trkpt>
      <trkpt lat="45.86101" lon="-0.60927">
        <ele>52.59</ele>
        <time>2025-05-07T14:00:54.260Z</time>
      </trkpt>
      <trkpt lat="45.86128" lon="-0.60912">
        <ele>53.41</ele>
        <time>2025-05-07T14:01:01.005Z</time>
      </trkpt>
      <trkpt lat="45.86156" lon="-0.60896">
        <ele>54.26</ele>
        <time>2025-05-07T14:01:07.754Z</time>
      </trkpt>
      <trkpt lat="45.86184" lon="-0.60881">
        <ele>55.12</ele>
        <time>2025-05-07T14:01:14.508Z</time>
      </trkpt>
      <trkpt lat="45.86209" lon="-0.60866">
        <ele>55.93</ele>
        <time>2025-05-07T14:01:21.267Z</time>
      </trkpt>
      <trkpt lat="45.86235" lon="-0.60852">
        <ele>56.64</ele>
        <time>2025-05-07T14:01:28.030Z</time>
      </trkpt>
      <trkpt lat="45.8626" lon="-0.60837">
        <ele>57.29</ele>
        <time>2025-05-07T14:01:34.797Z</time>
      </trkpt>
      <trkpt lat="45.86285" lon="-0.60823">
        <ele>57.9</ele>
        <time>2025-05-07T14:01:41.569Z</time>
      </trkpt>
      <trkpt lat="45.8631" lon="-0.60808">
        <ele>58.45</ele>
        <time>2025-05-07T14:01:48.345Z</time>
      </trkpt>
      <trkpt lat="45.86336" lon="-0.60794">
        <ele>58.92</ele>
        <time>2025-05-07T14:01:55.125Z</time>
      </trkpt>
      <trkpt lat="45.86361" lon="-0.60779">
        <ele>59.31</ele>
        <time>2025-05-07T14:02:01.910Z</time>
      </trkpt>
      <trkpt lat="45.86384" lon="-0.60766">
        <ele>59.65</ele>
        <time>2025-05-07T14:02:08.699Z</time>
      </trkpt>
      <trkpt lat="45.86407" lon="-0.60752">
        <ele>59.89</ele>
        <time>2025-05-07T14:02:15.492Z</time>
      </trkpt>
      <trkpt lat="45.8643" lon="-0.60739">
        <ele>60.01</ele>
        <time>2025-05-07T14:02:22.289Z</time>
      </trkpt>
      <trkpt lat="45.86446" lon="-0.6073">
        <ele>60.05</ele>
        <time>2025-05-07T14:02:29.088Z</time>
      </trkpt>
      <trkpt lat="45.86463" lon="-0.60721">
        <ele>59.99</ele>
        <time>2025-05-07T14:02:35.890Z</time>
      </trkpt>
      <trkpt lat="45.86489" lon="-0.60702">
        <ele>59.83</ele>
        <time>2025-05-07T14:02:42.697Z</time>
      </trkpt>
      <trkpt lat="45.86515" lon="-0.60682">
        <ele>59.58</ele>
        <time>2025-05-07T14:02:49.509Z</time>
      </trkpt>
      <trkpt lat="45.8654" lon="-0.60662">
        <ele>59.29</ele>
        <time>2025-05-07T14:02:56.325Z</time>
      </trkpt>
      <trkpt lat="45.86566" lon="-0.60641">
        <ele>58.91</ele>
        <time>2025-05-07T14:03:03.146Z</time>
      </trkpt>
      <trkpt lat="45.86591" lon="-0.60621">
        <ele>58.33</ele>
        <time>2025-05-07T14:03:09.972Z</time>
      </trkpt>
      <trkpt lat="45.86617" lon="-0.60601">
        <ele>57.65</ele>
        <time>2025-05-07T14:03:16.802Z</time>
      </trkpt>
      <trkpt lat="45.86643" lon="-0.60581">
        <ele>56.96</ele>
        <time>2025-05-07T14:03:23.637Z</time>
      </trkpt>
      <trkpt lat="45.86668" lon="-0.60561">
        <ele>56.19</ele>
        <time>2025-05-07T14:03:30.477Z</time>
      </trkpt>
      <trkpt lat="45.86668" lon="-0.60561">
        <ele>55.43</ele>
        <time>2025-05-07T14:03:37.317Z</time>
      </trkpt>
      <trkpt lat="45.86668" lon="-0.60561">
        <ele>54.59</ele>
        <time>2025-05-07T14:03:44.157Z</time>
      </trkpt>
      <trkpt lat="45.86694" lon="-0.60541">
        <ele>53.59</ele>
        <time>2025-05-07T14:03:51.001Z</time>
      </trkpt>
      <trkpt lat="45.86719" lon="-0.6052">
        <ele>52.55</ele>
        <time>2025-05-07T14:03:57.850Z</time>
      </trkpt>
      <trkpt lat="45.86745" lon="-0.605">
        <ele>51.51</ele>
        <time>2025-05-07T14:04:04.704Z</time>
      </trkpt>
      <trkpt lat="45.8677" lon="-0.6048">
        <ele>50.44</ele>
        <time>2025-05-07T14:04:11.562Z</time>
      </trkpt>
      <trkpt lat="45.86796" lon="-0.6046">
        <ele>49.3</ele>
        <time>2025-05-07T14:04:18.425Z</time>
      </trkpt>
      <trkpt lat="45.86814" lon="-0.60444">
        <ele>48.15</ele>
        <time>2025-05-07T14:04:25.291Z</time>
      </trkpt>
      <trkpt lat="45.86833" lon="-0.60429">
        <ele>46.98</ele>
        <time>2025-05-07T14:04:32.161Z</time>
      </trkpt>
      <trkpt lat="45.86851" lon="-0.60413">
        <ele>45.75</ele>
        <time>2025-05-07T14:04:39.034Z</time>
      </trkpt>
      <trkpt lat="45.86872" lon="-0.60392">
        <ele>44.46</ele>
        <time>2025-05-07T14:04:45.911Z</time>
      </trkpt>
      <trkpt lat="45.86885" lon="-0.60377">
        <ele>43.1</ele>
        <time>2025-05-07T14:04:52.791Z</time>
      </trkpt>
      <trkpt lat="45.86897" lon="-0.60362">
        <ele>41.69</ele>
        <time>2025-05-07T14:04:59.674Z</time>
      </trkpt>
      <trkpt lat="45.86901" lon="-0.60356">
        <ele>40.25</ele>
        <time>2025-05-07T14:05:06.558Z</time>
      </trkpt>
      <trkpt lat="45.86922" lon="-0.60328">
        <ele>38.74</ele>
        <time>2025-05-07T14:05:13.446Z</time>
      </trkpt>
      <trkpt lat="45.86943" lon="-0.603">
        <ele>37.2</ele>
        <time>2025-05-07T14:05:20.339Z</time>
      </trkpt>
      <trkpt lat="45.86965" lon="-0.60271">
        <ele>35.63</ele>
        <time>2025-05-07T14:05:27.236Z</time>
      </trkpt>
      <trkpt lat="45.86986" lon="-0.60243">
        <ele>34.04</ele>
        <time>2025-05-07T14:05:34.138Z</time>
      </trkpt>
      <trkpt lat="45.87007" lon="-0.60215">
        <ele>32.46</ele>
        <time>2025-05-07T14:05:41.045Z</time>
      </trkpt>
      <trkpt lat="45.87013" lon="-0.60206">
        <ele>30.94</ele>
        <time>2025-05-07T14:05:47.953Z</time>
      </trkpt>
      <trkpt lat="45.87035" lon="-0.6018">
        <ele>29.37</ele>
        <time>2025-05-07T14:05:54.866Z</time>
      </trkpt>
      <trkpt lat="45.87058" lon="-0.60153">
        <ele>27.82</ele>
        <time>2025-05-07T14:06:01.783Z</time>
      </trkpt>
      <trkpt lat="45.8708" lon="-0.60127">
        <ele>26.34</ele>
        <time>2025-05-07T14:06:08.705Z</time>
      </trkpt>
      <trkpt lat="45.87105" lon="-0.60101">
        <ele>24.9</ele>
        <time>2025-05-07T14:06:15.632Z</time>
      </trkpt>
      <trkpt lat="45.8713" lon="-0.60075">
        <ele>23.51</ele>
        <time>2025-05-07T14:06:22.564Z</time>
      </trkpt>
      <trkpt lat="45.87155" lon="-0.60049">
        <ele>22.18</ele>
        <time>2025-05-07T14:06:29.501Z</time>
      </trkpt>
      <trkpt lat="45.87179" lon="-0.60022">
        <ele>20.94</ele>
        <time>2025-05-07T14:06:36.443Z</time>
      </trkpt>
      <trkpt lat="45.87204" lon="-0.59996">
        <ele>19.89</ele>
        <time>2025-05-07T14:06:43.390Z</time>
      </trkpt>
      <trkpt lat="45.87229" lon="-0.5997">
        <ele>19.06</ele>
        <time>2025-05-07T14:06:50.342Z</time>
      </trkpt>
      <trkpt lat="45.87254" lon="-0.59944">
        <ele>18.41</ele>
        <time>2025-05-07T14:06:57.299Z</time>
      </trkpt>
      <trkpt lat="45.8726" lon="-0.59939">
        <ele>17.91</ele>
        <time>2025-05-07T14:07:04.257Z</time>
      </trkpt>
      <trkpt lat="45.8727" lon="-0.5993">
        <ele>17.55</ele>
        <time>2025-05-07T14:07:11.217Z</time>
      </trkpt>
      <trkpt lat="45.87289" lon="-0.59918">
        <ele>17.33</ele>
        <time>2025-05-07T14:07:18.180Z</time>
      </trkpt>
      <trkpt lat="45.87316" lon="-0.59904">
        <ele>17.25</ele>
        <time>2025-05-07T14:07:25.147Z</time>
      </trkpt>
      <trkpt lat="45.87343" lon="-0.59891">
        <ele>17.42</ele>
        <time>2025-05-07T14:07:32.119Z</time>
      </trkpt>
      <trkpt lat="45.87371" lon="-0.59877">
        <ele>17.73</ele>
        <time>2025-05-07T14:07:39.096Z</time>
      </trkpt>
      <trkpt lat="45.874" lon="-0.59863">
        <ele>18.15</ele>
        <time>2025-05-07T14:07:46.078Z</time>
      </trkpt>
      <trkpt lat="45.87428" lon="-0.59849">
        <ele>18.76</ele>
        <time>2025-05-07T14:07:53.064Z</time>
      </trkpt>
      <trkpt lat="45.87456" lon="-0.59835">
        <ele>19.56</ele>
        <time>2025-05-07T14:08:00.055Z</time>
      </trkpt>
      <trkpt lat="45.87484" lon="-0.59821">
        <ele>20.48</ele>
        <time>2025-05-07T14:08:07.051Z</time>
      </trkpt>
      <trkpt lat="45.87513" lon="-0.59806">
        <ele>21.49</ele>
        <time>2025-05-07T14:08:14.052Z</time>
      </trkpt>
      <trkpt lat="45.87541" lon="-0.59792">
        <ele>22.59</ele>
        <time>2025-05-07T14:08:21.058Z</time>
      </trkpt>
      <trkpt lat="45.87569" lon="-0.59778">
        <ele>23.88</ele>
        <time>2025-05-07T14:08:28.068Z</time>
      </trkpt>
      <trkpt lat="45.87598" lon="-0.59764">
        <ele>25.2</ele>
        <time>2025-05-07T14:08:35.083Z</time>
      </trkpt>
      <trkpt lat="45.87626" lon="-0.5975">
        <ele>26.58</ele>
        <time>2025-05-07T14:08:42.103Z</time>
      </trkpt>
      <trkpt lat="45.87644" lon="-0.59741">
        <ele>28.08</ele>
        <time>2025-05-07T14:08:49.126Z</time>
      </trkpt>
      <trkpt lat="45.87671" lon="-0.59727">
        <ele>29.67</ele>
        <time>2025-05-07T14:08:56.154Z</time>
      </trkpt>
      <trkpt lat="45.87698" lon="-0.59714">
        <ele>31.27</ele>
        <time>2025-05-07T14:09:03.186Z</time>
      </trkpt>
      <trkpt lat="45.87725" lon="-0.597">
        <ele>32.91</ele>
        <time>2025-05-07T14:09:10.223Z</time>
      </trkpt>
      <trkpt lat="45.87752" lon="-0.59686">
        <ele>34.62</ele>
        <time>2025-05-07T14:09:17.264Z</time>
      </trkpt>
      <trkpt lat="45.87779" lon="-0.59673">
        <ele>36.37</ele>
        <time>2025-05-07T14:09:24.310Z</time>
      </trkpt>
      <trkpt lat="45.87806" lon="-0.59659">
        <ele>38.11</ele>
        <time>2025-05-07T14:09:31.361Z</time>
      </trkpt>
      <trkpt lat="45.87823" lon="-0.59649">
        <ele>39.86</ele>
        <time>2025-05-07T14:09:38.415Z</time>
      </trkpt>
      <trkpt lat="45.87841" lon="-0.5964">
        <ele>41.62</ele>
        <time>2025-05-07T14:09:45.472Z</time>
      </trkpt>
      <trkpt lat="45.87866" lon="-0.59625">
        <ele>43.37</ele>
        <time>2025-05-07T14:09:52.533Z</time>
      </trkpt>
      <trkpt lat="45.87892" lon="-0.59609">
        <ele>45.11</ele>
        <time>2025-05-07T14:09:59.598Z</time>
      </trkpt>
      <trkpt lat="45.87921" lon="-0.59591">
        <ele>46.8</ele>
        <time>2025-05-07T14:10:06.668Z</time>
      </trkpt>
      <trkpt lat="45.8795" lon="-0.59574">
        <ele>48.5</ele>
        <time>2025-05-07T14:10:13.743Z</time>
      </trkpt>
      <trkpt lat="45.87979" lon="-0.59556">
        <ele>50.15</ele>
        <time>2025-05-07T14:10:20.823Z</time>
      </trkpt>
      <trkpt lat="45.88007" lon="-0.59539">
        <ele>51.79</ele>
        <time>2025-05-07T14:10:27.908Z</time>
      </trkpt>
      <trkpt lat="45.88036" lon="-0.59521">
        <ele>53.37</ele>
        <time>2025-05-07T14:10:34.998Z</time>
      </trkpt>
      <trkpt lat="45.88065" lon="-0.59504">
        <ele>54.94</ele>
        <time>2025-05-07T14:10:42.094Z</time>
      </trkpt>
      <trkpt lat="45.88094" lon="-0.59486">
        <ele>56.54</ele>
        <time>2025-05-07T14:10:49.195Z</time>
      </trkpt>
      <trkpt lat="45.88114" lon="-0.59474">
        <ele>58.06</ele>
        <time>2025-05-07T14:10:56.299Z</time>
      </trkpt>
      <trkpt lat="45.88135" lon="-0.59462">
        <ele>59.49</ele>
        <time>2025-05-07T14:11:03.407Z</time>
      </trkpt>
      <trkpt lat="45.88154" lon="-0.59451">
        <ele>60.86</ele>
        <time>2025-05-07T14:11:10.518Z</time>
      </trkpt>
      <trkpt lat="45.88173" lon="-0.59439">
        <ele>62.15</ele>
        <time>2025-05-07T14:11:17.632Z</time>
      </trkpt>
      <trkpt lat="45.882" lon="-0.59423">
        <ele>63.42</ele>
        <time>2025-05-07T14:11:24.751Z</time>
      </trkpt>
      <trkpt lat="45.88226" lon="-0.59407">
        <ele>64.55</ele>
        <time>2025-05-07T14:11:31.874Z</time>
      </trkpt>
      <trkpt lat="45.88253" lon="-0.59391">
        <ele>65.58</ele>
        <time>2025-05-07T14:11:39.002Z</time>
      </trkpt>
      <trkpt lat="45.88279" lon="-0.59375">
        <ele>66.49</ele>
        <time>2025-05-07T14:11:46.135Z</time>
      </trkpt>
      <trkpt lat="45.88306" lon="-0.59358">
        <ele>67.29</ele>
        <time>2025-05-07T14:11:53.272Z</time>
      </trkpt>
      <trkpt lat="45.88333" lon="-0.59342">
        <ele>68.06</ele>
        <time>2025-05-07T14:12:00.414Z</time>
      </trkpt>
      <trkpt lat="45.88359" lon="-0.59326">
        <ele>68.75</ele>
        <time>2025-05-07T14:12:07.561Z</time>
      </trkpt>
      <trkpt lat="45.88386" lon="-0.5931">
        <ele>69.32</ele>
        <time>2025-05-07T14:12:14.712Z</time>
      </trkpt>
      <trkpt lat="45.88405" lon="-0.59301">
        <ele>69.83</ele>
        <time>2025-05-07T14:12:21.866Z</time>
      </trkpt>
      <trkpt lat="45.88434" lon="-0.59287">
        <ele>70.25</ele>
        <time>2025-05-07T14:12:29.025Z</time>
      </trkpt>
      <trkpt lat="45.88462" lon="-0.59274">
        <ele>70.63</ele>
        <time>2025-05-07T14:12:36.189Z</time>
      </trkpt>
      <trkpt lat="45.8849" lon="-0.59261">
        <ele>70.99</ele>
        <time>2025-05-07T14:12:43.358Z</time>
      </trkpt>
      <trkpt lat="45.88516" lon="-0.59242">
        <ele>71.19</ele>
        <time>2025-05-07T14:12:50.531Z</time>
      </trkpt>
      <trkpt lat="45.88531" lon="-0.5923">
        <ele>71.23</ele>
        <time>2025-05-07T14:12:57.707Z</time>
      </trkpt>
      <trkpt lat="45.88546" lon="-0.59219">
        <ele>71.16</ele>
        <time>2025-05-07T14:13:04.886Z</time>
      </trkpt>
      <trkpt lat="45.88569" lon="-0.59199">
        <ele>71</ele>
        <time>2025-05-07T14:13:12.069Z</time>
      </trkpt>
      <trkpt lat="45.88592" lon="-0.5918">
        <ele>70.71</ele>
        <time>2025-05-07T14:13:19.256Z</time>
      </trkpt>
      <trkpt lat="45.88606" lon="-0.59169">
        <ele>70.32</ele>
        <time>2025-05-07T14:13:26.446Z</time>
      </trkpt>
      <trkpt lat="45.88621" lon="-0.59159">
        <ele>69.84</ele>
        <time>2025-05-07T14:13:33.639Z</time>
      </trkpt>
      <trkpt lat="45.88645" lon="-0.5914">
        <ele>69.22</ele>
        <time>2025-05-07T14:13:40.836Z</time>
      </trkpt>
      <trkpt lat="45.8867" lon="-0.5912">
        <ele>68.46</ele>
        <time>2025-05-07T14:13:48.038Z</time>
      </trkpt>
      <trkpt lat="45.88694" lon="-0.59101">
        <ele>67.53</ele>
        <time>2025-05-07T14:13:55.244Z</time>
      </trkpt>
      <trkpt lat="45.88713" lon="-0.59086">
        <ele>66.58</ele>
        <time>2025-05-07T14:14:02.453Z</time>
      </trkpt>
      <trkpt lat="45.88732" lon="-0.59071">
        <ele>65.65</ele>
        <time>2025-05-07T14:14:09.666Z</time>
      </trkpt>
      <trkpt lat="45.88751" lon="-0.59056">
        <ele>64.66</ele>
        <time>2025-05-07T14:14:16.882Z</time>
      </trkpt>
      <trkpt lat="45.88768" lon="-0.59041">
        <ele>63.64</ele>
        <time>2025-05-07T14:14:24.102Z</time>
      </trkpt>
      <trkpt lat="45.88785" lon="-0.59026">
        <ele>62.56</ele>
        <time>2025-05-07T14:14:31.325Z</time>
      </trkpt>
      <trkpt lat="45.88807" lon="-0.59003">
        <ele>61.45</ele>
        <time>2025-05-07T14:14:38.552Z</time>
      </trkpt>
      <trkpt lat="45.88827" lon="-0.58978">
        <ele>60.4</ele>
        <time>2025-05-07T14:14:45.783Z</time>
      </trkpt>
      <trkpt lat="45.88846" lon="-0.58951">
        <ele>59.32</ele>
        <time>2025-05-07T14:14:53.019Z</time>
      </trkpt>
      <trkpt lat="45.88864" lon="-0.58925">
        <ele>58.2</ele>
        <time>2025-05-07T14:15:00.259Z</time>
      </trkpt>
      <trkpt lat="45.88871" lon="-0.58934">
        <ele>57.07</ele>
        <time>2025-05-07T14:15:07.500Z</time>
      </trkpt>
      <trkpt lat="45.88875" lon="-0.58942">
        <ele>55.91</ele>
        <time>2025-05-07T14:15:14.742Z</time>
      </trkpt>
      <trkpt lat="45.88889" lon="-0.58975">
        <ele>54.71</ele>
        <time>2025-05-07T14:15:21.989Z</time>
      </trkpt>
      <trkpt lat="45.88899" lon="-0.59008">
        <ele>53.44</ele>
        <time>2025-05-07T14:15:29.240Z</time>
      </trkpt>
      <trkpt lat="45.88909" lon="-0.5904">
        <ele>52.13</ele>
        <time>2025-05-07T14:15:36.495Z</time>
      </trkpt>
      <trkpt lat="45.88913" lon="-0.59059">
        <ele>50.89</ele>
        <time>2025-05-07T14:15:43.752Z</time>
      </trkpt>
      <trkpt lat="45.88919" lon="-0.59092">
        <ele>49.63</ele>
        <time>2025-05-07T14:15:51.013Z</time>
      </trkpt>
      <trkpt lat="45.88924" lon="-0.59124">
        <ele>48.46</ele>
        <time>2025-05-07T14:15:58.277Z</time>
      </trkpt>
      <trkpt lat="45.8893" lon="-0.59157">
        <ele>47.33</ele>
        <time>2025-05-07T14:16:05.545Z</time>
      </trkpt>
      <trkpt lat="45.88935" lon="-0.59192">
        <ele>46.2</ele>
        <time>2025-05-07T14:16:12.817Z</time>
      </trkpt>
      <trkpt lat="45.88935" lon="-0.59203">
        <ele>45.16</ele>
        <time>2025-05-07T14:16:20.090Z</time>
      </trkpt>
      <trkpt lat="45.88936" lon="-0.59214">
        <ele>44.18</ele>
        <time>2025-05-07T14:16:27.365Z</time>
      </trkpt>
      <trkpt lat="45.88936" lon="-0.59224">
        <ele>43.27</ele>
        <time>2025-05-07T14:16:34.641Z</time>
      </trkpt>
      <trkpt lat="45.88934" lon="-0.59236">
        <ele>42.42</ele>
        <time>2025-05-07T14:16:41.918Z</time>
      </trkpt>
      <trkpt lat="45.88931" lon="-0.59247">
        <ele>41.64</ele>
        <time>2025-05-07T14:16:49.196Z</time>
      </trkpt>
      <trkpt lat="45.88926" lon="-0.59256">
        <ele>40.93</ele>
        <time>2025-05-07T14:16:56.476Z</time>
      </trkpt>
      <trkpt lat="45.88911" lon="-0.5929">
        <ele>40.19</ele>
        <time>2025-05-07T14:17:03.760Z</time>
      </trkpt>
      <trkpt lat="45.88905" lon="-0.59304">
        <ele>39.57</ele>
        <time>2025-05-07T14:17:11.046Z</time>
      </trkpt>
      <trkpt lat="45.88902" lon="-0.59322">
        <ele>39.02</ele>
        <time>2025-05-07T14:17:18.334Z</time>
      </trkpt>
      <trkpt lat="45.88901" lon="-0.59329">
        <ele>38.6</ele>
        <time>2025-05-07T14:17:25.623Z</time>
      </trkpt>
      <trkpt lat="45.88902" lon="-0.59337">
        <ele>38.27</ele>
        <time>2025-05-07T14:17:32.913Z</time>
      </trkpt>
      <trkpt lat="45.88904" lon="-0.59344">
        <ele>38.04</ele>
        <time>2025-05-07T14:17:40.204Z</time>
      </trkpt>
      <trkpt lat="45.88919" lon="-0.59375">
        <ele>37.87</ele>
        <time>2025-05-07T14:17:47.499Z</time>
      </trkpt>
      <trkpt lat="45.88922" lon="-0.59383">
        <ele>37.82</ele>
        <time>2025-05-07T14:17:54.795Z</time>
      </trkpt>
      <trkpt lat="45.88923" lon="-0.59392">
        <ele>37.85</ele>
        <time>2025-05-07T14:18:02.092Z</time>
      </trkpt>
      <trkpt lat="45.88925" lon="-0.59414">
        <ele>37.99</ele>
        <time>2025-05-07T14:18:09.391Z</time>
      </trkpt>
      <trkpt lat="45.88925" lon="-0.59424">
        <ele>38.21</ele>
        <time>2025-05-07T14:18:16.692Z</time>
      </trkpt>
      <trkpt lat="45.88922" lon="-0.59448">
        <ele>38.53</ele>
        <time>2025-05-07T14:18:23.995Z</time>
      </trkpt>
      <trkpt lat="45.8892" lon="-0.59472">
        <ele>38.96</ele>
        <time>2025-05-07T14:18:31.301Z</time>
      </trkpt>
      <trkpt lat="45.88916" lon="-0.59504">
        <ele>39.46</ele>
        <time>2025-05-07T14:18:38.611Z</time>
      </trkpt>
      <trkpt lat="45.8891" lon="-0.5954">
        <ele>40.02</ele>
        <time>2025-05-07T14:18:45.925Z</time>
      </trkpt>
      <trkpt lat="45.88911" lon="-0.59548">
        <ele>40.61</ele>
        <time>2025-05-07T14:18:53.240Z</time>
      </trkpt>
      <trkpt lat="45.88912" lon="-0.59553">
        <ele>41.22</ele>
        <time>2025-05-07T14:19:00.555Z</time>
      </trkpt>
      <trkpt lat="45.88925" lon="-0.59575">
        <ele>42.03</ele>
        <time>2025-05-07T14:19:07.873Z</time>
      </trkpt>
      <trkpt lat="45.88928" lon="-0.59581">
        <ele>42.74</ele>
        <time>2025-05-07T14:19:15.192Z</time>
      </trkpt>
      <trkpt lat="45.8893" lon="-0.59589">
        <ele>43.44</ele>
        <time>2025-05-07T14:19:22.512Z</time>
      </trkpt>
      <trkpt lat="45.88936" lon="-0.59618">
        <ele>44.18</ele>
        <time>2025-05-07T14:19:29.836Z</time>
      </trkpt>
      <trkpt lat="45.88938" lon="-0.59626">
        <ele>44.9</ele>
        <time>2025-05-07T14:19:37.161Z</time>
      </trkpt>
      <trkpt lat="45.8894" lon="-0.59631">
        <ele>45.6</ele>
        <time>2025-05-07T14:19:44.486Z</time>
      </trkpt>
      <trkpt lat="45.88944" lon="-0.59635">
        <ele>46.3</ele>
        <time>2025-05-07T14:19:51.812Z</time>
      </trkpt>
      <trkpt lat="45.88946" lon="-0.59637">
        <ele>46.97</ele>
        <time>2025-05-07T14:19:59.138Z</time>
      </trkpt>
      <trkpt lat="45.88961" lon="-0.59646">
        <ele>47.68</ele>
        <time>2025-05-07T14:20:06.467Z</time>
      </trkpt>
      <trkpt lat="45.88966" lon="-0.59655">
        <ele>48.32</ele>
        <time>2025-05-07T14:20:13.797Z</time>
      </trkpt>
      <trkpt lat="45.88968" lon="-0.5966">
        <ele>48.91</ele>
        <time>2025-05-07T14:20:21.128Z</time>
      </trkpt>
      <trkpt lat="45.88969" lon="-0.59666">
        <ele>49.47</ele>
        <time>2025-05-07T14:20:28.460Z</time>
      </trkpt>
      <trkpt lat="45.88969" lon="-0.59693">
        <ele>49.97</ele>
        <time>2025-05-07T14:20:35.795Z</time>
      </trkpt>
      <trkpt lat="45.8897" lon="-0.59709">
        <ele>50.44</ele>
        <time>2025-05-07T14:20:43.131Z</time>
      </trkpt>
      <trkpt lat="45.88973" lon="-0.59725">
        <ele>50.89</ele>
        <time>2025-05-07T14:20:50.469Z</time>
      </trkpt>
      <trkpt lat="45.88984" lon="-0.59766">
        <ele>51.31</ele>
        <time>2025-05-07T14:20:57.812Z</time>
      </trkpt>
      <trkpt lat="45.88985" lon="-0.59778">
        <ele>51.64</ele>
        <time>2025-05-07T14:21:05.156Z</time>
      </trkpt>
      <trkpt lat="45.88962" lon="-0.59794">
        <ele>51.8</ele>
        <time>2025-05-07T14:21:12.505Z</time>
      </trkpt>
      <trkpt lat="45.88942" lon="-0.59814">
        <ele>52</ele>
        <time>2025-05-07T14:21:19.857Z</time>
      </trkpt>
      <trkpt lat="45.88933" lon="-0.59826">
        <ele>52.21</ele>
        <time>2025-05-07T14:21:27.211Z</time>
      </trkpt>
      <trkpt lat="45.88917" lon="-0.59849">
        <ele>52.4</ele>
        <time>2025-05-07T14:21:34.569Z</time>
      </trkpt>
      <trkpt lat="45.88901" lon="-0.59872">
        <ele>52.51</ele>
        <time>2025-05-07T14:21:41.931Z</time>
      </trkpt>
      <trkpt lat="45.88892" lon="-0.59882">
        <ele>52.56</ele>
        <time>2025-05-07T14:21:49.295Z</time>
      </trkpt>
      <trkpt lat="45.88884" lon="-0.59889">
        <ele>52.57</ele>
        <time>2025-05-07T14:21:56.660Z</time>
      </trkpt>
      <trkpt lat="45.88871" lon="-0.59898">
        <ele>52.54</ele>
        <time>2025-05-07T14:22:04.027Z</time>
      </trkpt>
      <trkpt lat="45.88853" lon="-0.59908">
        <ele>52.46</ele>
        <time>2025-05-07T14:22:11.397Z</time>
      </trkpt>
      <trkpt lat="45.88835" lon="-0.59918">
        <ele>52.37</ele>
        <time>2025-05-07T14:22:18.771Z</time>
      </trkpt>
      <trkpt lat="45.8882" lon="-0.59927">
        <ele>52.28</ele>
        <time>2025-05-07T14:22:26.147Z</time>
      </trkpt>
      <trkpt lat="45.88806" lon="-0.59937">
        <ele>52.17</ele>
        <time>2025-05-07T14:22:33.526Z</time>
      </trkpt>
      <trkpt lat="45.88794" lon="-0.59946">
        <ele>52.05</ele>
        <time>2025-05-07T14:22:40.907Z</time>
      </trkpt>
      <trkpt lat="45.88774" lon="-0.59964">
        <ele>51.9</ele>
        <time>2025-05-07T14:22:48.292Z</time>
      </trkpt>
      <trkpt lat="45.88752" lon="-0.5999">
        <ele>51.72</ele>
        <time>2025-05-07T14:22:55.681Z</time>
      </trkpt>
      <trkpt lat="45.88734" lon="-0.60016">
        <ele>51.57</ele>
        <time>2025-05-07T14:23:03.074Z</time>
      </trkpt>
      <trkpt lat="45.88719" lon="-0.60043">
        <ele>51.47</ele>
        <time>2025-05-07T14:23:10.471Z</time>
      </trkpt>
      <trkpt lat="45.88704" lon="-0.60074">
        <ele>51.38</ele>
        <time>2025-05-07T14:23:17.872Z</time>
      </trkpt>
      <trkpt lat="45.88689" lon="-0.60105">
        <ele>51.42</ele>
        <time>2025-05-07T14:23:25.278Z</time>
      </trkpt>
      <trkpt lat="45.88676" lon="-0.60131">
        <ele>51.46</ele>
        <time>2025-05-07T14:23:32.687Z</time>
      </trkpt>
      <trkpt lat="45.88663" lon="-0.60157">
        <ele>51.38</ele>
        <time>2025-05-07T14:23:40.100Z</time>
      </trkpt>
      <trkpt lat="45.8865" lon="-0.60179">
        <ele>51.24</ele>
        <time>2025-05-07T14:23:47.516Z</time>
      </trkpt>
      <trkpt lat="45.88638" lon="-0.60201">
        <ele>51.07</ele>
        <time>2025-05-07T14:23:54.935Z</time>
      </trkpt>
      <trkpt lat="45.88622" lon="-0.60222">
        <ele>50.89</ele>
        <time>2025-05-07T14:24:02.357Z</time>
      </trkpt>
      <trkpt lat="45.88607" lon="-0.60244">
        <ele>50.73</ele>
        <time>2025-05-07T14:24:09.783Z</time>
      </trkpt>
      <trkpt lat="45.88591" lon="-0.60265">
        <ele>50.56</ele>
        <time>2025-05-07T14:24:17.212Z</time>
      </trkpt>
      <trkpt lat="45.88571" lon="-0.60289">
        <ele>50.36</ele>
        <time>2025-05-07T14:24:24.646Z</time>
      </trkpt>
      <trkpt lat="45.88551" lon="-0.60313">
        <ele>50.09</ele>
        <time>2025-05-07T14:24:32.084Z</time>
      </trkpt>
      <trkpt lat="45.88539" lon="-0.60327">
        <ele>49.8</ele>
        <time>2025-05-07T14:24:39.524Z</time>
      </trkpt>
      <trkpt lat="45.88526" lon="-0.60339">
        <ele>49.47</ele>
        <time>2025-05-07T14:24:46.967Z</time>
      </trkpt>
      <trkpt lat="45.88511" lon="-0.60349">
        <ele>49.07</ele>
        <time>2025-05-07T14:24:54.412Z</time>
      </trkpt>
      <trkpt lat="45.88495" lon="-0.60359">
        <ele>48.63</ele>
        <time>2025-05-07T14:25:01.860Z</time>
      </trkpt>
      <trkpt lat="45.88476" lon="-0.60369">
        <ele>48.13</ele>
        <time>2025-05-07T14:25:09.311Z</time>
      </trkpt>
      <trkpt lat="45.8846" lon="-0.60375">
        <ele>47.56</ele>
        <time>2025-05-07T14:25:16.765Z</time>
      </trkpt>
      <trkpt lat="45.88444" lon="-0.60382">
        <ele>46.95</ele>
        <time>2025-05-07T14:25:24.222Z</time>
      </trkpt>
      <trkpt lat="45.88425" lon="-0.60392">
        <ele>46.3</ele>
        <time>2025-05-07T14:25:31.682Z</time>
      </trkpt>
      <trkpt lat="45.8841" lon="-0.60403">
        <ele>45.66</ele>
        <time>2025-05-07T14:25:39.145Z</time>
      </trkpt>
      <trkpt lat="45.88392" lon="-0.60419">
        <ele>45.02</ele>
        <time>2025-05-07T14:25:46.611Z</time>
      </trkpt>
      <trkpt lat="45.88375" lon="-0.60432">
        <ele>44.36</ele>
        <time>2025-05-07T14:25:54.080Z</time>
      </trkpt>
      <trkpt lat="45.88359" lon="-0.60445">
        <ele>43.61</ele>
        <time>2025-05-07T14:26:01.552Z</time>
      </trkpt>
      <trkpt lat="45.88336" lon="-0.6046">
        <ele>42.73</ele>
        <time>2025-05-07T14:26:09.028Z</time>
      </trkpt>
      <trkpt lat="45.8832" lon="-0.60467">
        <ele>41.77</ele>
        <time>2025-05-07T14:26:16.507Z</time>
      </trkpt>
      <trkpt lat="45.88303" lon="-0.60475">
        <ele>40.83</ele>
        <time>2025-05-07T14:26:23.989Z</time>
      </trkpt>
      <trkpt lat="45.88285" lon="-0.60485">
        <ele>39.88</ele>
        <time>2025-05-07T14:26:31.474Z</time>
      </trkpt>
      <trkpt lat="45.88259" lon="-0.60498">
        <ele>38.93</ele>
        <time>2025-05-07T14:26:38.963Z</time>
      </trkpt>
      <trkpt lat="45.88234" lon="-0.6051">
        <ele>37.9</ele>
        <time>2025-05-07T14:26:46.456Z</time>
      </trkpt>
      <trkpt lat="45.88208" lon="-0.60523">
        <ele>36.81</ele>
        <time>2025-05-07T14:26:53.954Z</time>
      </trkpt>
      <trkpt lat="45.88187" lon="-0.60534">
        <ele>35.75</ele>
        <time>2025-05-07T14:27:01.455Z</time>
      </trkpt>
      <trkpt lat="45.88165" lon="-0.60546">
        <ele>34.73</ele>
        <time>2025-05-07T14:27:08.960Z</time>
      </trkpt>
      <trkpt lat="45.88138" lon="-0.6056">
        <ele>33.73</ele>
        <time>2025-05-07T14:27:16.470Z</time>
      </trkpt>
      <trkpt lat="45.88112" lon="-0.60569">
        <ele>32.7</ele>
        <time>2025-05-07T14:27:23.984Z</time>
      </trkpt>
      <trkpt lat="45.88091" lon="-0.60572">
        <ele>31.66</ele>
        <time>2025-05-07T14:27:31.501Z</time>
      </trkpt>
      <trkpt lat="45.88062" lon="-0.60579">
        <ele>30.69</ele>
        <time>2025-05-07T14:27:39.023Z</time>
      </trkpt>
      <trkpt lat="45.8805" lon="-0.60583">
        <ele>29.75</ele>
        <time>2025-05-07T14:27:46.547Z</time>
      </trkpt>
      <trkpt lat="45.88042" lon="-0.60587">
        <ele>28.83</ele>
        <time>2025-05-07T14:27:54.072Z</time>
      </trkpt>
      <trkpt lat="45.88028" lon="-0.60596">
        <ele>27.91</ele>
        <time>2025-05-07T14:28:01.600Z</time>
      </trkpt>
      <trkpt lat="45.88003" lon="-0.60613">
        <ele>26.98</ele>
        <time>2025-05-07T14:28:09.132Z</time>
      </trkpt>
      <trkpt lat="45.87979" lon="-0.6063">
        <ele>26</ele>
        <time>2025-05-07T14:28:16.669Z</time>
      </trkpt>
      <trkpt lat="45.87952" lon="-0.60647">
        <ele>25.06</ele>
        <time>2025-05-07T14:28:24.210Z</time>
      </trkpt>
      <trkpt lat="45.8793" lon="-0.60664">
        <ele>24.24</ele>
        <time>2025-05-07T14:28:31.755Z</time>
      </trkpt>
      <trkpt lat="45.87922" lon="-0.60671">
        <ele>23.49</ele>
        <time>2025-05-07T14:28:39.302Z</time>
      </trkpt>
      <trkpt lat="45.87907" lon="-0.60689">
        <ele>22.78</ele>
        <time>2025-05-07T14:28:46.852Z</time>
      </trkpt>
      <trkpt lat="45.8789" lon="-0.60715">
        <ele>22.11</ele>
        <time>2025-05-07T14:28:54.406Z</time>
      </trkpt>
      <trkpt lat="45.87876" lon="-0.60735">
        <ele>21.51</ele>
        <time>2025-05-07T14:29:01.963Z</time>
      </trkpt>
      <trkpt lat="45.87876" lon="-0.60735">
        <ele>21</ele>
        <time>2025-05-07T14:29:09.520Z</time>
      </trkpt>
      <trkpt lat="45.87873" lon="-0.6074">
        <ele>20.54</ele>
        <time>2025-05-07T14:29:17.078Z</time>
      </trkpt>
      <trkpt lat="45.87864" lon="-0.60764">
        <ele>20.12</ele>
        <time>2025-05-07T14:29:24.639Z</time>
      </trkpt>
      <trkpt lat="45.87854" lon="-0.60787">
        <ele>19.76</ele>
        <time>2025-05-07T14:29:32.203Z</time>
      </trkpt>
      <trkpt lat="45.87839" lon="-0.60802">
        <ele>19.47</ele>
        <time>2025-05-07T14:29:39.770Z</time>
      </trkpt>
      <trkpt lat="45.87841" lon="-0.60808">
        <ele>19.29</ele>
        <time>2025-05-07T14:29:47.338Z</time>
      </trkpt>
      <trkpt lat="45.87841" lon="-0.60808">
        <ele>19.17</ele>
        <time>2025-05-07T14:29:54.906Z</time>
      </trkpt>
      <trkpt lat="45.87856" lon="-0.60845">
        <ele>19.09</ele>
        <time>2025-05-07T14:30:02.478Z</time>
      </trkpt>
      <trkpt lat="45.87863" lon="-0.60852">
        <ele>19.11</ele>
        <time>2025-05-07T14:30:10.052Z</time>
      </trkpt>
      <trkpt lat="45.87885" lon="-0.60879">
        <ele>19.22</ele>
        <time>2025-05-07T14:30:17.630Z</time>
      </trkpt>
      <trkpt lat="45.87907" lon="-0.60906">
        <ele>19.37</ele>
        <time>2025-05-07T14:30:25.213Z</time>
      </trkpt>
      <trkpt lat="45.87907" lon="-0.60906">
        <ele>19.6</ele>
        <time>2025-05-07T14:30:32.796Z</time>
      </trkpt>
      <trkpt lat="45.87915" lon="-0.60917">
        <ele>19.92</ele>
        <time>2025-05-07T14:30:40.381Z</time>
      </trkpt>
      <trkpt lat="45.87939" lon="-0.60946">
        <ele>20.29</ele>
        <time>2025-05-07T14:30:47.971Z</time>
      </trkpt>
      <trkpt lat="45.87962" lon="-0.60974">
        <ele>20.71</ele>
        <time>2025-05-07T14:30:55.566Z</time>
      </trkpt>
      <trkpt lat="45.87985" lon="-0.61003">
        <ele>21.09</ele>
        <time>2025-05-07T14:31:03.165Z</time>
      </trkpt>
      <trkpt lat="45.88004" lon="-0.61024">
        <ele>21.58</ele>
        <time>2025-05-07T14:31:10.768Z</time>
      </trkpt>
      <trkpt lat="45.88022" lon="-0.61045">
        <ele>22.18</ele>
        <time>2025-05-07T14:31:18.375Z</time>
      </trkpt>
      <trkpt lat="45.88037" lon="-0.61055">
        <ele>22.82</ele>
        <time>2025-05-07T14:31:25.985Z</time>
      </trkpt>
      <trkpt lat="45.88053" lon="-0.61065">
        <ele>23.53</ele>
        <time>2025-05-07T14:31:33.597Z</time>
      </trkpt>
      <trkpt lat="45.8808" lon="-0.61073">
        <ele>24.33</ele>
        <time>2025-05-07T14:31:41.214Z</time>
      </trkpt>
      <trkpt lat="45.88104" lon="-0.61073">
        <ele>25.22</ele>
        <time>2025-05-07T14:31:48.835Z</time>
      </trkpt>
      <trkpt lat="45.88127" lon="-0.61073">
        <ele>26.03</ele>
        <time>2025-05-07T14:31:56.459Z</time>
      </trkpt>
      <trkpt lat="45.88151" lon="-0.61073">
        <ele>26.82</ele>
        <time>2025-05-07T14:32:04.087Z</time>
      </trkpt>
      <trkpt lat="45.88181" lon="-0.61075">
        <ele>27.66</ele>
        <time>2025-05-07T14:32:11.720Z</time>
      </trkpt>
      <trkpt lat="45.88196" lon="-0.61076">
        <ele>28.44</ele>
        <time>2025-05-07T14:32:19.355Z</time>
      </trkpt>
      <trkpt lat="45.88214" lon="-0.61082">
        <ele>29.17</ele>
        <time>2025-05-07T14:32:26.993Z</time>
      </trkpt>
      <trkpt lat="45.88232" lon="-0.61089">
        <ele>29.88</ele>
        <time>2025-05-07T14:32:34.634Z</time>
      </trkpt>
      <trkpt lat="45.88256" lon="-0.61105">
        <ele>30.47</ele>
        <time>2025-05-07T14:32:42.280Z</time>
      </trkpt>
      <trkpt lat="45.88281" lon="-0.61122">
        <ele>31.03</ele>
        <time>2025-05-07T14:32:49.930Z</time>
      </trkpt>
      <trkpt lat="45.88305" lon="-0.61138">
        <ele>31.61</ele>
        <time>2025-05-07T14:32:57.584Z</time>
      </trkpt>
      <trkpt lat="45.88326" lon="-0.61148">
        <ele>32.16</ele>
        <time>2025-05-07T14:33:05.242Z</time>
      </trkpt>
      <trkpt lat="45.88346" lon="-0.61158">
        <ele>32.64</ele>
        <time>2025-05-07T14:33:12.903Z</time>
      </trkpt>
      <trkpt lat="45.88367" lon="-0.61168">
        <ele>33.09</ele>
        <time>2025-05-07T14:33:20.568Z</time>
      </trkpt>
      <trkpt lat="45.88381" lon="-0.61175">
        <ele>33.53</ele>
        <time>2025-05-07T14:33:28.235Z</time>
      </trkpt>
      <trkpt lat="45.88402" lon="-0.61182">
        <ele>33.95</ele>
        <time>2025-05-07T14:33:35.906Z</time>
      </trkpt>
      <trkpt lat="45.88422" lon="-0.61188">
        <ele>34.36</ele>
        <time>2025-05-07T14:33:43.580Z</time>
      </trkpt>
      <trkpt lat="45.88443" lon="-0.61195">
        <ele>34.67</ele>
        <time>2025-05-07T14:33:51.257Z</time>
      </trkpt>
      <trkpt lat="45.88461" lon="-0.61197">
        <ele>34.91</ele>
        <time>2025-05-07T14:33:58.937Z</time>
      </trkpt>
      <trkpt lat="45.88479" lon="-0.61199">
        <ele>35.05</ele>
        <time>2025-05-07T14:34:06.620Z</time>
      </trkpt>
      <trkpt lat="45.88508" lon="-0.6119">
        <ele>35.13</ele>
        <time>2025-05-07T14:34:14.308Z</time>
      </trkpt>
      <trkpt lat="45.88523" lon="-0.6118">
        <ele>35.22</ele>
        <time>2025-05-07T14:34:21.999Z</time>
      </trkpt>
      <trkpt lat="45.88539" lon="-0.6117">
        <ele>35.27</ele>
        <time>2025-05-07T14:34:29.692Z</time>
      </trkpt>
      <trkpt lat="45.88556" lon="-0.61166">
        <ele>35.27</ele>
        <time>2025-05-07T14:34:37.388Z</time>
      </trkpt>
      <trkpt lat="45.88569" lon="-0.61163">
        <ele>35.25</ele>
        <time>2025-05-07T14:34:45.086Z</time>
      </trkpt>
      <trkpt lat="45.88586" lon="-0.61163">
        <ele>35.19</ele>
        <time>2025-05-07T14:34:52.787Z</time>
      </trkpt>
      <trkpt lat="45.88612" lon="-0.61172">
        <ele>35.03</ele>
        <time>2025-05-07T14:35:00.492Z</time>
      </trkpt>
      <trkpt lat="45.88628" lon="-0.61181">
        <ele>34.9</ele>
        <time>2025-05-07T14:35:08.200Z</time>
      </trkpt>
      <trkpt lat="45.88645" lon="-0.6119">
        <ele>34.81</ele>
        <time>2025-05-07T14:35:15.911Z</time>
      </trkpt>
      <trkpt lat="45.88665" lon="-0.61208">
        <ele>34.73</ele>
        <time>2025-05-07T14:35:23.626Z</time>
      </trkpt>
      <trkpt lat="45.88689" lon="-0.61223">
        <ele>34.8</ele>
        <time>2025-05-07T14:35:31.345Z</time>
      </trkpt>
      <trkpt lat="45.88705" lon="-0.61237">
        <ele>34.88</ele>
        <time>2025-05-07T14:35:39.067Z</time>
      </trkpt>
      <trkpt lat="45.88722" lon="-0.6125">
        <ele>34.97</ele>
        <time>2025-05-07T14:35:46.792Z</time>
      </trkpt>
      <trkpt lat="45.88739" lon="-0.61263">
        <ele>35.01</ele>
        <time>2025-05-07T14:35:54.520Z</time>
      </trkpt>
      <trkpt lat="45.88759" lon="-0.61278">
        <ele>34.96</ele>
        <time>2025-05-07T14:36:02.252Z</time>
      </trkpt>
      <trkpt lat="45.88779" lon="-0.61293">
        <ele>34.9</ele>
        <time>2025-05-07T14:36:09.987Z</time>
      </trkpt>
      <trkpt lat="45.88799" lon="-0.61308">
        <ele>34.92</ele>
        <time>2025-05-07T14:36:17.726Z</time>
      </trkpt>
      <trkpt lat="45.88813" lon="-0.61319">
        <ele>34.97</ele>
        <time>2025-05-07T14:36:25.467Z</time>
      </trkpt>
      <trkpt lat="45.88827" lon="-0.61331">
        <ele>35.06</ele>
        <time>2025-05-07T14:36:33.211Z</time>
      </trkpt>
      <trkpt lat="45.88847" lon="-0.61345">
        <ele>35.12</ele>
        <time>2025-05-07T14:36:40.959Z</time>
      </trkpt>
      <trkpt lat="45.88866" lon="-0.61361">
        <ele>35.11</ele>
        <time>2025-05-07T14:36:48.710Z</time>
      </trkpt>
      <trkpt lat="45.88885" lon="-0.61377">
        <ele>35.1</ele>
        <time>2025-05-07T14:36:56.465Z</time>
      </trkpt>
      <trkpt lat="45.88897" lon="-0.6139">
        <ele>35.05</ele>
        <time>2025-05-07T14:37:04.222Z</time>
      </trkpt>
      <trkpt lat="45.88921" lon="-0.6141">
        <ele>35</ele>
        <time>2025-05-07T14:37:11.983Z</time>
      </trkpt>
      <trkpt lat="45.88944" lon="-0.61431">
        <ele>34.93</ele>
        <time>2025-05-07T14:37:19.749Z</time>
      </trkpt>
      <trkpt lat="45.8896" lon="-0.61443">
        <ele>34.85</ele>
        <time>2025-05-07T14:37:27.518Z</time>
      </trkpt>
      <trkpt lat="45.88977" lon="-0.61456">
        <ele>34.76</ele>
        <time>2025-05-07T14:37:35.290Z</time>
      </trkpt>
      <trkpt lat="45.88991" lon="-0.61469">
        <ele>34.66</ele>
        <time>2025-05-07T14:37:43.064Z</time>
      </trkpt>
      <trkpt lat="45.89005" lon="-0.61483">
        <ele>34.54</ele>
        <time>2025-05-07T14:37:50.841Z</time>
      </trkpt>
      <trkpt lat="45.89026" lon="-0.61512">
        <ele>34.36</ele>
        <time>2025-05-07T14:37:58.623Z</time>
      </trkpt>
      <trkpt lat="45.89048" lon="-0.61542">
        <ele>34.24</ele>
        <time>2025-05-07T14:38:06.410Z</time>
      </trkpt>
      <trkpt lat="45.89069" lon="-0.61571">
        <ele>34.18</ele>
        <time>2025-05-07T14:38:14.201Z</time>
      </trkpt>
      <trkpt lat="45.89086" lon="-0.61592">
        <ele>34.05</ele>
        <time>2025-05-07T14:38:21.996Z</time>
      </trkpt>
      <trkpt lat="45.89105" lon="-0.61609">
        <ele>33.91</ele>
        <time>2025-05-07T14:38:29.795Z</time>
      </trkpt>
      <trkpt lat="45.89133" lon="-0.61622">
        <ele>33.77</ele>
        <time>2025-05-07T14:38:37.598Z</time>
      </trkpt>
      <trkpt lat="45.89157" lon="-0.61626">
        <ele>33.63</ele>
        <time>2025-05-07T14:38:45.405Z</time>
      </trkpt>
      <trkpt lat="45.89182" lon="-0.61631">
        <ele>33.51</ele>
        <time>2025-05-07T14:38:53.216Z</time>
      </trkpt>
      <trkpt lat="45.89206" lon="-0.61635">
        <ele>33.43</ele>
        <time>2025-05-07T14:39:01.031Z</time>
      </trkpt>
      <trkpt lat="45.89236" lon="-0.61638">
        <ele>33.31</ele>
        <time>2025-05-07T14:39:08.851Z</time>
      </trkpt>
      <trkpt lat="45.89267" lon="-0.61642">
        <ele>33.17</ele>
        <time>2025-05-07T14:39:16.676Z</time>
      </trkpt>
      <trkpt lat="45.89297" lon="-0.61645">
        <ele>33.05</ele>
        <time>2025-05-07T14:39:24.506Z</time>
      </trkpt>
      <trkpt lat="45.89328" lon="-0.61649">
        <ele>32.94</ele>
        <time>2025-05-07T14:39:32.341Z</time>
      </trkpt>
      <trkpt lat="45.89354" lon="-0.61654">
        <ele>32.85</ele>
        <time>2025-05-07T14:39:40.180Z</time>
      </trkpt>
      <trkpt lat="45.8938" lon="-0.61659">
        <ele>32.75</ele>
        <time>2025-05-07T14:39:48.023Z</time>
      </trkpt>
      <trkpt lat="45.89395" lon="-0.61662">
        <ele>32.64</ele>
        <time>2025-05-07T14:39:55.868Z</time>
      </trkpt>
      <trkpt lat="45.89415" lon="-0.6167">
        <ele>32.5</ele>
        <time>2025-05-07T14:40:03.717Z</time>
      </trkpt>
      <trkpt lat="45.89435" lon="-0.61678">
        <ele>32.36</ele>
        <time>2025-05-07T14:40:11.569Z</time>
      </trkpt>
      <trkpt lat="45.89462" lon="-0.61696">
        <ele>32.19</ele>
        <time>2025-05-07T14:40:19.426Z</time>
      </trkpt>
      <trkpt lat="45.89489" lon="-0.61716">
        <ele>32.08</ele>
        <time>2025-05-07T14:40:27.288Z</time>
      </trkpt>
      <trkpt lat="45.8951" lon="-0.61737">
        <ele>32.03</ele>
        <time>2025-05-07T14:40:35.154Z</time>
      </trkpt>
      <trkpt lat="45.89532" lon="-0.61757">
        <ele>31.99</ele>
        <time>2025-05-07T14:40:43.024Z</time>
      </trkpt>
      <trkpt lat="45.89553" lon="-0.61778">
        <ele>32.01</ele>
        <time>2025-05-07T14:40:50.898Z</time>
      </trkpt>
      <trkpt lat="45.89574" lon="-0.61798">
        <ele>32.05</ele>
        <time>2025-05-07T14:40:58.776Z</time>
      </trkpt>
      <trkpt lat="45.89588" lon="-0.61808">
        <ele>32.07</ele>
        <time>2025-05-07T14:41:06.657Z</time>
      </trkpt>
      <trkpt lat="45.89603" lon="-0.61819">
        <ele>32.11</ele>
        <time>2025-05-07T14:41:14.540Z</time>
      </trkpt>
      <trkpt lat="45.8963" lon="-0.6183">
        <ele>32.18</ele>
        <time>2025-05-07T14:41:22.428Z</time>
      </trkpt>
      <trkpt lat="45.89661" lon="-0.61836">
        <ele>32.25</ele>
        <time>2025-05-07T14:41:30.321Z</time>
      </trkpt>
      <trkpt lat="45.89692" lon="-0.61841">
        <ele>32.31</ele>
        <time>2025-05-07T14:41:38.219Z</time>
      </trkpt>
      <trkpt lat="45.89723" lon="-0.61847">
        <ele>32.4</ele>
        <time>2025-05-07T14:41:46.122Z</time>
      </trkpt>
      <trkpt lat="45.8974" lon="-0.61852">
        <ele>32.53</ele>
        <time>2025-05-07T14:41:54.028Z</time>
      </trkpt>
      <trkpt lat="45.89758" lon="-0.61857">
        <ele>32.69</ele>
        <time>2025-05-07T14:42:01.937Z</time>
      </trkpt>
      <trkpt lat="45.89773" lon="-0.61866">
        <ele>32.85</ele>
        <time>2025-05-07T14:42:09.848Z</time>
      </trkpt>
      <trkpt lat="45.89788" lon="-0.61875">
        <ele>33.04</ele>
        <time>2025-05-07T14:42:17.762Z</time>
      </trkpt>
      <trkpt lat="45.89808" lon="-0.61889">
        <ele>33.27</ele>
        <time>2025-05-07T14:42:25.679Z</time>
      </trkpt>
      <trkpt lat="45.89828" lon="-0.61904">
        <ele>33.51</ele>
        <time>2025-05-07T14:42:33.600Z</time>
      </trkpt>
      <trkpt lat="45.89848" lon="-0.61918">
        <ele>33.79</ele>
        <time>2025-05-07T14:42:41.525Z</time>
      </trkpt>
      <trkpt lat="45.89866" lon="-0.61931">
        <ele>34.08</ele>
        <time>2025-05-07T14:42:49.453Z</time>
      </trkpt>
      <trkpt lat="45.89886" lon="-0.61945">
        <ele>34.39</ele>
        <time>2025-05-07T14:42:57.384Z</time>
      </trkpt>
      <trkpt lat="45.89906" lon="-0.61958">
        <ele>34.75</ele>
        <time>2025-05-07T14:43:05.319Z</time>
      </trkpt>
      <trkpt lat="45.89926" lon="-0.61972">
        <ele>35.15</ele>
        <time>2025-05-07T14:43:13.257Z</time>
      </trkpt>
      <trkpt lat="45.89948" lon="-0.61986">
        <ele>35.54</ele>
        <time>2025-05-07T14:43:21.199Z</time>
      </trkpt>
      <trkpt lat="45.89957" lon="-0.61988">
        <ele>35.86</ele>
        <time>2025-05-07T14:43:29.143Z</time>
      </trkpt>
      <trkpt lat="45.89967" lon="-0.61991">
        <ele>36.16</ele>
        <time>2025-05-07T14:43:37.088Z</time>
      </trkpt>
      <trkpt lat="45.89986" lon="-0.6199">
        <ele>36.46</ele>
        <time>2025-05-07T14:43:45.036Z</time>
      </trkpt>
      <trkpt lat="45.89992" lon="-0.61989">
        <ele>36.72</ele>
        <time>2025-05-07T14:43:52.985Z</time>
      </trkpt>
      <trkpt lat="45.90013" lon="-0.61985">
        <ele>36.97</ele>
        <time>2025-05-07T14:44:00.938Z</time>
      </trkpt>
      <trkpt lat="45.90036" lon="-0.61986">
        <ele>37.18</ele>
        <time>2025-05-07T14:44:08.894Z</time>
      </trkpt>
      <trkpt lat="45.90041" lon="-0.61987">
        <ele>37.38</ele>
        <time>2025-05-07T14:44:16.851Z</time>
      </trkpt>
      <trkpt lat="45.90047" lon="-0.61989">
        <ele>37.55</ele>
        <time>2025-05-07T14:44:24.809Z</time>
      </trkpt>
      <trkpt lat="45.90055" lon="-0.61995">
        <ele>37.69</ele>
        <time>2025-05-07T14:44:32.769Z</time>
      </trkpt>
      <trkpt lat="45.9008" lon="-0.62015">
        <ele>37.81</ele>
        <time>2025-05-07T14:44:40.733Z</time>
      </trkpt>
      <trkpt lat="45.90094" lon="-0.62031">
        <ele>37.93</ele>
        <time>2025-05-07T14:44:48.700Z</time>
      </trkpt>
      <trkpt lat="45.90108" lon="-0.62046">
        <ele>38.03</ele>
        <time>2025-05-07T14:44:56.670Z</time>
      </trkpt>
      <trkpt lat="45.90115" lon="-0.6205">
        <ele>38.13</ele>
        <time>2025-05-07T14:45:04.641Z</time>
      </trkpt>
      <trkpt lat="45.90132" lon="-0.62063">
        <ele>38.22</ele>
        <time>2025-05-07T14:45:12.615Z</time>
      </trkpt>
      <trkpt lat="45.90137" lon="-0.62067">
        <ele>38.26</ele>
        <time>2025-05-07T14:45:20.590Z</time>
      </trkpt>
      <trkpt lat="45.90155" lon="-0.62099">
        <ele>38.32</ele>
        <time>2025-05-07T14:45:28.570Z</time>
      </trkpt>
      <trkpt lat="45.90174" lon="-0.6212">
        <ele>38.35</ele>
        <time>2025-05-07T14:45:36.554Z</time>
      </trkpt>
      <trkpt lat="45.90192" lon="-0.62142">
        <ele>38.35</ele>
        <time>2025-05-07T14:45:44.541Z</time>
      </trkpt>
      <trkpt lat="45.90211" lon="-0.62163">
        <ele>38.34</ele>
        <time>2025-05-07T14:45:52.532Z</time>
      </trkpt>
      <trkpt lat="45.90234" lon="-0.62189">
        <ele>38.3</ele>
        <time>2025-05-07T14:46:00.528Z</time>
      </trkpt>
      <trkpt lat="45.90256" lon="-0.62214">
        <ele>38.32</ele>
        <time>2025-05-07T14:46:08.528Z</time>
      </trkpt>
      <trkpt lat="45.90279" lon="-0.6224">
        <ele>38.33</ele>
        <time>2025-05-07T14:46:16.533Z</time>
      </trkpt>
      <trkpt lat="45.90299" lon="-0.62271">
        <ele>38.26</ele>
        <time>2025-05-07T14:46:24.543Z</time>
      </trkpt>
      <trkpt lat="45.90316" lon="-0.62304">
        <ele>38.17</ele>
        <time>2025-05-07T14:46:32.557Z</time>
      </trkpt>
      <trkpt lat="45.90334" lon="-0.62338">
        <ele>38.17</ele>
        <time>2025-05-07T14:46:40.576Z</time>
      </trkpt>
      <trkpt lat="45.90351" lon="-0.62371">
        <ele>38.25</ele>
        <time>2025-05-07T14:46:48.600Z</time>
      </trkpt>
      <trkpt lat="45.90362" lon="-0.62395">
        <ele>38.34</ele>
        <time>2025-05-07T14:46:56.627Z</time>
      </trkpt>
      <trkpt lat="45.90373" lon="-0.62418">
        <ele>38.45</ele>
        <time>2025-05-07T14:47:04.657Z</time>
      </trkpt>
      <trkpt lat="45.90388" lon="-0.62449">
        <ele>38.56</ele>
        <time>2025-05-07T14:47:12.691Z</time>
      </trkpt>
      <trkpt lat="45.90403" lon="-0.62476">
        <ele>38.71</ele>
        <time>2025-05-07T14:47:20.729Z</time>
      </trkpt>
      <trkpt lat="45.90417" lon="-0.62502">
        <ele>38.87</ele>
        <time>2025-05-07T14:47:28.771Z</time>
      </trkpt>
      <trkpt lat="45.90432" lon="-0.62529">
        <ele>39.08</ele>
        <time>2025-05-07T14:47:36.817Z</time>
      </trkpt>
      <trkpt lat="45.90453" lon="-0.62557">
        <ele>39.34</ele>
        <time>2025-05-07T14:47:44.867Z</time>
      </trkpt>
      <trkpt lat="45.90469" lon="-0.62572">
        <ele>39.6</ele>
        <time>2025-05-07T14:47:52.920Z</time>
      </trkpt>
      <trkpt lat="45.90484" lon="-0.62588">
        <ele>39.88</ele>
        <time>2025-05-07T14:48:00.976Z</time>
      </trkpt>
      <trkpt lat="45.90509" lon="-0.62612">
        <ele>40.23</ele>
        <time>2025-05-07T14:48:09.037Z</time>
      </trkpt>
      <trkpt lat="45.90533" lon="-0.62636">
        <ele>40.6</ele>
        <time>2025-05-07T14:48:17.103Z</time>
      </trkpt>
      <trkpt lat="45.90558" lon="-0.6266">
        <ele>41</ele>
        <time>2025-05-07T14:48:25.174Z</time>
      </trkpt>
      <trkpt lat="45.90582" lon="-0.62685">
        <ele>41.37</ele>
        <time>2025-05-07T14:48:33.249Z</time>
      </trkpt>
      <trkpt lat="45.90607" lon="-0.62709">
        <ele>41.73</ele>
        <time>2025-05-07T14:48:41.329Z</time>
      </trkpt>
      <trkpt lat="45.90631" lon="-0.62733">
        <ele>42.15</ele>
        <time>2025-05-07T14:48:49.414Z</time>
      </trkpt>
      <trkpt lat="45.90656" lon="-0.62757">
        <ele>42.65</ele>
        <time>2025-05-07T14:48:57.504Z</time>
      </trkpt>
      <trkpt lat="45.9068" lon="-0.62779">
        <ele>43.14</ele>
        <time>2025-05-07T14:49:05.598Z</time>
      </trkpt>
      <trkpt lat="45.90704" lon="-0.62802">
        <ele>43.59</ele>
        <time>2025-05-07T14:49:13.697Z</time>
      </trkpt>
      <trkpt lat="45.90728" lon="-0.62824">
        <ele>44.11</ele>
        <time>2025-05-07T14:49:21.800Z</time>
      </trkpt>
      <trkpt lat="45.90754" lon="-0.62845">
        <ele>44.65</ele>
        <time>2025-05-07T14:49:29.908Z</time>
      </trkpt>
      <trkpt lat="45.90771" lon="-0.62856">
        <ele>45.13</ele>
        <time>2025-05-07T14:49:38.019Z</time>
      </trkpt>
      <trkpt lat="45.90788" lon="-0.62867">
        <ele>45.55</ele>
        <time>2025-05-07T14:49:46.133Z</time>
      </trkpt>
      <trkpt lat="45.90815" lon="-0.62886">
        <ele>46.03</ele>
        <time>2025-05-07T14:49:54.252Z</time>
      </trkpt>
      <trkpt lat="45.90843" lon="-0.62905">
        <ele>46.52</ele>
        <time>2025-05-07T14:50:02.376Z</time>
      </trkpt>
      <trkpt lat="45.9087" lon="-0.62924">
        <ele>46.99</ele>
        <time>2025-05-07T14:50:10.505Z</time>
      </trkpt>
      <trkpt lat="45.90886" lon="-0.6294">
        <ele>47.39</ele>
        <time>2025-05-07T14:50:18.637Z</time>
      </trkpt>
      <trkpt lat="45.90901" lon="-0.62958">
        <ele>47.75</ele>
        <time>2025-05-07T14:50:26.772Z</time>
      </trkpt>
      <trkpt lat="45.90915" lon="-0.62976">
        <ele>48.05</ele>
        <time>2025-05-07T14:50:34.910Z</time>
      </trkpt>
      <trkpt lat="45.90931" lon="-0.63003">
        <ele>48.3</ele>
        <time>2025-05-07T14:50:43.052Z</time>
      </trkpt>
      <trkpt lat="45.90948" lon="-0.63031">
        <ele>48.61</ele>
        <time>2025-05-07T14:50:51.198Z</time>
      </trkpt>
      <trkpt lat="45.90964" lon="-0.63058">
        <ele>48.86</ele>
        <time>2025-05-07T14:50:59.348Z</time>
      </trkpt>
      <trkpt lat="45.9098" lon="-0.63085">
        <ele>49.09</ele>
        <time>2025-05-07T14:51:07.502Z</time>
      </trkpt>
      <trkpt lat="45.90993" lon="-0.63105">
        <ele>49.23</ele>
        <time>2025-05-07T14:51:15.659Z</time>
      </trkpt>
      <trkpt lat="45.91006" lon="-0.63125">
        <ele>49.36</ele>
        <time>2025-05-07T14:51:23.819Z</time>
      </trkpt>
      <trkpt lat="45.91018" lon="-0.63141">
        <ele>49.47</ele>
        <time>2025-05-07T14:51:31.982Z</time>
      </trkpt>
      <trkpt lat="45.9104" lon="-0.63165">
        <ele>49.46</ele>
        <time>2025-05-07T14:51:40.149Z</time>
      </trkpt>
      <trkpt lat="45.9105" lon="-0.63174">
        <ele>49.48</ele>
        <time>2025-05-07T14:51:48.318Z</time>
      </trkpt>
      <trkpt lat="45.91066" lon="-0.63188">
        <ele>49.45</ele>
        <time>2025-05-07T14:51:56.490Z</time>
      </trkpt>
      <trkpt lat="45.91088" lon="-0.63204">
        <ele>49.42</ele>
        <time>2025-05-07T14:52:04.666Z</time>
      </trkpt>
      <trkpt lat="45.91111" lon="-0.63221">
        <ele>49.4</ele>
        <time>2025-05-07T14:52:12.846Z</time>
      </trkpt>
      <trkpt lat="45.91132" lon="-0.63237">
        <ele>49.29</ele>
        <time>2025-05-07T14:52:21.030Z</time>
      </trkpt>
      <trkpt lat="45.91152" lon="-0.63254">
        <ele>49.18</ele>
        <time>2025-05-07T14:52:29.218Z</time>
      </trkpt>
      <trkpt lat="45.91173" lon="-0.6327">
        <ele>49</ele>
        <time>2025-05-07T14:52:37.409Z</time>
      </trkpt>
      <trkpt lat="45.91187" lon="-0.63285">
        <ele>48.81</ele>
        <time>2025-05-07T14:52:45.603Z</time>
      </trkpt>
      <trkpt lat="45.912" lon="-0.633">
        <ele>48.61</ele>
        <time>2025-05-07T14:52:53.800Z</time>
      </trkpt>
      <trkpt lat="45.91215" lon="-0.63326">
        <ele>48.38</ele>
        <time>2025-05-07T14:53:02.001Z</time>
      </trkpt>
      <trkpt lat="45.91224" lon="-0.63343">
        <ele>48.16</ele>
        <time>2025-05-07T14:53:10.204Z</time>
      </trkpt>
      <trkpt lat="45.91237" lon="-0.63375">
        <ele>47.97</ele>
        <time>2025-05-07T14:53:18.411Z</time>
      </trkpt>
      <trkpt lat="45.9125" lon="-0.63408">
        <ele>47.73</ele>
        <time>2025-05-07T14:53:26.622Z</time>
      </trkpt>
      <trkpt lat="45.91263" lon="-0.6344">
        <ele>47.43</ele>
        <time>2025-05-07T14:53:34.838Z</time>
      </trkpt>
      <trkpt lat="45.91276" lon="-0.63472">
        <ele>47.1</ele>
        <time>2025-05-07T14:53:43.058Z</time>
      </trkpt>
      <trkpt lat="45.91288" lon="-0.63503">
        <ele>46.76</ele>
        <time>2025-05-07T14:53:51.282Z</time>
      </trkpt>
      <trkpt lat="45.91301" lon="-0.63534">
        <ele>46.33</ele>
        <time>2025-05-07T14:53:59.510Z</time>
      </trkpt>
      <trkpt lat="45.91313" lon="-0.63565">
        <ele>45.89</ele>
        <time>2025-05-07T14:54:07.742Z</time>
      </trkpt>
      <trkpt lat="45.91321" lon="-0.63596">
        <ele>45.44</ele>
        <time>2025-05-07T14:54:15.977Z</time>
      </trkpt>
      <trkpt lat="45.9133" lon="-0.63625">
        <ele>45.03</ele>
        <time>2025-05-07T14:54:24.216Z</time>
      </trkpt>
      <trkpt lat="45.9134" lon="-0.63665">
        <ele>44.65</ele>
        <time>2025-05-07T14:54:32.460Z</time>
      </trkpt>
      <trkpt lat="45.91349" lon="-0.63704">
        <ele>44.24</ele>
        <time>2025-05-07T14:54:40.708Z</time>
      </trkpt>
      <trkpt lat="45.91359" lon="-0.63744">
        <ele>43.91</ele>
        <time>2025-05-07T14:54:48.961Z</time>
      </trkpt>
      <trkpt lat="45.91368" lon="-0.63783">
        <ele>43.63</ele>
        <time>2025-05-07T14:54:57.219Z</time>
      </trkpt>
      <trkpt lat="45.91379" lon="-0.63821">
        <ele>43.35</ele>
        <time>2025-05-07T14:55:05.481Z</time>
      </trkpt>
      <trkpt lat="45.9139" lon="-0.63859">
        <ele>43.07</ele>
        <time>2025-05-07T14:55:13.748Z</time>
      </trkpt>
      <trkpt lat="45.91402" lon="-0.63889">
        <ele>42.75</ele>
        <time>2025-05-07T14:55:22.019Z</time>
      </trkpt>
      <trkpt lat="45.91414" lon="-0.63918">
        <ele>42.5</ele>
        <time>2025-05-07T14:55:30.293Z</time>
      </trkpt>
      <trkpt lat="45.91428" lon="-0.63942">
        <ele>42.24</ele>
        <time>2025-05-07T14:55:38.571Z</time>
      </trkpt>
      <trkpt lat="45.91441" lon="-0.63966">
        <ele>42.04</ele>
        <time>2025-05-07T14:55:46.852Z</time>
      </trkpt>
      <trkpt lat="45.9146" lon="-0.63994">
        <ele>41.83</ele>
        <time>2025-05-07T14:55:55.138Z</time>
      </trkpt>
      <trkpt lat="45.9148" lon="-0.64016">
        <ele>41.57</ele>
        <time>2025-05-07T14:56:03.428Z</time>
      </trkpt>
      <trkpt lat="45.91495" lon="-0.6403">
        <ele>41.41</ele>
        <time>2025-05-07T14:56:11.721Z</time>
      </trkpt>
      <trkpt lat="45.9151" lon="-0.64044">
        <ele>41.27</ele>
        <time>2025-05-07T14:56:20.016Z</time>
      </trkpt>
      <trkpt lat="45.91536" lon="-0.64064">
        <ele>41.2</ele>
        <time>2025-05-07T14:56:28.316Z</time>
      </trkpt>
      <trkpt lat="45.91562" lon="-0.64084">
        <ele>41.28</ele>
        <time>2025-05-07T14:56:36.621Z</time>
      </trkpt>
      <trkpt lat="45.91587" lon="-0.64102">
        <ele>41.33</ele>
        <time>2025-05-07T14:56:44.930Z</time>
      </trkpt>
      <trkpt lat="45.91612" lon="-0.64121">
        <ele>41.44</ele>
        <time>2025-05-07T14:56:53.244Z</time>
      </trkpt>
      <trkpt lat="45.91637" lon="-0.64139">
        <ele>41.56</ele>
        <time>2025-05-07T14:57:01.562Z</time>
      </trkpt>
      <trkpt lat="45.91655" lon="-0.64151">
        <ele>41.74</ele>
        <time>2025-05-07T14:57:09.884Z</time>
      </trkpt>
      <trkpt lat="45.91674" lon="-0.64163">
        <ele>41.91</ele>
        <time>2025-05-07T14:57:18.209Z</time>
      </trkpt>
      <trkpt lat="45.91698" lon="-0.64187">
        <ele>42.06</ele>
        <time>2025-05-07T14:57:26.539Z</time>
      </trkpt>
      <trkpt lat="45.91721" lon="-0.64214">
        <ele>42.2</ele>
        <time>2025-05-07T14:57:34.873Z</time>
      </trkpt>
      <trkpt lat="45.91743" lon="-0.6424">
        <ele>42.33</ele>
        <time>2025-05-07T14:57:43.212Z</time>
      </trkpt>
      <trkpt lat="45.91766" lon="-0.64267">
        <ele>42.47</ele>
        <time>2025-05-07T14:57:51.556Z</time>
      </trkpt>
      <trkpt lat="45.91785" lon="-0.6429">
        <ele>42.63</ele>
        <time>2025-05-07T14:57:59.904Z</time>
      </trkpt>
      <trkpt lat="45.91803" lon="-0.64312">
        <ele>42.76</ele>
        <time>2025-05-07T14:58:08.255Z</time>
      </trkpt>
      <trkpt lat="45.91818" lon="-0.64326">
        <ele>42.9</ele>
        <time>2025-05-07T14:58:16.609Z</time>
      </trkpt>
      <trkpt lat="45.91833" lon="-0.6434">
        <ele>42.99</ele>
        <time>2025-05-07T14:58:24.966Z</time>
      </trkpt>
      <trkpt lat="45.91852" lon="-0.64351">
        <ele>43.07</ele>
        <time>2025-05-07T14:58:33.327Z</time>
      </trkpt>
      <trkpt lat="45.91872" lon="-0.64363">
        <ele>43.11</ele>
        <time>2025-05-07T14:58:41.691Z</time>
      </trkpt>
      <trkpt lat="45.91887" lon="-0.6437">
        <ele>43.11</ele>
        <time>2025-05-07T14:58:50.057Z</time>
      </trkpt>
      <trkpt lat="45.91902" lon="-0.64378">
        <ele>43.05</ele>
        <time>2025-05-07T14:58:58.426Z</time>
      </trkpt>
      <trkpt lat="45.91923" lon="-0.64392">
        <ele>42.9</ele>
        <time>2025-05-07T14:59:06.799Z</time>
      </trkpt>
      <trkpt lat="45.91944" lon="-0.64407">
        <ele>42.71</ele>
        <time>2025-05-07T14:59:15.175Z</time>
      </trkpt>
      <trkpt lat="45.9196" lon="-0.64422">
        <ele>42.46</ele>
        <time>2025-05-07T14:59:23.555Z</time>
      </trkpt>
      <trkpt lat="45.91977" lon="-0.64437">
        <ele>42.25</ele>
        <time>2025-05-07T14:59:31.938Z</time>
      </trkpt>
      <trkpt lat="45.9199" lon="-0.64455">
        <ele>41.97</ele>
        <time>2025-05-07T14:59:40.324Z</time>
      </trkpt>
      <trkpt lat="45.92003" lon="-0.64472">
        <ele>41.64</ele>
        <time>2025-05-07T14:59:48.712Z</time>
      </trkpt>
      <trkpt lat="45.92016" lon="-0.64492">
        <ele>41.32</ele>
        <time>2025-05-07T14:59:57.103Z</time>
      </trkpt>
      <trkpt lat="45.9203" lon="-0.64515">
        <ele>40.99</ele>
        <time>2025-05-07T15:00:05.498Z</time>
      </trkpt>
      <trkpt lat="45.92048" lon="-0.64544">
        <ele>40.68</ele>
        <time>2025-05-07T15:00:13.897Z</time>
      </trkpt>
      <trkpt lat="45.92066" lon="-0.64574">
        <ele>40.29</ele>
        <time>2025-05-07T15:00:22.301Z</time>
      </trkpt>
      <trkpt lat="45.92084" lon="-0.64603">
        <ele>39.89</ele>
        <time>2025-05-07T15:00:30.709Z</time>
      </trkpt>
      <trkpt lat="45.92101" lon="-0.64632">
        <ele>39.47</ele>
        <time>2025-05-07T15:00:39.121Z</time>
      </trkpt>
      <trkpt lat="45.92119" lon="-0.64662">
        <ele>39.04</ele>
        <time>2025-05-07T15:00:47.538Z</time>
      </trkpt>
      <trkpt lat="45.92137" lon="-0.64691">
        <ele>38.62</ele>
        <time>2025-05-07T15:00:55.959Z</time>
      </trkpt>
      <trkpt lat="45.92156" lon="-0.6472">
        <ele>38.2</ele>
        <time>2025-05-07T15:01:04.384Z</time>
      </trkpt>
      <trkpt lat="45.92175" lon="-0.6475">
        <ele>37.78</ele>
        <time>2025-05-07T15:01:12.814Z</time>
      </trkpt>
      <trkpt lat="45.92193" lon="-0.64779">
        <ele>37.32</ele>
        <time>2025-05-07T15:01:21.248Z</time>
      </trkpt>
      <trkpt lat="45.92212" lon="-0.64809">
        <ele>36.83</ele>
        <time>2025-05-07T15:01:29.687Z</time>
      </trkpt>
      <trkpt lat="45.92231" lon="-0.64838">
        <ele>36.34</ele>
        <time>2025-05-07T15:01:38.130Z</time>
      </trkpt>
      <trkpt lat="45.9225" lon="-0.64867">
        <ele>35.84</ele>
        <time>2025-05-07T15:01:46.578Z</time>
      </trkpt>
      <trkpt lat="45.92268" lon="-0.64897">
        <ele>35.31</ele>
        <time>2025-05-07T15:01:55.030Z</time>
      </trkpt>
      <trkpt lat="45.92287" lon="-0.64926">
        <ele>34.78</ele>
        <time>2025-05-07T15:02:03.487Z</time>
      </trkpt>
      <trkpt lat="45.92295" lon="-0.64946">
        <ele>34.24</ele>
        <time>2025-05-07T15:02:11.946Z</time>
      </trkpt>
      <trkpt lat="45.92303" lon="-0.64965">
        <ele>33.73</ele>
        <time>2025-05-07T15:02:20.408Z</time>
      </trkpt>
      <trkpt lat="45.92313" lon="-0.65">
        <ele>33.18</ele>
        <time>2025-05-07T15:02:28.874Z</time>
      </trkpt>
      <trkpt lat="45.92324" lon="-0.65034">
        <ele>32.72</ele>
        <time>2025-05-07T15:02:37.344Z</time>
      </trkpt>
      <trkpt lat="45.92334" lon="-0.65069">
        <ele>32.26</ele>
        <time>2025-05-07T15:02:45.818Z</time>
      </trkpt>
      <trkpt lat="45.9235" lon="-0.65105">
        <ele>31.78</ele>
        <time>2025-05-07T15:02:54.297Z</time>
      </trkpt>
      <trkpt lat="45.92365" lon="-0.65124">
        <ele>31.32</ele>
        <time>2025-05-07T15:03:02.779Z</time>
      </trkpt>
      <trkpt lat="45.92377" lon="-0.65139">
        <ele>30.89</ele>
        <time>2025-05-07T15:03:11.264Z</time>
      </trkpt>
      <trkpt lat="45.92402" lon="-0.65162">
        <ele>30.53</ele>
        <time>2025-05-07T15:03:19.753Z</time>
      </trkpt>
      <trkpt lat="45.92426" lon="-0.65186">
        <ele>30.23</ele>
        <time>2025-05-07T15:03:28.247Z</time>
      </trkpt>
      <trkpt lat="45.92449" lon="-0.65212">
        <ele>30.02</ele>
        <time>2025-05-07T15:03:36.746Z</time>
      </trkpt>
      <trkpt lat="45.92471" lon="-0.65238">
        <ele>29.9</ele>
        <time>2025-05-07T15:03:45.249Z</time>
      </trkpt>
      <trkpt lat="45.92493" lon="-0.65265">
        <ele>29.78</ele>
        <time>2025-05-07T15:03:53.757Z</time>
      </trkpt>
      <trkpt lat="45.92515" lon="-0.65293">
        <ele>29.66</ele>
        <time>2025-05-07T15:04:02.270Z</time>
      </trkpt>
      <trkpt lat="45.92536" lon="-0.6532">
        <ele>29.63</ele>
        <time>2025-05-07T15:04:10.787Z</time>
      </trkpt>
      <trkpt lat="45.92558" lon="-0.65347">
        <ele>29.6</ele>
        <time>2025-05-07T15:04:19.309Z</time>
      </trkpt>
      <trkpt lat="45.92577" lon="-0.65373">
        <ele>29.62</ele>
        <time>2025-05-07T15:04:27.835Z</time>
      </trkpt>
      <trkpt lat="45.92596" lon="-0.654">
        <ele>29.64</ele>
        <time>2025-05-07T15:04:36.365Z</time>
      </trkpt>
      <trkpt lat="45.92615" lon="-0.65426">
        <ele>29.67</ele>
        <time>2025-05-07T15:04:44.900Z</time>
      </trkpt>
      <trkpt lat="45.92634" lon="-0.65452">
        <ele>29.88</ele>
        <time>2025-05-07T15:04:53.439Z</time>
      </trkpt>
      <trkpt lat="45.92654" lon="-0.65479">
        <ele>30.08</ele>
        <time>2025-05-07T15:05:01.982Z</time>
      </trkpt>
      <trkpt lat="45.92673" lon="-0.65505">
        <ele>30.33</ele>
        <time>2025-05-07T15:05:10.529Z</time>
      </trkpt>
      <trkpt lat="45.92692" lon="-0.65531">
        <ele>30.65</ele>
        <time>2025-05-07T15:05:19.081Z</time>
      </trkpt>
      <trkpt lat="45.9271" lon="-0.65555">
        <ele>30.96</ele>
        <time>2025-05-07T15:05:27.636Z</time>
      </trkpt>
      <trkpt lat="45.92727" lon="-0.65578">
        <ele>31.3</ele>
        <time>2025-05-07T15:05:36.195Z</time>
      </trkpt>
      <trkpt lat="45.92747" lon="-0.65602">
        <ele>31.61</ele>
        <time>2025-05-07T15:05:44.758Z</time>
      </trkpt>
      <trkpt lat="45.92771" lon="-0.65622">
        <ele>31.97</ele>
        <time>2025-05-07T15:05:53.326Z</time>
      </trkpt>
      <trkpt lat="45.92795" lon="-0.65642">
        <ele>32.31</ele>
        <time>2025-05-07T15:06:01.898Z</time>
      </trkpt>
      <trkpt lat="45.92819" lon="-0.65661">
        <ele>32.7</ele>
        <time>2025-05-07T15:06:10.475Z</time>
      </trkpt>
      <trkpt lat="45.92825" lon="-0.65664">
        <ele>33.11</ele>
        <time>2025-05-07T15:06:19.053Z</time>
      </trkpt>
      <trkpt lat="45.92833" lon="-0.65663">
        <ele>33.54</ele>
        <time>2025-05-07T15:06:27.632Z</time>
      </trkpt>
      <trkpt lat="45.92837" lon="-0.65661">
        <ele>33.96</ele>
        <time>2025-05-07T15:06:36.212Z</time>
      </trkpt>
      <trkpt lat="45.92844" lon="-0.65686">
        <ele>34.37</ele>
        <time>2025-05-07T15:06:44.795Z</time>
      </trkpt>
      <trkpt lat="45.92853" lon="-0.65713">
        <ele>34.84</ele>
        <time>2025-05-07T15:06:53.381Z</time>
      </trkpt>
      <trkpt lat="45.92869" lon="-0.65747">
        <ele>35.3</ele>
        <time>2025-05-07T15:07:01.972Z</time>
      </trkpt>
      <trkpt lat="45.92885" lon="-0.65781">
        <ele>35.69</ele>
        <time>2025-05-07T15:07:10.567Z</time>
      </trkpt>
      <trkpt lat="45.92896" lon="-0.65806">
        <ele>36.12</ele>
        <time>2025-05-07T15:07:19.166Z</time>
      </trkpt>
      <trkpt lat="45.92908" lon="-0.65832">
        <ele>36.52</ele>
        <time>2025-05-07T15:07:27.768Z</time>
      </trkpt>
      <trkpt lat="45.92919" lon="-0.65857">
        <ele>36.95</ele>
        <time>2025-05-07T15:07:36.373Z</time>
      </trkpt>
      <trkpt lat="45.92925" lon="-0.65869">
        <ele>37.32</ele>
        <time>2025-05-07T15:07:44.980Z</time>
      </trkpt>
      <trkpt lat="45.92931" lon="-0.6588">
        <ele>37.67</ele>
        <time>2025-05-07T15:07:53.589Z</time>
      </trkpt>
      <trkpt lat="45.92942" lon="-0.65902">
        <ele>38.01</ele>
        <time>2025-05-07T15:08:02.201Z</time>
      </trkpt>
      <trkpt lat="45.92957" lon="-0.65936">
        <ele>38.36</ele>
        <time>2025-05-07T15:08:10.817Z</time>
      </trkpt>
      <trkpt lat="45.92972" lon="-0.6597">
        <ele>38.64</ele>
        <time>2025-05-07T15:08:19.438Z</time>
      </trkpt>
      <trkpt lat="45.92988" lon="-0.66004">
        <ele>38.91</ele>
        <time>2025-05-07T15:08:28.063Z</time>
      </trkpt>
      <trkpt lat="45.93003" lon="-0.66038">
        <ele>39.15</ele>
        <time>2025-05-07T15:08:36.693Z</time>
      </trkpt>
      <trkpt lat="45.93018" lon="-0.66072">
        <ele>39.31</ele>
        <time>2025-05-07T15:08:45.327Z</time>
      </trkpt>
      <trkpt lat="45.93034" lon="-0.66107">
        <ele>39.36</ele>
        <time>2025-05-07T15:08:53.966Z</time>
      </trkpt>
      <trkpt lat="45.9305" lon="-0.66142">
        <ele>39.4</ele>
        <time>2025-05-07T15:09:02.609Z</time>
      </trkpt>
      <trkpt lat="45.93066" lon="-0.66176">
        <ele>39.47</ele>
        <time>2025-05-07T15:09:11.257Z</time>
      </trkpt>
      <trkpt lat="45.93082" lon="-0.66211">
        <ele>39.44</ele>
        <time>2025-05-07T15:09:19.910Z</time>
      </trkpt>
      <trkpt lat="45.93098" lon="-0.66241">
        <ele>39.29</ele>
        <time>2025-05-07T15:09:28.567Z</time>
      </trkpt>
      <trkpt lat="45.93104" lon="-0.66248">
        <ele>39.15</ele>
        <time>2025-05-07T15:09:37.225Z</time>
      </trkpt>
      <trkpt lat="45.93111" lon="-0.66258">
        <ele>38.96</ele>
        <time>2025-05-07T15:09:45.885Z</time>
      </trkpt>
      <trkpt lat="45.93118" lon="-0.66267">
        <ele>38.73</ele>
        <time>2025-05-07T15:09:54.546Z</time>
      </trkpt>
      <trkpt lat="45.93139" lon="-0.66289">
        <ele>38.45</ele>
        <time>2025-05-07T15:10:03.211Z</time>
      </trkpt>
      <trkpt lat="45.93159" lon="-0.66311">
        <ele>38.12</ele>
        <time>2025-05-07T15:10:11.880Z</time>
      </trkpt>
      <trkpt lat="45.93162" lon="-0.6633">
        <ele>37.74</ele>
        <time>2025-05-07T15:10:20.552Z</time>
      </trkpt>
      <trkpt lat="45.9316" lon="-0.66368">
        <ele>37.27</ele>
        <time>2025-05-07T15:10:29.228Z</time>
      </trkpt>
      <trkpt lat="45.93156" lon="-0.66387">
        <ele>36.77</ele>
        <time>2025-05-07T15:10:37.906Z</time>
      </trkpt>
      <trkpt lat="45.93148" lon="-0.66407">
        <ele>36.24</ele>
        <time>2025-05-07T15:10:46.587Z</time>
      </trkpt>
      <trkpt lat="45.93146" lon="-0.66413">
        <ele>35.68</ele>
        <time>2025-05-07T15:10:55.268Z</time>
      </trkpt>
      <trkpt lat="45.93147" lon="-0.66417">
        <ele>35.08</ele>
        <time>2025-05-07T15:11:03.950Z</time>
      </trkpt>
      <trkpt lat="45.93149" lon="-0.66426">
        <ele>34.43</ele>
        <time>2025-05-07T15:11:12.633Z</time>
      </trkpt>
      <trkpt lat="45.93158" lon="-0.66445">
        <ele>33.73</ele>
        <time>2025-05-07T15:11:21.318Z</time>
      </trkpt>
      <trkpt lat="45.93166" lon="-0.66464">
        <ele>33</ele>
        <time>2025-05-07T15:11:30.006Z</time>
      </trkpt>
      <trkpt lat="45.93177" lon="-0.66489">
        <ele>32.25</ele>
        <time>2025-05-07T15:11:38.697Z</time>
      </trkpt>
      <trkpt lat="45.93188" lon="-0.66514">
        <ele>31.42</ele>
        <time>2025-05-07T15:11:47.392Z</time>
      </trkpt>
      <trkpt lat="45.93191" lon="-0.66524">
        <ele>30.6</ele>
        <time>2025-05-07T15:11:56.088Z</time>
      </trkpt>
      <trkpt lat="45.93193" lon="-0.66531">
        <ele>29.81</ele>
        <time>2025-05-07T15:12:04.785Z</time>
      </trkpt>
      <trkpt lat="45.93204" lon="-0.66569">
        <ele>28.88</ele>
        <time>2025-05-07T15:12:13.486Z</time>
      </trkpt>
      <trkpt lat="45.93215" lon="-0.66607">
        <ele>27.97</ele>
        <time>2025-05-07T15:12:22.192Z</time>
      </trkpt>
      <trkpt lat="45.93217" lon="-0.66613">
        <ele>27.14</ele>
        <time>2025-05-07T15:12:30.899Z</time>
      </trkpt>
      <trkpt lat="45.93219" lon="-0.66621">
        <ele>26.3</ele>
        <time>2025-05-07T15:12:39.607Z</time>
      </trkpt>
      <trkpt lat="45.93229" lon="-0.66657">
        <ele>25.43</ele>
        <time>2025-05-07T15:12:48.319Z</time>
      </trkpt>
      <trkpt lat="45.93238" lon="-0.66694">
        <ele>24.55</ele>
        <time>2025-05-07T15:12:57.035Z</time>
      </trkpt>
      <trkpt lat="45.93248" lon="-0.6673">
        <ele>23.7</ele>
        <time>2025-05-07T15:13:05.756Z</time>
      </trkpt>
      <trkpt lat="45.93257" lon="-0.66766">
        <ele>22.86</ele>
        <time>2025-05-07T15:13:14.481Z</time>
      </trkpt>
      <trkpt lat="45.93267" lon="-0.66802">
        <ele>22.06</ele>
        <time>2025-05-07T15:13:23.210Z</time>
      </trkpt>
      <trkpt lat="45.93278" lon="-0.66843">
        <ele>21.3</ele>
        <time>2025-05-07T15:13:31.944Z</time>
      </trkpt>
      <trkpt lat="45.93289" lon="-0.66884">
        <ele>20.55</ele>
        <time>2025-05-07T15:13:40.683Z</time>
      </trkpt>
      <trkpt lat="45.933" lon="-0.66924">
        <ele>19.91</ele>
        <time>2025-05-07T15:13:49.427Z</time>
      </trkpt>
      <trkpt lat="45.93311" lon="-0.66965">
        <ele>19.31</ele>
        <time>2025-05-07T15:13:58.176Z</time>
      </trkpt>
      <trkpt lat="45.93322" lon="-0.67006">
        <ele>18.68</ele>
        <time>2025-05-07T15:14:06.930Z</time>
      </trkpt>
      <trkpt lat="45.93333" lon="-0.67047">
        <ele>18.18</ele>
        <time>2025-05-07T15:14:15.688Z</time>
      </trkpt>
      <trkpt lat="45.93344" lon="-0.67088">
        <ele>17.73</ele>
        <time>2025-05-07T15:14:24.451Z</time>
      </trkpt>
      <trkpt lat="45.93354" lon="-0.67129">
        <ele>17.31</ele>
        <time>2025-05-07T15:14:33.219Z</time>
      </trkpt>
      <trkpt lat="45.93365" lon="-0.67169">
        <ele>16.93</ele>
        <time>2025-05-07T15:14:41.992Z</time>
      </trkpt>
      <trkpt lat="45.93376" lon="-0.6721">
        <ele>16.64</ele>
        <time>2025-05-07T15:14:50.770Z</time>
      </trkpt>
      <trkpt lat="45.93387" lon="-0.6725">
        <ele>16.33</ele>
        <time>2025-05-07T15:14:59.553Z</time>
      </trkpt>
      <trkpt lat="45.93395" lon="-0.67279">
        <ele>16.09</ele>
        <time>2025-05-07T15:15:08.339Z</time>
      </trkpt>
      <trkpt lat="45.93402" lon="-0.67307">
        <ele>15.91</ele>
        <time>2025-05-07T15:15:17.129Z</time>
      </trkpt>
      <trkpt lat="45.93413" lon="-0.67346">
        <ele>15.82</ele>
        <time>2025-05-07T15:15:25.923Z</time>
      </trkpt>
      <trkpt lat="45.93423" lon="-0.67384">
        <ele>15.7</ele>
        <time>2025-05-07T15:15:34.722Z</time>
      </trkpt>
      <trkpt lat="45.93434" lon="-0.67423">
        <ele>15.67</ele>
        <time>2025-05-07T15:15:43.525Z</time>
      </trkpt>
      <trkpt lat="45.93444" lon="-0.67461">
        <ele>15.73</ele>
        <time>2025-05-07T15:15:52.333Z</time>
      </trkpt>
      <trkpt lat="45.93452" lon="-0.67486">
        <ele>15.76</ele>
        <time>2025-05-07T15:16:01.144Z</time>
      </trkpt>
      <trkpt lat="45.93455" lon="-0.67495">
        <ele>15.82</ele>
        <time>2025-05-07T15:16:09.956Z</time>
      </trkpt>
      <trkpt lat="45.93463" lon="-0.67516">
        <ele>15.92</ele>
        <time>2025-05-07T15:16:18.771Z</time>
      </trkpt>
      <trkpt lat="45.93478" lon="-0.67548">
        <ele>16.02</ele>
        <time>2025-05-07T15:16:27.590Z</time>
      </trkpt>
      <trkpt lat="45.93488" lon="-0.67568">
        <ele>16.14</ele>
        <time>2025-05-07T15:16:36.412Z</time>
      </trkpt>
      <trkpt lat="45.93498" lon="-0.67588">
        <ele>16.28</ele>
        <time>2025-05-07T15:16:45.237Z</time>
      </trkpt>
      <trkpt lat="45.9351" lon="-0.67607">
        <ele>16.49</ele>
        <time>2025-05-07T15:16:54.064Z</time>
      </trkpt>
      <trkpt lat="45.93522" lon="-0.67625">
        <ele>16.75</ele>
        <time>2025-05-07T15:17:02.894Z</time>
      </trkpt>
      <trkpt lat="45.93543" lon="-0.6765">
        <ele>17.07</ele>
        <time>2025-05-07T15:17:11.729Z</time>
      </trkpt>
      <trkpt lat="45.93563" lon="-0.67674">
        <ele>17.39</ele>
        <time>2025-05-07T15:17:20.568Z</time>
      </trkpt>
      <trkpt lat="45.93584" lon="-0.67699">
        <ele>17.73</ele>
        <time>2025-05-07T15:17:29.411Z</time>
      </trkpt>
      <trkpt lat="45.93598" lon="-0.67715">
        <ele>18.22</ele>
        <time>2025-05-07T15:17:38.257Z</time>
      </trkpt>
      <trkpt lat="45.93611" lon="-0.67731">
        <ele>18.74</ele>
        <time>2025-05-07T15:17:47.106Z</time>
      </trkpt>
      <trkpt lat="45.936" lon="-0.67772">
        <ele>19.43</ele>
        <time>2025-05-07T15:17:55.960Z</time>
      </trkpt>
      <trkpt lat="45.9359" lon="-0.67813">
        <ele>20.27</ele>
        <time>2025-05-07T15:18:04.819Z</time>
      </trkpt>
      <trkpt lat="45.93579" lon="-0.67854">
        <ele>21.08</ele>
        <time>2025-05-07T15:18:13.682Z</time>
      </trkpt>
      <trkpt lat="45.93569" lon="-0.67895">
        <ele>21.9</ele>
        <time>2025-05-07T15:18:22.550Z</time>
      </trkpt>
      <trkpt lat="45.93564" lon="-0.67923">
        <ele>22.75</ele>
        <time>2025-05-07T15:18:31.422Z</time>
      </trkpt>
      <trkpt lat="45.93559" lon="-0.67959">
        <ele>23.61</ele>
        <time>2025-05-07T15:18:40.298Z</time>
      </trkpt>
      <trkpt lat="45.93555" lon="-0.67998">
        <ele>24.56</ele>
        <time>2025-05-07T15:18:49.178Z</time>
      </trkpt>
      <trkpt lat="45.9355" lon="-0.68037">
        <ele>25.55</ele>
        <time>2025-05-07T15:18:58.062Z</time>
      </trkpt>
      <trkpt lat="45.93546" lon="-0.68076">
        <ele>26.49</ele>
        <time>2025-05-07T15:19:06.951Z</time>
      </trkpt>
      <trkpt lat="45.93543" lon="-0.68094">
        <ele>27.43</ele>
        <time>2025-05-07T15:19:15.842Z</time>
      </trkpt>
      <trkpt lat="45.93538" lon="-0.68111">
        <ele>28.37</ele>
        <time>2025-05-07T15:19:24.735Z</time>
      </trkpt>
      <trkpt lat="45.93525" lon="-0.68143">
        <ele>29.37</ele>
        <time>2025-05-07T15:19:33.632Z</time>
      </trkpt>
      <trkpt lat="45.93508" lon="-0.68175">
        <ele>30.43</ele>
        <time>2025-05-07T15:19:42.534Z</time>
      </trkpt>
      <trkpt lat="45.93496" lon="-0.682">
        <ele>31.43</ele>
        <time>2025-05-07T15:19:51.439Z</time>
      </trkpt>
      <trkpt lat="45.93483" lon="-0.68224">
        <ele>32.41</ele>
        <time>2025-05-07T15:20:00.347Z</time>
      </trkpt>
      <trkpt lat="45.93471" lon="-0.68249">
        <ele>33.3</ele>
        <time>2025-05-07T15:20:09.259Z</time>
      </trkpt>
      <trkpt lat="45.93454" lon="-0.68286">
        <ele>34.21</ele>
        <time>2025-05-07T15:20:18.176Z</time>
      </trkpt>
      <trkpt lat="45.93447" lon="-0.683">
        <ele>35.09</ele>
        <time>2025-05-07T15:20:27.095Z</time>
      </trkpt>
      <trkpt lat="45.93437" lon="-0.68314">
        <ele>35.92</ele>
        <time>2025-05-07T15:20:36.016Z</time>
      </trkpt>
      <trkpt lat="45.93426" lon="-0.68325">
        <ele>36.67</ele>
        <time>2025-05-07T15:20:44.939Z</time>
      </trkpt>
      <trkpt lat="45.9341" lon="-0.6833">
        <ele>37.38</ele>
        <time>2025-05-07T15:20:53.865Z</time>
      </trkpt>
      <trkpt lat="45.93382" lon="-0.68335">
        <ele>38.08</ele>
        <time>2025-05-07T15:21:02.795Z</time>
      </trkpt>
      <trkpt lat="45.93354" lon="-0.6834">
        <ele>38.64</ele>
        <time>2025-05-07T15:21:11.730Z</time>
      </trkpt>
      <trkpt lat="45.93325" lon="-0.68344">
        <ele>39.13</ele>
        <time>2025-05-07T15:21:20.669Z</time>
      </trkpt>
      <trkpt lat="45.93297" lon="-0.68349">
        <ele>39.6</ele>
        <time>2025-05-07T15:21:29.613Z</time>
      </trkpt>
      <trkpt lat="45.93269" lon="-0.68354">
        <ele>40.06</ele>
        <time>2025-05-07T15:21:38.561Z</time>
      </trkpt>
      <trkpt lat="45.93242" lon="-0.68364">
        <ele>40.42</ele>
        <time>2025-05-07T15:21:47.514Z</time>
      </trkpt>
      <trkpt lat="45.93226" lon="-0.68375">
        <ele>40.76</ele>
        <time>2025-05-07T15:21:56.470Z</time>
      </trkpt>
      <trkpt lat="45.93211" lon="-0.68387">
        <ele>41.05</ele>
        <time>2025-05-07T15:22:05.428Z</time>
      </trkpt>
      <trkpt lat="45.93188" lon="-0.68406">
        <ele>41.29</ele>
        <time>2025-05-07T15:22:14.391Z</time>
      </trkpt>
      <trkpt lat="45.93166" lon="-0.68425">
        <ele>41.49</ele>
        <time>2025-05-07T15:22:23.358Z</time>
      </trkpt>
      <trkpt lat="45.93143" lon="-0.68443">
        <ele>41.63</ele>
        <time>2025-05-07T15:22:32.329Z</time>
      </trkpt>
      <trkpt lat="45.93121" lon="-0.68462">
        <ele>41.77</ele>
        <time>2025-05-07T15:22:41.304Z</time>
      </trkpt>
      <trkpt lat="45.93112" lon="-0.68468">
        <ele>41.88</ele>
        <time>2025-05-07T15:22:50.281Z</time>
      </trkpt>
      <trkpt lat="45.9309" lon="-0.68484">
        <ele>41.96</ele>
        <time>2025-05-07T15:22:59.262Z</time>
      </trkpt>
      <trkpt lat="45.93063" lon="-0.685">
        <ele>41.96</ele>
        <time>2025-05-07T15:23:08.247Z</time>
      </trkpt>
      <trkpt lat="45.93037" lon="-0.68515">
        <ele>41.89</ele>
        <time>2025-05-07T15:23:17.237Z</time>
      </trkpt>
      <trkpt lat="45.9301" lon="-0.68531">
        <ele>41.76</ele>
        <time>2025-05-07T15:23:26.231Z</time>
      </trkpt>
      <trkpt lat="45.92982" lon="-0.68549">
        <ele>41.6</ele>
        <time>2025-05-07T15:23:35.230Z</time>
      </trkpt>
      <trkpt lat="45.92955" lon="-0.68568">
        <ele>41.41</ele>
        <time>2025-05-07T15:23:44.234Z</time>
      </trkpt>
      <trkpt lat="45.92934" lon="-0.68584">
        <ele>41.23</ele>
        <time>2025-05-07T15:23:53.242Z</time>
      </trkpt>
      <trkpt lat="45.92914" lon="-0.68615">
        <ele>41.11</ele>
        <time>2025-05-07T15:24:02.255Z</time>
      </trkpt>
      <trkpt lat="45.92907" lon="-0.68638">
        <ele>40.94</ele>
        <time>2025-05-07T15:24:11.270Z</time>
      </trkpt>
      <trkpt lat="45.92901" lon="-0.6866">
        <ele>40.7</ele>
        <time>2025-05-07T15:24:20.288Z</time>
      </trkpt>
      <trkpt lat="45.92899" lon="-0.68685">
        <ele>40.42</ele>
        <time>2025-05-07T15:24:29.309Z</time>
      </trkpt>
      <trkpt lat="45.92897" lon="-0.68709">
        <ele>40.09</ele>
        <time>2025-05-07T15:24:38.333Z</time>
      </trkpt>
      <trkpt lat="45.92898" lon="-0.68746">
        <ele>39.68</ele>
        <time>2025-05-07T15:24:47.361Z</time>
      </trkpt>
      <trkpt lat="45.929" lon="-0.68783">
        <ele>39.19</ele>
        <time>2025-05-07T15:24:56.393Z</time>
      </trkpt>
      <trkpt lat="45.92901" lon="-0.68819">
        <ele>38.69</ele>
        <time>2025-05-07T15:25:05.429Z</time>
      </trkpt>
      <trkpt lat="45.92902" lon="-0.68862">
        <ele>38.16</ele>
        <time>2025-05-07T15:25:14.470Z</time>
      </trkpt>
      <trkpt lat="45.92903" lon="-0.68904">
        <ele>37.59</ele>
        <time>2025-05-07T15:25:23.516Z</time>
      </trkpt>
      <trkpt lat="45.92904" lon="-0.68947">
        <ele>37</ele>
        <time>2025-05-07T15:25:32.566Z</time>
      </trkpt>
      <trkpt lat="45.92905" lon="-0.68989">
        <ele>36.42</ele>
        <time>2025-05-07T15:25:41.621Z</time>
      </trkpt>
      <trkpt lat="45.92906" lon="-0.69032">
        <ele>35.83</ele>
        <time>2025-05-07T15:25:50.681Z</time>
      </trkpt>
      <trkpt lat="45.92907" lon="-0.69074">
        <ele>35.17</ele>
        <time>2025-05-07T15:25:59.746Z</time>
      </trkpt>
      <trkpt lat="45.92908" lon="-0.69116">
        <ele>34.52</ele>
        <time>2025-05-07T15:26:08.815Z</time>
      </trkpt>
      <trkpt lat="45.92909" lon="-0.6915">
        <ele>33.87</ele>
        <time>2025-05-07T15:26:17.888Z</time>
      </trkpt>
      <trkpt lat="45.92911" lon="-0.69184">
        <ele>33.2</ele>
        <time>2025-05-07T15:26:26.965Z</time>
      </trkpt>
      <trkpt lat="45.92912" lon="-0.69226">
        <ele>32.52</ele>
        <time>2025-05-07T15:26:36.047Z</time>
      </trkpt>
      <trkpt lat="45.92913" lon="-0.69268">
        <ele>31.82</ele>
        <time>2025-05-07T15:26:45.133Z</time>
      </trkpt>
      <trkpt lat="45.92914" lon="-0.6931">
        <ele>31.12</ele>
        <time>2025-05-07T15:26:54.224Z</time>
      </trkpt>
      <trkpt lat="45.92915" lon="-0.69352">
        <ele>30.39</ele>
        <time>2025-05-07T15:27:03.320Z</time>
      </trkpt>
      <trkpt lat="45.92917" lon="-0.69386">
        <ele>29.61</ele>
        <time>2025-05-07T15:27:12.419Z</time>
      </trkpt>
      <trkpt lat="45.92923" lon="-0.69412">
        <ele>28.86</ele>
        <time>2025-05-07T15:27:21.521Z</time>
      </trkpt>
      <trkpt lat="45.92929" lon="-0.69438">
        <ele>28.11</ele>
        <time>2025-05-07T15:27:30.627Z</time>
      </trkpt>
      <trkpt lat="45.92937" lon="-0.69464">
        <ele>27.38</ele>
        <time>2025-05-07T15:27:39.736Z</time>
      </trkpt>
      <trkpt lat="45.92944" lon="-0.69489">
        <ele>26.66</ele>
        <time>2025-05-07T15:27:48.848Z</time>
      </trkpt>
      <trkpt lat="45.92958" lon="-0.69518">
        <ele>25.95</ele>
        <time>2025-05-07T15:27:57.964Z</time>
      </trkpt>
      <trkpt lat="45.92971" lon="-0.69546">
        <ele>25.29</ele>
        <time>2025-05-07T15:28:07.083Z</time>
      </trkpt>
      <trkpt lat="45.9299" lon="-0.6958">
        <ele>24.62</ele>
        <time>2025-05-07T15:28:16.207Z</time>
      </trkpt>
      <trkpt lat="45.92994" lon="-0.69587">
        <ele>24.02</ele>
        <time>2025-05-07T15:28:25.332Z</time>
      </trkpt>
      <trkpt lat="45.93011" lon="-0.69618">
        <ele>23.44</ele>
        <time>2025-05-07T15:28:34.462Z</time>
      </trkpt>
      <trkpt lat="45.93027" lon="-0.69649">
        <ele>22.88</ele>
        <time>2025-05-07T15:28:43.596Z</time>
      </trkpt>
      <trkpt lat="45.93027" lon="-0.6965">
        <ele>22.39</ele>
        <time>2025-05-07T15:28:52.730Z</time>
      </trkpt>
      <trkpt lat="45.93027" lon="-0.6965">
        <ele>21.95</ele>
        <time>2025-05-07T15:29:01.864Z</time>
      </trkpt>
      <trkpt lat="45.93044" lon="-0.69681">
        <ele>21.55</ele>
        <time>2025-05-07T15:29:11.002Z</time>
      </trkpt>
      <trkpt lat="45.9306" lon="-0.69712">
        <ele>21.18</ele>
        <time>2025-05-07T15:29:20.145Z</time>
      </trkpt>
      <trkpt lat="45.93074" lon="-0.6974">
        <ele>20.89</ele>
        <time>2025-05-07T15:29:29.292Z</time>
      </trkpt>
      <trkpt lat="45.93088" lon="-0.69767">
        <ele>20.61</ele>
        <time>2025-05-07T15:29:38.442Z</time>
      </trkpt>
      <trkpt lat="45.93095" lon="-0.6979">
        <ele>20.4</ele>
        <time>2025-05-07T15:29:47.595Z</time>
      </trkpt>
      <trkpt lat="45.93097" lon="-0.69815">
        <ele>20.15</ele>
        <time>2025-05-07T15:29:56.751Z</time>
      </trkpt>
      <trkpt lat="45.93094" lon="-0.69859">
        <ele>19.93</ele>
        <time>2025-05-07T15:30:05.912Z</time>
      </trkpt>
      <trkpt lat="45.9309" lon="-0.69898">
        <ele>19.8</ele>
        <time>2025-05-07T15:30:15.077Z</time>
      </trkpt>
      <trkpt lat="45.93087" lon="-0.69937">
        <ele>19.82</ele>
        <time>2025-05-07T15:30:24.247Z</time>
      </trkpt>
      <trkpt lat="45.93083" lon="-0.69975">
        <ele>19.85</ele>
        <time>2025-05-07T15:30:33.421Z</time>
      </trkpt>
      <trkpt lat="45.93076" lon="-0.70018">
        <ele>20</ele>
        <time>2025-05-07T15:30:42.600Z</time>
      </trkpt>
      <trkpt lat="45.93068" lon="-0.70061">
        <ele>20.16</ele>
        <time>2025-05-07T15:30:51.784Z</time>
      </trkpt>
      <trkpt lat="45.93061" lon="-0.70104">
        <ele>20.36</ele>
        <time>2025-05-07T15:31:00.973Z</time>
      </trkpt>
      <trkpt lat="45.93054" lon="-0.70146">
        <ele>20.56</ele>
        <time>2025-05-07T15:31:10.167Z</time>
      </trkpt>
      <trkpt lat="45.93052" lon="-0.70174">
        <ele>20.83</ele>
        <time>2025-05-07T15:31:19.364Z</time>
      </trkpt>
      <trkpt lat="45.93053" lon="-0.70185">
        <ele>21.12</ele>
        <time>2025-05-07T15:31:28.562Z</time>
      </trkpt>
      <trkpt lat="45.93056" lon="-0.70195">
        <ele>21.42</ele>
        <time>2025-05-07T15:31:37.761Z</time>
      </trkpt>
      <trkpt lat="45.93062" lon="-0.70211">
        <ele>21.76</ele>
        <time>2025-05-07T15:31:46.962Z</time>
      </trkpt>
      <trkpt lat="45.93077" lon="-0.7024">
        <ele>22.11</ele>
        <time>2025-05-07T15:31:56.167Z</time>
      </trkpt>
      <trkpt lat="45.93093" lon="-0.70277">
        <ele>22.52</ele>
        <time>2025-05-07T15:32:05.377Z</time>
      </trkpt>
      <trkpt lat="45.93102" lon="-0.70305">
        <ele>22.91</ele>
        <time>2025-05-07T15:32:14.591Z</time>
      </trkpt>
      <trkpt lat="45.93107" lon="-0.70321">
        <ele>23.3</ele>
        <time>2025-05-07T15:32:23.807Z</time>
      </trkpt>
      <trkpt lat="45.93113" lon="-0.70362">
        <ele>23.72</ele>
        <time>2025-05-07T15:32:33.027Z</time>
      </trkpt>
      <trkpt lat="45.93118" lon="-0.70403">
        <ele>24.14</ele>
        <time>2025-05-07T15:32:42.252Z</time>
      </trkpt>
      <trkpt lat="45.93123" lon="-0.7043">
        <ele>24.54</ele>
        <time>2025-05-07T15:32:51.480Z</time>
      </trkpt>
      <trkpt lat="45.93128" lon="-0.70457">
        <ele>24.9</ele>
        <time>2025-05-07T15:33:00.711Z</time>
      </trkpt>
      <trkpt lat="45.93133" lon="-0.70491">
        <ele>25.26</ele>
        <time>2025-05-07T15:33:09.946Z</time>
      </trkpt>
      <trkpt lat="45.93134" lon="-0.7052">
        <ele>25.55</ele>
        <time>2025-05-07T15:33:19.184Z</time>
      </trkpt>
      <trkpt lat="45.93133" lon="-0.70558">
        <ele>25.82</ele>
        <time>2025-05-07T15:33:28.427Z</time>
      </trkpt>
      <trkpt lat="45.93129" lon="-0.70556">
        <ele>26.07</ele>
        <time>2025-05-07T15:33:37.670Z</time>
      </trkpt>
      <trkpt lat="45.9312" lon="-0.70557">
        <ele>26.29</ele>
        <time>2025-05-07T15:33:46.915Z</time>
      </trkpt>
      <trkpt lat="45.93115" lon="-0.70559">
        <ele>26.47</ele>
        <time>2025-05-07T15:33:56.160Z</time>
      </trkpt>
      <trkpt lat="45.93096" lon="-0.70568">
        <ele>26.62</ele>
        <time>2025-05-07T15:34:05.409Z</time>
      </trkpt>
      <trkpt lat="45.93076" lon="-0.70578">
        <ele>26.73</ele>
        <time>2025-05-07T15:34:14.661Z</time>
      </trkpt>
      <trkpt lat="45.93059" lon="-0.70586">
        <ele>26.81</ele>
        <time>2025-05-07T15:34:23.916Z</time>
      </trkpt>
      <trkpt lat="45.93039" lon="-0.70597">
        <ele>26.86</ele>
        <time>2025-05-07T15:34:33.174Z</time>
      </trkpt>
      <trkpt lat="45.93018" lon="-0.70608">
        <ele>26.85</ele>
        <time>2025-05-07T15:34:42.436Z</time>
      </trkpt>
      <trkpt lat="45.92997" lon="-0.70624">
        <ele>26.76</ele>
        <time>2025-05-07T15:34:51.702Z</time>
      </trkpt>
      <trkpt lat="45.92977" lon="-0.70641">
        <ele>26.63</ele>
        <time>2025-05-07T15:35:00.971Z</time>
      </trkpt>
      <trkpt lat="45.92967" lon="-0.70648">
        <ele>26.48</ele>
        <time>2025-05-07T15:35:10.242Z</time>
      </trkpt>
      <trkpt lat="45.9296" lon="-0.70654">
        <ele>26.28</ele>
        <time>2025-05-07T15:35:19.515Z</time>
      </trkpt>
      <trkpt lat="45.92961" lon="-0.70659">
        <ele>26.03</ele>
        <time>2025-05-07T15:35:28.788Z</time>
      </trkpt>
      <trkpt lat="45.92955" lon="-0.70674">
        <ele>25.74</ele>
        <time>2025-05-07T15:35:38.063Z</time>
      </trkpt>
      <trkpt lat="45.92945" lon="-0.70708">
        <ele>25.35</ele>
        <time>2025-05-07T15:35:47.342Z</time>
      </trkpt>
      <trkpt lat="45.92935" lon="-0.70741">
        <ele>24.92</ele>
        <time>2025-05-07T15:35:56.625Z</time>
      </trkpt>
      <trkpt lat="45.92922" lon="-0.70778">
        <ele>24.49</ele>
        <time>2025-05-07T15:36:05.913Z</time>
      </trkpt>
      <trkpt lat="45.9291" lon="-0.70816">
        <ele>24.03</ele>
        <time>2025-05-07T15:36:15.205Z</time>
      </trkpt>
      <trkpt lat="45.92897" lon="-0.70853">
        <ele>23.53</ele>
        <time>2025-05-07T15:36:24.502Z</time>
      </trkpt>
      <trkpt lat="45.92885" lon="-0.70882">
        <ele>22.96</ele>
        <time>2025-05-07T15:36:33.803Z</time>
      </trkpt>
      <trkpt lat="45.92867" lon="-0.70917">
        <ele>22.37</ele>
        <time>2025-05-07T15:36:43.109Z</time>
      </trkpt>
      <trkpt lat="45.92849" lon="-0.70952">
        <ele>21.79</ele>
        <time>2025-05-07T15:36:52.420Z</time>
      </trkpt>
      <trkpt lat="45.9283" lon="-0.70988">
        <ele>21.24</ele>
        <time>2025-05-07T15:37:01.736Z</time>
      </trkpt>
      <trkpt lat="45.92812" lon="-0.71023">
        <ele>20.6</ele>
        <time>2025-05-07T15:37:11.056Z</time>
      </trkpt>
      <trkpt lat="45.92794" lon="-0.71058">
        <ele>19.92</ele>
        <time>2025-05-07T15:37:20.381Z</time>
      </trkpt>
      <trkpt lat="45.92776" lon="-0.71093">
        <ele>19.27</ele>
        <time>2025-05-07T15:37:29.711Z</time>
      </trkpt>
      <trkpt lat="45.92758" lon="-0.71128">
        <ele>18.58</ele>
        <time>2025-05-07T15:37:39.046Z</time>
      </trkpt>
      <trkpt lat="45.9274" lon="-0.71159">
        <ele>17.92</ele>
        <time>2025-05-07T15:37:48.386Z</time>
      </trkpt>
      <trkpt lat="45.92726" lon="-0.7118">
        <ele>17.26</ele>
        <time>2025-05-07T15:37:57.729Z</time>
      </trkpt>
      <trkpt lat="45.92713" lon="-0.71201">
        <ele>16.6</ele>
        <time>2025-05-07T15:38:07.075Z</time>
      </trkpt>
      <trkpt lat="45.92696" lon="-0.71226">
        <ele>15.9</ele>
        <time>2025-05-07T15:38:16.425Z</time>
      </trkpt>
      <trkpt lat="45.9268" lon="-0.7125">
        <ele>15.24</ele>
        <time>2025-05-07T15:38:25.779Z</time>
      </trkpt>
      <trkpt lat="45.92663" lon="-0.71275">
        <ele>14.57</ele>
        <time>2025-05-07T15:38:35.136Z</time>
      </trkpt>
      <trkpt lat="45.92645" lon="-0.71298">
        <ele>13.89</ele>
        <time>2025-05-07T15:38:44.497Z</time>
      </trkpt>
      <trkpt lat="45.92627" lon="-0.71321">
        <ele>13.21</ele>
        <time>2025-05-07T15:38:53.862Z</time>
      </trkpt>
      <trkpt lat="45.92609" lon="-0.71344">
        <ele>12.6</ele>
        <time>2025-05-07T15:39:03.231Z</time>
      </trkpt>
      <trkpt lat="45.92596" lon="-0.71369">
        <ele>12.01</ele>
        <time>2025-05-07T15:39:12.603Z</time>
      </trkpt>
      <trkpt lat="45.92587" lon="-0.71389">
        <ele>11.49</ele>
        <time>2025-05-07T15:39:21.978Z</time>
      </trkpt>
      <trkpt lat="45.92577" lon="-0.71421">
        <ele>10.99</ele>
        <time>2025-05-07T15:39:31.357Z</time>
      </trkpt>
      <trkpt lat="45.92566" lon="-0.71454">
        <ele>10.5</ele>
        <time>2025-05-07T15:39:40.740Z</time>
      </trkpt>
      <trkpt lat="45.92556" lon="-0.71486">
        <ele>10.07</ele>
        <time>2025-05-07T15:39:50.127Z</time>
      </trkpt>
      <trkpt lat="45.92549" lon="-0.71519">
        <ele>9.64</ele>
        <time>2025-05-07T15:39:59.518Z</time>
      </trkpt>
      <trkpt lat="45.92542" lon="-0.7156">
        <ele>9.27</ele>
        <time>2025-05-07T15:40:08.914Z</time>
      </trkpt>
      <trkpt lat="45.92538" lon="-0.71594">
        <ele>8.97</ele>
        <time>2025-05-07T15:40:18.313Z</time>
      </trkpt>
      <trkpt lat="45.92535" lon="-0.71628">
        <ele>8.69</ele>
        <time>2025-05-07T15:40:27.716Z</time>
      </trkpt>
      <trkpt lat="45.92532" lon="-0.71652">
        <ele>8.44</ele>
        <time>2025-05-07T15:40:37.122Z</time>
      </trkpt>
      <trkpt lat="45.92527" lon="-0.71666">
        <ele>8.26</ele>
        <time>2025-05-07T15:40:46.530Z</time>
      </trkpt>
      <trkpt lat="45.9252" lon="-0.71679">
        <ele>8.13</ele>
        <time>2025-05-07T15:40:55.940Z</time>
      </trkpt>
      <trkpt lat="45.92503" lon="-0.71697">
        <ele>8.02</ele>
        <time>2025-05-07T15:41:05.353Z</time>
      </trkpt>
      <trkpt lat="45.92482" lon="-0.71707">
        <ele>8.04</ele>
        <time>2025-05-07T15:41:14.770Z</time>
      </trkpt>
      <trkpt lat="45.92462" lon="-0.71718">
        <ele>8.16</ele>
        <time>2025-05-07T15:41:24.190Z</time>
      </trkpt>
      <trkpt lat="45.92441" lon="-0.71728">
        <ele>8.32</ele>
        <time>2025-05-07T15:41:33.614Z</time>
      </trkpt>
      <trkpt lat="45.92431" lon="-0.71738">
        <ele>8.53</ele>
        <time>2025-05-07T15:41:43.039Z</time>
      </trkpt>
      <trkpt lat="45.92423" lon="-0.71755">
        <ele>8.82</ele>
        <time>2025-05-07T15:41:52.467Z</time>
      </trkpt>
      <trkpt lat="45.92417" lon="-0.71773">
        <ele>9.19</ele>
        <time>2025-05-07T15:42:01.897Z</time>
      </trkpt>
      <trkpt lat="45.92411" lon="-0.71799">
        <ele>9.63</ele>
        <time>2025-05-07T15:42:11.330Z</time>
      </trkpt>
      <trkpt lat="45.92405" lon="-0.71824">
        <ele>10.08</ele>
        <time>2025-05-07T15:42:20.766Z</time>
      </trkpt>
      <trkpt lat="45.92398" lon="-0.71859">
        <ele>10.6</ele>
        <time>2025-05-07T15:42:30.206Z</time>
      </trkpt>
      <trkpt lat="45.92391" lon="-0.71893">
        <ele>11.2</ele>
        <time>2025-05-07T15:42:39.650Z</time>
      </trkpt>
      <trkpt lat="45.92379" lon="-0.71927">
        <ele>11.84</ele>
        <time>2025-05-07T15:42:49.098Z</time>
      </trkpt>
      <trkpt lat="45.92371" lon="-0.7194">
        <ele>12.46</ele>
        <time>2025-05-07T15:42:58.548Z</time>
      </trkpt>
      <trkpt lat="45.9236" lon="-0.71953">
        <ele>13.08</ele>
        <time>2025-05-07T15:43:08.000Z</time>
      </trkpt>
      <trkpt lat="45.92345" lon="-0.71965">
        <ele>13.73</ele>
        <time>2025-05-07T15:43:17.455Z</time>
      </trkpt>
      <trkpt lat="45.92324" lon="-0.71978">
        <ele>14.46</ele>
        <time>2025-05-07T15:43:26.914Z</time>
      </trkpt>
      <trkpt lat="45.92299" lon="-0.7199">
        <ele>15.23</ele>
        <time>2025-05-07T15:43:36.377Z</time>
      </trkpt>
      <trkpt lat="45.92271" lon="-0.72">
        <ele>15.98</ele>
        <time>2025-05-07T15:43:45.845Z</time>
      </trkpt>
      <trkpt lat="45.92243" lon="-0.72009">
        <ele>16.79</ele>
        <time>2025-05-07T15:43:55.317Z</time>
      </trkpt>
      <trkpt lat="45.92215" lon="-0.72019">
        <ele>17.62</ele>
        <time>2025-05-07T15:44:04.794Z</time>
      </trkpt>
      <trkpt lat="45.92188" lon="-0.72029">
        <ele>18.43</ele>
        <time>2025-05-07T15:44:14.275Z</time>
      </trkpt>
      <trkpt lat="45.9216" lon="-0.72039">
        <ele>19.21</ele>
        <time>2025-05-07T15:44:23.761Z</time>
      </trkpt>
      <trkpt lat="45.92132" lon="-0.72048">
        <ele>20.04</ele>
        <time>2025-05-07T15:44:33.252Z</time>
      </trkpt>
      <trkpt lat="45.92104" lon="-0.72058">
        <ele>20.91</ele>
        <time>2025-05-07T15:44:42.747Z</time>
      </trkpt>
      <trkpt lat="45.92076" lon="-0.72068">
        <ele>21.69</ele>
        <time>2025-05-07T15:44:52.247Z</time>
      </trkpt>
      <trkpt lat="45.92058" lon="-0.72074">
        <ele>22.42</ele>
        <time>2025-05-07T15:45:01.750Z</time>
      </trkpt>
      <trkpt lat="45.92032" lon="-0.72076">
        <ele>23.12</ele>
        <time>2025-05-07T15:45:11.257Z</time>
      </trkpt>
      <trkpt lat="45.92006" lon="-0.72079">
        <ele>23.78</ele>
        <time>2025-05-07T15:45:20.768Z</time>
      </trkpt>
      <trkpt lat="45.9198" lon="-0.72081">
        <ele>24.42</ele>
        <time>2025-05-07T15:45:30.283Z</time>
      </trkpt>
      <trkpt lat="45.91971" lon="-0.72085">
        <ele>25.04</ele>
        <time>2025-05-07T15:45:39.800Z</time>
      </trkpt>
      <trkpt lat="45.91966" lon="-0.72089">
        <ele>25.63</ele>
        <time>2025-05-07T15:45:49.318Z</time>
      </trkpt>
      <trkpt lat="45.91945" lon="-0.72115">
        <ele>26.2</ele>
        <time>2025-05-07T15:45:58.840Z</time>
      </trkpt>
      <trkpt lat="45.91922" lon="-0.72144">
        <ele>26.74</ele>
        <time>2025-05-07T15:46:08.367Z</time>
      </trkpt>
      <trkpt lat="45.91899" lon="-0.72174">
        <ele>27.26</ele>
        <time>2025-05-07T15:46:17.899Z</time>
      </trkpt>
      <trkpt lat="45.91876" lon="-0.72203">
        <ele>27.72</ele>
        <time>2025-05-07T15:46:27.436Z</time>
      </trkpt>
      <trkpt lat="45.91856" lon="-0.72231">
        <ele>28.12</ele>
        <time>2025-05-07T15:46:36.977Z</time>
      </trkpt>
      <trkpt lat="45.91839" lon="-0.72258">
        <ele>28.5</ele>
        <time>2025-05-07T15:46:46.523Z</time>
      </trkpt>
      <trkpt lat="45.9182" lon="-0.72292">
        <ele>28.88</ele>
        <time>2025-05-07T15:46:56.073Z</time>
      </trkpt>
      <trkpt lat="45.91801" lon="-0.72326">
        <ele>29.26</ele>
        <time>2025-05-07T15:47:05.628Z</time>
      </trkpt>
      <trkpt lat="45.91782" lon="-0.72359">
        <ele>29.59</ele>
        <time>2025-05-07T15:47:15.188Z</time>
      </trkpt>
      <trkpt lat="45.91763" lon="-0.72392">
        <ele>29.9</ele>
        <time>2025-05-07T15:47:24.753Z</time>
      </trkpt>
      <trkpt lat="45.91744" lon="-0.72425">
        <ele>30.14</ele>
        <time>2025-05-07T15:47:34.323Z</time>
      </trkpt>
      <trkpt lat="45.91724" lon="-0.72459">
        <ele>30.35</ele>
        <time>2025-05-07T15:47:43.898Z</time>
      </trkpt>
      <trkpt lat="45.91704" lon="-0.72493">
        <ele>30.53</ele>
        <time>2025-05-07T15:47:53.478Z</time>
      </trkpt>
      <trkpt lat="45.91688" lon="-0.72514">
        <ele>30.69</ele>
        <time>2025-05-07T15:48:03.061Z</time>
      </trkpt>
      <trkpt lat="45.91674" lon="-0.72528">
        <ele>30.83</ele>
        <time>2025-05-07T15:48:12.647Z</time>
      </trkpt>
      <trkpt lat="45.91661" lon="-0.72542">
        <ele>30.9</ele>
        <time>2025-05-07T15:48:22.235Z</time>
      </trkpt>
      <trkpt lat="45.91642" lon="-0.72562">
        <ele>30.97</ele>
        <time>2025-05-07T15:48:31.827Z</time>
      </trkpt>
      <trkpt lat="45.91623" lon="-0.72581">
        <ele>31.02</ele>
        <time>2025-05-07T15:48:41.423Z</time>
      </trkpt>
      <trkpt lat="45.91604" lon="-0.72601">
        <ele>31.04</ele>
        <time>2025-05-07T15:48:51.023Z</time>
      </trkpt>
      <trkpt lat="45.91586" lon="-0.72627">
        <ele>31.06</ele>
        <time>2025-05-07T15:49:00.627Z</time>
      </trkpt>
      <trkpt lat="45.91567" lon="-0.72653">
        <ele>31.09</ele>
        <time>2025-05-07T15:49:10.235Z</time>
      </trkpt>
      <trkpt lat="45.91549" lon="-0.72679">
        <ele>31.09</ele>
        <time>2025-05-07T15:49:19.847Z</time>
      </trkpt>
      <trkpt lat="45.91531" lon="-0.72705">
        <ele>31.03</ele>
        <time>2025-05-07T15:49:29.463Z</time>
      </trkpt>
      <trkpt lat="45.91516" lon="-0.72728">
        <ele>30.92</ele>
        <time>2025-05-07T15:49:39.082Z</time>
      </trkpt>
      <trkpt lat="45.91502" lon="-0.7275">
        <ele>30.81</ele>
        <time>2025-05-07T15:49:48.705Z</time>
      </trkpt>
      <trkpt lat="45.91484" lon="-0.72772">
        <ele>30.73</ele>
        <time>2025-05-07T15:49:58.332Z</time>
      </trkpt>
      <trkpt lat="45.91467" lon="-0.7279">
        <ele>30.62</ele>
        <time>2025-05-07T15:50:07.962Z</time>
      </trkpt>
      <trkpt lat="45.91441" lon="-0.72812">
        <ele>30.5</ele>
        <time>2025-05-07T15:50:17.597Z</time>
      </trkpt>
      <trkpt lat="45.91415" lon="-0.72833">
        <ele>30.37</ele>
        <time>2025-05-07T15:50:27.237Z</time>
      </trkpt>
      <trkpt lat="45.91389" lon="-0.72855">
        <ele>30.25</ele>
        <time>2025-05-07T15:50:36.882Z</time>
      </trkpt>
      <trkpt lat="45.91363" lon="-0.72877">
        <ele>30.13</ele>
        <time>2025-05-07T15:50:46.531Z</time>
      </trkpt>
      <trkpt lat="45.91347" lon="-0.72892">
        <ele>29.96</ele>
        <time>2025-05-07T15:50:56.183Z</time>
      </trkpt>
      <trkpt lat="45.91331" lon="-0.72906">
        <ele>29.81</ele>
        <time>2025-05-07T15:51:05.838Z</time>
      </trkpt>
      <trkpt lat="45.91307" lon="-0.72927">
        <ele>29.67</ele>
        <time>2025-05-07T15:51:15.498Z</time>
      </trkpt>
      <trkpt lat="45.91287" lon="-0.72948">
        <ele>29.56</ele>
        <time>2025-05-07T15:51:25.162Z</time>
      </trkpt>
      <trkpt lat="45.91268" lon="-0.72968">
        <ele>29.42</ele>
        <time>2025-05-07T15:51:34.830Z</time>
      </trkpt>
      <trkpt lat="45.91244" lon="-0.72995">
        <ele>29.24</ele>
        <time>2025-05-07T15:51:44.503Z</time>
      </trkpt>
      <trkpt lat="45.91219" lon="-0.73022">
        <ele>29.05</ele>
        <time>2025-05-07T15:51:54.181Z</time>
      </trkpt>
      <trkpt lat="45.91195" lon="-0.73049">
        <ele>28.92</ele>
        <time>2025-05-07T15:52:03.863Z</time>
      </trkpt>
      <trkpt lat="45.9117" lon="-0.73075">
        <ele>28.86</ele>
        <time>2025-05-07T15:52:13.550Z</time>
      </trkpt>
      <trkpt lat="45.91146" lon="-0.73102">
        <ele>28.82</ele>
        <time>2025-05-07T15:52:23.242Z</time>
      </trkpt>
      <trkpt lat="45.91121" lon="-0.73129">
        <ele>28.7</ele>
        <time>2025-05-07T15:52:32.939Z</time>
      </trkpt>
      <trkpt lat="45.91097" lon="-0.73156">
        <ele>28.62</ele>
        <time>2025-05-07T15:52:42.641Z</time>
      </trkpt>
      <trkpt lat="45.91072" lon="-0.73183">
        <ele>28.59</ele>
        <time>2025-05-07T15:52:52.348Z</time>
      </trkpt>
      <trkpt lat="45.91048" lon="-0.7321">
        <ele>28.53</ele>
        <time>2025-05-07T15:53:02.060Z</time>
      </trkpt>
      <trkpt lat="45.91023" lon="-0.73237">
        <ele>28.52</ele>
        <time>2025-05-07T15:53:11.777Z</time>
      </trkpt>
      <trkpt lat="45.90999" lon="-0.73263">
        <ele>28.53</ele>
        <time>2025-05-07T15:53:21.499Z</time>
      </trkpt>
      <trkpt lat="45.90974" lon="-0.7329">
        <ele>28.59</ele>
        <time>2025-05-07T15:53:31.226Z</time>
      </trkpt>
      <trkpt lat="45.9095" lon="-0.73317">
        <ele>28.66</ele>
        <time>2025-05-07T15:53:40.958Z</time>
      </trkpt>
      <trkpt lat="45.90926" lon="-0.73343">
        <ele>28.73</ele>
        <time>2025-05-07T15:53:50.695Z</time>
      </trkpt>
      <trkpt lat="45.90902" lon="-0.7337">
        <ele>28.86</ele>
        <time>2025-05-07T15:54:00.436Z</time>
      </trkpt>
      <trkpt lat="45.90878" lon="-0.73396">
        <ele>29.04</ele>
        <time>2025-05-07T15:54:10.182Z</time>
      </trkpt>
      <trkpt lat="45.90853" lon="-0.73423">
        <ele>29.23</ele>
        <time>2025-05-07T15:54:19.933Z</time>
      </trkpt>
      <trkpt lat="45.90829" lon="-0.73449">
        <ele>29.47</ele>
        <time>2025-05-07T15:54:29.689Z</time>
      </trkpt>
      <trkpt lat="45.90805" lon="-0.73475">
        <ele>29.7</ele>
        <time>2025-05-07T15:54:39.450Z</time>
      </trkpt>
      <trkpt lat="45.90781" lon="-0.73502">
        <ele>29.9</ele>
        <time>2025-05-07T15:54:49.216Z</time>
      </trkpt>
      <trkpt lat="45.90757" lon="-0.73528">
        <ele>30.12</ele>
        <time>2025-05-07T15:54:58.987Z</time>
      </trkpt>
      <trkpt lat="45.90754" lon="-0.73531">
        <ele>30.32</ele>
        <time>2025-05-07T15:55:08.758Z</time>
      </trkpt>
      <trkpt lat="45.90751" lon="-0.73534">
        <ele>30.51</ele>
        <time>2025-05-07T15:55:18.530Z</time>
      </trkpt>
      <trkpt lat="45.90727" lon="-0.7356">
        <ele>30.71</ele>
        <time>2025-05-07T15:55:28.307Z</time>
      </trkpt>
      <trkpt lat="45.90703" lon="-0.73587">
        <ele>30.89</ele>
        <time>2025-05-07T15:55:38.089Z</time>
      </trkpt>
      <trkpt lat="45.90679" lon="-0.73613">
        <ele>31.05</ele>
        <time>2025-05-07T15:55:47.875Z</time>
      </trkpt>
      <trkpt lat="45.90654" lon="-0.7364">
        <ele>31.23</ele>
        <time>2025-05-07T15:55:57.666Z</time>
      </trkpt>
      <trkpt lat="45.9063" lon="-0.73666">
        <ele>31.35</ele>
        <time>2025-05-07T15:56:07.462Z</time>
      </trkpt>
      <trkpt lat="45.90606" lon="-0.73692">
        <ele>31.42</ele>
        <time>2025-05-07T15:56:17.263Z</time>
      </trkpt>
      <trkpt lat="45.90582" lon="-0.73719">
        <ele>31.47</ele>
        <time>2025-05-07T15:56:27.069Z</time>
      </trkpt>
      <trkpt lat="45.90558" lon="-0.73745">
        <ele>31.52</ele>
        <time>2025-05-07T15:56:36.880Z</time>
      </trkpt>
      <trkpt lat="45.90534" lon="-0.73772">
        <ele>31.54</ele>
        <time>2025-05-07T15:56:46.696Z</time>
      </trkpt>
      <trkpt lat="45.9051" lon="-0.73798">
        <ele>31.5</ele>
        <time>2025-05-07T15:56:56.516Z</time>
      </trkpt>
      <trkpt lat="45.90485" lon="-0.73824">
        <ele>31.48</ele>
        <time>2025-05-07T15:57:06.341Z</time>
      </trkpt>
      <trkpt lat="45.90461" lon="-0.73851">
        <ele>31.4</ele>
        <time>2025-05-07T15:57:16.171Z</time>
      </trkpt>
      <trkpt lat="45.90437" lon="-0.73877">
        <ele>31.26</ele>
        <time>2025-05-07T15:57:26.006Z</time>
      </trkpt>
      <trkpt lat="45.90413" lon="-0.73903">
        <ele>31.06</ele>
        <time>2025-05-07T15:57:35.846Z</time>
      </trkpt>
      <trkpt lat="45.90389" lon="-0.7393">
        <ele>30.79</ele>
        <time>2025-05-07T15:57:45.691Z</time>
      </trkpt>
      <trkpt lat="45.90365" lon="-0.73956">
        <ele>30.46</ele>
        <time>2025-05-07T15:57:55.541Z</time>
      </trkpt>
      <trkpt lat="45.9034" lon="-0.73984">
        <ele>30.06</ele>
        <time>2025-05-07T15:58:05.396Z</time>
      </trkpt>
      <trkpt lat="45.90315" lon="-0.74011">
        <ele>29.62</ele>
        <time>2025-05-07T15:58:15.256Z</time>
      </trkpt>
      <trkpt lat="45.90291" lon="-0.74039">
        <ele>29.12</ele>
        <time>2025-05-07T15:58:25.121Z</time>
      </trkpt>
      <trkpt lat="45.90266" lon="-0.74066">
        <ele>28.56</ele>
        <time>2025-05-07T15:58:34.991Z</time>
      </trkpt>
      <trkpt lat="45.90244" lon="-0.74089">
        <ele>27.98</ele>
        <time>2025-05-07T15:58:44.865Z</time>
      </trkpt>
      <trkpt lat="45.90223" lon="-0.74112">
        <ele>27.4</ele>
        <time>2025-05-07T15:58:54.743Z</time>
      </trkpt>
      <trkpt lat="45.90201" lon="-0.74136">
        <ele>26.79</ele>
        <time>2025-05-07T15:59:04.626Z</time>
      </trkpt>
      <trkpt lat="45.9018" lon="-0.74159">
        <ele>26.11</ele>
        <time>2025-05-07T15:59:14.513Z</time>
      </trkpt>
      <trkpt lat="45.90158" lon="-0.74182">
        <ele>25.45</ele>
        <time>2025-05-07T15:59:24.404Z</time>
      </trkpt>
      <trkpt lat="45.90136" lon="-0.74206">
        <ele>24.8</ele>
        <time>2025-05-07T15:59:34.300Z</time>
      </trkpt>
      <trkpt lat="45.90115" lon="-0.74229">
        <ele>24.14</ele>
        <time>2025-05-07T15:59:44.200Z</time>
      </trkpt>
      <trkpt lat="45.90093" lon="-0.74253">
        <ele>23.52</ele>
        <time>2025-05-07T15:59:54.104Z</time>
      </trkpt>
      <trkpt lat="45.90071" lon="-0.74277">
        <ele>22.9</ele>
        <time>2025-05-07T16:00:04.013Z</time>
      </trkpt>
      <trkpt lat="45.9005" lon="-0.743">
        <ele>22.28</ele>
        <time>2025-05-07T16:00:13.926Z</time>
      </trkpt>
      <trkpt lat="45.90028" lon="-0.74324">
        <ele>21.67</ele>
        <time>2025-05-07T16:00:23.843Z</time>
      </trkpt>
      <trkpt lat="45.90005" lon="-0.74349">
        <ele>21.05</ele>
        <time>2025-05-07T16:00:33.765Z</time>
      </trkpt>
      <trkpt lat="45.89983" lon="-0.74374">
        <ele>20.42</ele>
        <time>2025-05-07T16:00:43.691Z</time>
      </trkpt>
      <trkpt lat="45.8997" lon="-0.74389">
        <ele>19.81</ele>
        <time>2025-05-07T16:00:53.620Z</time>
      </trkpt>
      <trkpt lat="45.89958" lon="-0.74404">
        <ele>19.22</ele>
        <time>2025-05-07T16:01:03.552Z</time>
      </trkpt>
      <trkpt lat="45.89944" lon="-0.74423">
        <ele>18.67</ele>
        <time>2025-05-07T16:01:13.487Z</time>
      </trkpt>
      <trkpt lat="45.89931" lon="-0.74441">
        <ele>18.12</ele>
        <time>2025-05-07T16:01:23.425Z</time>
      </trkpt>
      <trkpt lat="45.89912" lon="-0.74472">
        <ele>17.58</ele>
        <time>2025-05-07T16:01:33.367Z</time>
      </trkpt>
      <trkpt lat="45.89896" lon="-0.74505">
        <ele>17.04</ele>
        <time>2025-05-07T16:01:43.314Z</time>
      </trkpt>
      <trkpt lat="45.89882" lon="-0.7454">
        <ele>16.58</ele>
        <time>2025-05-07T16:01:53.265Z</time>
      </trkpt>
      <trkpt lat="45.89869" lon="-0.74574">
        <ele>16.11</ele>
        <time>2025-05-07T16:02:03.221Z</time>
      </trkpt>
      <trkpt lat="45.89863" lon="-0.74582">
        <ele>15.69</ele>
        <time>2025-05-07T16:02:13.178Z</time>
      </trkpt>
      <trkpt lat="45.89849" lon="-0.74588">
        <ele>15.27</ele>
        <time>2025-05-07T16:02:23.137Z</time>
      </trkpt>
      <trkpt lat="45.89853" lon="-0.74613">
        <ele>14.96</ele>
        <time>2025-05-07T16:02:33.099Z</time>
      </trkpt>
      <trkpt lat="45.89855" lon="-0.74635">
        <ele>14.65</ele>
        <time>2025-05-07T16:02:43.064Z</time>
      </trkpt>
      <trkpt lat="45.89854" lon="-0.74658">
        <ele>14.37</ele>
        <time>2025-05-07T16:02:53.031Z</time>
      </trkpt>
      <trkpt lat="45.89851" lon="-0.74683">
        <ele>14.09</ele>
        <time>2025-05-07T16:03:03.001Z</time>
      </trkpt>
      <trkpt lat="45.89845" lon="-0.74723">
        <ele>13.78</ele>
        <time>2025-05-07T16:03:12.976Z</time>
      </trkpt>
      <trkpt lat="45.8984" lon="-0.74764">
        <ele>13.52</ele>
        <time>2025-05-07T16:03:22.955Z</time>
      </trkpt>
      <trkpt lat="45.89834" lon="-0.74804">
        <ele>13.37</ele>
        <time>2025-05-07T16:03:32.939Z</time>
      </trkpt>
      <trkpt lat="45.89829" lon="-0.74845">
        <ele>13.29</ele>
        <time>2025-05-07T16:03:42.927Z</time>
      </trkpt>
      <trkpt lat="45.89823" lon="-0.74885">
        <ele>13.18</ele>
        <time>2025-05-07T16:03:52.920Z</time>
      </trkpt>
      <trkpt lat="45.89817" lon="-0.74926">
        <ele>13.08</ele>
        <time>2025-05-07T16:04:02.918Z</time>
      </trkpt>
      <trkpt lat="45.89812" lon="-0.74966">
        <ele>13.03</ele>
        <time>2025-05-07T16:04:12.920Z</time>
      </trkpt>
      <trkpt lat="45.89806" lon="-0.75007">
        <ele>13.08</ele>
        <time>2025-05-07T16:04:22.927Z</time>
      </trkpt>
      <trkpt lat="45.898" lon="-0.75047">
        <ele>13.21</ele>
        <time>2025-05-07T16:04:32.939Z</time>
      </trkpt>
      <trkpt lat="45.89795" lon="-0.75087">
        <ele>13.36</ele>
        <time>2025-05-07T16:04:42.955Z</time>
      </trkpt>
      <trkpt lat="45.8979" lon="-0.75129">
        <ele>13.51</ele>
        <time>2025-05-07T16:04:52.976Z</time>
      </trkpt>
      <trkpt lat="45.89784" lon="-0.75171">
        <ele>13.75</ele>
        <time>2025-05-07T16:05:03.002Z</time>
      </trkpt>
      <trkpt lat="45.89779" lon="-0.75212">
        <ele>14.02</ele>
        <time>2025-05-07T16:05:13.032Z</time>
      </trkpt>
      <trkpt lat="45.89777" lon="-0.75235">
        <ele>14.31</ele>
        <time>2025-05-07T16:05:23.065Z</time>
      </trkpt>
      <trkpt lat="45.89775" lon="-0.75258">
        <ele>14.61</ele>
        <time>2025-05-07T16:05:33.100Z</time>
      </trkpt>
      <trkpt lat="45.89774" lon="-0.75275">
        <ele>14.9</ele>
        <time>2025-05-07T16:05:43.137Z</time>
      </trkpt>
      <trkpt lat="45.89772" lon="-0.75318">
        <ele>15.25</ele>
        <time>2025-05-07T16:05:53.179Z</time>
      </trkpt>
      <trkpt lat="45.89771" lon="-0.7536">
        <ele>15.53</ele>
        <time>2025-05-07T16:06:03.226Z</time>
      </trkpt>
      <trkpt lat="45.89768" lon="-0.75399">
        <ele>15.83</ele>
        <time>2025-05-07T16:06:13.277Z</time>
      </trkpt>
      <trkpt lat="45.89763" lon="-0.75438">
        <ele>16.08</ele>
        <time>2025-05-07T16:06:23.333Z</time>
      </trkpt>
      <trkpt lat="45.89758" lon="-0.75474">
        <ele>16.3</ele>
        <time>2025-05-07T16:06:33.393Z</time>
      </trkpt>
      <trkpt lat="45.89751" lon="-0.75507">
        <ele>16.59</ele>
        <time>2025-05-07T16:06:43.457Z</time>
      </trkpt>
      <trkpt lat="45.89742" lon="-0.75543">
        <ele>16.94</ele>
        <time>2025-05-07T16:06:53.525Z</time>
      </trkpt>
      <trkpt lat="45.89732" lon="-0.75578">
        <ele>17.28</ele>
        <time>2025-05-07T16:07:03.597Z</time>
      </trkpt>
      <trkpt lat="45.89722" lon="-0.75612">
        <ele>17.55</ele>
        <time>2025-05-07T16:07:13.673Z</time>
      </trkpt>
      <trkpt lat="45.89711" lon="-0.75639">
        <ele>17.88</ele>
        <time>2025-05-07T16:07:23.753Z</time>
      </trkpt>
      <trkpt lat="45.89701" lon="-0.75665">
        <ele>18.2</ele>
        <time>2025-05-07T16:07:33.836Z</time>
      </trkpt>
      <trkpt lat="45.89691" lon="-0.75688">
        <ele>18.46</ele>
        <time>2025-05-07T16:07:43.922Z</time>
      </trkpt>
      <trkpt lat="45.89682" lon="-0.75711">
        <ele>18.7</ele>
        <time>2025-05-07T16:07:54.011Z</time>
      </trkpt>
      <trkpt lat="45.89667" lon="-0.75746">
        <ele>18.93</ele>
        <time>2025-05-07T16:08:04.105Z</time>
      </trkpt>
      <trkpt lat="45.89652" lon="-0.75781">
        <ele>19.22</ele>
        <time>2025-05-07T16:08:14.203Z</time>
      </trkpt>
      <trkpt lat="45.89638" lon="-0.75815">
        <ele>19.55</ele>
        <time>2025-05-07T16:08:24.306Z</time>
      </trkpt>
      <trkpt lat="45.89623" lon="-0.7585">
        <ele>19.79</ele>
        <time>2025-05-07T16:08:34.413Z</time>
      </trkpt>
      <trkpt lat="45.8962" lon="-0.75857">
        <ele>20.01</ele>
        <time>2025-05-07T16:08:44.521Z</time>
      </trkpt>
      <trkpt lat="45.89609" lon="-0.75885">
        <ele>20.23</ele>
        <time>2025-05-07T16:08:54.633Z</time>
      </trkpt>
      <trkpt lat="45.89597" lon="-0.75919">
        <ele>20.44</ele>
        <time>2025-05-07T16:09:04.749Z</time>
      </trkpt>
      <trkpt lat="45.89587" lon="-0.75953">
        <ele>20.68</ele>
        <time>2025-05-07T16:09:14.869Z</time>
      </trkpt>
      <trkpt lat="45.89579" lon="-0.75987">
        <ele>20.9</ele>
        <time>2025-05-07T16:09:24.993Z</time>
      </trkpt>
      <trkpt lat="45.89572" lon="-0.76021">
        <ele>21.1</ele>
        <time>2025-05-07T16:09:35.121Z</time>
      </trkpt>
      <trkpt lat="45.89565" lon="-0.76048">
        <ele>21.24</ele>
        <time>2025-05-07T16:09:45.252Z</time>
      </trkpt>
      <trkpt lat="45.89558" lon="-0.76074">
        <ele>21.42</ele>
        <time>2025-05-07T16:09:55.386Z</time>
      </trkpt>
      <trkpt lat="45.89552" lon="-0.76094">
        <ele>21.62</ele>
        <time>2025-05-07T16:10:05.523Z</time>
      </trkpt>
      <trkpt lat="45.89543" lon="-0.76117">
        <ele>21.82</ele>
        <time>2025-05-07T16:10:15.663Z</time>
      </trkpt>
      <trkpt lat="45.89535" lon="-0.76139">
        <ele>22.03</ele>
        <time>2025-05-07T16:10:25.806Z</time>
      </trkpt>
      <trkpt lat="45.89519" lon="-0.76177">
        <ele>22.16</ele>
        <time>2025-05-07T16:10:35.954Z</time>
      </trkpt>
      <trkpt lat="45.89508" lon="-0.762">
        <ele>22.34</ele>
        <time>2025-05-07T16:10:46.105Z</time>
      </trkpt>
      <trkpt lat="45.89494" lon="-0.76226">
        <ele>22.54</ele>
        <time>2025-05-07T16:10:56.259Z</time>
      </trkpt>
      <trkpt lat="45.89481" lon="-0.76251">
        <ele>22.77</ele>
        <time>2025-05-07T16:11:06.417Z</time>
      </trkpt>
      <trkpt lat="45.89464" lon="-0.76283">
        <ele>22.98</ele>
        <time>2025-05-07T16:11:16.579Z</time>
      </trkpt>
      <trkpt lat="45.89448" lon="-0.76316">
        <ele>23.3</ele>
        <time>2025-05-07T16:11:26.746Z</time>
      </trkpt>
      <trkpt lat="45.89431" lon="-0.76348">
        <ele>23.64</ele>
        <time>2025-05-07T16:11:36.917Z</time>
      </trkpt>
      <trkpt lat="45.89421" lon="-0.76369">
        <ele>24.03</ele>
        <time>2025-05-07T16:11:47.091Z</time>
      </trkpt>
      <trkpt lat="45.89412" lon="-0.7639">
        <ele>24.45</ele>
        <time>2025-05-07T16:11:57.268Z</time>
      </trkpt>
      <trkpt lat="45.894" lon="-0.76421">
        <ele>24.93</ele>
        <time>2025-05-07T16:12:07.449Z</time>
      </trkpt>
      <trkpt lat="45.89388" lon="-0.76451">
        <ele>25.37</ele>
        <time>2025-05-07T16:12:17.634Z</time>
      </trkpt>
      <trkpt lat="45.89373" lon="-0.76487">
        <ele>25.8</ele>
        <time>2025-05-07T16:12:27.823Z</time>
      </trkpt>
      <trkpt lat="45.89358" lon="-0.76523">
        <ele>26.25</ele>
        <time>2025-05-07T16:12:38.017Z</time>
      </trkpt>
      <trkpt lat="45.89343" lon="-0.76559">
        <ele>26.72</ele>
        <time>2025-05-07T16:12:48.216Z</time>
      </trkpt>
      <trkpt lat="45.89332" lon="-0.76589">
        <ele>27.26</ele>
        <time>2025-05-07T16:12:58.419Z</time>
      </trkpt>
      <trkpt lat="45.89329" lon="-0.76598">
        <ele>27.74</ele>
        <time>2025-05-07T16:13:08.623Z</time>
      </trkpt>
      <trkpt lat="45.89324" lon="-0.76615">
        <ele>28.24</ele>
        <time>2025-05-07T16:13:18.829Z</time>
      </trkpt>
      <trkpt lat="45.8932" lon="-0.76635">
        <ele>28.75</ele>
        <time>2025-05-07T16:13:29.037Z</time>
      </trkpt>
      <trkpt lat="45.89316" lon="-0.76664">
        <ele>29.26</ele>
        <time>2025-05-07T16:13:39.248Z</time>
      </trkpt>
      <trkpt lat="45.89316" lon="-0.76692">
        <ele>29.67</ele>
        <time>2025-05-07T16:13:49.462Z</time>
      </trkpt>
      <trkpt lat="45.89318" lon="-0.76733">
        <ele>30.08</ele>
        <time>2025-05-07T16:13:59.681Z</time>
      </trkpt>
      <trkpt lat="45.8932" lon="-0.76774">
        <ele>30.51</ele>
        <time>2025-05-07T16:14:09.905Z</time>
      </trkpt>
      <trkpt lat="45.89322" lon="-0.76806">
        <ele>30.95</ele>
        <time>2025-05-07T16:14:20.132Z</time>
      </trkpt>
      <trkpt lat="45.89324" lon="-0.76838">
        <ele>31.32</ele>
        <time>2025-05-07T16:14:30.363Z</time>
      </trkpt>
      <trkpt lat="45.89326" lon="-0.7687">
        <ele>31.63</ele>
        <time>2025-05-07T16:14:40.597Z</time>
      </trkpt>
      <trkpt lat="45.89328" lon="-0.7691">
        <ele>31.95</ele>
        <time>2025-05-07T16:14:50.836Z</time>
      </trkpt>
      <trkpt lat="45.89331" lon="-0.7695">
        <ele>32.23</ele>
        <time>2025-05-07T16:15:01.079Z</time>
      </trkpt>
      <trkpt lat="45.89333" lon="-0.7699">
        <ele>32.49</ele>
        <time>2025-05-07T16:15:11.327Z</time>
      </trkpt>
      <trkpt lat="45.89336" lon="-0.7703">
        <ele>32.66</ele>
        <time>2025-05-07T16:15:21.579Z</time>
      </trkpt>
      <trkpt lat="45.89338" lon="-0.77071">
        <ele>32.83</ele>
        <time>2025-05-07T16:15:31.836Z</time>
      </trkpt>
      <trkpt lat="45.8934" lon="-0.77111">
        <ele>33.04</ele>
        <time>2025-05-07T16:15:42.097Z</time>
      </trkpt>
      <trkpt lat="45.89343" lon="-0.77151">
        <ele>33.17</ele>
        <time>2025-05-07T16:15:52.363Z</time>
      </trkpt>
      <trkpt lat="45.89345" lon="-0.7719">
        <ele>33.2</ele>
        <time>2025-05-07T16:16:02.633Z</time>
      </trkpt>
      <trkpt lat="45.89348" lon="-0.77216">
        <ele>33.16</ele>
        <time>2025-05-07T16:16:12.906Z</time>
      </trkpt>
      <trkpt lat="45.8935" lon="-0.77234">
        <ele>33.11</ele>
        <time>2025-05-07T16:16:23.181Z</time>
      </trkpt>
      <trkpt lat="45.89354" lon="-0.77252">
        <ele>33.01</ele>
        <time>2025-05-07T16:16:33.458Z</time>
      </trkpt>
      <trkpt lat="45.89359" lon="-0.77272">
        <ele>32.9</ele>
        <time>2025-05-07T16:16:43.738Z</time>
      </trkpt>
      <trkpt lat="45.89365" lon="-0.77287">
        <ele>32.8</ele>
        <time>2025-05-07T16:16:54.020Z</time>
      </trkpt>
      <trkpt lat="45.89378" lon="-0.7732">
        <ele>32.72</ele>
        <time>2025-05-07T16:17:04.306Z</time>
      </trkpt>
      <trkpt lat="45.89387" lon="-0.7734">
        <ele>32.65</ele>
        <time>2025-05-07T16:17:14.595Z</time>
      </trkpt>
      <trkpt lat="45.89396" lon="-0.77359">
        <ele>32.57</ele>
        <time>2025-05-07T16:17:24.886Z</time>
      </trkpt>
      <trkpt lat="45.89408" lon="-0.77385">
        <ele>32.45</ele>
        <time>2025-05-07T16:17:35.181Z</time>
      </trkpt>
      <trkpt lat="45.8942" lon="-0.77411">
        <ele>32.27</ele>
        <time>2025-05-07T16:17:45.479Z</time>
      </trkpt>
      <trkpt lat="45.89432" lon="-0.77437">
        <ele>32.07</ele>
        <time>2025-05-07T16:17:55.781Z</time>
      </trkpt>
      <trkpt lat="45.89446" lon="-0.77469">
        <ele>31.84</ele>
        <time>2025-05-07T16:18:06.087Z</time>
      </trkpt>
      <trkpt lat="45.89461" lon="-0.775">
        <ele>31.59</ele>
        <time>2025-05-07T16:18:16.397Z</time>
      </trkpt>
      <trkpt lat="45.89475" lon="-0.77532">
        <ele>31.31</ele>
        <time>2025-05-07T16:18:26.711Z</time>
      </trkpt>
      <trkpt lat="45.8949" lon="-0.77564">
        <ele>31.02</ele>
        <time>2025-05-07T16:18:37.029Z</time>
      </trkpt>
      <trkpt lat="45.89504" lon="-0.77595">
        <ele>30.67</ele>
        <time>2025-05-07T16:18:47.352Z</time>
      </trkpt>
      <trkpt lat="45.89519" lon="-0.77634">
        <ele>30.31</ele>
        <time>2025-05-07T16:18:57.680Z</time>
      </trkpt>
      <trkpt lat="45.89528" lon="-0.77664">
        <ele>29.93</ele>
        <time>2025-05-07T16:19:08.011Z</time>
      </trkpt>
      <trkpt lat="45.89537" lon="-0.77694">
        <ele>29.57</ele>
        <time>2025-05-07T16:19:18.346Z</time>
      </trkpt>
      <trkpt lat="45.89547" lon="-0.77734">
        <ele>29.14</ele>
        <time>2025-05-07T16:19:28.686Z</time>
      </trkpt>
      <trkpt lat="45.89557" lon="-0.77773">
        <ele>28.68</ele>
        <time>2025-05-07T16:19:39.030Z</time>
      </trkpt>
      <trkpt lat="45.89563" lon="-0.77796">
        <ele>28.17</ele>
        <time>2025-05-07T16:19:49.377Z</time>
      </trkpt>
      <trkpt lat="45.89569" lon="-0.77829">
        <ele>27.62</ele>
        <time>2025-05-07T16:19:59.728Z</time>
      </trkpt>
      <trkpt lat="45.89575" lon="-0.77873">
        <ele>27.02</ele>
        <time>2025-05-07T16:20:10.084Z</time>
      </trkpt>
      <trkpt lat="45.89578" lon="-0.77906">
        <ele>26.4</ele>
        <time>2025-05-07T16:20:20.444Z</time>
      </trkpt>
      <trkpt lat="45.89582" lon="-0.7794">
        <ele>25.75</ele>
        <time>2025-05-07T16:20:30.807Z</time>
      </trkpt>
      <trkpt lat="45.89585" lon="-0.77973">
        <ele>25.07</ele>
        <time>2025-05-07T16:20:41.174Z</time>
      </trkpt>
      <trkpt lat="45.89588" lon="-0.78009">
        <ele>24.43</ele>
        <time>2025-05-07T16:20:51.545Z</time>
      </trkpt>
      <trkpt lat="45.89592" lon="-0.78046">
        <ele>23.71</ele>
        <time>2025-05-07T16:21:01.920Z</time>
      </trkpt>
      <trkpt lat="45.89595" lon="-0.78082">
        <ele>22.97</ele>
        <time>2025-05-07T16:21:12.300Z</time>
      </trkpt>
      <trkpt lat="45.89599" lon="-0.78119">
        <ele>22.22</ele>
        <time>2025-05-07T16:21:22.684Z</time>
      </trkpt>
      <trkpt lat="45.89602" lon="-0.78155">
        <ele>21.44</ele>
        <time>2025-05-07T16:21:33.072Z</time>
      </trkpt>
      <trkpt lat="45.89606" lon="-0.78193">
        <ele>20.73</ele>
        <time>2025-05-07T16:21:43.464Z</time>
      </trkpt>
      <trkpt lat="45.8961" lon="-0.7823">
        <ele>20</ele>
        <time>2025-05-07T16:21:53.860Z</time>
      </trkpt>
      <trkpt lat="45.89614" lon="-0.78268">
        <ele>19.31</ele>
        <time>2025-05-07T16:22:04.260Z</time>
      </trkpt>
      <trkpt lat="45.89617" lon="-0.78305">
        <ele>18.64</ele>
        <time>2025-05-07T16:22:14.665Z</time>
      </trkpt>
      <trkpt lat="45.89621" lon="-0.78343">
        <ele>17.98</ele>
        <time>2025-05-07T16:22:25.074Z</time>
      </trkpt>
      <trkpt lat="45.89625" lon="-0.7838">
        <ele>17.33</ele>
        <time>2025-05-07T16:22:35.487Z</time>
      </trkpt>
      <trkpt lat="45.89628" lon="-0.78411">
        <ele>16.68</ele>
        <time>2025-05-07T16:22:45.904Z</time>
      </trkpt>
      <trkpt lat="45.8963" lon="-0.78441">
        <ele>16.12</ele>
        <time>2025-05-07T16:22:56.324Z</time>
      </trkpt>
      <trkpt lat="45.89633" lon="-0.78472">
        <ele>15.59</ele>
        <time>2025-05-07T16:23:06.748Z</time>
      </trkpt>
      <trkpt lat="45.89634" lon="-0.78512">
        <ele>15.11</ele>
        <time>2025-05-07T16:23:17.176Z</time>
      </trkpt>
      <trkpt lat="45.89636" lon="-0.78551">
        <ele>14.7</ele>
        <time>2025-05-07T16:23:27.608Z</time>
      </trkpt>
      <trkpt lat="45.89637" lon="-0.78591">
        <ele>14.31</ele>
        <time>2025-05-07T16:23:38.045Z</time>
      </trkpt>
      <trkpt lat="45.89638" lon="-0.7863">
        <ele>13.98</ele>
        <time>2025-05-07T16:23:48.486Z</time>
      </trkpt>
      <trkpt lat="45.89639" lon="-0.78667">
        <ele>13.66</ele>
        <time>2025-05-07T16:23:58.931Z</time>
      </trkpt>
      <trkpt lat="45.89639" lon="-0.78703">
        <ele>13.35</ele>
        <time>2025-05-07T16:24:09.380Z</time>
      </trkpt>
      <trkpt lat="45.8964" lon="-0.7874">
        <ele>13.08</ele>
        <time>2025-05-07T16:24:19.833Z</time>
      </trkpt>
      <trkpt lat="45.8964" lon="-0.78777">
        <ele>12.87</ele>
        <time>2025-05-07T16:24:30.291Z</time>
      </trkpt>
      <trkpt lat="45.89641" lon="-0.78813">
        <ele>12.7</ele>
        <time>2025-05-07T16:24:40.753Z</time>
      </trkpt>
      <trkpt lat="45.89641" lon="-0.78828">
        <ele>12.54</ele>
        <time>2025-05-07T16:24:51.216Z</time>
      </trkpt>
      <trkpt lat="45.89642" lon="-0.78871">
        <ele>12.4</ele>
        <time>2025-05-07T16:25:01.684Z</time>
      </trkpt>
      <trkpt lat="45.89644" lon="-0.78915">
        <ele>12.28</ele>
        <time>2025-05-07T16:25:12.157Z</time>
      </trkpt>
      <trkpt lat="45.89645" lon="-0.78958">
        <ele>12.16</ele>
        <time>2025-05-07T16:25:22.635Z</time>
      </trkpt>
      <trkpt lat="45.89646" lon="-0.79001">
        <ele>12.12</ele>
        <time>2025-05-07T16:25:33.118Z</time>
      </trkpt>
      <trkpt lat="45.89647" lon="-0.79044">
        <ele>12.12</ele>
        <time>2025-05-07T16:25:43.605Z</time>
      </trkpt>
      <trkpt lat="45.89648" lon="-0.79089">
        <ele>12.04</ele>
        <time>2025-05-07T16:25:54.098Z</time>
      </trkpt>
      <trkpt lat="45.8965" lon="-0.79134">
        <ele>11.98</ele>
        <time>2025-05-07T16:26:04.596Z</time>
      </trkpt>
      <trkpt lat="45.89651" lon="-0.79179">
        <ele>11.93</ele>
        <time>2025-05-07T16:26:15.099Z</time>
      </trkpt>
      <trkpt lat="45.89652" lon="-0.79219">
        <ele>11.87</ele>
        <time>2025-05-07T16:26:25.606Z</time>
      </trkpt>
      <trkpt lat="45.89652" lon="-0.7926">
        <ele>11.85</ele>
        <time>2025-05-07T16:26:36.118Z</time>
      </trkpt>
      <trkpt lat="45.89653" lon="-0.793">
        <ele>11.85</ele>
        <time>2025-05-07T16:26:46.634Z</time>
      </trkpt>
      <trkpt lat="45.89654" lon="-0.79339">
        <ele>11.89</ele>
        <time>2025-05-07T16:26:57.154Z</time>
      </trkpt>
      <trkpt lat="45.89656" lon="-0.79378">
        <ele>11.84</ele>
        <time>2025-05-07T16:27:07.679Z</time>
      </trkpt>
      <trkpt lat="45.89664" lon="-0.79418">
        <ele>11.83</ele>
        <time>2025-05-07T16:27:18.208Z</time>
      </trkpt>
      <trkpt lat="45.89675" lon="-0.79457">
        <ele>11.82</ele>
        <time>2025-05-07T16:27:28.742Z</time>
      </trkpt>
      <trkpt lat="45.89686" lon="-0.79491">
        <ele>11.72</ele>
        <time>2025-05-07T16:27:39.280Z</time>
      </trkpt>
      <trkpt lat="45.89692" lon="-0.79508">
        <ele>11.63</ele>
        <time>2025-05-07T16:27:49.820Z</time>
      </trkpt>
      <trkpt lat="45.89683" lon="-0.79519">
        <ele>11.51</ele>
        <time>2025-05-07T16:28:00.362Z</time>
      </trkpt>
      <trkpt lat="45.89668" lon="-0.79537">
        <ele>11.35</ele>
        <time>2025-05-07T16:28:10.907Z</time>
      </trkpt>
      <trkpt lat="45.89654" lon="-0.79554">
        <ele>11.15</ele>
        <time>2025-05-07T16:28:21.455Z</time>
      </trkpt>
      <trkpt lat="45.89639" lon="-0.79571">
        <ele>10.94</ele>
        <time>2025-05-07T16:28:32.006Z</time>
      </trkpt>
      <trkpt lat="45.89625" lon="-0.79587">
        <ele>10.7</ele>
        <time>2025-05-07T16:28:42.560Z</time>
      </trkpt>
      <trkpt lat="45.89602" lon="-0.79613">
        <ele>10.4</ele>
        <time>2025-05-07T16:28:53.119Z</time>
      </trkpt>
      <trkpt lat="45.89579" lon="-0.79638">
        <ele>10.09</ele>
        <time>2025-05-07T16:29:03.683Z</time>
      </trkpt>
      <trkpt lat="45.89556" lon="-0.79664">
        <ele>9.81</ele>
        <time>2025-05-07T16:29:14.251Z</time>
      </trkpt>
      <trkpt lat="45.89534" lon="-0.79689">
        <ele>9.49</ele>
        <time>2025-05-07T16:29:24.824Z</time>
      </trkpt>
      <trkpt lat="45.89511" lon="-0.79715">
        <ele>9.12</ele>
        <time>2025-05-07T16:29:35.402Z</time>
      </trkpt>
      <trkpt lat="45.89488" lon="-0.79741">
        <ele>8.79</ele>
        <time>2025-05-07T16:29:45.984Z</time>
      </trkpt>
      <trkpt lat="45.89465" lon="-0.79766">
        <ele>8.48</ele>
        <time>2025-05-07T16:29:56.571Z</time>
      </trkpt>
      <trkpt lat="45.89443" lon="-0.79791">
        <ele>8.14</ele>
        <time>2025-05-07T16:30:07.162Z</time>
      </trkpt>
      <trkpt lat="45.89436" lon="-0.79797">
        <ele>7.81</ele>
        <time>2025-05-07T16:30:17.755Z</time>
      </trkpt>
      <trkpt lat="45.89418" lon="-0.79812">
        <ele>7.47</ele>
        <time>2025-05-07T16:30:28.351Z</time>
      </trkpt>
      <trkpt lat="45.89401" lon="-0.79827">
        <ele>7.12</ele>
        <time>2025-05-07T16:30:38.950Z</time>
      </trkpt>
      <trkpt lat="45.89386" lon="-0.79838">
        <ele>6.8</ele>
        <time>2025-05-07T16:30:49.552Z</time>
      </trkpt>
      <trkpt lat="45.89371" lon="-0.79849">
        <ele>6.49</ele>
        <time>2025-05-07T16:31:00.157Z</time>
      </trkpt>
      <trkpt lat="45.89358" lon="-0.7986">
        <ele>6.18</ele>
        <time>2025-05-07T16:31:10.764Z</time>
      </trkpt>
      <trkpt lat="45.8935" lon="-0.79868">
        <ele>5.88</ele>
        <time>2025-05-07T16:31:21.373Z</time>
      </trkpt>
      <trkpt lat="45.89335" lon="-0.79885">
        <ele>5.59</ele>
        <time>2025-05-07T16:31:31.985Z</time>
      </trkpt>
      <trkpt lat="45.89316" lon="-0.79915">
        <ele>5.33</ele>
        <time>2025-05-07T16:31:42.601Z</time>
      </trkpt>
      <trkpt lat="45.89306" lon="-0.79936">
        <ele>5.03</ele>
        <time>2025-05-07T16:31:53.220Z</time>
      </trkpt>
      <trkpt lat="45.89299" lon="-0.79953">
        <ele>4.73</ele>
        <time>2025-05-07T16:32:03.841Z</time>
      </trkpt>
      <trkpt lat="45.89292" lon="-0.79975">
        <ele>4.45</ele>
        <time>2025-05-07T16:32:14.465Z</time>
      </trkpt>
      <trkpt lat="45.89284" lon="-0.80002">
        <ele>4.17</ele>
        <time>2025-05-07T16:32:25.092Z</time>
      </trkpt>
      <trkpt lat="45.89278" lon="-0.80035">
        <ele>3.91</ele>
        <time>2025-05-07T16:32:35.723Z</time>
      </trkpt>
      <trkpt lat="45.89273" lon="-0.80067">
        <ele>3.62</ele>
        <time>2025-05-07T16:32:46.358Z</time>
      </trkpt>
      <trkpt lat="45.89267" lon="-0.801">
        <ele>3.37</ele>
        <time>2025-05-07T16:32:56.996Z</time>
      </trkpt>
      <trkpt lat="45.89259" lon="-0.80129">
        <ele>3.12</ele>
        <time>2025-05-07T16:33:07.638Z</time>
      </trkpt>
      <trkpt lat="45.89251" lon="-0.80151">
        <ele>2.87</ele>
        <time>2025-05-07T16:33:18.283Z</time>
      </trkpt>
      <trkpt lat="45.89243" lon="-0.80173">
        <ele>2.65</ele>
        <time>2025-05-07T16:33:28.931Z</time>
      </trkpt>
      <trkpt lat="45.89231" lon="-0.80194">
        <ele>2.45</ele>
        <time>2025-05-07T16:33:39.582Z</time>
      </trkpt>
      <trkpt lat="45.89219" lon="-0.80215">
        <ele>2.24</ele>
        <time>2025-05-07T16:33:50.236Z</time>
      </trkpt>
      <trkpt lat="45.892" lon="-0.80244">
        <ele>2.04</ele>
        <time>2025-05-07T16:34:00.894Z</time>
      </trkpt>
      <trkpt lat="45.89182" lon="-0.80268">
        <ele>1.85</ele>
        <time>2025-05-07T16:34:11.556Z</time>
      </trkpt>
      <trkpt lat="45.89165" lon="-0.80292">
        <ele>1.69</ele>
        <time>2025-05-07T16:34:22.222Z</time>
      </trkpt>
      <trkpt lat="45.89147" lon="-0.80316">
        <ele>1.55</ele>
        <time>2025-05-07T16:34:32.892Z</time>
      </trkpt>
      <trkpt lat="45.89126" lon="-0.80345">
        <ele>1.34</ele>
        <time>2025-05-07T16:34:43.566Z</time>
      </trkpt>
      <trkpt lat="45.89108" lon="-0.80368">
        <ele>1.25</ele>
        <time>2025-05-07T16:34:54.244Z</time>
      </trkpt>
      <trkpt lat="45.89091" lon="-0.80386">
        <ele>1.17</ele>
        <time>2025-05-07T16:35:04.926Z</time>
      </trkpt>
      <trkpt lat="45.89075" lon="-0.804">
        <ele>1.06</ele>
        <time>2025-05-07T16:35:15.611Z</time>
      </trkpt>
      <trkpt lat="45.8906" lon="-0.80411">
        <ele>0.95</ele>
        <time>2025-05-07T16:35:26.298Z</time>
      </trkpt>
      <trkpt lat="45.89046" lon="-0.80422">
        <ele>0.87</ele>
        <time>2025-05-07T16:35:36.988Z</time>
      </trkpt>
      <trkpt lat="45.89028" lon="-0.80436">
        <ele>0.79</ele>
        <time>2025-05-07T16:35:47.681Z</time>
      </trkpt>
      <trkpt lat="45.89011" lon="-0.80449">
        <ele>0.72</ele>
        <time>2025-05-07T16:35:58.377Z</time>
      </trkpt>
      <trkpt lat="45.88996" lon="-0.80464">
        <ele>0.69</ele>
        <time>2025-05-07T16:36:09.076Z</time>
      </trkpt>
      <trkpt lat="45.88977" lon="-0.80487">
        <ele>0.65</ele>
        <time>2025-05-07T16:36:19.779Z</time>
      </trkpt>
      <trkpt lat="45.88957" lon="-0.80511">
        <ele>0.6</ele>
        <time>2025-05-07T16:36:30.486Z</time>
      </trkpt>
      <trkpt lat="45.88938" lon="-0.80534">
        <ele>0.56</ele>
        <time>2025-05-07T16:36:41.197Z</time>
      </trkpt>
      <trkpt lat="45.88919" lon="-0.80557">
        <ele>0.51</ele>
        <time>2025-05-07T16:36:51.912Z</time>
      </trkpt>
      <trkpt lat="45.88901" lon="-0.80579">
        <ele>0.47</ele>
        <time>2025-05-07T16:37:02.631Z</time>
      </trkpt>
      <trkpt lat="45.88884" lon="-0.806">
        <ele>0.45</ele>
        <time>2025-05-07T16:37:13.354Z</time>
      </trkpt>
      <trkpt lat="45.88861" lon="-0.80628">
        <ele>0.43</ele>
        <time>2025-05-07T16:37:24.081Z</time>
      </trkpt>
      <trkpt lat="45.88839" lon="-0.80657">
        <ele>0.4</ele>
        <time>2025-05-07T16:37:34.813Z</time>
      </trkpt>
      <trkpt lat="45.88816" lon="-0.80685">
        <ele>0.36</ele>
        <time>2025-05-07T16:37:45.550Z</time>
      </trkpt>
      <trkpt lat="45.88793" lon="-0.80713">
        <ele>0.29</ele>
        <time>2025-05-07T16:37:56.292Z</time>
      </trkpt>
      <trkpt lat="45.88771" lon="-0.80742">
        <ele>0.2</ele>
        <time>2025-05-07T16:38:07.039Z</time>
      </trkpt>
      <trkpt lat="45.88748" lon="-0.8077">
        <ele>0.14</ele>
        <time>2025-05-07T16:38:17.791Z</time>
      </trkpt>
      <trkpt lat="45.88725" lon="-0.80798">
        <ele>0.16</ele>
        <time>2025-05-07T16:38:28.547Z</time>
      </trkpt>
      <trkpt lat="45.88703" lon="-0.80827">
        <ele>0.18</ele>
        <time>2025-05-07T16:38:39.308Z</time>
      </trkpt>
      <trkpt lat="45.8868" lon="-0.80855">
        <ele>0.18</ele>
        <time>2025-05-07T16:38:50.074Z</time>
      </trkpt>
      <trkpt lat="45.88658" lon="-0.80882">
        <ele>0.18</ele>
        <time>2025-05-07T16:39:00.845Z</time>
      </trkpt>
      <trkpt lat="45.88636" lon="-0.80909">
        <ele>0.2</ele>
        <time>2025-05-07T16:39:11.620Z</time>
      </trkpt>
      <trkpt lat="45.88614" lon="-0.80935">
        <ele>0.19</ele>
        <time>2025-05-07T16:39:22.400Z</time>
      </trkpt>
      <trkpt lat="45.88592" lon="-0.80962">
        <ele>0.17</ele>
        <time>2025-05-07T16:39:33.185Z</time>
      </trkpt>
      <trkpt lat="45.8857" lon="-0.80989">
        <ele>0.18</ele>
        <time>2025-05-07T16:39:43.974Z</time>
      </trkpt>
      <trkpt lat="45.88551" lon="-0.81014">
        <ele>0.27</ele>
        <time>2025-05-07T16:39:54.767Z</time>
      </trkpt>
      <trkpt lat="45.8853" lon="-0.81044">
        <ele>0.4</ele>
        <time>2025-05-07T16:40:05.565Z</time>
      </trkpt>
      <trkpt lat="45.88515" lon="-0.81068">
        <ele>0.54</ele>
        <time>2025-05-07T16:40:16.367Z</time>
      </trkpt>
      <trkpt lat="45.885" lon="-0.81095">
        <ele>0.61</ele>
        <time>2025-05-07T16:40:27.172Z</time>
      </trkpt>
      <trkpt lat="45.88486" lon="-0.81121">
        <ele>0.63</ele>
        <time>2025-05-07T16:40:37.981Z</time>
      </trkpt>
      <trkpt lat="45.88467" lon="-0.81156">
        <ele>0.74</ele>
        <time>2025-05-07T16:40:48.795Z</time>
      </trkpt>
      <trkpt lat="45.88448" lon="-0.81192">
        <ele>0.92</ele>
        <time>2025-05-07T16:40:59.614Z</time>
      </trkpt>
      <trkpt lat="45.88429" lon="-0.81227">
        <ele>1.14</ele>
        <time>2025-05-07T16:41:10.438Z</time>
      </trkpt>
      <trkpt lat="45.88418" lon="-0.81249">
        <ele>1.39</ele>
        <time>2025-05-07T16:41:21.265Z</time>
      </trkpt>
      <trkpt lat="45.88407" lon="-0.8127">
        <ele>1.69</ele>
        <time>2025-05-07T16:41:32.095Z</time>
      </trkpt>
      <trkpt lat="45.88396" lon="-0.81292">
        <ele>2.04</ele>
        <time>2025-05-07T16:41:42.928Z</time>
      </trkpt>
      <trkpt lat="45.88384" lon="-0.8131">
        <ele>2.4</ele>
        <time>2025-05-07T16:41:53.764Z</time>
      </trkpt>
      <trkpt lat="45.88372" lon="-0.81329">
        <ele>2.77</ele>
        <time>2025-05-07T16:42:04.603Z</time>
      </trkpt>
      <trkpt lat="45.88348" lon="-0.81357">
        <ele>3.14</ele>
        <time>2025-05-07T16:42:15.447Z</time>
      </trkpt>
      <trkpt lat="45.8833" lon="-0.81383">
        <ele>3.6</ele>
        <time>2025-05-07T16:42:26.295Z</time>
      </trkpt>
      <trkpt lat="45.88318" lon="-0.81407">
        <ele>4.12</ele>
        <time>2025-05-07T16:42:37.146Z</time>
      </trkpt>
      <trkpt lat="45.88306" lon="-0.81436">
        <ele>4.7</ele>
        <time>2025-05-07T16:42:48.001Z</time>
      </trkpt>
      <trkpt lat="45.88295" lon="-0.81464">
        <ele>5.31</ele>
        <time>2025-05-07T16:42:58.859Z</time>
      </trkpt>
      <trkpt lat="45.88287" lon="-0.81486">
        <ele>5.94</ele>
        <time>2025-05-07T16:43:09.720Z</time>
      </trkpt>
      <trkpt lat="45.88279" lon="-0.81507">
        <ele>6.59</ele>
        <time>2025-05-07T16:43:20.584Z</time>
      </trkpt>
      <trkpt lat="45.8827" lon="-0.8153">
        <ele>7.31</ele>
        <time>2025-05-07T16:43:31.451Z</time>
      </trkpt>
      <trkpt lat="45.88261" lon="-0.81559">
        <ele>8.08</ele>
        <time>2025-05-07T16:43:42.321Z</time>
      </trkpt>
      <trkpt lat="45.88253" lon="-0.8159">
        <ele>8.88</ele>
        <time>2025-05-07T16:43:53.195Z</time>
      </trkpt>
      <trkpt lat="45.88246" lon="-0.8162">
        <ele>9.72</ele>
        <time>2025-05-07T16:44:04.073Z</time>
      </trkpt>
      <trkpt lat="45.88239" lon="-0.8165">
        <ele>10.6</ele>
        <time>2025-05-07T16:44:14.954Z</time>
      </trkpt>
      <trkpt lat="45.8823" lon="-0.81686">
        <ele>11.49</ele>
        <time>2025-05-07T16:44:25.839Z</time>
      </trkpt>
      <trkpt lat="45.88222" lon="-0.81723">
        <ele>12.38</ele>
        <time>2025-05-07T16:44:36.729Z</time>
      </trkpt>
      <trkpt lat="45.88213" lon="-0.81759">
        <ele>13.25</ele>
        <time>2025-05-07T16:44:47.623Z</time>
      </trkpt>
      <trkpt lat="45.88205" lon="-0.81792">
        <ele>14.21</ele>
        <time>2025-05-07T16:44:58.521Z</time>
      </trkpt>
      <trkpt lat="45.88198" lon="-0.81825">
        <ele>15.26</ele>
        <time>2025-05-07T16:45:09.423Z</time>
      </trkpt>
      <trkpt lat="45.88216" lon="-0.81855">
        <ele>16.38</ele>
        <time>2025-05-07T16:45:20.329Z</time>
      </trkpt>
      <trkpt lat="45.88233" lon="-0.81886">
        <ele>17.51</ele>
        <time>2025-05-07T16:45:31.240Z</time>
      </trkpt>
      <trkpt lat="45.88251" lon="-0.81916">
        <ele>18.62</ele>
        <time>2025-05-07T16:45:42.155Z</time>
      </trkpt>
      <trkpt lat="45.8827" lon="-0.81949">
        <ele>19.78</ele>
        <time>2025-05-07T16:45:53.075Z</time>
      </trkpt>
      <trkpt lat="45.88288" lon="-0.81983">
        <ele>20.95</ele>
        <time>2025-05-07T16:46:04.000Z</time>
      </trkpt>
      <trkpt lat="45.88307" lon="-0.82016">
        <ele>22.18</ele>
        <time>2025-05-07T16:46:14.929Z</time>
      </trkpt>
      <trkpt lat="45.88319" lon="-0.82036">
        <ele>23.37</ele>
        <time>2025-05-07T16:46:25.861Z</time>
      </trkpt>
      <trkpt lat="45.88331" lon="-0.82056">
        <ele>24.55</ele>
        <time>2025-05-07T16:46:36.796Z</time>
      </trkpt>
      <trkpt lat="45.88346" lon="-0.82083">
        <ele>25.74</ele>
        <time>2025-05-07T16:46:47.735Z</time>
      </trkpt>
      <trkpt lat="45.88362" lon="-0.82111">
        <ele>26.97</ele>
        <time>2025-05-07T16:46:58.678Z</time>
      </trkpt>
      <trkpt lat="45.88377" lon="-0.82138">
        <ele>28.15</ele>
        <time>2025-05-07T16:47:09.625Z</time>
      </trkpt>
      <trkpt lat="45.8839" lon="-0.8216">
        <ele>29.21</ele>
        <time>2025-05-07T16:47:20.575Z</time>
      </trkpt>
      <trkpt lat="45.88402" lon="-0.82182">
        <ele>30.23</ele>
        <time>2025-05-07T16:47:31.528Z</time>
      </trkpt>
      <trkpt lat="45.88418" lon="-0.82209">
        <ele>31.16</ele>
        <time>2025-05-07T16:47:42.485Z</time>
      </trkpt>
      <trkpt lat="45.88428" lon="-0.82229">
        <ele>32.01</ele>
        <time>2025-05-07T16:47:53.445Z</time>
      </trkpt>
      <trkpt lat="45.88438" lon="-0.82248">
        <ele>32.85</ele>
        <time>2025-05-07T16:48:04.408Z</time>
      </trkpt>
      <trkpt lat="45.88447" lon="-0.82268">
        <ele>33.59</ele>
        <time>2025-05-07T16:48:15.373Z</time>
      </trkpt>
      <trkpt lat="45.88456" lon="-0.823">
        <ele>34.26</ele>
        <time>2025-05-07T16:48:26.342Z</time>
      </trkpt>
      <trkpt lat="45.88461" lon="-0.82329">
        <ele>34.85</ele>
        <time>2025-05-07T16:48:37.315Z</time>
      </trkpt>
      <trkpt lat="45.88465" lon="-0.82358">
        <ele>35.41</ele>
        <time>2025-05-07T16:48:48.291Z</time>
      </trkpt>
      <trkpt lat="45.88471" lon="-0.82398">
        <ele>35.92</ele>
        <time>2025-05-07T16:48:59.271Z</time>
      </trkpt>
      <trkpt lat="45.88477" lon="-0.82437">
        <ele>36.4</ele>
        <time>2025-05-07T16:49:10.256Z</time>
      </trkpt>
      <trkpt lat="45.8848" lon="-0.82465">
        <ele>36.76</ele>
        <time>2025-05-07T16:49:21.244Z</time>
      </trkpt>
      <trkpt lat="45.88482" lon="-0.82488">
        <ele>37.1</ele>
        <time>2025-05-07T16:49:32.235Z</time>
      </trkpt>
      <trkpt lat="45.88484" lon="-0.82511">
        <ele>37.39</ele>
        <time>2025-05-07T16:49:43.228Z</time>
      </trkpt>
      <trkpt lat="45.88491" lon="-0.8254">
        <ele>37.65</ele>
        <time>2025-05-07T16:49:54.225Z</time>
      </trkpt>
      <trkpt lat="45.88498" lon="-0.82569">
        <ele>37.84</ele>
        <time>2025-05-07T16:50:05.225Z</time>
      </trkpt>
      <trkpt lat="45.88516" lon="-0.82605">
        <ele>37.96</ele>
        <time>2025-05-07T16:50:16.230Z</time>
      </trkpt>
      <trkpt lat="45.88534" lon="-0.82642">
        <ele>38.04</ele>
        <time>2025-05-07T16:50:27.240Z</time>
      </trkpt>
      <trkpt lat="45.88552" lon="-0.82678">
        <ele>38.03</ele>
        <time>2025-05-07T16:50:38.255Z</time>
      </trkpt>
      <trkpt lat="45.8857" lon="-0.82714">
        <ele>37.88</ele>
        <time>2025-05-07T16:50:49.275Z</time>
      </trkpt>
      <trkpt lat="45.88588" lon="-0.8275">
        <ele>37.71</ele>
        <time>2025-05-07T16:51:00.300Z</time>
      </trkpt>
      <trkpt lat="45.88603" lon="-0.82784">
        <ele>37.58</ele>
        <time>2025-05-07T16:51:11.329Z</time>
      </trkpt>
      <trkpt lat="45.88608" lon="-0.82799">
        <ele>37.37</ele>
        <time>2025-05-07T16:51:22.360Z</time>
      </trkpt>
      <trkpt lat="45.88618" lon="-0.82841">
        <ele>37.14</ele>
        <time>2025-05-07T16:51:33.396Z</time>
      </trkpt>
      <trkpt lat="45.88627" lon="-0.82882">
        <ele>36.82</ele>
        <time>2025-05-07T16:51:44.437Z</time>
      </trkpt>
      <trkpt lat="45.88632" lon="-0.82923">
        <ele>36.48</ele>
        <time>2025-05-07T16:51:55.483Z</time>
      </trkpt>
      <trkpt lat="45.88636" lon="-0.82964">
        <ele>36.08</ele>
        <time>2025-05-07T16:52:06.533Z</time>
      </trkpt>
      <trkpt lat="45.88641" lon="-0.83004">
        <ele>35.66</ele>
        <time>2025-05-07T16:52:17.588Z</time>
      </trkpt>
      <trkpt lat="45.88648" lon="-0.83044">
        <ele>35.08</ele>
        <time>2025-05-07T16:52:28.647Z</time>
      </trkpt>
      <trkpt lat="45.88654" lon="-0.83083">
        <ele>34.4</ele>
        <time>2025-05-07T16:52:39.711Z</time>
      </trkpt>
      <trkpt lat="45.88657" lon="-0.83096">
        <ele>33.72</ele>
        <time>2025-05-07T16:52:50.776Z</time>
      </trkpt>
      <trkpt lat="45.88667" lon="-0.83122">
        <ele>32.99</ele>
        <time>2025-05-07T16:53:01.845Z</time>
      </trkpt>
      <trkpt lat="45.88677" lon="-0.8314">
        <ele>32.24</ele>
        <time>2025-05-07T16:53:12.916Z</time>
      </trkpt>
      <trkpt lat="45.88683" lon="-0.8315">
        <ele>31.43</ele>
        <time>2025-05-07T16:53:23.989Z</time>
      </trkpt>
      <trkpt lat="45.88695" lon="-0.83169">
        <ele>30.57</ele>
        <time>2025-05-07T16:53:35.065Z</time>
      </trkpt>
      <trkpt lat="45.88706" lon="-0.83189">
        <ele>29.66</ele>
        <time>2025-05-07T16:53:46.144Z</time>
      </trkpt>
      <trkpt lat="45.88725" lon="-0.83214">
        <ele>28.63</ele>
        <time>2025-05-07T16:53:57.227Z</time>
      </trkpt>
      <trkpt lat="45.88745" lon="-0.83239">
        <ele>27.53</ele>
        <time>2025-05-07T16:54:08.314Z</time>
      </trkpt>
      <trkpt lat="45.88764" lon="-0.83264">
        <ele>26.42</ele>
        <time>2025-05-07T16:54:19.405Z</time>
      </trkpt>
      <trkpt lat="45.88782" lon="-0.83293">
        <ele>25.28</ele>
        <time>2025-05-07T16:54:30.500Z</time>
      </trkpt>
      <trkpt lat="45.888" lon="-0.83322">
        <ele>24.14</ele>
        <time>2025-05-07T16:54:41.600Z</time>
      </trkpt>
      <trkpt lat="45.88813" lon="-0.83348">
        <ele>23</ele>
        <time>2025-05-07T16:54:52.703Z</time>
      </trkpt>
      <trkpt lat="45.88825" lon="-0.83374">
        <ele>21.89</ele>
        <time>2025-05-07T16:55:03.810Z</time>
      </trkpt>
      <trkpt lat="45.88837" lon="-0.834">
        <ele>20.74</ele>
        <time>2025-05-07T16:55:14.920Z</time>
      </trkpt>
      <trkpt lat="45.8885" lon="-0.83434">
        <ele>19.64</ele>
        <time>2025-05-07T16:55:26.035Z</time>
      </trkpt>
      <trkpt lat="45.88864" lon="-0.83468">
        <ele>18.48</ele>
        <time>2025-05-07T16:55:37.154Z</time>
      </trkpt>
      <trkpt lat="45.88877" lon="-0.83503">
        <ele>17.38</ele>
        <time>2025-05-07T16:55:48.277Z</time>
      </trkpt>
      <trkpt lat="45.88891" lon="-0.83537">
        <ele>16.31</ele>
        <time>2025-05-07T16:55:59.405Z</time>
      </trkpt>
      <trkpt lat="45.88904" lon="-0.83571">
        <ele>15.29</ele>
        <time>2025-05-07T16:56:10.537Z</time>
      </trkpt>
      <trkpt lat="45.88918" lon="-0.83606">
        <ele>14.31</ele>
        <time>2025-05-07T16:56:21.674Z</time>
      </trkpt>
      <trkpt lat="45.88931" lon="-0.8364">
        <ele>13.33</ele>
        <time>2025-05-07T16:56:32.815Z</time>
      </trkpt>
      <trkpt lat="45.88945" lon="-0.83675">
        <ele>12.4</ele>
        <time>2025-05-07T16:56:43.961Z</time>
      </trkpt>
      <trkpt lat="45.88959" lon="-0.8371">
        <ele>11.52</ele>
        <time>2025-05-07T16:56:55.111Z</time>
      </trkpt>
      <trkpt lat="45.88973" lon="-0.83746">
        <ele>10.69</ele>
        <time>2025-05-07T16:57:06.266Z</time>
      </trkpt>
      <trkpt lat="45.88986" lon="-0.83781">
        <ele>9.9</ele>
        <time>2025-05-07T16:57:17.425Z</time>
      </trkpt>
      <trkpt lat="45.89" lon="-0.83816">
        <ele>9.2</ele>
        <time>2025-05-07T16:57:28.589Z</time>
      </trkpt>
      <trkpt lat="45.89011" lon="-0.83844">
        <ele>8.52</ele>
        <time>2025-05-07T16:57:39.756Z</time>
      </trkpt>
      <trkpt lat="45.89021" lon="-0.83872">
        <ele>7.9</ele>
        <time>2025-05-07T16:57:50.927Z</time>
      </trkpt>
      <trkpt lat="45.89032" lon="-0.83891">
        <ele>7.27</ele>
        <time>2025-05-07T16:58:02.100Z</time>
      </trkpt>
      <trkpt lat="45.89043" lon="-0.8391">
        <ele>6.68</ele>
        <time>2025-05-07T16:58:13.276Z</time>
      </trkpt>
      <trkpt lat="45.89058" lon="-0.83936">
        <ele>6.12</ele>
        <time>2025-05-07T16:58:24.456Z</time>
      </trkpt>
      <trkpt lat="45.89073" lon="-0.83962">
        <ele>5.59</ele>
        <time>2025-05-07T16:58:35.640Z</time>
      </trkpt>
      <trkpt lat="45.89075" lon="-0.83966">
        <ele>5.12</ele>
        <time>2025-05-07T16:58:46.824Z</time>
      </trkpt>
      <trkpt lat="45.89086" lon="-0.83983">
        <ele>4.66</ele>
        <time>2025-05-07T16:58:58.011Z</time>
      </trkpt>
      <trkpt lat="45.89101" lon="-0.84013">
        <ele>4.24</ele>
        <time>2025-05-07T16:59:09.202Z</time>
      </trkpt>
      <trkpt lat="45.89105" lon="-0.84037">
        <ele>3.88</ele>
        <time>2025-05-07T16:59:20.396Z</time>
      </trkpt>
      <trkpt lat="45.89084" lon="-0.84041">
        <ele>3.59</ele>
        <time>2025-05-07T16:59:31.593Z</time>
      </trkpt>
      <trkpt lat="45.89062" lon="-0.84045">
        <ele>3.31</ele>
        <time>2025-05-07T16:59:42.794Z</time>
      </trkpt>
      <trkpt lat="45.89047" lon="-0.84043">
        <ele>3.06</ele>
        <time>2025-05-07T16:59:53.997Z</time>
      </trkpt>
      <trkpt lat="45.89017" lon="-0.84033">
        <ele>2.77</ele>
        <time>2025-05-07T17:00:05.205Z</time>
      </trkpt>
      <trkpt lat="45.89" lon="-0.84026">
        <ele>2.61</ele>
        <time>2025-05-07T17:00:16.416Z</time>
      </trkpt>
      <trkpt lat="45.88989" lon="-0.84022">
        <ele>2.48</ele>
        <time>2025-05-07T17:00:27.629Z</time>
      </trkpt>
      <trkpt lat="45.88961" lon="-0.84035">
        <ele>2.39</ele>
        <time>2025-05-07T17:00:38.846Z</time>
      </trkpt>
      <trkpt lat="45.88932" lon="-0.84048">
        <ele>2.29</ele>
        <time>2025-05-07T17:00:50.068Z</time>
      </trkpt>
      <trkpt lat="45.88904" lon="-0.8406">
        <ele>2.21</ele>
        <time>2025-05-07T17:01:01.295Z</time>
      </trkpt>
      <trkpt lat="45.88876" lon="-0.84073">
        <ele>2.17</ele>
        <time>2025-05-07T17:01:12.527Z</time>
      </trkpt>
      <trkpt lat="45.8885" lon="-0.84086">
        <ele>2.18</ele>
        <time>2025-05-07T17:01:23.763Z</time>
      </trkpt>
      <trkpt lat="45.88837" lon="-0.84099">
        <ele>2.21</ele>
        <time>2025-05-07T17:01:35.002Z</time>
      </trkpt>
      <trkpt lat="45.88826" lon="-0.84124">
        <ele>2.27</ele>
        <time>2025-05-07T17:01:46.244Z</time>
      </trkpt>
      <trkpt lat="45.88815" lon="-0.84148">
        <ele>2.28</ele>
        <time>2025-05-07T17:01:57.489Z</time>
      </trkpt>
      <trkpt lat="45.88807" lon="-0.84191">
        <ele>2.4</ele>
        <time>2025-05-07T17:02:08.739Z</time>
      </trkpt>
      <trkpt lat="45.88798" lon="-0.84233">
        <ele>2.65</ele>
        <time>2025-05-07T17:02:19.994Z</time>
      </trkpt>
      <trkpt lat="45.8879" lon="-0.84275">
        <ele>2.9</ele>
        <time>2025-05-07T17:02:31.254Z</time>
      </trkpt>
      <trkpt lat="45.88777" lon="-0.84309">
        <ele>3.12</ele>
        <time>2025-05-07T17:02:42.518Z</time>
      </trkpt>
      <trkpt lat="45.88765" lon="-0.84342">
        <ele>3.39</ele>
        <time>2025-05-07T17:02:53.786Z</time>
      </trkpt>
      <trkpt lat="45.88752" lon="-0.84376">
        <ele>3.69</ele>
        <time>2025-05-07T17:03:05.059Z</time>
      </trkpt>
      <trkpt lat="45.8874" lon="-0.84409">
        <ele>3.99</ele>
        <time>2025-05-07T17:03:16.336Z</time>
      </trkpt>
      <trkpt lat="45.88727" lon="-0.84442">
        <ele>4.31</ele>
        <time>2025-05-07T17:03:27.617Z</time>
      </trkpt>
      <trkpt lat="45.88727" lon="-0.84442">
        <ele>4.7</ele>
        <time>2025-05-07T17:03:38.898Z</time>
      </trkpt>
      <trkpt lat="45.88719" lon="-0.84457">
        <ele>5.13</ele>
        <time>2025-05-07T17:03:50.181Z</time>
      </trkpt>
      <trkpt lat="45.88705" lon="-0.84477">
        <ele>5.61</ele>
        <time>2025-05-07T17:04:01.467Z</time>
      </trkpt>
      <trkpt lat="45.88691" lon="-0.84496">
        <ele>6.11</ele>
        <time>2025-05-07T17:04:12.756Z</time>
      </trkpt>
      <trkpt lat="45.88667" lon="-0.8452">
        <ele>6.67</ele>
        <time>2025-05-07T17:04:24.050Z</time>
      </trkpt>
      <trkpt lat="45.88643" lon="-0.84543">
        <ele>7.26</ele>
        <time>2025-05-07T17:04:35.349Z</time>
      </trkpt>
      <trkpt lat="45.88619" lon="-0.84567">
        <ele>7.86</ele>
        <time>2025-05-07T17:04:46.652Z</time>
      </trkpt>
      <trkpt lat="45.88594" lon="-0.8459">
        <ele>8.46</ele>
        <time>2025-05-07T17:04:57.960Z</time>
      </trkpt>
      <trkpt lat="45.88574" lon="-0.84621">
        <ele>9.2</ele>
        <time>2025-05-07T17:05:09.273Z</time>
      </trkpt>
      <trkpt lat="45.88554" lon="-0.84651">
        <ele>9.94</ele>
        <time>2025-05-07T17:05:20.590Z</time>
      </trkpt>
      <trkpt lat="45.88534" lon="-0.84682">
        <ele>10.71</ele>
        <time>2025-05-07T17:05:31.912Z</time>
      </trkpt>
      <trkpt lat="45.88514" lon="-0.84712">
        <ele>11.47</ele>
        <time>2025-05-07T17:05:43.239Z</time>
      </trkpt>
      <trkpt lat="45.88494" lon="-0.84743">
        <ele>12.23</ele>
        <time>2025-05-07T17:05:54.571Z</time>
      </trkpt>
      <trkpt lat="45.88474" lon="-0.84773">
        <ele>13.04</ele>
        <time>2025-05-07T17:06:05.907Z</time>
      </trkpt>
      <trkpt lat="45.88456" lon="-0.84798">
        <ele>13.87</ele>
        <time>2025-05-07T17:06:17.247Z</time>
      </trkpt>
      <trkpt lat="45.88438" lon="-0.84823">
        <ele>14.7</ele>
        <time>2025-05-07T17:06:28.591Z</time>
      </trkpt>
      <trkpt lat="45.88421" lon="-0.84848">
        <ele>15.51</ele>
        <time>2025-05-07T17:06:39.939Z</time>
      </trkpt>
      <trkpt lat="45.88398" lon="-0.84861">
        <ele>16.37</ele>
        <time>2025-05-07T17:06:51.291Z</time>
      </trkpt>
      <trkpt lat="45.88376" lon="-0.84874">
        <ele>17.22</ele>
        <time>2025-05-07T17:07:02.647Z</time>
      </trkpt>
      <trkpt lat="45.88361" lon="-0.84884">
        <ele>18.03</ele>
        <time>2025-05-07T17:07:14.006Z</time>
      </trkpt>
      <trkpt lat="45.88339" lon="-0.84917">
        <ele>18.87</ele>
        <time>2025-05-07T17:07:25.370Z</time>
      </trkpt>
      <trkpt lat="45.88318" lon="-0.84949">
        <ele>19.65</ele>
        <time>2025-05-07T17:07:36.739Z</time>
      </trkpt>
      <trkpt lat="45.88295" lon="-0.84969">
        <ele>20.36</ele>
        <time>2025-05-07T17:07:48.112Z</time>
      </trkpt>
      <trkpt lat="45.88273" lon="-0.8499">
        <ele>21.05</ele>
        <time>2025-05-07T17:07:59.489Z</time>
      </trkpt>
      <trkpt lat="45.88253" lon="-0.85013">
        <ele>21.71</ele>
        <time>2025-05-07T17:08:10.870Z</time>
      </trkpt>
      <trkpt lat="45.88234" lon="-0.85037">
        <ele>22.32</ele>
        <time>2025-05-07T17:08:22.255Z</time>
      </trkpt>
      <trkpt lat="45.88214" lon="-0.85065">
        <ele>22.9</ele>
        <time>2025-05-07T17:08:33.645Z</time>
      </trkpt>
      <trkpt lat="45.88195" lon="-0.85093">
        <ele>23.44</ele>
        <time>2025-05-07T17:08:45.039Z</time>
      </trkpt>
      <trkpt lat="45.88175" lon="-0.85121">
        <ele>23.94</ele>
        <time>2025-05-07T17:08:56.438Z</time>
      </trkpt>
      <trkpt lat="45.88155" lon="-0.85148">
        <ele>24.4</ele>
        <time>2025-05-07T17:09:07.841Z</time>
      </trkpt>
      <trkpt lat="45.88136" lon="-0.85176">
        <ele>24.88</ele>
        <time>2025-05-07T17:09:19.248Z</time>
      </trkpt>
      <trkpt lat="45.88116" lon="-0.85204">
        <ele>25.32</ele>
        <time>2025-05-07T17:09:30.660Z</time>
      </trkpt>
      <trkpt lat="45.88105" lon="-0.85223">
        <ele>25.69</ele>
        <time>2025-05-07T17:09:42.075Z</time>
      </trkpt>
      <trkpt lat="45.88097" lon="-0.85266">
        <ele>26.01</ele>
        <time>2025-05-07T17:09:53.495Z</time>
      </trkpt>
      <trkpt lat="45.88096" lon="-0.85308">
        <ele>26.25</ele>
        <time>2025-05-07T17:10:04.919Z</time>
      </trkpt>
      <trkpt lat="45.88094" lon="-0.85349">
        <ele>26.44</ele>
        <time>2025-05-07T17:10:16.348Z</time>
      </trkpt>
      <trkpt lat="45.88093" lon="-0.8539">
        <ele>26.64</ele>
        <time>2025-05-07T17:10:27.781Z</time>
      </trkpt>
      <trkpt lat="45.88092" lon="-0.85431">
        <ele>26.85</ele>
        <time>2025-05-07T17:10:39.219Z</time>
      </trkpt>
      <trkpt lat="45.88091" lon="-0.85473">
        <ele>27.01</ele>
        <time>2025-05-07T17:10:50.662Z</time>
      </trkpt>
      <trkpt lat="45.8809" lon="-0.85513">
        <ele>27.08</ele>
        <time>2025-05-07T17:11:02.109Z</time>
      </trkpt>
      <trkpt lat="45.88086" lon="-0.85546">
        <ele>27.14</ele>
        <time>2025-05-07T17:11:13.560Z</time>
      </trkpt>
      <trkpt lat="45.88082" lon="-0.8558">
        <ele>27.22</ele>
        <time>2025-05-07T17:11:25.015Z</time>
      </trkpt>
      <trkpt lat="45.88073" lon="-0.85616">
        <ele>27.27</ele>
        <time>2025-05-07T17:11:36.474Z</time>
      </trkpt>
      <trkpt lat="45.88064" lon="-0.85653">
        <ele>27.21</ele>
        <time>2025-05-07T17:11:47.937Z</time>
      </trkpt>
      <trkpt lat="45.88084" lon="-0.85672">
        <ele>27.16</ele>
        <time>2025-05-07T17:11:59.404Z</time>
      </trkpt>
      <trkpt lat="45.88071" lon="-0.8569">
        <ele>27.04</ele>
        <time>2025-05-07T17:12:10.874Z</time>
      </trkpt>
      <trkpt lat="45.88058" lon="-0.85708">
        <ele>26.91</ele>
        <time>2025-05-07T17:12:22.347Z</time>
      </trkpt>
      <trkpt lat="45.88052" lon="-0.8573">
        <ele>26.79</ele>
        <time>2025-05-07T17:12:33.823Z</time>
      </trkpt>
      <trkpt lat="45.88054" lon="-0.85751">
        <ele>26.63</ele>
        <time>2025-05-07T17:12:45.301Z</time>
      </trkpt>
      <trkpt lat="45.8806" lon="-0.85784">
        <ele>26.47</ele>
        <time>2025-05-07T17:12:56.783Z</time>
      </trkpt>
      <trkpt lat="45.88067" lon="-0.85816">
        <ele>26.35</ele>
        <time>2025-05-07T17:13:08.268Z</time>
      </trkpt>
      <trkpt lat="45.88073" lon="-0.85848">
        <ele>26.21</ele>
        <time>2025-05-07T17:13:19.757Z</time>
      </trkpt>
      <trkpt lat="45.88064" lon="-0.85856">
        <ele>26.02</ele>
        <time>2025-05-07T17:13:31.248Z</time>
      </trkpt>
      <trkpt lat="45.88044" lon="-0.85871">
        <ele>25.85</ele>
        <time>2025-05-07T17:13:42.743Z</time>
      </trkpt>
      <trkpt lat="45.88023" lon="-0.85886">
        <ele>25.65</ele>
        <time>2025-05-07T17:13:54.241Z</time>
      </trkpt>
      <trkpt lat="45.88002" lon="-0.85901">
        <ele>25.44</ele>
        <time>2025-05-07T17:14:05.743Z</time>
      </trkpt>
      <trkpt lat="45.87975" lon="-0.85919">
        <ele>25.24</ele>
        <time>2025-05-07T17:14:17.250Z</time>
      </trkpt>
      <trkpt lat="45.87948" lon="-0.85936">
        <ele>25</ele>
        <time>2025-05-07T17:14:28.762Z</time>
      </trkpt>
      <trkpt lat="45.87921" lon="-0.85953">
        <ele>24.74</ele>
        <time>2025-05-07T17:14:40.278Z</time>
      </trkpt>
      <trkpt lat="45.87894" lon="-0.85971">
        <ele>24.46</ele>
        <time>2025-05-07T17:14:51.799Z</time>
      </trkpt>
      <trkpt lat="45.87867" lon="-0.85989">
        <ele>24.2</ele>
        <time>2025-05-07T17:15:03.325Z</time>
      </trkpt>
      <trkpt lat="45.8784" lon="-0.86007">
        <ele>23.91</ele>
        <time>2025-05-07T17:15:14.856Z</time>
      </trkpt>
      <trkpt lat="45.87813" lon="-0.86025">
        <ele>23.64</ele>
        <time>2025-05-07T17:15:26.391Z</time>
      </trkpt>
      <trkpt lat="45.87785" lon="-0.86043">
        <ele>23.4</ele>
        <time>2025-05-07T17:15:37.931Z</time>
      </trkpt>
      <trkpt lat="45.87768" lon="-0.86051">
        <ele>23.14</ele>
        <time>2025-05-07T17:15:49.474Z</time>
      </trkpt>
      <trkpt lat="45.87751" lon="-0.86058">
        <ele>22.92</ele>
        <time>2025-05-07T17:16:01.020Z</time>
      </trkpt>
      <trkpt lat="45.87725" lon="-0.86065">
        <ele>22.74</ele>
        <time>2025-05-07T17:16:12.570Z</time>
      </trkpt>
      <trkpt lat="45.87702" lon="-0.8607">
        <ele>22.54</ele>
        <time>2025-05-07T17:16:24.124Z</time>
      </trkpt>
      <trkpt lat="45.87678" lon="-0.86076">
        <ele>22.35</ele>
        <time>2025-05-07T17:16:35.682Z</time>
      </trkpt>
      <trkpt lat="45.87655" lon="-0.86082">
        <ele>22.13</ele>
        <time>2025-05-07T17:16:47.244Z</time>
      </trkpt>
      <trkpt lat="45.87629" lon="-0.86088">
        <ele>21.93</ele>
        <time>2025-05-07T17:16:58.810Z</time>
      </trkpt>
      <trkpt lat="45.87603" lon="-0.86094">
        <ele>21.71</ele>
        <time>2025-05-07T17:17:10.380Z</time>
      </trkpt>
      <trkpt lat="45.87577" lon="-0.861">
        <ele>21.47</ele>
        <time>2025-05-07T17:17:21.954Z</time>
      </trkpt>
      <trkpt lat="45.87552" lon="-0.86106">
        <ele>21.23</ele>
        <time>2025-05-07T17:17:33.532Z</time>
      </trkpt>
      <trkpt lat="45.87526" lon="-0.86112">
        <ele>21.02</ele>
        <time>2025-05-07T17:17:45.114Z</time>
      </trkpt>
      <trkpt lat="45.87501" lon="-0.86128">
        <ele>20.82</ele>
        <time>2025-05-07T17:17:56.701Z</time>
      </trkpt>
      <trkpt lat="45.87477" lon="-0.86144">
        <ele>20.55</ele>
        <time>2025-05-07T17:18:08.292Z</time>
      </trkpt>
      <trkpt lat="45.87452" lon="-0.8616">
        <ele>20.27</ele>
        <time>2025-05-07T17:18:19.887Z</time>
      </trkpt>
      <trkpt lat="45.87427" lon="-0.86176">
        <ele>20.02</ele>
        <time>2025-05-07T17:18:31.487Z</time>
      </trkpt>
      <trkpt lat="45.87403" lon="-0.86193">
        <ele>19.76</ele>
        <time>2025-05-07T17:18:43.091Z</time>
      </trkpt>
      <trkpt lat="45.87379" lon="-0.86209">
        <ele>19.52</ele>
        <time>2025-05-07T17:18:54.699Z</time>
      </trkpt>
      <trkpt lat="45.87354" lon="-0.86226">
        <ele>19.3</ele>
        <time>2025-05-07T17:19:06.312Z</time>
      </trkpt>
      <trkpt lat="45.8736" lon="-0.86262">
        <ele>19.08</ele>
        <time>2025-05-07T17:19:17.929Z</time>
      </trkpt>
      <trkpt lat="45.87366" lon="-0.86298">
        <ele>18.82</ele>
        <time>2025-05-07T17:19:29.550Z</time>
      </trkpt>
      <trkpt lat="45.87372" lon="-0.86334">
        <ele>18.58</ele>
        <time>2025-05-07T17:19:41.175Z</time>
      </trkpt>
      <trkpt lat="45.87378" lon="-0.86369">
        <ele>18.37</ele>
        <time>2025-05-07T17:19:52.804Z</time>
      </trkpt>
      <trkpt lat="45.87385" lon="-0.86408">
        <ele>18.22</ele>
        <time>2025-05-07T17:20:04.438Z</time>
      </trkpt>
      <trkpt lat="45.87392" lon="-0.86447">
        <ele>18.04</ele>
        <time>2025-05-07T17:20:16.076Z</time>
      </trkpt>
      <trkpt lat="45.87399" lon="-0.86485">
        <ele>17.8</ele>
        <time>2025-05-07T17:20:27.719Z</time>
      </trkpt>
      <trkpt lat="45.87405" lon="-0.86523">
        <ele>17.59</ele>
        <time>2025-05-07T17:20:39.366Z</time>
      </trkpt>
      <trkpt lat="45.87412" lon="-0.8656">
        <ele>17.43</ele>
        <time>2025-05-07T17:20:51.017Z</time>
      </trkpt>
      <trkpt lat="45.87419" lon="-0.86589">
        <ele>17.3</ele>
        <time>2025-05-07T17:21:02.672Z</time>
      </trkpt>
      <trkpt lat="45.87425" lon="-0.86618">
        <ele>17.09</ele>
        <time>2025-05-07T17:21:14.330Z</time>
      </trkpt>
      <trkpt lat="45.87431" lon="-0.86646">
        <ele>16.83</ele>
        <time>2025-05-07T17:21:25.991Z</time>
      </trkpt>
      <trkpt lat="45.87445" lon="-0.86683">
        <ele>16.61</ele>
        <time>2025-05-07T17:21:37.657Z</time>
      </trkpt>
      <trkpt lat="45.87459" lon="-0.8672">
        <ele>16.43</ele>
        <time>2025-05-07T17:21:49.328Z</time>
      </trkpt>
      <trkpt lat="45.87473" lon="-0.86758">
        <ele>16.29</ele>
        <time>2025-05-07T17:22:01.004Z</time>
      </trkpt>
      <trkpt lat="45.87487" lon="-0.86795">
        <ele>16.11</ele>
        <time>2025-05-07T17:22:12.684Z</time>
      </trkpt>
      <trkpt lat="45.87501" lon="-0.86832">
        <ele>15.94</ele>
        <time>2025-05-07T17:22:24.369Z</time>
      </trkpt>
      <trkpt lat="45.87515" lon="-0.86869">
        <ele>15.75</ele>
        <time>2025-05-07T17:22:36.059Z</time>
      </trkpt>
      <trkpt lat="45.87529" lon="-0.86906">
        <ele>15.57</ele>
        <time>2025-05-07T17:22:47.753Z</time>
      </trkpt>
      <trkpt lat="45.87543" lon="-0.86944">
        <ele>15.43</ele>
        <time>2025-05-07T17:22:59.452Z</time>
      </trkpt>
      <trkpt lat="45.87557" lon="-0.86981">
        <ele>15.29</ele>
        <time>2025-05-07T17:23:11.156Z</time>
      </trkpt>
      <trkpt lat="45.87571" lon="-0.87017">
        <ele>15.08</ele>
        <time>2025-05-07T17:23:22.864Z</time>
      </trkpt>
      <trkpt lat="45.87585" lon="-0.87055">
        <ele>14.9</ele>
        <time>2025-05-07T17:23:34.577Z</time>
      </trkpt>
      <trkpt lat="45.87598" lon="-0.87092">
        <ele>14.74</ele>
        <time>2025-05-07T17:23:46.295Z</time>
      </trkpt>
      <trkpt lat="45.87612" lon="-0.87129">
        <ele>14.62</ele>
        <time>2025-05-07T17:23:58.018Z</time>
      </trkpt>
      <trkpt lat="45.87626" lon="-0.87168">
        <ele>14.54</ele>
        <time>2025-05-07T17:24:09.745Z</time>
      </trkpt>
      <trkpt lat="45.8764" lon="-0.87207">
        <ele>14.47</ele>
        <time>2025-05-07T17:24:21.477Z</time>
      </trkpt>
      <trkpt lat="45.87655" lon="-0.87246">
        <ele>14.4</ele>
        <time>2025-05-07T17:24:33.214Z</time>
      </trkpt>
      <trkpt lat="45.87669" lon="-0.87285">
        <ele>14.27</ele>
        <time>2025-05-07T17:24:44.956Z</time>
      </trkpt>
      <trkpt lat="45.87683" lon="-0.87324">
        <ele>14.19</ele>
        <time>2025-05-07T17:24:56.703Z</time>
      </trkpt>
      <trkpt lat="45.87698" lon="-0.87363">
        <ele>14.14</ele>
        <time>2025-05-07T17:25:08.455Z</time>
      </trkpt>
      <trkpt lat="45.87712" lon="-0.87396">
        <ele>14.1</ele>
        <time>2025-05-07T17:25:20.211Z</time>
      </trkpt>
      <trkpt lat="45.87727" lon="-0.87429">
        <ele>14.04</ele>
        <time>2025-05-07T17:25:31.972Z</time>
      </trkpt>
      <trkpt lat="45.87741" lon="-0.87463">
        <ele>13.99</ele>
        <time>2025-05-07T17:25:43.737Z</time>
      </trkpt>
      <trkpt lat="45.87755" lon="-0.87496">
        <ele>13.98</ele>
        <time>2025-05-07T17:25:55.507Z</time>
      </trkpt>
      <trkpt lat="45.87768" lon="-0.87525">
        <ele>13.96</ele>
        <time>2025-05-07T17:26:07.280Z</time>
      </trkpt>
      <trkpt lat="45.87781" lon="-0.87554">
        <ele>14.01</ele>
        <time>2025-05-07T17:26:19.057Z</time>
      </trkpt>
      <trkpt lat="45.87793" lon="-0.87587">
        <ele>14.07</ele>
        <time>2025-05-07T17:26:30.838Z</time>
      </trkpt>
      <trkpt lat="45.87804" lon="-0.87621">
        <ele>14.15</ele>
        <time>2025-05-07T17:26:42.624Z</time>
      </trkpt>
      <trkpt lat="45.87816" lon="-0.87655">
        <ele>14.2</ele>
        <time>2025-05-07T17:26:54.414Z</time>
      </trkpt>
      <trkpt lat="45.87828" lon="-0.87692">
        <ele>14.2</ele>
        <time>2025-05-07T17:27:06.208Z</time>
      </trkpt>
      <trkpt lat="45.87841" lon="-0.87729">
        <ele>14.22</ele>
        <time>2025-05-07T17:27:18.007Z</time>
      </trkpt>
      <trkpt lat="45.87854" lon="-0.87766">
        <ele>14.35</ele>
        <time>2025-05-07T17:27:29.811Z</time>
      </trkpt>
      <trkpt lat="45.87867" lon="-0.87803">
        <ele>14.48</ele>
        <time>2025-05-07T17:27:41.619Z</time>
      </trkpt>
      <trkpt lat="45.8788" lon="-0.87833">
        <ele>14.6</ele>
        <time>2025-05-07T17:27:53.431Z</time>
      </trkpt>
      <trkpt lat="45.87893" lon="-0.87864">
        <ele>14.74</ele>
        <time>2025-05-07T17:28:05.247Z</time>
      </trkpt>
      <trkpt lat="45.87906" lon="-0.87895">
        <ele>14.94</ele>
        <time>2025-05-07T17:28:17.067Z</time>
      </trkpt>
      <trkpt lat="45.87919" lon="-0.87921">
        <ele>15.1</ele>
        <time>2025-05-07T17:28:28.891Z</time>
      </trkpt>
      <trkpt lat="45.87933" lon="-0.87959">
        <ele>15.23</ele>
        <time>2025-05-07T17:28:40.720Z</time>
      </trkpt>
      <trkpt lat="45.87948" lon="-0.87997">
        <ele>15.39</ele>
        <time>2025-05-07T17:28:52.554Z</time>
      </trkpt>
      <trkpt lat="45.87963" lon="-0.88035">
        <ele>15.6</ele>
        <time>2025-05-07T17:29:04.392Z</time>
      </trkpt>
      <trkpt lat="45.87977" lon="-0.88073">
        <ele>15.83</ele>
        <time>2025-05-07T17:29:16.235Z</time>
      </trkpt>
      <trkpt lat="45.87992" lon="-0.88111">
        <ele>16.05</ele>
        <time>2025-05-07T17:29:28.083Z</time>
      </trkpt>
      <trkpt lat="45.88007" lon="-0.88148">
        <ele>16.32</ele>
        <time>2025-05-07T17:29:39.936Z</time>
      </trkpt>
      <trkpt lat="45.88019" lon="-0.88185">
        <ele>16.56</ele>
        <time>2025-05-07T17:29:51.794Z</time>
      </trkpt>
      <trkpt lat="45.88032" lon="-0.88222">
        <ele>16.75</ele>
        <time>2025-05-07T17:30:03.656Z</time>
      </trkpt>
      <trkpt lat="45.88045" lon="-0.88259">
        <ele>16.94</ele>
        <time>2025-05-07T17:30:15.523Z</time>
      </trkpt>
      <trkpt lat="45.88058" lon="-0.88296">
        <ele>17.14</ele>
        <time>2025-05-07T17:30:27.394Z</time>
      </trkpt>
      <trkpt lat="45.88068" lon="-0.8832">
        <ele>17.34</ele>
        <time>2025-05-07T17:30:39.269Z</time>
      </trkpt>
      <trkpt lat="45.88077" lon="-0.88343">
        <ele>17.51</ele>
        <time>2025-05-07T17:30:51.147Z</time>
      </trkpt>
      <trkpt lat="45.88091" lon="-0.88371">
        <ele>17.73</ele>
        <time>2025-05-07T17:31:03.028Z</time>
      </trkpt>
      <trkpt lat="45.88105" lon="-0.88399">
        <ele>17.89</ele>
        <time>2025-05-07T17:31:14.913Z</time>
      </trkpt>
      <trkpt lat="45.88114" lon="-0.88414">
        <ele>18.02</ele>
        <time>2025-05-07T17:31:26.800Z</time>
      </trkpt>
      <trkpt lat="45.88123" lon="-0.88445">
        <ele>18.16</ele>
        <time>2025-05-07T17:31:38.691Z</time>
      </trkpt>
      <trkpt lat="45.88133" lon="-0.88476">
        <ele>18.25</ele>
        <time>2025-05-07T17:31:50.586Z</time>
      </trkpt>
      <trkpt lat="45.88142" lon="-0.88514">
        <ele>18.34</ele>
        <time>2025-05-07T17:32:02.485Z</time>
      </trkpt>
      <trkpt lat="45.88152" lon="-0.88551">
        <ele>18.47</ele>
        <time>2025-05-07T17:32:14.389Z</time>
      </trkpt>
      <trkpt lat="45.88161" lon="-0.88588">
        <ele>18.58</ele>
        <time>2025-05-07T17:32:26.297Z</time>
      </trkpt>
      <trkpt lat="45.8817" lon="-0.88626">
        <ele>18.61</ele>
        <time>2025-05-07T17:32:38.210Z</time>
      </trkpt>
      <trkpt lat="45.8818" lon="-0.88663">
        <ele>18.58</ele>
        <time>2025-05-07T17:32:50.127Z</time>
      </trkpt>
      <trkpt lat="45.88189" lon="-0.887">
        <ele>18.63</ele>
        <time>2025-05-07T17:33:02.049Z</time>
      </trkpt>
      <trkpt lat="45.88198" lon="-0.88732">
        <ele>18.69</ele>
        <time>2025-05-07T17:33:13.974Z</time>
      </trkpt>
      <trkpt lat="45.88207" lon="-0.88765">
        <ele>18.68</ele>
        <time>2025-05-07T17:33:25.903Z</time>
      </trkpt>
      <trkpt lat="45.88216" lon="-0.88798">
        <ele>18.69</ele>
        <time>2025-05-07T17:33:37.836Z</time>
      </trkpt>
      <trkpt lat="45.88225" lon="-0.8883">
        <ele>18.69</ele>
        <time>2025-05-07T17:33:49.773Z</time>
      </trkpt>
      <trkpt lat="45.88236" lon="-0.88861">
        <ele>18.67</ele>
        <time>2025-05-07T17:34:01.714Z</time>
      </trkpt>
      <trkpt lat="45.88249" lon="-0.88888">
        <ele>18.64</ele>
        <time>2025-05-07T17:34:13.659Z</time>
      </trkpt>
      <trkpt lat="45.88261" lon="-0.88908">
        <ele>18.61</ele>
        <time>2025-05-07T17:34:25.607Z</time>
      </trkpt>
      <trkpt lat="45.88273" lon="-0.88927">
        <ele>18.5</ele>
        <time>2025-05-07T17:34:37.558Z</time>
      </trkpt>
      <trkpt lat="45.88292" lon="-0.88954">
        <ele>18.41</ele>
        <time>2025-05-07T17:34:49.513Z</time>
      </trkpt>
      <trkpt lat="45.88311" lon="-0.88981">
        <ele>18.27</ele>
        <time>2025-05-07T17:35:01.472Z</time>
      </trkpt>
      <trkpt lat="45.88329" lon="-0.89008">
        <ele>18.19</ele>
        <time>2025-05-07T17:35:13.435Z</time>
      </trkpt>
      <trkpt lat="45.88348" lon="-0.89034">
        <ele>18.17</ele>
        <time>2025-05-07T17:35:25.403Z</time>
      </trkpt>
      <trkpt lat="45.88367" lon="-0.89061">
        <ele>18.13</ele>
        <time>2025-05-07T17:35:37.375Z</time>
      </trkpt>
      <trkpt lat="45.88386" lon="-0.89088">
        <ele>18.11</ele>
        <time>2025-05-07T17:35:49.351Z</time>
      </trkpt>
      <trkpt lat="45.8841" lon="-0.89111">
        <ele>18.08</ele>
        <time>2025-05-07T17:36:01.332Z</time>
      </trkpt>
      <trkpt lat="45.88434" lon="-0.89134">
        <ele>18.06</ele>
        <time>2025-05-07T17:36:13.317Z</time>
      </trkpt>
      <trkpt lat="45.88457" lon="-0.89158">
        <ele>18.11</ele>
        <time>2025-05-07T17:36:25.307Z</time>
      </trkpt>
      <trkpt lat="45.88481" lon="-0.89181">
        <ele>18.14</ele>
        <time>2025-05-07T17:36:37.301Z</time>
      </trkpt>
      <trkpt lat="45.88504" lon="-0.89204">
        <ele>18.12</ele>
        <time>2025-05-07T17:36:49.300Z</time>
      </trkpt>
      <trkpt lat="45.88528" lon="-0.89227">
        <ele>18.16</ele>
        <time>2025-05-07T17:37:01.304Z</time>
      </trkpt>
      <trkpt lat="45.88549" lon="-0.89254">
        <ele>18.24</ele>
        <time>2025-05-07T17:37:13.312Z</time>
      </trkpt>
      <trkpt lat="45.88571" lon="-0.89281">
        <ele>18.44</ele>
        <time>2025-05-07T17:37:25.325Z</time>
      </trkpt>
      <trkpt lat="45.88592" lon="-0.89309">
        <ele>18.63</ele>
        <time>2025-05-07T17:37:37.342Z</time>
      </trkpt>
      <trkpt lat="45.88614" lon="-0.89336">
        <ele>18.76</ele>
        <time>2025-05-07T17:37:49.364Z</time>
      </trkpt>
      <trkpt lat="45.88635" lon="-0.89362">
        <ele>18.83</ele>
        <time>2025-05-07T17:38:01.391Z</time>
      </trkpt>
      <trkpt lat="45.88658" lon="-0.89391">
        <ele>19</ele>
        <time>2025-05-07T17:38:13.422Z</time>
      </trkpt>
      <trkpt lat="45.88681" lon="-0.8942">
        <ele>19.21</ele>
        <time>2025-05-07T17:38:25.458Z</time>
      </trkpt>
      <trkpt lat="45.88704" lon="-0.89448">
        <ele>19.46</ele>
        <time>2025-05-07T17:38:37.499Z</time>
      </trkpt>
      <trkpt lat="45.88717" lon="-0.89472">
        <ele>19.7</ele>
        <time>2025-05-07T17:38:49.543Z</time>
      </trkpt>
      <trkpt lat="45.88729" lon="-0.89502">
        <ele>19.92</ele>
        <time>2025-05-07T17:39:01.591Z</time>
      </trkpt>
      <trkpt lat="45.8874" lon="-0.89532">
        <ele>20.09</ele>
        <time>2025-05-07T17:39:13.643Z</time>
      </trkpt>
      <trkpt lat="45.88749" lon="-0.89563">
        <ele>20.26</ele>
        <time>2025-05-07T17:39:25.699Z</time>
      </trkpt>
      <trkpt lat="45.88758" lon="-0.89594">
        <ele>20.46</ele>
        <time>2025-05-07T17:39:37.759Z</time>
      </trkpt>
      <trkpt lat="45.88761" lon="-0.89619">
        <ele>20.64</ele>
        <time>2025-05-07T17:39:49.821Z</time>
      </trkpt>
      <trkpt lat="45.88764" lon="-0.89644">
        <ele>20.86</ele>
        <time>2025-05-07T17:40:01.886Z</time>
      </trkpt>
      <trkpt lat="45.88775" lon="-0.89648">
        <ele>21.04</ele>
        <time>2025-05-07T17:40:13.953Z</time>
      </trkpt>
      <trkpt lat="45.88781" lon="-0.89661">
        <ele>21.2</ele>
        <time>2025-05-07T17:40:26.022Z</time>
      </trkpt>
      <trkpt lat="45.88781" lon="-0.89667">
        <ele>21.34</ele>
        <time>2025-05-07T17:40:38.091Z</time>
      </trkpt>
      <trkpt lat="45.88777" lon="-0.89678">
        <ele>21.46</ele>
        <time>2025-05-07T17:40:50.162Z</time>
      </trkpt>
      <trkpt lat="45.8877" lon="-0.89684">
        <ele>21.55</ele>
        <time>2025-05-07T17:41:02.234Z</time>
      </trkpt>
      <trkpt lat="45.88775" lon="-0.8971">
        <ele>21.59</ele>
        <time>2025-05-07T17:41:14.309Z</time>
      </trkpt>
      <trkpt lat="45.88794" lon="-0.89736">
        <ele>21.68</ele>
        <time>2025-05-07T17:41:26.388Z</time>
      </trkpt>
      <trkpt lat="45.88814" lon="-0.89756">
        <ele>21.78</ele>
        <time>2025-05-07T17:41:38.471Z</time>
      </trkpt>
      <trkpt lat="45.88835" lon="-0.89776">
        <ele>21.9</ele>
        <time>2025-05-07T17:41:50.558Z</time>
      </trkpt>
      <trkpt lat="45.88855" lon="-0.89796">
        <ele>22.01</ele>
        <time>2025-05-07T17:42:02.649Z</time>
      </trkpt>
      <trkpt lat="45.88876" lon="-0.89815">
        <ele>22.12</ele>
        <time>2025-05-07T17:42:14.744Z</time>
      </trkpt>
      <trkpt lat="45.88901" lon="-0.89836">
        <ele>22.15</ele>
        <time>2025-05-07T17:42:26.844Z</time>
      </trkpt>
      <trkpt lat="45.88926" lon="-0.89857">
        <ele>22.21</ele>
        <time>2025-05-07T17:42:38.948Z</time>
      </trkpt>
      <trkpt lat="45.88952" lon="-0.89878">
        <ele>22.31</ele>
        <time>2025-05-07T17:42:51.057Z</time>
      </trkpt>
      <trkpt lat="45.88977" lon="-0.89899">
        <ele>22.41</ele>
        <time>2025-05-07T17:43:03.171Z</time>
      </trkpt>
      <trkpt lat="45.89003" lon="-0.8992">
        <ele>22.45</ele>
        <time>2025-05-07T17:43:15.290Z</time>
      </trkpt>
      <trkpt lat="45.89028" lon="-0.8994">
        <ele>22.48</ele>
        <time>2025-05-07T17:43:27.413Z</time>
      </trkpt>
      <trkpt lat="45.89054" lon="-0.89961">
        <ele>22.53</ele>
        <time>2025-05-07T17:43:39.541Z</time>
      </trkpt>
      <trkpt lat="45.8908" lon="-0.89984">
        <ele>22.6</ele>
        <time>2025-05-07T17:43:51.674Z</time>
      </trkpt>
      <trkpt lat="45.89106" lon="-0.90006">
        <ele>22.59</ele>
        <time>2025-05-07T17:44:03.812Z</time>
      </trkpt>
      <trkpt lat="45.89133" lon="-0.90028">
        <ele>22.61</ele>
        <time>2025-05-07T17:44:15.955Z</time>
      </trkpt>
      <trkpt lat="45.89159" lon="-0.9005">
        <ele>22.65</ele>
        <time>2025-05-07T17:44:28.103Z</time>
      </trkpt>
      <trkpt lat="45.89186" lon="-0.90073">
        <ele>22.72</ele>
        <time>2025-05-07T17:44:40.255Z</time>
      </trkpt>
      <trkpt lat="45.89212" lon="-0.90095">
        <ele>22.87</ele>
        <time>2025-05-07T17:44:52.412Z</time>
      </trkpt>
      <trkpt lat="45.89239" lon="-0.90117">
        <ele>22.96</ele>
        <time>2025-05-07T17:45:04.574Z</time>
      </trkpt>
      <trkpt lat="45.89265" lon="-0.90139">
        <ele>23.11</ele>
        <time>2025-05-07T17:45:16.741Z</time>
      </trkpt>
      <trkpt lat="45.89291" lon="-0.90162">
        <ele>23.25</ele>
        <time>2025-05-07T17:45:28.913Z</time>
      </trkpt>
      <trkpt lat="45.89318" lon="-0.90184">
        <ele>23.35</ele>
        <time>2025-05-07T17:45:41.090Z</time>
      </trkpt>
      <trkpt lat="45.89344" lon="-0.90206">
        <ele>23.44</ele>
        <time>2025-05-07T17:45:53.272Z</time>
      </trkpt>
      <trkpt lat="45.89371" lon="-0.90228">
        <ele>23.56</ele>
        <time>2025-05-07T17:46:05.459Z</time>
      </trkpt>
      <trkpt lat="45.89397" lon="-0.90251">
        <ele>23.64</ele>
        <time>2025-05-07T17:46:17.651Z</time>
      </trkpt>
      <trkpt lat="45.89424" lon="-0.90273">
        <ele>23.8</ele>
        <time>2025-05-07T17:46:29.848Z</time>
      </trkpt>
      <trkpt lat="45.8945" lon="-0.90295">
        <ele>23.96</ele>
        <time>2025-05-07T17:46:42.050Z</time>
      </trkpt>
      <trkpt lat="45.89476" lon="-0.90317">
        <ele>24.1</ele>
        <time>2025-05-07T17:46:54.256Z</time>
      </trkpt>
      <trkpt lat="45.89497" lon="-0.90336">
        <ele>24.26</ele>
        <time>2025-05-07T17:47:06.466Z</time>
      </trkpt>
      <trkpt lat="45.89518" lon="-0.90354">
        <ele>24.42</ele>
        <time>2025-05-07T17:47:18.680Z</time>
      </trkpt>
      <trkpt lat="45.89539" lon="-0.90372">
        <ele>24.58</ele>
        <time>2025-05-07T17:47:30.898Z</time>
      </trkpt>
      <trkpt lat="45.8956" lon="-0.9039">
        <ele>24.7</ele>
        <time>2025-05-07T17:47:43.120Z</time>
      </trkpt>
      <trkpt lat="45.89582" lon="-0.90421">
        <ele>24.82</ele>
        <time>2025-05-07T17:47:55.347Z</time>
      </trkpt>
      <trkpt lat="45.89603" lon="-0.90452">
        <ele>24.94</ele>
        <time>2025-05-07T17:48:07.579Z</time>
      </trkpt>
      <trkpt lat="45.89624" lon="-0.90483">
        <ele>24.99</ele>
        <time>2025-05-07T17:48:19.816Z</time>
      </trkpt>
      <trkpt lat="45.89637" lon="-0.90496">
        <ele>25.04</ele>
        <time>2025-05-07T17:48:32.055Z</time>
      </trkpt>
      <trkpt lat="45.89659" lon="-0.90506">
        <ele>25.07</ele>
        <time>2025-05-07T17:48:44.298Z</time>
      </trkpt>
      <trkpt lat="45.8968" lon="-0.90516">
        <ele>25.15</ele>
        <time>2025-05-07T17:48:56.544Z</time>
      </trkpt>
      <trkpt lat="45.89702" lon="-0.90526">
        <ele>25.2</ele>
        <time>2025-05-07T17:49:08.794Z</time>
      </trkpt>
      <trkpt lat="45.89727" lon="-0.90551">
        <ele>25.22</ele>
        <time>2025-05-07T17:49:21.049Z</time>
      </trkpt>
      <trkpt lat="45.89745" lon="-0.90582">
        <ele>25.17</ele>
        <time>2025-05-07T17:49:33.308Z</time>
      </trkpt>
      <trkpt lat="45.89763" lon="-0.90612">
        <ele>25.08</ele>
        <time>2025-05-07T17:49:45.572Z</time>
      </trkpt>
      <trkpt lat="45.8978" lon="-0.90643">
        <ele>24.94</ele>
        <time>2025-05-07T17:49:57.840Z</time>
      </trkpt>
      <trkpt lat="45.89798" lon="-0.90673">
        <ele>24.8</ele>
        <time>2025-05-07T17:50:10.113Z</time>
      </trkpt>
      <trkpt lat="45.89815" lon="-0.90704">
        <ele>24.61</ele>
        <time>2025-05-07T17:50:22.390Z</time>
      </trkpt>
      <trkpt lat="45.89815" lon="-0.90725">
        <ele>24.46</ele>
        <time>2025-05-07T17:50:34.670Z</time>
      </trkpt>
      <trkpt lat="45.89813" lon="-0.90736">
        <ele>24.26</ele>
        <time>2025-05-07T17:50:46.951Z</time>
      </trkpt>
      <trkpt lat="45.89803" lon="-0.90747">
        <ele>24.04</ele>
        <time>2025-05-07T17:50:59.234Z</time>
      </trkpt>
      <trkpt lat="45.89796" lon="-0.90762">
        <ele>23.79</ele>
        <time>2025-05-07T17:51:11.519Z</time>
      </trkpt>
      <trkpt lat="45.89794" lon="-0.90785">
        <ele>23.48</ele>
        <time>2025-05-07T17:51:23.807Z</time>
      </trkpt>
      <trkpt lat="45.89805" lon="-0.90813">
        <ele>23.12</ele>
        <time>2025-05-07T17:51:36.098Z</time>
      </trkpt>
      <trkpt lat="45.89818" lon="-0.9085">
        <ele>22.75</ele>
        <time>2025-05-07T17:51:48.394Z</time>
      </trkpt>
      <trkpt lat="45.89832" lon="-0.90887">
        <ele>22.33</ele>
        <time>2025-05-07T17:52:00.694Z</time>
      </trkpt>
      <trkpt lat="45.89846" lon="-0.90924">
        <ele>21.88</ele>
        <time>2025-05-07T17:52:12.999Z</time>
      </trkpt>
      <trkpt lat="45.8986" lon="-0.9096">
        <ele>21.41</ele>
        <time>2025-05-07T17:52:25.309Z</time>
      </trkpt>
      <trkpt lat="45.89874" lon="-0.90997">
        <ele>20.96</ele>
        <time>2025-05-07T17:52:37.623Z</time>
      </trkpt>
      <trkpt lat="45.89888" lon="-0.91034">
        <ele>20.44</ele>
        <time>2025-05-07T17:52:49.942Z</time>
      </trkpt>
      <trkpt lat="45.89902" lon="-0.91071">
        <ele>19.86</ele>
        <time>2025-05-07T17:53:02.266Z</time>
      </trkpt>
      <trkpt lat="45.89915" lon="-0.91107">
        <ele>19.24</ele>
        <time>2025-05-07T17:53:14.594Z</time>
      </trkpt>
      <trkpt lat="45.89929" lon="-0.91144">
        <ele>18.66</ele>
        <time>2025-05-07T17:53:26.927Z</time>
      </trkpt>
      <trkpt lat="45.89938" lon="-0.91174">
        <ele>18.09</ele>
        <time>2025-05-07T17:53:39.264Z</time>
      </trkpt>
      <trkpt lat="45.89948" lon="-0.91204">
        <ele>17.54</ele>
        <time>2025-05-07T17:53:51.604Z</time>
      </trkpt>
      <trkpt lat="45.89957" lon="-0.91234">
        <ele>17.02</ele>
        <time>2025-05-07T17:54:03.948Z</time>
      </trkpt>
      <trkpt lat="45.89971" lon="-0.9126">
        <ele>16.5</ele>
        <time>2025-05-07T17:54:16.296Z</time>
      </trkpt>
      <trkpt lat="45.89985" lon="-0.91285">
        <ele>15.96</ele>
        <time>2025-05-07T17:54:28.647Z</time>
      </trkpt>
      <trkpt lat="45.90004" lon="-0.91307">
        <ele>15.47</ele>
        <time>2025-05-07T17:54:41.002Z</time>
      </trkpt>
      <trkpt lat="45.90032" lon="-0.91326">
        <ele>15.04</ele>
        <time>2025-05-07T17:54:53.362Z</time>
      </trkpt>
      <trkpt lat="45.90032" lon="-0.91326">
        <ele>14.64</ele>
        <time>2025-05-07T17:55:05.722Z</time>
      </trkpt>
      <trkpt lat="45.90056" lon="-0.91337">
        <ele>13.41</ele>
        <time>2025-05-07T17:55:18.086Z</time>
      </trkpt>
      <trkpt lat="45.90081" lon="-0.91339">
        <ele>13.9</ele>
        <time>2025-05-07T17:55:30.454Z</time>
      </trkpt>
      <trkpt lat="45.90088" lon="-0.91332">
        <ele>13.59</ele>
        <time>2025-05-07T17:55:42.824Z</time>
      </trkpt>
      <trkpt lat="45.90099" lon="-0.91332">
        <ele>13.31</ele>
        <time>2025-05-07T17:55:55.195Z</time>
      </trkpt>
      <trkpt lat="45.90107" lon="-0.9135">
        <ele>13.07</ele>
        <time>2025-05-07T17:56:07.569Z</time>
      </trkpt>
      <trkpt lat="45.90103" lon="-0.91362">
        <ele>12.86</ele>
        <time>2025-05-07T17:56:19.944Z</time>
      </trkpt>
      <trkpt lat="45.90094" lon="-0.91371">
        <ele>12.68</ele>
        <time>2025-05-07T17:56:32.321Z</time>
      </trkpt>
      <trkpt lat="45.90081" lon="-0.9139">
        <ele>12.76</ele>
        <time>2025-05-07T17:56:44.701Z</time>
      </trkpt>
      <trkpt lat="45.90074" lon="-0.91428">
        <ele>12.41</ele>
        <time>2025-05-07T17:56:57.085Z</time>
      </trkpt>
      <trkpt lat="45.90066" lon="-0.91465">
        <ele>12.49</ele>
        <time>2025-05-07T17:57:09.474Z</time>
      </trkpt>
      <trkpt lat="45.90064" lon="-0.91498">
        <ele>12.43</ele>
        <time>2025-05-07T17:57:21.866Z</time>
      </trkpt>
      <trkpt lat="45.90066" lon="-0.91541">
        <ele>12.37</ele>
        <time>2025-05-07T17:57:34.263Z</time>
      </trkpt>
      <trkpt lat="45.90066" lon="-0.91541">
        <ele>12.38</ele>
        <time>2025-05-07T17:57:46.660Z</time>
      </trkpt>
      <trkpt lat="45.90073" lon="-0.91572">
        <ele>12.42</ele>
        <time>2025-05-07T17:57:59.061Z</time>
      </trkpt>
      <trkpt lat="45.90079" lon="-0.91603">
        <ele>12.57</ele>
        <time>2025-05-07T17:58:11.465Z</time>
      </trkpt>
      <trkpt lat="45.90091" lon="-0.91632">
        <ele>12.67</ele>
        <time>2025-05-07T17:58:23.873Z</time>
      </trkpt>
      <trkpt lat="45.90102" lon="-0.91662">
        <ele>12.8</ele>
        <time>2025-05-07T17:58:36.285Z</time>
      </trkpt>
      <trkpt lat="45.90114" lon="-0.91691">
        <ele>12.95</ele>
        <time>2025-05-07T17:58:48.701Z</time>
      </trkpt>
      <trkpt lat="45.90121" lon="-0.91727">
        <ele>13.08</ele>
        <time>2025-05-07T17:59:01.121Z</time>
      </trkpt>
      <trkpt lat="45.90129" lon="-0.91764">
        <ele>13.23</ele>
        <time>2025-05-07T17:59:13.545Z</time>
      </trkpt>
      <trkpt lat="45.90136" lon="-0.91799">
        <ele>13.34</ele>
        <time>2025-05-07T17:59:25.973Z</time>
      </trkpt>
      <trkpt lat="45.90144" lon="-0.91835">
        <ele>13.52</ele>
        <time>2025-05-07T17:59:38.405Z</time>
      </trkpt>
      <trkpt lat="45.90149" lon="-0.91864">
        <ele>13.59</ele>
        <time>2025-05-07T17:59:50.841Z</time>
      </trkpt>
      <trkpt lat="45.90154" lon="-0.91892">
        <ele>13.75</ele>
        <time>2025-05-07T18:00:03.280Z</time>
      </trkpt>
      <trkpt lat="45.90163" lon="-0.91925">
        <ele>13.76</ele>
        <time>2025-05-07T18:00:15.723Z</time>
      </trkpt>
      <trkpt lat="45.90172" lon="-0.91957">
        <ele>13.99</ele>
        <time>2025-05-07T18:00:28.170Z</time>
      </trkpt>
      <trkpt lat="45.9018" lon="-0.91994">
        <ele>13.94</ele>
        <time>2025-05-07T18:00:40.621Z</time>
      </trkpt>
      <trkpt lat="45.90189" lon="-0.92032">
        <ele>14.19</ele>
        <time>2025-05-07T18:00:53.077Z</time>
      </trkpt>
      <trkpt lat="45.90189" lon="-0.92053">
        <ele>14.19</ele>
        <time>2025-05-07T18:01:05.535Z</time>
      </trkpt>
      <trkpt lat="45.90187" lon="-0.92086">
        <ele>14.18</ele>
        <time>2025-05-07T18:01:17.997Z</time>
      </trkpt>
      <trkpt lat="45.90187" lon="-0.92086">
        <ele>14.16</ele>
        <time>2025-05-07T18:01:30.459Z</time>
      </trkpt>
      <trkpt lat="45.90177" lon="-0.92124">
        <ele>13.69</ele>
        <time>2025-05-07T18:01:42.925Z</time>
      </trkpt>
      <trkpt lat="45.90168" lon="-0.92162">
        <ele>13.56</ele>
        <time>2025-05-07T18:01:55.396Z</time>
      </trkpt>
      <trkpt lat="45.90159" lon="-0.92199">
        <ele>13.56</ele>
        <time>2025-05-07T18:02:07.871Z</time>
      </trkpt>
      <trkpt lat="45.90154" lon="-0.92227">
        <ele>13.36</ele>
        <time>2025-05-07T18:02:20.349Z</time>
      </trkpt>
      <trkpt lat="45.90157" lon="-0.92249">
        <ele>13.1</ele>
        <time>2025-05-07T18:02:32.830Z</time>
      </trkpt>
      <trkpt lat="45.90165" lon="-0.92277">
        <ele>12.81</ele>
        <time>2025-05-07T18:02:45.314Z</time>
      </trkpt>
      <trkpt lat="45.90169" lon="-0.92287">
        <ele>12.5</ele>
        <time>2025-05-07T18:02:57.799Z</time>
      </trkpt>
      <trkpt lat="45.90182" lon="-0.92322">
        <ele>12.14</ele>
        <time>2025-05-07T18:03:10.289Z</time>
      </trkpt>
      <trkpt lat="45.90194" lon="-0.92351">
        <ele>11.66</ele>
        <time>2025-05-07T18:03:22.783Z</time>
      </trkpt>
      <trkpt lat="45.90206" lon="-0.9238">
        <ele>11.41</ele>
        <time>2025-05-07T18:03:35.280Z</time>
      </trkpt>
      <trkpt lat="45.90206" lon="-0.9238">
        <ele>11.01</ele>
        <time>2025-05-07T18:03:47.777Z</time>
      </trkpt>
      <trkpt lat="45.90221" lon="-0.92417">
        <ele>10.48</ele>
        <time>2025-05-07T18:04:00.279Z</time>
      </trkpt>
      <trkpt lat="45.90236" lon="-0.92455">
        <ele>10.11</ele>
        <time>2025-05-07T18:04:12.786Z</time>
      </trkpt>
      <trkpt lat="45.90253" lon="-0.9248">
        <ele>9.6</ele>
        <time>2025-05-07T18:04:25.297Z</time>
      </trkpt>
      <trkpt lat="45.9027" lon="-0.92506">
        <ele>9.12</ele>
        <time>2025-05-07T18:04:37.812Z</time>
      </trkpt>
      <trkpt lat="45.90287" lon="-0.92532">
        <ele>8.63</ele>
        <time>2025-05-07T18:04:50.331Z</time>
      </trkpt>
      <trkpt lat="45.90299" lon="-0.92548">
        <ele>8.08</ele>
        <time>2025-05-07T18:05:02.853Z</time>
      </trkpt>
      <trkpt lat="45.90311" lon="-0.92564">
        <ele>7.61</ele>
        <time>2025-05-07T18:05:15.377Z</time>
      </trkpt>
      <trkpt lat="45.90322" lon="-0.92582">
        <ele>7.06</ele>
        <time>2025-05-07T18:05:27.904Z</time>
      </trkpt>
      <trkpt lat="45.90333" lon="-0.92601">
        <ele>6.57</ele>
        <time>2025-05-07T18:05:40.433Z</time>
      </trkpt>
      <trkpt lat="45.9035" lon="-0.92633">
        <ele>6.1</ele>
        <time>2025-05-07T18:05:52.967Z</time>
      </trkpt>
      <trkpt lat="45.90367" lon="-0.92665">
        <ele>5.65</ele>
        <time>2025-05-07T18:06:05.506Z</time>
      </trkpt>
      <trkpt lat="45.90371" lon="-0.92674">
        <ele>5.19</ele>
        <time>2025-05-07T18:06:18.046Z</time>
      </trkpt>
      <trkpt lat="45.90382" lon="-0.92695">
        <ele>4.72</ele>
        <time>2025-05-07T18:06:30.589Z</time>
      </trkpt>
      <trkpt lat="45.904" lon="-0.92727">
        <ele>4.32</ele>
        <time>2025-05-07T18:06:43.136Z</time>
      </trkpt>
      <trkpt lat="45.90418" lon="-0.92759">
        <ele>3.17</ele>
        <time>2025-05-07T18:06:55.688Z</time>
      </trkpt>
      <trkpt lat="45.90434" lon="-0.9279">
        <ele>3.61</ele>
        <time>2025-05-07T18:07:08.244Z</time>
      </trkpt>
      <trkpt lat="45.90449" lon="-0.92821">
        <ele>3.36</ele>
        <time>2025-05-07T18:07:20.804Z</time>
      </trkpt>
      <trkpt lat="45.90465" lon="-0.92851">
        <ele>3.09</ele>
        <time>2025-05-07T18:07:33.369Z</time>
      </trkpt>
      <trkpt lat="45.90481" lon="-0.92882">
        <ele>2.29</ele>
        <time>2025-05-07T18:07:45.938Z</time>
      </trkpt>
      <trkpt lat="45.90485" lon="-0.9289">
        <ele>2.16</ele>
        <time>2025-05-07T18:07:58.508Z</time>
      </trkpt>
      <trkpt lat="45.90487" lon="-0.92892">
        <ele>2.07</ele>
        <time>2025-05-07T18:08:11.078Z</time>
      </trkpt>
      <trkpt lat="45.90502" lon="-0.92927">
        <ele>2.07</ele>
        <time>2025-05-07T18:08:23.653Z</time>
      </trkpt>
      <trkpt lat="45.90504" lon="-0.92931">
        <ele>2.07</ele>
        <time>2025-05-07T18:08:36.229Z</time>
      </trkpt>
      <trkpt lat="45.90515" lon="-0.9295">
        <ele>2.13</ele>
        <time>2025-05-07T18:08:48.807Z</time>
      </trkpt>
      <trkpt lat="45.90526" lon="-0.92975">
        <ele>2.46</ele>
        <time>2025-05-07T18:09:01.389Z</time>
      </trkpt>
      <trkpt lat="45.90536" lon="-0.93">
        <ele>2.28</ele>
        <time>2025-05-07T18:09:13.974Z</time>
      </trkpt>
      <trkpt lat="45.90546" lon="-0.93023">
        <ele>2.62</ele>
        <time>2025-05-07T18:09:26.562Z</time>
      </trkpt>
      <trkpt lat="45.90556" lon="-0.93047">
        <ele>2.57</ele>
        <time>2025-05-07T18:09:39.153Z</time>
      </trkpt>
      <trkpt lat="45.90562" lon="-0.93073">
        <ele>2.9</ele>
        <time>2025-05-07T18:09:51.747Z</time>
      </trkpt>
      <trkpt lat="45.90569" lon="-0.93098">
        <ele>3</ele>
        <time>2025-05-07T18:10:04.344Z</time>
      </trkpt>
      <trkpt lat="45.90573" lon="-0.93133">
        <ele>3.19</ele>
        <time>2025-05-07T18:10:16.945Z</time>
      </trkpt>
      <trkpt lat="45.90576" lon="-0.93166">
        <ele>3.48</ele>
        <time>2025-05-07T18:10:29.550Z</time>
      </trkpt>
      <trkpt lat="45.90579" lon="-0.93199">
        <ele>3.86</ele>
        <time>2025-05-07T18:10:42.158Z</time>
      </trkpt>
      <trkpt lat="45.90586" lon="-0.93236">
        <ele>4.3</ele>
        <time>2025-05-07T18:10:54.771Z</time>
      </trkpt>
      <trkpt lat="45.90596" lon="-0.93268">
        <ele>4.64</ele>
        <time>2025-05-07T18:11:07.388Z</time>
      </trkpt>
      <trkpt lat="45.90614" lon="-0.93303">
        <ele>4.93</ele>
        <time>2025-05-07T18:11:20.009Z</time>
      </trkpt>
      <trkpt lat="45.90632" lon="-0.93339">
        <ele>5.37</ele>
        <time>2025-05-07T18:11:32.635Z</time>
      </trkpt>
      <trkpt lat="45.9065" lon="-0.93374">
        <ele>5.7</ele>
        <time>2025-05-07T18:11:45.266Z</time>
      </trkpt>
      <trkpt lat="45.90667" lon="-0.9341">
        <ele>6.11</ele>
        <time>2025-05-07T18:11:57.902Z</time>
      </trkpt>
      <trkpt lat="45.90676" lon="-0.93442">
        <ele>6.48</ele>
        <time>2025-05-07T18:12:10.542Z</time>
      </trkpt>
      <trkpt lat="45.90683" lon="-0.93483">
        <ele>6.7</ele>
        <time>2025-05-07T18:12:23.187Z</time>
      </trkpt>
      <trkpt lat="45.90691" lon="-0.93523">
        <ele>7.21</ele>
        <time>2025-05-07T18:12:35.836Z</time>
      </trkpt>
      <trkpt lat="45.90702" lon="-0.93561">
        <ele>7.5</ele>
        <time>2025-05-07T18:12:48.490Z</time>
      </trkpt>
      <trkpt lat="45.90714" lon="-0.93598">
        <ele>7.84</ele>
        <time>2025-05-07T18:13:01.148Z</time>
      </trkpt>
      <trkpt lat="45.90725" lon="-0.93635">
        <ele>8.37</ele>
        <time>2025-05-07T18:13:13.811Z</time>
      </trkpt>
      <trkpt lat="45.9074" lon="-0.93665">
        <ele>8.68</ele>
        <time>2025-05-07T18:13:26.478Z</time>
      </trkpt>
      <trkpt lat="45.90755" lon="-0.93696">
        <ele>9.09</ele>
        <time>2025-05-07T18:13:39.149Z</time>
      </trkpt>
      <trkpt lat="45.9077" lon="-0.93727">
        <ele>9.48</ele>
        <time>2025-05-07T18:13:51.825Z</time>
      </trkpt>
      <trkpt lat="45.90785" lon="-0.93757">
        <ele>9.93</ele>
        <time>2025-05-07T18:14:04.505Z</time>
      </trkpt>
      <trkpt lat="45.90794" lon="-0.93776">
        <ele>10.24</ele>
        <time>2025-05-07T18:14:17.187Z</time>
      </trkpt>
      <trkpt lat="45.90804" lon="-0.93815">
        <ele>10.45</ele>
        <time>2025-05-07T18:14:29.874Z</time>
      </trkpt>
      <trkpt lat="45.90813" lon="-0.93853">
        <ele>10.78</ele>
        <time>2025-05-07T18:14:42.565Z</time>
      </trkpt>
      <trkpt lat="45.90823" lon="-0.93891">
        <ele>11.09</ele>
        <time>2025-05-07T18:14:55.261Z</time>
      </trkpt>
      <trkpt lat="45.90832" lon="-0.93929">
        <ele>11.46</ele>
        <time>2025-05-07T18:15:07.961Z</time>
      </trkpt>
      <trkpt lat="45.90837" lon="-0.9395">
        <ele>11.74</ele>
        <time>2025-05-07T18:15:20.664Z</time>
      </trkpt>
      <trkpt lat="45.90841" lon="-0.93976">
        <ele>12</ele>
        <time>2025-05-07T18:15:33.370Z</time>
      </trkpt>
      <trkpt lat="45.90848" lon="-0.94018">
        <ele>12.19</ele>
        <time>2025-05-07T18:15:46.081Z</time>
      </trkpt>
      <trkpt lat="45.90854" lon="-0.9406">
        <ele>12.5</ele>
        <time>2025-05-07T18:15:58.796Z</time>
      </trkpt>
      <trkpt lat="45.90858" lon="-0.94103">
        <ele>12.69</ele>
        <time>2025-05-07T18:16:11.516Z</time>
      </trkpt>
      <trkpt lat="45.90861" lon="-0.94147">
        <ele>12.92</ele>
        <time>2025-05-07T18:16:24.241Z</time>
      </trkpt>
      <trkpt lat="45.90865" lon="-0.94191">
        <ele>13.16</ele>
        <time>2025-05-07T18:16:36.971Z</time>
      </trkpt>
      <trkpt lat="45.90872" lon="-0.94234">
        <ele>13.31</ele>
        <time>2025-05-07T18:16:49.706Z</time>
      </trkpt>
      <trkpt lat="45.90879" lon="-0.94277">
        <ele>13.48</ele>
        <time>2025-05-07T18:17:02.446Z</time>
      </trkpt>
      <trkpt lat="45.90886" lon="-0.9432">
        <ele>13.68</ele>
        <time>2025-05-07T18:17:15.191Z</time>
      </trkpt>
      <trkpt lat="45.90893" lon="-0.94362">
        <ele>13.88</ele>
        <time>2025-05-07T18:17:27.941Z</time>
      </trkpt>
      <trkpt lat="45.90895" lon="-0.94395">
        <ele>14</ele>
        <time>2025-05-07T18:17:40.694Z</time>
      </trkpt>
      <trkpt lat="45.90897" lon="-0.94427">
        <ele>14.11</ele>
        <time>2025-05-07T18:17:53.451Z</time>
      </trkpt>
      <trkpt lat="45.90899" lon="-0.94459">
        <ele>14.18</ele>
        <time>2025-05-07T18:18:06.212Z</time>
      </trkpt>
      <trkpt lat="45.90905" lon="-0.94493">
        <ele>14.24</ele>
        <time>2025-05-07T18:18:18.977Z</time>
      </trkpt>
      <trkpt lat="45.9091" lon="-0.94504">
        <ele>14.31</ele>
        <time>2025-05-07T18:18:31.743Z</time>
      </trkpt>
      <trkpt lat="45.9091" lon="-0.94517">
        <ele>14.37</ele>
        <time>2025-05-07T18:18:44.510Z</time>
      </trkpt>
      <trkpt lat="45.90912" lon="-0.94538">
        <ele>14.46</ele>
        <time>2025-05-07T18:18:57.280Z</time>
      </trkpt>
      <trkpt lat="45.90914" lon="-0.94558">
        <ele>14.46</ele>
        <time>2025-05-07T18:19:10.052Z</time>
      </trkpt>
      <trkpt lat="45.90916" lon="-0.94594">
        <ele>14.45</ele>
        <time>2025-05-07T18:19:22.828Z</time>
      </trkpt>
      <trkpt lat="45.90923" lon="-0.94631">
        <ele>14.46</ele>
        <time>2025-05-07T18:19:35.608Z</time>
      </trkpt>
      <trkpt lat="45.90929" lon="-0.94669">
        <ele>14.47</ele>
        <time>2025-05-07T18:19:48.393Z</time>
      </trkpt>
      <trkpt lat="45.90935" lon="-0.94706">
        <ele>14.39</ele>
        <time>2025-05-07T18:20:01.182Z</time>
      </trkpt>
      <trkpt lat="45.90938" lon="-0.94733">
        <ele>14.33</ele>
        <time>2025-05-07T18:20:13.974Z</time>
      </trkpt>
      <trkpt lat="45.90935" lon="-0.94774">
        <ele>14.22</ele>
        <time>2025-05-07T18:20:26.771Z</time>
      </trkpt>
      <trkpt lat="45.90931" lon="-0.94804">
        <ele>14.13</ele>
        <time>2025-05-07T18:20:39.571Z</time>
      </trkpt>
      <trkpt lat="45.90922" lon="-0.94834">
        <ele>14.18</ele>
        <time>2025-05-07T18:20:52.375Z</time>
      </trkpt>
      <trkpt lat="45.90913" lon="-0.94863">
        <ele>14.11</ele>
        <time>2025-05-07T18:21:05.182Z</time>
      </trkpt>
      <trkpt lat="45.90903" lon="-0.94892">
        <ele>13.86</ele>
        <time>2025-05-07T18:21:17.993Z</time>
      </trkpt>
      <trkpt lat="45.90899" lon="-0.94935">
        <ele>13.73</ele>
        <time>2025-05-07T18:21:30.809Z</time>
      </trkpt>
      <trkpt lat="45.90901" lon="-0.94967">
        <ele>13.57</ele>
        <time>2025-05-07T18:21:43.628Z</time>
      </trkpt>
      <trkpt lat="45.90905" lon="-0.9499">
        <ele>13.57</ele>
        <time>2025-05-07T18:21:56.450Z</time>
      </trkpt>
      <trkpt lat="45.9091" lon="-0.95012">
        <ele>13.2</ele>
        <time>2025-05-07T18:22:09.275Z</time>
      </trkpt>
      <trkpt lat="45.9091" lon="-0.95012">
        <ele>13.04</ele>
        <time>2025-05-07T18:22:22.100Z</time>
      </trkpt>
      <trkpt lat="45.90916" lon="-0.95043">
        <ele>13.08</ele>
        <time>2025-05-07T18:22:34.928Z</time>
      </trkpt>
      <trkpt lat="45.90923" lon="-0.95073">
        <ele>12.71</ele>
        <time>2025-05-07T18:22:47.760Z</time>
      </trkpt>
      <trkpt lat="45.90923" lon="-0.95115">
        <ele>12.55</ele>
        <time>2025-05-07T18:23:00.596Z</time>
      </trkpt>
      <trkpt lat="45.90914" lon="-0.95156">
        <ele>12.41</ele>
        <time>2025-05-07T18:23:13.437Z</time>
      </trkpt>
      <trkpt lat="45.90906" lon="-0.9518">
        <ele>12.44</ele>
        <time>2025-05-07T18:23:26.281Z</time>
      </trkpt>
      <trkpt lat="45.90899" lon="-0.95203">
        <ele>12.03</ele>
        <time>2025-05-07T18:23:39.128Z</time>
      </trkpt>
      <trkpt lat="45.90891" lon="-0.95242">
        <ele>12</ele>
        <time>2025-05-07T18:23:51.979Z</time>
      </trkpt>
      <trkpt lat="45.90883" lon="-0.9528">
        <ele>11.78</ele>
        <time>2025-05-07T18:24:04.835Z</time>
      </trkpt>
      <trkpt lat="45.90875" lon="-0.95318">
        <ele>11.57</ele>
        <time>2025-05-07T18:24:17.695Z</time>
      </trkpt>
      <trkpt lat="45.90867" lon="-0.95356">
        <ele>11.42</ele>
        <time>2025-05-07T18:24:30.560Z</time>
      </trkpt>
      <trkpt lat="45.90859" lon="-0.95395">
        <ele>11.23</ele>
        <time>2025-05-07T18:24:43.429Z</time>
      </trkpt>
      <trkpt lat="45.90851" lon="-0.95432">
        <ele>11</ele>
        <time>2025-05-07T18:24:56.303Z</time>
      </trkpt>
      <trkpt lat="45.90851" lon="-0.95432">
        <ele>10.8</ele>
        <time>2025-05-07T18:25:09.177Z</time>
      </trkpt>
      <trkpt lat="45.90845" lon="-0.95461">
        <ele>10.81</ele>
        <time>2025-05-07T18:25:22.054Z</time>
      </trkpt>
      <trkpt lat="45.90842" lon="-0.95489">
        <ele>10.41</ele>
        <time>2025-05-07T18:25:34.934Z</time>
      </trkpt>
      <trkpt lat="45.90839" lon="-0.95517">
        <ele>10.42</ele>
        <time>2025-05-07T18:25:47.817Z</time>
      </trkpt>
      <trkpt lat="45.90838" lon="-0.95556">
        <ele>10.07</ele>
        <time>2025-05-07T18:26:00.705Z</time>
      </trkpt>
      <trkpt lat="45.90837" lon="-0.95596">
        <ele>9.83</ele>
        <time>2025-05-07T18:26:13.597Z</time>
      </trkpt>
      <trkpt lat="45.90839" lon="-0.95633">
        <ele>9.71</ele>
        <time>2025-05-07T18:26:26.493Z</time>
      </trkpt>
      <trkpt lat="45.90841" lon="-0.95669">
        <ele>9.59</ele>
        <time>2025-05-07T18:26:39.393Z</time>
      </trkpt>
      <trkpt lat="45.90843" lon="-0.95706">
        <ele>9.46</ele>
        <time>2025-05-07T18:26:52.297Z</time>
      </trkpt>
      <trkpt lat="45.90845" lon="-0.95742">
        <ele>9.4</ele>
        <time>2025-05-07T18:27:05.206Z</time>
      </trkpt>
      <trkpt lat="45.90847" lon="-0.95766">
        <ele>9.3</ele>
        <time>2025-05-07T18:27:18.117Z</time>
      </trkpt>
      <trkpt lat="45.90847" lon="-0.95804">
        <ele>9.03</ele>
        <time>2025-05-07T18:27:31.032Z</time>
      </trkpt>
      <trkpt lat="45.90847" lon="-0.95843">
        <ele>9.11</ele>
        <time>2025-05-07T18:27:43.952Z</time>
      </trkpt>
      <trkpt lat="45.9085" lon="-0.95869">
        <ele>9.05</ele>
        <time>2025-05-07T18:27:56.875Z</time>
      </trkpt>
      <trkpt lat="45.9086" lon="-0.95896">
        <ele>9.03</ele>
        <time>2025-05-07T18:28:09.801Z</time>
      </trkpt>
      <trkpt lat="45.90876" lon="-0.95917">
        <ele>8.74</ele>
        <time>2025-05-07T18:28:22.731Z</time>
      </trkpt>
      <trkpt lat="45.90893" lon="-0.95937">
        <ele>9.08</ele>
        <time>2025-05-07T18:28:35.664Z</time>
      </trkpt>
      <trkpt lat="45.90897" lon="-0.95952">
        <ele>9.15</ele>
        <time>2025-05-07T18:28:48.599Z</time>
      </trkpt>
      <trkpt lat="45.90914" lon="-0.95959">
        <ele>9.28</ele>
        <time>2025-05-07T18:29:01.537Z</time>
      </trkpt>
      <trkpt lat="45.90938" lon="-0.95959">
        <ele>8.94</ele>
        <time>2025-05-07T18:29:14.479Z</time>
      </trkpt>
      <trkpt lat="45.90961" lon="-0.95959">
        <ele>8.97</ele>
        <time>2025-05-07T18:29:27.424Z</time>
      </trkpt>
      <trkpt lat="45.90985" lon="-0.95959">
        <ele>9.02</ele>
        <time>2025-05-07T18:29:40.373Z</time>
      </trkpt>
      <trkpt lat="45.91013" lon="-0.95966">
        <ele>9.14</ele>
        <time>2025-05-07T18:29:53.327Z</time>
      </trkpt>
      <trkpt lat="45.91041" lon="-0.95974">
        <ele>9.34</ele>
        <time>2025-05-07T18:30:06.285Z</time>
      </trkpt>
      <trkpt lat="45.91053" lon="-0.9598">
        <ele>9.51</ele>
        <time>2025-05-07T18:30:19.245Z</time>
      </trkpt>
      <trkpt lat="45.91049" lon="-0.95989">
        <ele>9.65</ele>
        <time>2025-05-07T18:30:32.207Z</time>
      </trkpt>
      <trkpt lat="45.91028" lon="-0.96008">
        <ele>9.76</ele>
        <time>2025-05-07T18:30:45.173Z</time>
      </trkpt>
      <trkpt lat="45.91015" lon="-0.96028">
        <ele>9.9</ele>
        <time>2025-05-07T18:30:58.142Z</time>
      </trkpt>
      <trkpt lat="45.91002" lon="-0.96049">
        <ele>10.06</ele>
        <time>2025-05-07T18:31:11.114Z</time>
      </trkpt>
      <trkpt lat="45.90991" lon="-0.96075">
        <ele>10.09</ele>
        <time>2025-05-07T18:31:24.089Z</time>
      </trkpt>
      <trkpt lat="45.90987" lon="-0.96102">
        <ele>10.3</ele>
        <time>2025-05-07T18:31:37.067Z</time>
      </trkpt>
      <trkpt lat="45.90989" lon="-0.96127">
        <ele>10.69</ele>
        <time>2025-05-07T18:31:50.048Z</time>
      </trkpt>
      <trkpt lat="45.90991" lon="-0.96152">
        <ele>10.68</ele>
        <time>2025-05-07T18:32:03.032Z</time>
      </trkpt>
      <trkpt lat="45.90996" lon="-0.9618">
        <ele>10.85</ele>
        <time>2025-05-07T18:32:16.019Z</time>
      </trkpt>
      <trkpt lat="45.91" lon="-0.96212">
        <ele>11.23</ele>
        <time>2025-05-07T18:32:29.010Z</time>
      </trkpt>
      <trkpt lat="45.91004" lon="-0.96244">
        <ele>11.2</ele>
        <time>2025-05-07T18:32:42.004Z</time>
      </trkpt>
      <trkpt lat="45.91007" lon="-0.96268">
        <ele>11.59</ele>
        <time>2025-05-07T18:32:55.001Z</time>
      </trkpt>
      <trkpt lat="45.91011" lon="-0.96291">
        <ele>11.58</ele>
        <time>2025-05-07T18:33:08.001Z</time>
      </trkpt>
      <trkpt lat="45.91017" lon="-0.96322">
        <ele>11.95</ele>
        <time>2025-05-07T18:33:21.004Z</time>
      </trkpt>
      <trkpt lat="45.91023" lon="-0.96354">
        <ele>11.94</ele>
        <time>2025-05-07T18:33:34.011Z</time>
      </trkpt>
      <trkpt lat="45.91027" lon="-0.96376">
        <ele>12.26</ele>
        <time>2025-05-07T18:33:47.021Z</time>
      </trkpt>
      <trkpt lat="45.9103" lon="-0.96399">
        <ele>12.24</ele>
        <time>2025-05-07T18:34:00.033Z</time>
      </trkpt>
      <trkpt lat="45.91034" lon="-0.96411">
        <ele>12.39</ele>
        <time>2025-05-07T18:34:13.047Z</time>
      </trkpt>
      <trkpt lat="45.91045" lon="-0.96438">
        <ele>12.67</ele>
        <time>2025-05-07T18:34:26.064Z</time>
      </trkpt>
      <trkpt lat="45.91056" lon="-0.96465">
        <ele>12.68</ele>
        <time>2025-05-07T18:34:39.085Z</time>
      </trkpt>
      <trkpt lat="45.9106" lon="-0.9648">
        <ele>12.86</ele>
        <time>2025-05-07T18:34:52.107Z</time>
      </trkpt>
      <trkpt lat="45.91049" lon="-0.96491">
        <ele>13.01</ele>
        <time>2025-05-07T18:35:05.132Z</time>
      </trkpt>
      <trkpt lat="45.91049" lon="-0.96497">
        <ele>13.14</ele>
        <time>2025-05-07T18:35:18.157Z</time>
      </trkpt>
      <trkpt lat="45.91053" lon="-0.96512">
        <ele>13.26</ele>
        <time>2025-05-07T18:35:31.184Z</time>
      </trkpt>
      <trkpt lat="45.9106" lon="-0.96517">
        <ele>13.34</ele>
        <time>2025-05-07T18:35:44.212Z</time>
      </trkpt>
      <trkpt lat="45.91088" lon="-0.96516">
        <ele>13.55</ele>
        <time>2025-05-07T18:35:57.245Z</time>
      </trkpt>
      <trkpt lat="45.91117" lon="-0.96515">
        <ele>13.61</ele>
        <time>2025-05-07T18:36:10.282Z</time>
      </trkpt>
      <trkpt lat="45.91145" lon="-0.96514">
        <ele>13.62</ele>
        <time>2025-05-07T18:36:23.324Z</time>
      </trkpt>
      <trkpt lat="45.91173" lon="-0.96513">
        <ele>13.58</ele>
        <time>2025-05-07T18:36:36.370Z</time>
      </trkpt>
      <trkpt lat="45.91202" lon="-0.96512">
        <ele>13.44</ele>
        <time>2025-05-07T18:36:49.421Z</time>
      </trkpt>
      <trkpt lat="45.91229" lon="-0.96514">
        <ele>13.41</ele>
        <time>2025-05-07T18:37:02.476Z</time>
      </trkpt>
      <trkpt lat="45.91257" lon="-0.96517">
        <ele>13.28</ele>
        <time>2025-05-07T18:37:15.536Z</time>
      </trkpt>
      <trkpt lat="45.91285" lon="-0.96519">
        <ele>13.08</ele>
        <time>2025-05-07T18:37:28.600Z</time>
      </trkpt>
      <trkpt lat="45.91311" lon="-0.96523">
        <ele>12.94</ele>
        <time>2025-05-07T18:37:41.669Z</time>
      </trkpt>
      <trkpt lat="45.91338" lon="-0.96527">
        <ele>12.72</ele>
        <time>2025-05-07T18:37:54.742Z</time>
      </trkpt>
      <trkpt lat="45.91364" lon="-0.96532">
        <ele>12.45</ele>
        <time>2025-05-07T18:38:07.819Z</time>
      </trkpt>
      <trkpt lat="45.9139" lon="-0.96536">
        <ele>12.16</ele>
        <time>2025-05-07T18:38:20.900Z</time>
      </trkpt>
      <trkpt lat="45.91419" lon="-0.96543">
        <ele>11.82</ele>
        <time>2025-05-07T18:38:33.986Z</time>
      </trkpt>
      <trkpt lat="45.91448" lon="-0.9655">
        <ele>11.31</ele>
        <time>2025-05-07T18:38:47.077Z</time>
      </trkpt>
      <trkpt lat="45.91476" lon="-0.96557">
        <ele>10.99</ele>
        <time>2025-05-07T18:39:00.172Z</time>
      </trkpt>
      <trkpt lat="45.915" lon="-0.96566">
        <ele>10.68</ele>
        <time>2025-05-07T18:39:13.271Z</time>
      </trkpt>
      <trkpt lat="45.91524" lon="-0.96575">
        <ele>10.28</ele>
        <time>2025-05-07T18:39:26.374Z</time>
      </trkpt>
      <trkpt lat="45.91549" lon="-0.96583">
        <ele>9.81</ele>
        <time>2025-05-07T18:39:39.481Z</time>
      </trkpt>
      <trkpt lat="45.91573" lon="-0.96592">
        <ele>9.4</ele>
        <time>2025-05-07T18:39:52.592Z</time>
      </trkpt>
      <trkpt lat="45.91573" lon="-0.96592">
        <ele>9.07</ele>
        <time>2025-05-07T18:40:05.703Z</time>
      </trkpt>
      <trkpt lat="45.91589" lon="-0.96598">
        <ele>8.81</ele>
        <time>2025-05-07T18:40:18.817Z</time>
      </trkpt>
      <trkpt lat="45.91605" lon="-0.96605">
        <ele>8.68</ele>
        <time>2025-05-07T18:40:31.933Z</time>
      </trkpt>
      <trkpt lat="45.91633" lon="-0.96617">
        <ele>8.31</ele>
        <time>2025-05-07T18:40:45.054Z</time>
      </trkpt>
      <trkpt lat="45.91661" lon="-0.9663">
        <ele>7.74</ele>
        <time>2025-05-07T18:40:58.180Z</time>
      </trkpt>
      <trkpt lat="45.91689" lon="-0.96643">
        <ele>7.28</ele>
        <time>2025-05-07T18:41:11.311Z</time>
      </trkpt>
      <trkpt lat="45.91715" lon="-0.96657">
        <ele>6.88</ele>
        <time>2025-05-07T18:41:24.446Z</time>
      </trkpt>
      <trkpt lat="45.91741" lon="-0.96671">
        <ele>6.65</ele>
        <time>2025-05-07T18:41:37.586Z</time>
      </trkpt>
      <trkpt lat="45.91767" lon="-0.96685">
        <ele>6.43</ele>
        <time>2025-05-07T18:41:50.730Z</time>
      </trkpt>
      <trkpt lat="45.91794" lon="-0.96699">
        <ele>6.32</ele>
        <time>2025-05-07T18:42:03.878Z</time>
      </trkpt>
      <trkpt lat="45.91819" lon="-0.96717">
        <ele>6.14</ele>
        <time>2025-05-07T18:42:17.031Z</time>
      </trkpt>
      <trkpt lat="45.91844" lon="-0.96734">
        <ele>5.93</ele>
        <time>2025-05-07T18:42:30.188Z</time>
      </trkpt>
      <trkpt lat="45.91868" lon="-0.96752">
        <ele>5.75</ele>
        <time>2025-05-07T18:42:43.350Z</time>
      </trkpt>
      <trkpt lat="45.91893" lon="-0.96769">
        <ele>5.56</ele>
        <time>2025-05-07T18:42:56.516Z</time>
      </trkpt>
      <trkpt lat="45.91918" lon="-0.96787">
        <ele>5.49</ele>
        <time>2025-05-07T18:43:09.687Z</time>
      </trkpt>
      <trkpt lat="45.9194" lon="-0.96806">
        <ele>5.34</ele>
        <time>2025-05-07T18:43:22.862Z</time>
      </trkpt>
      <trkpt lat="45.91963" lon="-0.96824">
        <ele>5.26</ele>
        <time>2025-05-07T18:43:36.041Z</time>
      </trkpt>
      <trkpt lat="45.91985" lon="-0.96843">
        <ele>5.09</ele>
        <time>2025-05-07T18:43:49.224Z</time>
      </trkpt>
      <trkpt lat="45.92009" lon="-0.96866">
        <ele>4.71</ele>
        <time>2025-05-07T18:44:02.412Z</time>
      </trkpt>
      <trkpt lat="45.92034" lon="-0.9689">
        <ele>4.48</ele>
        <time>2025-05-07T18:44:15.605Z</time>
      </trkpt>
      <trkpt lat="45.92059" lon="-0.96914">
        <ele>4.25</ele>
        <time>2025-05-07T18:44:28.802Z</time>
      </trkpt>
      <trkpt lat="45.92083" lon="-0.96937">
        <ele>4.15</ele>
        <time>2025-05-07T18:44:42.004Z</time>
      </trkpt>
      <trkpt lat="45.92088" lon="-0.96933">
        <ele>4.02</ele>
        <time>2025-05-07T18:44:55.207Z</time>
      </trkpt>
      <trkpt lat="45.92107" lon="-0.96954">
        <ele>3.84</ele>
        <time>2025-05-07T18:45:08.414Z</time>
      </trkpt>
      <trkpt lat="45.92125" lon="-0.96975">
        <ele>3.71</ele>
        <time>2025-05-07T18:45:21.624Z</time>
      </trkpt>
      <trkpt lat="45.92144" lon="-0.96996">
        <ele>3.55</ele>
        <time>2025-05-07T18:45:34.838Z</time>
      </trkpt>
      <trkpt lat="45.92163" lon="-0.97017">
        <ele>3.47</ele>
        <time>2025-05-07T18:45:48.056Z</time>
      </trkpt>
      <trkpt lat="45.92185" lon="-0.97043">
        <ele>3.33</ele>
        <time>2025-05-07T18:46:01.279Z</time>
      </trkpt>
      <trkpt lat="45.92208" lon="-0.9707">
        <ele>3.3</ele>
        <time>2025-05-07T18:46:14.506Z</time>
      </trkpt>
      <trkpt lat="45.92219" lon="-0.97079">
        <ele>3.24</ele>
        <time>2025-05-07T18:46:27.735Z</time>
      </trkpt>
      <trkpt lat="45.92242" lon="-0.97079">
        <ele>3.18</ele>
        <time>2025-05-07T18:46:40.968Z</time>
      </trkpt>
      <trkpt lat="45.92253" lon="-0.97072">
        <ele>3.13</ele>
        <time>2025-05-07T18:46:54.203Z</time>
      </trkpt>
      <trkpt lat="45.92272" lon="-0.97037">
        <ele>3.17</ele>
        <time>2025-05-07T18:47:07.443Z</time>
      </trkpt>
      <trkpt lat="45.92292" lon="-0.97003">
        <ele>3.19</ele>
        <time>2025-05-07T18:47:20.688Z</time>
      </trkpt>
      <trkpt lat="45.92311" lon="-0.96968">
        <ele>3.25</ele>
        <time>2025-05-07T18:47:33.938Z</time>
      </trkpt>
      <trkpt lat="45.9233" lon="-0.96933">
        <ele>3.2</ele>
        <time>2025-05-07T18:47:47.193Z</time>
      </trkpt>
      <trkpt lat="45.92337" lon="-0.96937">
        <ele>3.15</ele>
        <time>2025-05-07T18:48:00.449Z</time>
      </trkpt>
      <trkpt lat="45.92341" lon="-0.96914">
        <ele>3.37</ele>
        <time>2025-05-07T18:48:13.708Z</time>
      </trkpt>
      <trkpt lat="45.92335" lon="-0.96888">
        <ele>3.34</ele>
        <time>2025-05-07T18:48:26.970Z</time>
      </trkpt>
      <trkpt lat="45.92332" lon="-0.96866">
        <ele>3.33</ele>
        <time>2025-05-07T18:48:40.234Z</time>
      </trkpt>
      <trkpt lat="45.92337" lon="-0.96847">
        <ele>3.32</ele>
        <time>2025-05-07T18:48:53.501Z</time>
      </trkpt>
      <trkpt lat="45.92352" lon="-0.96826">
        <ele>3.3</ele>
        <time>2025-05-07T18:49:06.771Z</time>
      </trkpt>
      <trkpt lat="45.92365" lon="-0.96817">
        <ele>3.27</ele>
        <time>2025-05-07T18:49:20.043Z</time>
      </trkpt>
      <trkpt lat="45.92384" lon="-0.96815">
        <ele>3.23</ele>
        <time>2025-05-07T18:49:33.318Z</time>
      </trkpt>
      <trkpt lat="45.92403" lon="-0.96828">
        <ele>3.2</ele>
        <time>2025-05-07T18:49:46.597Z</time>
      </trkpt>
      <trkpt lat="45.92416" lon="-0.96828">
        <ele>3.24</ele>
        <time>2025-05-07T18:49:59.878Z</time>
      </trkpt>
      <trkpt lat="45.92429" lon="-0.96823">
        <ele>3.25</ele>
        <time>2025-05-07T18:50:13.161Z</time>
      </trkpt>
      <trkpt lat="45.92444" lon="-0.96812">
        <ele>3.28</ele>
        <time>2025-05-07T18:50:26.447Z</time>
      </trkpt>
      <trkpt lat="45.92459" lon="-0.968">
        <ele>3.28</ele>
        <time>2025-05-07T18:50:39.735Z</time>
      </trkpt>
      <trkpt lat="45.92459" lon="-0.968">
        <ele>3.25</ele>
        <time>2025-05-07T18:50:53.023Z</time>
      </trkpt>
      <trkpt lat="45.92485" lon="-0.96777">
        <ele>3.2</ele>
        <time>2025-05-07T18:51:06.316Z</time>
      </trkpt>
      <trkpt lat="45.9251" lon="-0.96754">
        <ele>3.1</ele>
        <time>2025-05-07T18:51:19.614Z</time>
      </trkpt>
      <trkpt lat="45.92536" lon="-0.96731">
        <ele>3.05</ele>
        <time>2025-05-07T18:51:32.917Z</time>
      </trkpt>
      <trkpt lat="45.92558" lon="-0.96711">
        <ele>3.01</ele>
        <time>2025-05-07T18:51:46.224Z</time>
      </trkpt>
      <trkpt lat="45.9258" lon="-0.96691">
        <ele>3.01</ele>
        <time>2025-05-07T18:51:59.535Z</time>
      </trkpt>
      <trkpt lat="45.92602" lon="-0.96672">
        <ele>2.96</ele>
        <time>2025-05-07T18:52:12.850Z</time>
      </trkpt>
      <trkpt lat="45.92624" lon="-0.96652">
        <ele>2.81</ele>
        <time>2025-05-07T18:52:26.170Z</time>
      </trkpt>
      <trkpt lat="45.92648" lon="-0.96631">
        <ele>2.66</ele>
        <time>2025-05-07T18:52:39.494Z</time>
      </trkpt>
      <trkpt lat="45.92672" lon="-0.96611">
        <ele>2.58</ele>
        <time>2025-05-07T18:52:52.823Z</time>
      </trkpt>
      <trkpt lat="45.92697" lon="-0.96591">
        <ele>2.48</ele>
        <time>2025-05-07T18:53:06.156Z</time>
      </trkpt>
      <trkpt lat="45.92721" lon="-0.9657">
        <ele>2.31</ele>
        <time>2025-05-07T18:53:19.494Z</time>
      </trkpt>
      <trkpt lat="45.92746" lon="-0.96548">
        <ele>2.41</ele>
        <time>2025-05-07T18:53:32.836Z</time>
      </trkpt>
      <trkpt lat="45.92771" lon="-0.96526">
        <ele>2.38</ele>
        <time>2025-05-07T18:53:46.183Z</time>
      </trkpt>
      <trkpt lat="45.92797" lon="-0.96503">
        <ele>2.33</ele>
        <time>2025-05-07T18:53:59.535Z</time>
      </trkpt>
      <trkpt lat="45.92822" lon="-0.96481">
        <ele>2.35</ele>
        <time>2025-05-07T18:54:12.892Z</time>
      </trkpt>
      <trkpt lat="45.92847" lon="-0.96459">
        <ele>2.36</ele>
        <time>2025-05-07T18:54:26.253Z</time>
      </trkpt>
      <trkpt lat="45.92865" lon="-0.96448">
        <ele>2.41</ele>
        <time>2025-05-07T18:54:39.617Z</time>
      </trkpt>
      <trkpt lat="45.92882" lon="-0.96437">
        <ele>2.48</ele>
        <time>2025-05-07T18:54:52.984Z</time>
      </trkpt>
      <trkpt lat="45.92901" lon="-0.96432">
        <ele>2.65</ele>
        <time>2025-05-07T18:55:06.354Z</time>
      </trkpt>
      <trkpt lat="45.9292" lon="-0.96426">
        <ele>2.88</ele>
        <time>2025-05-07T18:55:19.728Z</time>
      </trkpt>
      <trkpt lat="45.92939" lon="-0.96429">
        <ele>3.05</ele>
        <time>2025-05-07T18:55:33.105Z</time>
      </trkpt>
      <trkpt lat="45.92957" lon="-0.96431">
        <ele>3.12</ele>
        <time>2025-05-07T18:55:46.484Z</time>
      </trkpt>
      <trkpt lat="45.92972" lon="-0.96438">
        <ele>3.07</ele>
        <time>2025-05-07T18:55:59.866Z</time>
      </trkpt>
      <trkpt lat="45.92987" lon="-0.96446">
        <ele>3.18</ele>
        <time>2025-05-07T18:56:13.251Z</time>
      </trkpt>
      <trkpt lat="45.92993" lon="-0.9645">
        <ele>3.32</ele>
        <time>2025-05-07T18:56:26.637Z</time>
      </trkpt>
      <trkpt lat="45.92993" lon="-0.9645">
        <ele>3.47</ele>
        <time>2025-05-07T18:56:40.023Z</time>
      </trkpt>
      <trkpt lat="45.93017" lon="-0.96466">
        <ele>3.59</ele>
        <time>2025-05-07T18:56:53.413Z</time>
      </trkpt>
      <trkpt lat="45.9304" lon="-0.96482">
        <ele>3.83</ele>
        <time>2025-05-07T18:57:06.807Z</time>
      </trkpt>
      <trkpt lat="45.93054" lon="-0.96503">
        <ele>3.91</ele>
        <time>2025-05-07T18:57:20.204Z</time>
      </trkpt>
      <trkpt lat="45.93068" lon="-0.96523">
        <ele>4.11</ele>
        <time>2025-05-07T18:57:33.604Z</time>
      </trkpt>
      <trkpt lat="45.93077" lon="-0.96527">
        <ele>4.07</ele>
        <time>2025-05-07T18:57:47.006Z</time>
      </trkpt>
      <trkpt lat="45.93092" lon="-0.96534">
        <ele>4.08</ele>
        <time>2025-05-07T18:58:00.410Z</time>
      </trkpt>
      <trkpt lat="45.93098" lon="-0.96525">
        <ele>4.07</ele>
        <time>2025-05-07T18:58:13.816Z</time>
      </trkpt>
      <trkpt lat="45.93105" lon="-0.96523">
        <ele>4.04</ele>
        <time>2025-05-07T18:58:27.223Z</time>
      </trkpt>
      <trkpt lat="45.93118" lon="-0.96525">
        <ele>4.44</ele>
        <time>2025-05-07T18:58:40.632Z</time>
      </trkpt>
      <trkpt lat="45.93118" lon="-0.96525">
        <ele>4.42</ele>
        <time>2025-05-07T18:58:54.041Z</time>
      </trkpt>
      <trkpt lat="45.93126" lon="-0.9654">
        <ele>4.36</ele>
        <time>2025-05-07T18:59:07.452Z</time>
      </trkpt>
      <trkpt lat="45.93129" lon="-0.96543">
        <ele>3.99</ele>
        <time>2025-05-07T18:59:20.864Z</time>
      </trkpt>
    </trkseg>
  </trk>
</gpx>